<?xml version="1.0" encoding="UTF-8" standalone="no" ?>
<gpx xmlns="http://www.topografix.com/GPX/1/1" xmlns:xsi="http://www.w3.org/2001/XMLSchema-instance" xsi:schemaLocation="http://www.topografix.com/GPX/1/1 http://www.topografix.com/GPX/1/1/gpx.xsd" version="1.1" creator="VisuGPX - https://www.visugpx.com">
  <metadata>
    <name>gtmc j2 Laschamps Chambon</name>
    <desc><![CDATA[43 km D+ Baro = 1000m
]]></desc>
  </metadata>
  <wpt lat="45.73994" lon="2.96388">
    <ele>977.63</ele>
    <name><![CDATA[0000620]]></name>
    <type><![CDATA[Point de départ]]></type>
  </wpt>
  <wpt lat="45.57369" lon="2.925">
    <ele>883.49</ele>
    <name><![CDATA[0000621]]></name>
    <desc><![CDATA[<p><br /><h3>Nom: Segment: 1</h3><br />Heure de départ: 09:21 20 juil. 2021<br/>Heure d'arrivée: 17:51 20 juil. 2021<br/>Distance: 43,7km (08:30)<br/>Temps déplacement: 04:28<br/>Vitesse moyenne: 5,14 km/h<br/>Vitesse moyenne mouv.: 9,74 km/h<br/>Vitesse Max.: 42,64 km/h<br/>Altitude minimale: 794 m<br/>Altitude maximale: 1210 m<br/>Vitesse de montée: 257,3 m/h<br/>Vitesse de descente: -537,6 m/h<br/>Gain d'altitude: 1391 m<br/>Perte d'altitude: -1489 m<br/>Temps de montée: 05:24<br/>Temps de descente: 02:46<br/></p>]]></desc>
    <type><![CDATA[Point d'arrivée]]></type>
  </wpt>
  <trk>
    <name><![CDATA[gtmc j2]]></name>
    <desc><![CDATA[<p>Heure de départ: 09:21 20 juil. 2021<br/>Heure d'arrivée: 17:51 20 juil. 2021<br/>Distance: 43,7 km (08:30)<br/>Temps déplacement: 04:28<br/>Vitesse moyenne: 5,14 km/h<br/>Vitesse moyenne mouv.: 9,76 km/h<br/>Vitesse Max.: 42,64 km/h<br/>Altitude minimale: 794 m<br/>Altitude maximale: 1210 m<br/>Vitesse de montée: 244 m/h<br/>Vitesse de descente: -428,7 m/h<br/>Gain d'altitude: 1279 m<br/>Perte d'altitude: -1378 m<br/>Temps de montée: 05:14<br/>Temps de descente: 03:12<br/></p><hr align="center" width="480" style="height: 2px; width: 517px"/>]]></desc>
    <trkseg>
      <trkpt lat="45.73994" lon="2.96388">
        <ele>977.63</ele>
        <time>2021-07-20T07:21:14Z</time>
      </trkpt>
      <trkpt lat="45.73998" lon="2.964">
        <ele>979.48</ele>
        <time>2021-07-20T07:22:01Z</time>
      </trkpt>
      <trkpt lat="45.74005" lon="2.96409">
        <ele>987.6</ele>
        <time>2021-07-20T07:23:57Z</time>
      </trkpt>
      <trkpt lat="45.74009" lon="2.96423">
        <ele>989.54</ele>
        <time>2021-07-20T07:25:45Z</time>
      </trkpt>
      <trkpt lat="45.7401" lon="2.9644">
        <ele>988.75</ele>
        <time>2021-07-20T07:25:50Z</time>
      </trkpt>
      <trkpt lat="45.7402" lon="2.96448">
        <ele>988.21</ele>
        <time>2021-07-20T07:25:53Z</time>
      </trkpt>
      <trkpt lat="45.74033" lon="2.96453">
        <ele>988.33</ele>
        <time>2021-07-20T07:25:56Z</time>
      </trkpt>
      <trkpt lat="45.74044" lon="2.96458">
        <ele>987.83</ele>
        <time>2021-07-20T07:25:59Z</time>
      </trkpt>
      <trkpt lat="45.74054" lon="2.96462">
        <ele>986.23</ele>
        <time>2021-07-20T07:26:02Z</time>
      </trkpt>
      <trkpt lat="45.74063" lon="2.96466">
        <ele>984.71</ele>
        <time>2021-07-20T07:26:05Z</time>
      </trkpt>
      <trkpt lat="45.74074" lon="2.9647">
        <ele>984.73</ele>
        <time>2021-07-20T07:26:09Z</time>
      </trkpt>
      <trkpt lat="45.74082" lon="2.96476">
        <ele>983.92</ele>
        <time>2021-07-20T07:26:13Z</time>
      </trkpt>
      <trkpt lat="45.7409" lon="2.96484">
        <ele>982.27</ele>
        <time>2021-07-20T07:26:18Z</time>
      </trkpt>
      <trkpt lat="45.74086" lon="2.96497">
        <ele>983.11</ele>
        <time>2021-07-20T07:26:22Z</time>
      </trkpt>
      <trkpt lat="45.7408" lon="2.96507">
        <ele>982.79</ele>
        <time>2021-07-20T07:26:26Z</time>
      </trkpt>
      <trkpt lat="45.74072" lon="2.96515">
        <ele>981.83</ele>
        <time>2021-07-20T07:26:45Z</time>
      </trkpt>
      <trkpt lat="45.74063" lon="2.96523">
        <ele>980.82</ele>
        <time>2021-07-20T07:26:49Z</time>
      </trkpt>
      <trkpt lat="45.74057" lon="2.96534">
        <ele>978.64</ele>
        <time>2021-07-20T07:26:52Z</time>
      </trkpt>
      <trkpt lat="45.74052" lon="2.96547">
        <ele>977.19</ele>
        <time>2021-07-20T07:26:55Z</time>
      </trkpt>
      <trkpt lat="45.74046" lon="2.96561">
        <ele>977.63</ele>
        <time>2021-07-20T07:26:58Z</time>
      </trkpt>
      <trkpt lat="45.7404" lon="2.96576">
        <ele>978.33</ele>
        <time>2021-07-20T07:27:01Z</time>
      </trkpt>
      <trkpt lat="45.74034" lon="2.96591">
        <ele>979.55</ele>
        <time>2021-07-20T07:27:04Z</time>
      </trkpt>
      <trkpt lat="45.74029" lon="2.96603">
        <ele>979.12</ele>
        <time>2021-07-20T07:27:07Z</time>
      </trkpt>
      <trkpt lat="45.74025" lon="2.96616">
        <ele>979.68</ele>
        <time>2021-07-20T07:27:11Z</time>
      </trkpt>
      <trkpt lat="45.74016" lon="2.96621">
        <ele>975.42</ele>
        <time>2021-07-20T07:27:38Z</time>
      </trkpt>
      <trkpt lat="45.74005" lon="2.96618">
        <ele>978.12</ele>
        <time>2021-07-20T07:27:44Z</time>
      </trkpt>
      <trkpt lat="45.73996" lon="2.96617">
        <ele>980.47</ele>
        <time>2021-07-20T07:27:48Z</time>
      </trkpt>
      <trkpt lat="45.73986" lon="2.96612">
        <ele>982.17</ele>
        <time>2021-07-20T07:27:53Z</time>
      </trkpt>
      <trkpt lat="45.73976" lon="2.96612">
        <ele>982.46</ele>
        <time>2021-07-20T07:27:58Z</time>
      </trkpt>
      <trkpt lat="45.73966" lon="2.9661">
        <ele>984.12</ele>
        <time>2021-07-20T07:28:04Z</time>
      </trkpt>
      <trkpt lat="45.73958" lon="2.96603">
        <ele>986.68</ele>
        <time>2021-07-20T07:28:11Z</time>
      </trkpt>
      <trkpt lat="45.73949" lon="2.96598">
        <ele>990.58</ele>
        <time>2021-07-20T07:28:20Z</time>
      </trkpt>
      <trkpt lat="45.73938" lon="2.96596">
        <ele>989.85</ele>
        <time>2021-07-20T07:28:27Z</time>
      </trkpt>
      <trkpt lat="45.73928" lon="2.96594">
        <ele>992.14</ele>
        <time>2021-07-20T07:28:35Z</time>
      </trkpt>
      <trkpt lat="45.73919" lon="2.96595">
        <ele>994.39</ele>
        <time>2021-07-20T07:28:43Z</time>
      </trkpt>
      <trkpt lat="45.73909" lon="2.96599">
        <ele>996.5</ele>
        <time>2021-07-20T07:28:52Z</time>
      </trkpt>
      <trkpt lat="45.73898" lon="2.96595">
        <ele>995.14</ele>
        <time>2021-07-20T07:28:59Z</time>
      </trkpt>
      <trkpt lat="45.73888" lon="2.96591">
        <ele>992.58</ele>
        <time>2021-07-20T07:29:04Z</time>
      </trkpt>
      <trkpt lat="45.73877" lon="2.96589">
        <ele>992.45</ele>
        <time>2021-07-20T07:29:09Z</time>
      </trkpt>
      <trkpt lat="45.73867" lon="2.96587">
        <ele>995.54</ele>
        <time>2021-07-20T07:29:13Z</time>
      </trkpt>
      <trkpt lat="45.73857" lon="2.96583">
        <ele>995.16</ele>
        <time>2021-07-20T07:29:17Z</time>
      </trkpt>
      <trkpt lat="45.73847" lon="2.96581">
        <ele>995.3</ele>
        <time>2021-07-20T07:29:21Z</time>
      </trkpt>
      <trkpt lat="45.73836" lon="2.96579">
        <ele>994.62</ele>
        <time>2021-07-20T07:29:26Z</time>
      </trkpt>
      <trkpt lat="45.73826" lon="2.96575">
        <ele>997.57</ele>
        <time>2021-07-20T07:29:31Z</time>
      </trkpt>
      <trkpt lat="45.73816" lon="2.96568">
        <ele>995.84</ele>
        <time>2021-07-20T07:29:35Z</time>
      </trkpt>
      <trkpt lat="45.73808" lon="2.96563">
        <ele>996.37</ele>
        <time>2021-07-20T07:29:39Z</time>
      </trkpt>
      <trkpt lat="45.73798" lon="2.96558">
        <ele>997.03</ele>
        <time>2021-07-20T07:29:43Z</time>
      </trkpt>
      <trkpt lat="45.7379" lon="2.96553">
        <ele>997.42</ele>
        <time>2021-07-20T07:29:47Z</time>
      </trkpt>
      <trkpt lat="45.73781" lon="2.96546">
        <ele>997.19</ele>
        <time>2021-07-20T07:29:51Z</time>
      </trkpt>
      <trkpt lat="45.73772" lon="2.96534">
        <ele>993.7</ele>
        <time>2021-07-20T07:29:56Z</time>
      </trkpt>
      <trkpt lat="45.73763" lon="2.96525">
        <ele>995.12</ele>
        <time>2021-07-20T07:30:00Z</time>
      </trkpt>
      <trkpt lat="45.73754" lon="2.96517">
        <ele>996.06</ele>
        <time>2021-07-20T07:30:05Z</time>
      </trkpt>
      <trkpt lat="45.73744" lon="2.96511">
        <ele>997.53</ele>
        <time>2021-07-20T07:30:09Z</time>
      </trkpt>
      <trkpt lat="45.73735" lon="2.96507">
        <ele>998.22</ele>
        <time>2021-07-20T07:30:13Z</time>
      </trkpt>
      <trkpt lat="45.73725" lon="2.96501">
        <ele>999.25</ele>
        <time>2021-07-20T07:30:17Z</time>
      </trkpt>
      <trkpt lat="45.73714" lon="2.96497">
        <ele>999.6</ele>
        <time>2021-07-20T07:30:22Z</time>
      </trkpt>
      <trkpt lat="45.73706" lon="2.96491">
        <ele>1000</ele>
        <time>2021-07-20T07:30:26Z</time>
      </trkpt>
      <trkpt lat="45.73696" lon="2.96484">
        <ele>1002.13</ele>
        <time>2021-07-20T07:30:30Z</time>
      </trkpt>
      <trkpt lat="45.73687" lon="2.96477">
        <ele>1003.27</ele>
        <time>2021-07-20T07:30:34Z</time>
      </trkpt>
      <trkpt lat="45.73676" lon="2.96472">
        <ele>1003.38</ele>
        <time>2021-07-20T07:30:38Z</time>
      </trkpt>
      <trkpt lat="45.73665" lon="2.96468">
        <ele>1004.45</ele>
        <time>2021-07-20T07:30:42Z</time>
      </trkpt>
      <trkpt lat="45.73656" lon="2.96463">
        <ele>1000.79</ele>
        <time>2021-07-20T07:30:45Z</time>
      </trkpt>
      <trkpt lat="45.73646" lon="2.96455">
        <ele>1001.92</ele>
        <time>2021-07-20T07:30:49Z</time>
      </trkpt>
      <trkpt lat="45.73636" lon="2.96447">
        <ele>1001.05</ele>
        <time>2021-07-20T07:30:53Z</time>
      </trkpt>
      <trkpt lat="45.73627" lon="2.96441">
        <ele>999.78</ele>
        <time>2021-07-20T07:30:56Z</time>
      </trkpt>
      <trkpt lat="45.73619" lon="2.96436">
        <ele>1000.99</ele>
        <time>2021-07-20T07:30:59Z</time>
      </trkpt>
      <trkpt lat="45.73608" lon="2.9643">
        <ele>1001.75</ele>
        <time>2021-07-20T07:31:03Z</time>
      </trkpt>
      <trkpt lat="45.736" lon="2.96425">
        <ele>1001.18</ele>
        <time>2021-07-20T07:31:06Z</time>
      </trkpt>
      <trkpt lat="45.7359" lon="2.96418">
        <ele>1001.76</ele>
        <time>2021-07-20T07:31:10Z</time>
      </trkpt>
      <trkpt lat="45.73582" lon="2.9641">
        <ele>1000.42</ele>
        <time>2021-07-20T07:31:14Z</time>
      </trkpt>
      <trkpt lat="45.73571" lon="2.96404">
        <ele>1000.13</ele>
        <time>2021-07-20T07:31:18Z</time>
      </trkpt>
      <trkpt lat="45.73562" lon="2.96397">
        <ele>1000.18</ele>
        <time>2021-07-20T07:31:22Z</time>
      </trkpt>
      <trkpt lat="45.73552" lon="2.96392">
        <ele>1002.07</ele>
        <time>2021-07-20T07:31:26Z</time>
      </trkpt>
      <trkpt lat="45.73542" lon="2.96388">
        <ele>1003.51</ele>
        <time>2021-07-20T07:31:30Z</time>
      </trkpt>
      <trkpt lat="45.73532" lon="2.96384">
        <ele>1003.65</ele>
        <time>2021-07-20T07:31:34Z</time>
      </trkpt>
      <trkpt lat="45.73522" lon="2.96379">
        <ele>1002.83</ele>
        <time>2021-07-20T07:31:38Z</time>
      </trkpt>
      <trkpt lat="45.73511" lon="2.96371">
        <ele>1002.81</ele>
        <time>2021-07-20T07:31:42Z</time>
      </trkpt>
      <trkpt lat="45.735" lon="2.96366">
        <ele>1002.13</ele>
        <time>2021-07-20T07:31:46Z</time>
      </trkpt>
      <trkpt lat="45.73488" lon="2.96363">
        <ele>1004.25</ele>
        <time>2021-07-20T07:31:50Z</time>
      </trkpt>
      <trkpt lat="45.73478" lon="2.9636">
        <ele>1001.03</ele>
        <time>2021-07-20T07:31:53Z</time>
      </trkpt>
      <trkpt lat="45.73466" lon="2.96356">
        <ele>1001.44</ele>
        <time>2021-07-20T07:31:57Z</time>
      </trkpt>
      <trkpt lat="45.73455" lon="2.9635">
        <ele>1002.35</ele>
        <time>2021-07-20T07:32:00Z</time>
      </trkpt>
      <trkpt lat="45.73445" lon="2.96345">
        <ele>1001.15</ele>
        <time>2021-07-20T07:32:04Z</time>
      </trkpt>
      <trkpt lat="45.73435" lon="2.96341">
        <ele>1001.66</ele>
        <time>2021-07-20T07:32:07Z</time>
      </trkpt>
      <trkpt lat="45.73425" lon="2.96334">
        <ele>997.29</ele>
        <time>2021-07-20T07:32:10Z</time>
      </trkpt>
      <trkpt lat="45.73414" lon="2.96329">
        <ele>996.77</ele>
        <time>2021-07-20T07:32:13Z</time>
      </trkpt>
      <trkpt lat="45.73403" lon="2.96325">
        <ele>994.49</ele>
        <time>2021-07-20T07:32:16Z</time>
      </trkpt>
      <trkpt lat="45.73387" lon="2.96319">
        <ele>994.6</ele>
        <time>2021-07-20T07:32:19Z</time>
      </trkpt>
      <trkpt lat="45.73377" lon="2.96315">
        <ele>996.68</ele>
        <time>2021-07-20T07:32:22Z</time>
      </trkpt>
      <trkpt lat="45.73367" lon="2.96312">
        <ele>995.44</ele>
        <time>2021-07-20T07:32:25Z</time>
      </trkpt>
      <trkpt lat="45.73355" lon="2.96307">
        <ele>992.08</ele>
        <time>2021-07-20T07:32:29Z</time>
      </trkpt>
      <trkpt lat="45.73346" lon="2.96304">
        <ele>992.77</ele>
        <time>2021-07-20T07:32:33Z</time>
      </trkpt>
      <trkpt lat="45.73337" lon="2.96299">
        <ele>997.02</ele>
        <time>2021-07-20T07:32:37Z</time>
      </trkpt>
      <trkpt lat="45.73327" lon="2.96292">
        <ele>997.83</ele>
        <time>2021-07-20T07:32:41Z</time>
      </trkpt>
      <trkpt lat="45.73317" lon="2.9629">
        <ele>999.98</ele>
        <time>2021-07-20T07:32:45Z</time>
      </trkpt>
      <trkpt lat="45.73307" lon="2.96284">
        <ele>1005.53</ele>
        <time>2021-07-20T07:32:49Z</time>
      </trkpt>
      <trkpt lat="45.73298" lon="2.96279">
        <ele>1002.55</ele>
        <time>2021-07-20T07:32:53Z</time>
      </trkpt>
      <trkpt lat="45.73288" lon="2.96273">
        <ele>1002.37</ele>
        <time>2021-07-20T07:32:57Z</time>
      </trkpt>
      <trkpt lat="45.73278" lon="2.96267">
        <ele>1003.48</ele>
        <time>2021-07-20T07:33:01Z</time>
      </trkpt>
      <trkpt lat="45.73269" lon="2.96261">
        <ele>1007.17</ele>
        <time>2021-07-20T07:33:05Z</time>
      </trkpt>
      <trkpt lat="45.7326" lon="2.96254">
        <ele>1007.53</ele>
        <time>2021-07-20T07:33:09Z</time>
      </trkpt>
      <trkpt lat="45.7325" lon="2.96248">
        <ele>1007.14</ele>
        <time>2021-07-20T07:33:13Z</time>
      </trkpt>
      <trkpt lat="45.73242" lon="2.96241">
        <ele>1006.22</ele>
        <time>2021-07-20T07:33:17Z</time>
      </trkpt>
      <trkpt lat="45.73233" lon="2.96235">
        <ele>1005.01</ele>
        <time>2021-07-20T07:33:21Z</time>
      </trkpt>
      <trkpt lat="45.73225" lon="2.96223">
        <ele>1002.01</ele>
        <time>2021-07-20T07:33:25Z</time>
      </trkpt>
      <trkpt lat="45.73216" lon="2.96216">
        <ele>1002.43</ele>
        <time>2021-07-20T07:33:29Z</time>
      </trkpt>
      <trkpt lat="45.73207" lon="2.96211">
        <ele>1006.44</ele>
        <time>2021-07-20T07:33:33Z</time>
      </trkpt>
      <trkpt lat="45.73197" lon="2.96206">
        <ele>1007.16</ele>
        <time>2021-07-20T07:33:37Z</time>
      </trkpt>
      <trkpt lat="45.73188" lon="2.96202">
        <ele>1008.53</ele>
        <time>2021-07-20T07:33:41Z</time>
      </trkpt>
      <trkpt lat="45.73179" lon="2.96196">
        <ele>1007.2</ele>
        <time>2021-07-20T07:33:46Z</time>
      </trkpt>
      <trkpt lat="45.73169" lon="2.96189">
        <ele>1007.15</ele>
        <time>2021-07-20T07:33:51Z</time>
      </trkpt>
      <trkpt lat="45.73159" lon="2.96183">
        <ele>1006.75</ele>
        <time>2021-07-20T07:33:56Z</time>
      </trkpt>
      <trkpt lat="45.73151" lon="2.96177">
        <ele>1007.5</ele>
        <time>2021-07-20T07:34:00Z</time>
      </trkpt>
      <trkpt lat="45.73143" lon="2.9617">
        <ele>1009.69</ele>
        <time>2021-07-20T07:34:04Z</time>
      </trkpt>
      <trkpt lat="45.73133" lon="2.96166">
        <ele>1010.84</ele>
        <time>2021-07-20T07:34:09Z</time>
      </trkpt>
      <trkpt lat="45.73123" lon="2.96162">
        <ele>1012.54</ele>
        <time>2021-07-20T07:34:15Z</time>
      </trkpt>
      <trkpt lat="45.73113" lon="2.96158">
        <ele>1009.81</ele>
        <time>2021-07-20T07:34:20Z</time>
      </trkpt>
      <trkpt lat="45.73103" lon="2.96154">
        <ele>1010.53</ele>
        <time>2021-07-20T07:34:26Z</time>
      </trkpt>
      <trkpt lat="45.73093" lon="2.96149">
        <ele>1009.51</ele>
        <time>2021-07-20T07:34:32Z</time>
      </trkpt>
      <trkpt lat="45.73083" lon="2.96145">
        <ele>1011.49</ele>
        <time>2021-07-20T07:34:38Z</time>
      </trkpt>
      <trkpt lat="45.73074" lon="2.96141">
        <ele>1014.04</ele>
        <time>2021-07-20T07:34:44Z</time>
      </trkpt>
      <trkpt lat="45.73065" lon="2.96137">
        <ele>1017.86</ele>
        <time>2021-07-20T07:34:50Z</time>
      </trkpt>
      <trkpt lat="45.73057" lon="2.9613">
        <ele>1012.72</ele>
        <time>2021-07-20T07:34:58Z</time>
      </trkpt>
      <trkpt lat="45.73047" lon="2.96125">
        <ele>1013.68</ele>
        <time>2021-07-20T07:35:04Z</time>
      </trkpt>
      <trkpt lat="45.73039" lon="2.96117">
        <ele>1019.24</ele>
        <time>2021-07-20T07:35:13Z</time>
      </trkpt>
      <trkpt lat="45.73031" lon="2.96108">
        <ele>1021.84</ele>
        <time>2021-07-20T07:35:22Z</time>
      </trkpt>
      <trkpt lat="45.73024" lon="2.96099">
        <ele>1023.55</ele>
        <time>2021-07-20T07:35:30Z</time>
      </trkpt>
      <trkpt lat="45.73018" lon="2.96089">
        <ele>1025.29</ele>
        <time>2021-07-20T07:35:37Z</time>
      </trkpt>
      <trkpt lat="45.73009" lon="2.96081">
        <ele>1022.25</ele>
        <time>2021-07-20T07:35:44Z</time>
      </trkpt>
      <trkpt lat="45.73002" lon="2.96071">
        <ele>1020.15</ele>
        <time>2021-07-20T07:35:50Z</time>
      </trkpt>
      <trkpt lat="45.72997" lon="2.96059">
        <ele>1022.95</ele>
        <time>2021-07-20T07:35:56Z</time>
      </trkpt>
      <trkpt lat="45.72999" lon="2.96046">
        <ele>1027.98</ele>
        <time>2021-07-20T07:36:02Z</time>
      </trkpt>
      <trkpt lat="45.72994" lon="2.96033">
        <ele>1036.63</ele>
        <time>2021-07-20T07:36:11Z</time>
      </trkpt>
      <trkpt lat="45.7299" lon="2.96021">
        <ele>1039.58</ele>
        <time>2021-07-20T07:36:19Z</time>
      </trkpt>
      <trkpt lat="45.72985" lon="2.96008">
        <ele>1036.21</ele>
        <time>2021-07-20T07:36:29Z</time>
      </trkpt>
      <trkpt lat="45.72979" lon="2.95997">
        <ele>1032.33</ele>
        <time>2021-07-20T07:36:34Z</time>
      </trkpt>
      <trkpt lat="45.72971" lon="2.95991">
        <ele>1033.84</ele>
        <time>2021-07-20T07:36:43Z</time>
      </trkpt>
      <trkpt lat="45.72962" lon="2.95987">
        <ele>1040.73</ele>
        <time>2021-07-20T07:36:57Z</time>
      </trkpt>
      <trkpt lat="45.72953" lon="2.95979">
        <ele>1040.05</ele>
        <time>2021-07-20T07:37:11Z</time>
      </trkpt>
      <trkpt lat="45.72945" lon="2.9597">
        <ele>1035.86</ele>
        <time>2021-07-20T07:37:19Z</time>
      </trkpt>
      <trkpt lat="45.72939" lon="2.9596">
        <ele>1042.7</ele>
        <time>2021-07-20T07:37:24Z</time>
      </trkpt>
      <trkpt lat="45.7293" lon="2.95955">
        <ele>1041.2</ele>
        <time>2021-07-20T07:37:30Z</time>
      </trkpt>
      <trkpt lat="45.72922" lon="2.95949">
        <ele>1044.09</ele>
        <time>2021-07-20T07:37:35Z</time>
      </trkpt>
      <trkpt lat="45.72913" lon="2.95942">
        <ele>1044.88</ele>
        <time>2021-07-20T07:37:40Z</time>
      </trkpt>
      <trkpt lat="45.72906" lon="2.95934">
        <ele>1045.64</ele>
        <time>2021-07-20T07:37:46Z</time>
      </trkpt>
      <trkpt lat="45.72898" lon="2.95925">
        <ele>1038.28</ele>
        <time>2021-07-20T07:37:55Z</time>
      </trkpt>
      <trkpt lat="45.7289" lon="2.95917">
        <ele>1037.3</ele>
        <time>2021-07-20T07:38:04Z</time>
      </trkpt>
      <trkpt lat="45.72882" lon="2.95907">
        <ele>1034.92</ele>
        <time>2021-07-20T07:38:12Z</time>
      </trkpt>
      <trkpt lat="45.72876" lon="2.95898">
        <ele>1036.41</ele>
        <time>2021-07-20T07:38:19Z</time>
      </trkpt>
      <trkpt lat="45.72868" lon="2.9589">
        <ele>1037.47</ele>
        <time>2021-07-20T07:38:24Z</time>
      </trkpt>
      <trkpt lat="45.72861" lon="2.95881">
        <ele>1042.62</ele>
        <time>2021-07-20T07:38:31Z</time>
      </trkpt>
      <trkpt lat="45.72855" lon="2.95871">
        <ele>1045.09</ele>
        <time>2021-07-20T07:38:38Z</time>
      </trkpt>
      <trkpt lat="45.72848" lon="2.95861">
        <ele>1047.44</ele>
        <time>2021-07-20T07:38:46Z</time>
      </trkpt>
      <trkpt lat="45.72845" lon="2.95848">
        <ele>1056.91</ele>
        <time>2021-07-20T07:38:54Z</time>
      </trkpt>
      <trkpt lat="45.72841" lon="2.95835">
        <ele>1055.89</ele>
        <time>2021-07-20T07:39:00Z</time>
      </trkpt>
      <trkpt lat="45.72835" lon="2.95824">
        <ele>1057.37</ele>
        <time>2021-07-20T07:39:08Z</time>
      </trkpt>
      <trkpt lat="45.72831" lon="2.95812">
        <ele>1055.6</ele>
        <time>2021-07-20T07:39:13Z</time>
      </trkpt>
      <trkpt lat="45.72827" lon="2.958">
        <ele>1056.61</ele>
        <time>2021-07-20T07:39:19Z</time>
      </trkpt>
      <trkpt lat="45.72821" lon="2.9579">
        <ele>1058.94</ele>
        <time>2021-07-20T07:39:29Z</time>
      </trkpt>
      <trkpt lat="45.72812" lon="2.95783">
        <ele>1062.13</ele>
        <time>2021-07-20T07:39:35Z</time>
      </trkpt>
      <trkpt lat="45.72805" lon="2.95773">
        <ele>1062.32</ele>
        <time>2021-07-20T07:39:41Z</time>
      </trkpt>
      <trkpt lat="45.72799" lon="2.95761">
        <ele>1063.22</ele>
        <time>2021-07-20T07:39:49Z</time>
      </trkpt>
      <trkpt lat="45.72791" lon="2.95753">
        <ele>1062.91</ele>
        <time>2021-07-20T07:39:55Z</time>
      </trkpt>
      <trkpt lat="45.72786" lon="2.9574">
        <ele>1063.28</ele>
        <time>2021-07-20T07:40:03Z</time>
      </trkpt>
      <trkpt lat="45.72779" lon="2.95731">
        <ele>1063.7</ele>
        <time>2021-07-20T07:40:09Z</time>
      </trkpt>
      <trkpt lat="45.72772" lon="2.95722">
        <ele>1061.92</ele>
        <time>2021-07-20T07:40:14Z</time>
      </trkpt>
      <trkpt lat="45.72762" lon="2.95715">
        <ele>1059.71</ele>
        <time>2021-07-20T07:40:20Z</time>
      </trkpt>
      <trkpt lat="45.72758" lon="2.95703">
        <ele>1064.3</ele>
        <time>2021-07-20T07:44:35Z</time>
      </trkpt>
      <trkpt lat="45.7275" lon="2.95692">
        <ele>1065.37</ele>
        <time>2021-07-20T07:44:41Z</time>
      </trkpt>
      <trkpt lat="45.72741" lon="2.95682">
        <ele>1060.34</ele>
        <time>2021-07-20T07:44:47Z</time>
      </trkpt>
      <trkpt lat="45.72733" lon="2.95674">
        <ele>1059.32</ele>
        <time>2021-07-20T07:44:51Z</time>
      </trkpt>
      <trkpt lat="45.72726" lon="2.95664">
        <ele>1059.99</ele>
        <time>2021-07-20T07:44:55Z</time>
      </trkpt>
      <trkpt lat="45.7272" lon="2.95653">
        <ele>1058.9</ele>
        <time>2021-07-20T07:44:59Z</time>
      </trkpt>
      <trkpt lat="45.72712" lon="2.95644">
        <ele>1060.96</ele>
        <time>2021-07-20T07:45:04Z</time>
      </trkpt>
      <trkpt lat="45.72703" lon="2.9564">
        <ele>1062.28</ele>
        <time>2021-07-20T07:45:08Z</time>
      </trkpt>
      <trkpt lat="45.72693" lon="2.9564">
        <ele>1058.88</ele>
        <time>2021-07-20T07:45:15Z</time>
      </trkpt>
      <trkpt lat="45.72682" lon="2.95645">
        <ele>1057.08</ele>
        <time>2021-07-20T07:45:19Z</time>
      </trkpt>
      <trkpt lat="45.72674" lon="2.95639">
        <ele>1058.87</ele>
        <time>2021-07-20T07:45:23Z</time>
      </trkpt>
      <trkpt lat="45.72666" lon="2.9563">
        <ele>1061.1</ele>
        <time>2021-07-20T07:45:27Z</time>
      </trkpt>
      <trkpt lat="45.72656" lon="2.95634">
        <ele>1064.25</ele>
        <time>2021-07-20T07:45:30Z</time>
      </trkpt>
      <trkpt lat="45.72647" lon="2.95636">
        <ele>1064.62</ele>
        <time>2021-07-20T07:45:33Z</time>
      </trkpt>
      <trkpt lat="45.72637" lon="2.95639">
        <ele>1065.13</ele>
        <time>2021-07-20T07:45:37Z</time>
      </trkpt>
      <trkpt lat="45.72627" lon="2.95641">
        <ele>1067.39</ele>
        <time>2021-07-20T07:45:41Z</time>
      </trkpt>
      <trkpt lat="45.72616" lon="2.95643">
        <ele>1065</ele>
        <time>2021-07-20T07:45:45Z</time>
      </trkpt>
      <trkpt lat="45.72606" lon="2.95642">
        <ele>1066.85</ele>
        <time>2021-07-20T07:45:49Z</time>
      </trkpt>
      <trkpt lat="45.72597" lon="2.95638">
        <ele>1062.19</ele>
        <time>2021-07-20T07:45:54Z</time>
      </trkpt>
      <trkpt lat="45.72589" lon="2.95632">
        <ele>1061.87</ele>
        <time>2021-07-20T07:45:58Z</time>
      </trkpt>
      <trkpt lat="45.7258" lon="2.95622">
        <ele>1053.84</ele>
        <time>2021-07-20T07:46:03Z</time>
      </trkpt>
      <trkpt lat="45.72572" lon="2.95617">
        <ele>1051.54</ele>
        <time>2021-07-20T07:46:07Z</time>
      </trkpt>
      <trkpt lat="45.72563" lon="2.9561">
        <ele>1055.21</ele>
        <time>2021-07-20T07:46:12Z</time>
      </trkpt>
      <trkpt lat="45.72554" lon="2.95606">
        <ele>1057.17</ele>
        <time>2021-07-20T07:46:17Z</time>
      </trkpt>
      <trkpt lat="45.72544" lon="2.95598">
        <ele>1060.45</ele>
        <time>2021-07-20T07:46:23Z</time>
      </trkpt>
      <trkpt lat="45.72535" lon="2.9559">
        <ele>1059.32</ele>
        <time>2021-07-20T07:46:28Z</time>
      </trkpt>
      <trkpt lat="45.72525" lon="2.95586">
        <ele>1063.45</ele>
        <time>2021-07-20T07:46:33Z</time>
      </trkpt>
      <trkpt lat="45.72515" lon="2.95579">
        <ele>1066.87</ele>
        <time>2021-07-20T07:46:39Z</time>
      </trkpt>
      <trkpt lat="45.72506" lon="2.95572">
        <ele>1067.79</ele>
        <time>2021-07-20T07:46:43Z</time>
      </trkpt>
      <trkpt lat="45.72498" lon="2.95564">
        <ele>1071.88</ele>
        <time>2021-07-20T07:46:48Z</time>
      </trkpt>
      <trkpt lat="45.7249" lon="2.95554">
        <ele>1074.13</ele>
        <time>2021-07-20T07:46:54Z</time>
      </trkpt>
      <trkpt lat="45.72482" lon="2.95543">
        <ele>1076.65</ele>
        <time>2021-07-20T07:46:58Z</time>
      </trkpt>
      <trkpt lat="45.72475" lon="2.95535">
        <ele>1075.06</ele>
        <time>2021-07-20T07:47:02Z</time>
      </trkpt>
      <trkpt lat="45.72467" lon="2.95526">
        <ele>1076.63</ele>
        <time>2021-07-20T07:47:07Z</time>
      </trkpt>
      <trkpt lat="45.72458" lon="2.95518">
        <ele>1079.23</ele>
        <time>2021-07-20T07:47:13Z</time>
      </trkpt>
      <trkpt lat="45.72451" lon="2.95508">
        <ele>1079.88</ele>
        <time>2021-07-20T07:47:18Z</time>
      </trkpt>
      <trkpt lat="45.72442" lon="2.955">
        <ele>1078.84</ele>
        <time>2021-07-20T07:47:23Z</time>
      </trkpt>
      <trkpt lat="45.72434" lon="2.95492">
        <ele>1079.26</ele>
        <time>2021-07-20T07:47:28Z</time>
      </trkpt>
      <trkpt lat="45.72428" lon="2.95481">
        <ele>1076.68</ele>
        <time>2021-07-20T07:47:34Z</time>
      </trkpt>
      <trkpt lat="45.72423" lon="2.95471">
        <ele>1075.18</ele>
        <time>2021-07-20T07:47:40Z</time>
      </trkpt>
      <trkpt lat="45.72417" lon="2.95461">
        <ele>1075.79</ele>
        <time>2021-07-20T07:47:45Z</time>
      </trkpt>
      <trkpt lat="45.72409" lon="2.95452">
        <ele>1079.17</ele>
        <time>2021-07-20T07:47:50Z</time>
      </trkpt>
      <trkpt lat="45.72399" lon="2.95445">
        <ele>1081.95</ele>
        <time>2021-07-20T07:47:54Z</time>
      </trkpt>
      <trkpt lat="45.72393" lon="2.95435">
        <ele>1082.87</ele>
        <time>2021-07-20T07:47:58Z</time>
      </trkpt>
      <trkpt lat="45.72386" lon="2.95426">
        <ele>1081.53</ele>
        <time>2021-07-20T07:48:02Z</time>
      </trkpt>
      <trkpt lat="45.72381" lon="2.95414">
        <ele>1077.56</ele>
        <time>2021-07-20T07:48:08Z</time>
      </trkpt>
      <trkpt lat="45.72374" lon="2.95403">
        <ele>1074.32</ele>
        <time>2021-07-20T07:48:16Z</time>
      </trkpt>
      <trkpt lat="45.72368" lon="2.95391">
        <ele>1079.3</ele>
        <time>2021-07-20T07:48:21Z</time>
      </trkpt>
      <trkpt lat="45.72359" lon="2.95383">
        <ele>1078.87</ele>
        <time>2021-07-20T07:48:27Z</time>
      </trkpt>
      <trkpt lat="45.72353" lon="2.95373">
        <ele>1078.4</ele>
        <time>2021-07-20T07:48:33Z</time>
      </trkpt>
      <trkpt lat="45.72344" lon="2.95367">
        <ele>1081.45</ele>
        <time>2021-07-20T07:48:38Z</time>
      </trkpt>
      <trkpt lat="45.72337" lon="2.95359">
        <ele>1085.14</ele>
        <time>2021-07-20T07:48:43Z</time>
      </trkpt>
      <trkpt lat="45.72328" lon="2.95351">
        <ele>1085.93</ele>
        <time>2021-07-20T07:48:48Z</time>
      </trkpt>
      <trkpt lat="45.72321" lon="2.95339">
        <ele>1087.06</ele>
        <time>2021-07-20T07:48:53Z</time>
      </trkpt>
      <trkpt lat="45.72314" lon="2.9533">
        <ele>1089.7</ele>
        <time>2021-07-20T07:48:57Z</time>
      </trkpt>
      <trkpt lat="45.72305" lon="2.95321">
        <ele>1089.12</ele>
        <time>2021-07-20T07:49:03Z</time>
      </trkpt>
      <trkpt lat="45.72298" lon="2.95312">
        <ele>1092.34</ele>
        <time>2021-07-20T07:49:08Z</time>
      </trkpt>
      <trkpt lat="45.7229" lon="2.95306">
        <ele>1091.99</ele>
        <time>2021-07-20T07:49:14Z</time>
      </trkpt>
      <trkpt lat="45.72282" lon="2.953">
        <ele>1093.62</ele>
        <time>2021-07-20T07:49:19Z</time>
      </trkpt>
      <trkpt lat="45.72274" lon="2.95291">
        <ele>1096.11</ele>
        <time>2021-07-20T07:49:25Z</time>
      </trkpt>
      <trkpt lat="45.72265" lon="2.95282">
        <ele>1095.05</ele>
        <time>2021-07-20T07:49:31Z</time>
      </trkpt>
      <trkpt lat="45.72257" lon="2.95275">
        <ele>1094.89</ele>
        <time>2021-07-20T07:49:36Z</time>
      </trkpt>
      <trkpt lat="45.72249" lon="2.95266">
        <ele>1094.76</ele>
        <time>2021-07-20T07:49:42Z</time>
      </trkpt>
      <trkpt lat="45.72242" lon="2.95257">
        <ele>1091.35</ele>
        <time>2021-07-20T07:49:47Z</time>
      </trkpt>
      <trkpt lat="45.72234" lon="2.95249">
        <ele>1092.05</ele>
        <time>2021-07-20T07:49:53Z</time>
      </trkpt>
      <trkpt lat="45.72224" lon="2.95245">
        <ele>1093.24</ele>
        <time>2021-07-20T07:49:58Z</time>
      </trkpt>
      <trkpt lat="45.72217" lon="2.95233">
        <ele>1092.54</ele>
        <time>2021-07-20T07:50:04Z</time>
      </trkpt>
      <trkpt lat="45.72212" lon="2.95221">
        <ele>1093.44</ele>
        <time>2021-07-20T07:50:09Z</time>
      </trkpt>
      <trkpt lat="45.72204" lon="2.95213">
        <ele>1092.42</ele>
        <time>2021-07-20T07:50:15Z</time>
      </trkpt>
      <trkpt lat="45.72194" lon="2.95217">
        <ele>1092.86</ele>
        <time>2021-07-20T07:50:20Z</time>
      </trkpt>
      <trkpt lat="45.72186" lon="2.95225">
        <ele>1089.62</ele>
        <time>2021-07-20T07:50:26Z</time>
      </trkpt>
      <trkpt lat="45.72177" lon="2.95225">
        <ele>1087.66</ele>
        <time>2021-07-20T07:50:33Z</time>
      </trkpt>
      <trkpt lat="45.72183" lon="2.95213">
        <ele>1088.77</ele>
        <time>2021-07-20T07:52:09Z</time>
      </trkpt>
      <trkpt lat="45.72178" lon="2.95201">
        <ele>1088.95</ele>
        <time>2021-07-20T07:52:15Z</time>
      </trkpt>
      <trkpt lat="45.72169" lon="2.95193">
        <ele>1089.01</ele>
        <time>2021-07-20T07:52:19Z</time>
      </trkpt>
      <trkpt lat="45.7216" lon="2.95186">
        <ele>1088.24</ele>
        <time>2021-07-20T07:52:22Z</time>
      </trkpt>
      <trkpt lat="45.7215" lon="2.95183">
        <ele>1091.77</ele>
        <time>2021-07-20T07:52:25Z</time>
      </trkpt>
      <trkpt lat="45.72142" lon="2.95176">
        <ele>1093.26</ele>
        <time>2021-07-20T07:52:28Z</time>
      </trkpt>
      <trkpt lat="45.72131" lon="2.95172">
        <ele>1094.76</ele>
        <time>2021-07-20T07:52:32Z</time>
      </trkpt>
      <trkpt lat="45.72122" lon="2.95168">
        <ele>1098.31</ele>
        <time>2021-07-20T07:52:35Z</time>
      </trkpt>
      <trkpt lat="45.72113" lon="2.95163">
        <ele>1097.18</ele>
        <time>2021-07-20T07:52:38Z</time>
      </trkpt>
      <trkpt lat="45.72105" lon="2.95158">
        <ele>1095.98</ele>
        <time>2021-07-20T07:52:41Z</time>
      </trkpt>
      <trkpt lat="45.72095" lon="2.95151">
        <ele>1093.54</ele>
        <time>2021-07-20T07:52:45Z</time>
      </trkpt>
      <trkpt lat="45.72086" lon="2.95147">
        <ele>1092.35</ele>
        <time>2021-07-20T07:52:49Z</time>
      </trkpt>
      <trkpt lat="45.72074" lon="2.95141">
        <ele>1090.82</ele>
        <time>2021-07-20T07:52:52Z</time>
      </trkpt>
      <trkpt lat="45.72065" lon="2.95139">
        <ele>1089.8</ele>
        <time>2021-07-20T07:52:56Z</time>
      </trkpt>
      <trkpt lat="45.72056" lon="2.95134">
        <ele>1089.48</ele>
        <time>2021-07-20T07:53:01Z</time>
      </trkpt>
      <trkpt lat="45.72049" lon="2.95126">
        <ele>1089.6</ele>
        <time>2021-07-20T07:53:06Z</time>
      </trkpt>
      <trkpt lat="45.72039" lon="2.95124">
        <ele>1089.29</ele>
        <time>2021-07-20T07:53:12Z</time>
      </trkpt>
      <trkpt lat="45.72029" lon="2.95121">
        <ele>1087.04</ele>
        <time>2021-07-20T07:53:21Z</time>
      </trkpt>
      <trkpt lat="45.72011" lon="2.95108">
        <ele>1088.33</ele>
        <time>2021-07-20T07:53:25Z</time>
      </trkpt>
      <trkpt lat="45.72005" lon="2.95098">
        <ele>1082.94</ele>
        <time>2021-07-20T07:53:28Z</time>
      </trkpt>
      <trkpt lat="45.71996" lon="2.95092">
        <ele>1077.91</ele>
        <time>2021-07-20T07:53:32Z</time>
      </trkpt>
      <trkpt lat="45.71986" lon="2.9509">
        <ele>1077.69</ele>
        <time>2021-07-20T07:53:37Z</time>
      </trkpt>
      <trkpt lat="45.71974" lon="2.95085">
        <ele>1077.49</ele>
        <time>2021-07-20T07:53:41Z</time>
      </trkpt>
      <trkpt lat="45.71957" lon="2.95076">
        <ele>1076.93</ele>
        <time>2021-07-20T07:53:43Z</time>
      </trkpt>
      <trkpt lat="45.71945" lon="2.95067">
        <ele>1076.43</ele>
        <time>2021-07-20T07:53:46Z</time>
      </trkpt>
      <trkpt lat="45.71936" lon="2.95062">
        <ele>1075.73</ele>
        <time>2021-07-20T07:53:48Z</time>
      </trkpt>
      <trkpt lat="45.71928" lon="2.95055">
        <ele>1076.32</ele>
        <time>2021-07-20T07:53:53Z</time>
      </trkpt>
      <trkpt lat="45.71918" lon="2.95046">
        <ele>1076.07</ele>
        <time>2021-07-20T07:53:57Z</time>
      </trkpt>
      <trkpt lat="45.71901" lon="2.95038">
        <ele>1077.33</ele>
        <time>2021-07-20T07:54:00Z</time>
      </trkpt>
      <trkpt lat="45.7189" lon="2.95031">
        <ele>1077.15</ele>
        <time>2021-07-20T07:54:02Z</time>
      </trkpt>
      <trkpt lat="45.7188" lon="2.95024">
        <ele>1076.74</ele>
        <time>2021-07-20T07:54:05Z</time>
      </trkpt>
      <trkpt lat="45.7187" lon="2.95019">
        <ele>1076.98</ele>
        <time>2021-07-20T07:54:08Z</time>
      </trkpt>
      <trkpt lat="45.71862" lon="2.95013">
        <ele>1078.19</ele>
        <time>2021-07-20T07:54:13Z</time>
      </trkpt>
      <trkpt lat="45.71854" lon="2.95008">
        <ele>1076.63</ele>
        <time>2021-07-20T07:54:16Z</time>
      </trkpt>
      <trkpt lat="45.71843" lon="2.94999">
        <ele>1076.42</ele>
        <time>2021-07-20T07:54:19Z</time>
      </trkpt>
      <trkpt lat="45.71834" lon="2.94991">
        <ele>1077.51</ele>
        <time>2021-07-20T07:54:21Z</time>
      </trkpt>
      <trkpt lat="45.71826" lon="2.94984">
        <ele>1077.83</ele>
        <time>2021-07-20T07:54:23Z</time>
      </trkpt>
      <trkpt lat="45.71812" lon="2.94972">
        <ele>1078.94</ele>
        <time>2021-07-20T07:54:25Z</time>
      </trkpt>
      <trkpt lat="45.71806" lon="2.94961">
        <ele>1078.64</ele>
        <time>2021-07-20T07:54:28Z</time>
      </trkpt>
      <trkpt lat="45.71799" lon="2.9495">
        <ele>1080.24</ele>
        <time>2021-07-20T07:54:30Z</time>
      </trkpt>
      <trkpt lat="45.71789" lon="2.94947">
        <ele>1080.77</ele>
        <time>2021-07-20T07:54:33Z</time>
      </trkpt>
      <trkpt lat="45.71779" lon="2.94944">
        <ele>1080.91</ele>
        <time>2021-07-20T07:54:38Z</time>
      </trkpt>
      <trkpt lat="45.71768" lon="2.94939">
        <ele>1079.36</ele>
        <time>2021-07-20T07:54:42Z</time>
      </trkpt>
      <trkpt lat="45.7176" lon="2.94933">
        <ele>1077.76</ele>
        <time>2021-07-20T07:54:44Z</time>
      </trkpt>
      <trkpt lat="45.7175" lon="2.94929">
        <ele>1078.61</ele>
        <time>2021-07-20T07:54:47Z</time>
      </trkpt>
      <trkpt lat="45.71739" lon="2.94925">
        <ele>1076.91</ele>
        <time>2021-07-20T07:54:50Z</time>
      </trkpt>
      <trkpt lat="45.7173" lon="2.94921">
        <ele>1074.68</ele>
        <time>2021-07-20T07:54:53Z</time>
      </trkpt>
      <trkpt lat="45.7172" lon="2.94915">
        <ele>1073.69</ele>
        <time>2021-07-20T07:54:56Z</time>
      </trkpt>
      <trkpt lat="45.71711" lon="2.9491">
        <ele>1073.37</ele>
        <time>2021-07-20T07:54:59Z</time>
      </trkpt>
      <trkpt lat="45.71701" lon="2.94907">
        <ele>1076.07</ele>
        <time>2021-07-20T07:55:02Z</time>
      </trkpt>
      <trkpt lat="45.71688" lon="2.94902">
        <ele>1075.81</ele>
        <time>2021-07-20T07:55:05Z</time>
      </trkpt>
      <trkpt lat="45.7168" lon="2.94895">
        <ele>1075.08</ele>
        <time>2021-07-20T07:55:07Z</time>
      </trkpt>
      <trkpt lat="45.71671" lon="2.94888">
        <ele>1075.68</ele>
        <time>2021-07-20T07:55:09Z</time>
      </trkpt>
      <trkpt lat="45.7166" lon="2.94879">
        <ele>1075.13</ele>
        <time>2021-07-20T07:55:10Z</time>
      </trkpt>
      <trkpt lat="45.71647" lon="2.94871">
        <ele>1074</ele>
        <time>2021-07-20T07:55:12Z</time>
      </trkpt>
      <trkpt lat="45.71634" lon="2.94867">
        <ele>1072.93</ele>
        <time>2021-07-20T07:55:14Z</time>
      </trkpt>
      <trkpt lat="45.7162" lon="2.94857">
        <ele>1072.44</ele>
        <time>2021-07-20T07:55:17Z</time>
      </trkpt>
      <trkpt lat="45.71609" lon="2.94851">
        <ele>1072.11</ele>
        <time>2021-07-20T07:55:19Z</time>
      </trkpt>
      <trkpt lat="45.716" lon="2.94846">
        <ele>1069.63</ele>
        <time>2021-07-20T07:55:22Z</time>
      </trkpt>
      <trkpt lat="45.7159" lon="2.94845">
        <ele>1070.34</ele>
        <time>2021-07-20T07:55:27Z</time>
      </trkpt>
      <trkpt lat="45.71577" lon="2.94842">
        <ele>1069.26</ele>
        <time>2021-07-20T07:55:30Z</time>
      </trkpt>
      <trkpt lat="45.71567" lon="2.94839">
        <ele>1069.09</ele>
        <time>2021-07-20T07:55:32Z</time>
      </trkpt>
      <trkpt lat="45.71557" lon="2.94834">
        <ele>1069.24</ele>
        <time>2021-07-20T07:55:33Z</time>
      </trkpt>
      <trkpt lat="45.71548" lon="2.94831">
        <ele>1069.72</ele>
        <time>2021-07-20T07:55:34Z</time>
      </trkpt>
      <trkpt lat="45.71536" lon="2.94829">
        <ele>1065.19</ele>
        <time>2021-07-20T07:55:37Z</time>
      </trkpt>
      <trkpt lat="45.71526" lon="2.94826">
        <ele>1066.26</ele>
        <time>2021-07-20T07:55:39Z</time>
      </trkpt>
      <trkpt lat="45.71516" lon="2.94824">
        <ele>1063.55</ele>
        <time>2021-07-20T07:55:42Z</time>
      </trkpt>
      <trkpt lat="45.71505" lon="2.94821">
        <ele>1060.69</ele>
        <time>2021-07-20T07:55:46Z</time>
      </trkpt>
      <trkpt lat="45.71496" lon="2.94817">
        <ele>1062.3</ele>
        <time>2021-07-20T07:55:47Z</time>
      </trkpt>
      <trkpt lat="45.71487" lon="2.94812">
        <ele>1063.13</ele>
        <time>2021-07-20T07:55:50Z</time>
      </trkpt>
      <trkpt lat="45.71477" lon="2.94805">
        <ele>1061.76</ele>
        <time>2021-07-20T07:55:53Z</time>
      </trkpt>
      <trkpt lat="45.71468" lon="2.94804">
        <ele>1058.33</ele>
        <time>2021-07-20T07:55:56Z</time>
      </trkpt>
      <trkpt lat="45.71457" lon="2.94804">
        <ele>1053.35</ele>
        <time>2021-07-20T07:56:00Z</time>
      </trkpt>
      <trkpt lat="45.71437" lon="2.94794">
        <ele>1052.19</ele>
        <time>2021-07-20T07:56:01Z</time>
      </trkpt>
      <trkpt lat="45.71427" lon="2.94788">
        <ele>1049.16</ele>
        <time>2021-07-20T07:56:03Z</time>
      </trkpt>
      <trkpt lat="45.71418" lon="2.94775">
        <ele>1051.26</ele>
        <time>2021-07-20T07:56:05Z</time>
      </trkpt>
      <trkpt lat="45.71409" lon="2.94767">
        <ele>1051.23</ele>
        <time>2021-07-20T07:56:07Z</time>
      </trkpt>
      <trkpt lat="45.71399" lon="2.94757">
        <ele>1050.39</ele>
        <time>2021-07-20T07:56:09Z</time>
      </trkpt>
      <trkpt lat="45.71387" lon="2.94748">
        <ele>1050.21</ele>
        <time>2021-07-20T07:56:11Z</time>
      </trkpt>
      <trkpt lat="45.71377" lon="2.94736">
        <ele>1050.05</ele>
        <time>2021-07-20T07:56:13Z</time>
      </trkpt>
      <trkpt lat="45.71369" lon="2.94725">
        <ele>1050.71</ele>
        <time>2021-07-20T07:56:15Z</time>
      </trkpt>
      <trkpt lat="45.71358" lon="2.94722">
        <ele>1050.99</ele>
        <time>2021-07-20T07:56:17Z</time>
      </trkpt>
      <trkpt lat="45.71347" lon="2.94719">
        <ele>1050.63</ele>
        <time>2021-07-20T07:56:19Z</time>
      </trkpt>
      <trkpt lat="45.71338" lon="2.94716">
        <ele>1048.86</ele>
        <time>2021-07-20T07:56:22Z</time>
      </trkpt>
      <trkpt lat="45.71329" lon="2.9471">
        <ele>1047.7</ele>
        <time>2021-07-20T07:56:26Z</time>
      </trkpt>
      <trkpt lat="45.7132" lon="2.94709">
        <ele>1050.21</ele>
        <time>2021-07-20T08:00:07Z</time>
      </trkpt>
      <trkpt lat="45.71313" lon="2.94699">
        <ele>1051.91</ele>
        <time>2021-07-20T08:00:13Z</time>
      </trkpt>
      <trkpt lat="45.71304" lon="2.94694">
        <ele>1054.62</ele>
        <time>2021-07-20T08:00:19Z</time>
      </trkpt>
      <trkpt lat="45.71295" lon="2.9469">
        <ele>1053.46</ele>
        <time>2021-07-20T08:00:26Z</time>
      </trkpt>
      <trkpt lat="45.71288" lon="2.94682">
        <ele>1053.87</ele>
        <time>2021-07-20T08:00:32Z</time>
      </trkpt>
      <trkpt lat="45.71278" lon="2.94679">
        <ele>1053.78</ele>
        <time>2021-07-20T08:00:38Z</time>
      </trkpt>
      <trkpt lat="45.71268" lon="2.94678">
        <ele>1052.3</ele>
        <time>2021-07-20T08:00:43Z</time>
      </trkpt>
      <trkpt lat="45.71259" lon="2.94674">
        <ele>1053.74</ele>
        <time>2021-07-20T08:00:48Z</time>
      </trkpt>
      <trkpt lat="45.7125" lon="2.94669">
        <ele>1052.95</ele>
        <time>2021-07-20T08:00:52Z</time>
      </trkpt>
      <trkpt lat="45.71242" lon="2.94662">
        <ele>1052.07</ele>
        <time>2021-07-20T08:00:57Z</time>
      </trkpt>
      <trkpt lat="45.71233" lon="2.94652">
        <ele>1052.11</ele>
        <time>2021-07-20T08:01:02Z</time>
      </trkpt>
      <trkpt lat="45.71218" lon="2.94637">
        <ele>1052.4</ele>
        <time>2021-07-20T08:01:05Z</time>
      </trkpt>
      <trkpt lat="45.71212" lon="2.94626">
        <ele>1052.53</ele>
        <time>2021-07-20T08:01:08Z</time>
      </trkpt>
      <trkpt lat="45.71205" lon="2.94617">
        <ele>1054.27</ele>
        <time>2021-07-20T08:01:11Z</time>
      </trkpt>
      <trkpt lat="45.71196" lon="2.94606">
        <ele>1054.26</ele>
        <time>2021-07-20T08:01:16Z</time>
      </trkpt>
      <trkpt lat="45.71188" lon="2.94587">
        <ele>1053.73</ele>
        <time>2021-07-20T08:01:18Z</time>
      </trkpt>
      <trkpt lat="45.71181" lon="2.94577">
        <ele>1053.83</ele>
        <time>2021-07-20T08:01:21Z</time>
      </trkpt>
      <trkpt lat="45.71175" lon="2.94563">
        <ele>1053.39</ele>
        <time>2021-07-20T08:01:24Z</time>
      </trkpt>
      <trkpt lat="45.71167" lon="2.94552">
        <ele>1053.4</ele>
        <time>2021-07-20T08:01:29Z</time>
      </trkpt>
      <trkpt lat="45.71157" lon="2.94536">
        <ele>1054.78</ele>
        <time>2021-07-20T08:01:31Z</time>
      </trkpt>
      <trkpt lat="45.71148" lon="2.94522">
        <ele>1053.59</ele>
        <time>2021-07-20T08:01:34Z</time>
      </trkpt>
      <trkpt lat="45.71142" lon="2.9451">
        <ele>1052.49</ele>
        <time>2021-07-20T08:01:37Z</time>
      </trkpt>
      <trkpt lat="45.71135" lon="2.94497">
        <ele>1052.26</ele>
        <time>2021-07-20T08:01:40Z</time>
      </trkpt>
      <trkpt lat="45.71128" lon="2.94486">
        <ele>1051.79</ele>
        <time>2021-07-20T08:01:43Z</time>
      </trkpt>
      <trkpt lat="45.71121" lon="2.94477">
        <ele>1052.73</ele>
        <time>2021-07-20T08:01:46Z</time>
      </trkpt>
      <trkpt lat="45.71113" lon="2.94465">
        <ele>1053.5</ele>
        <time>2021-07-20T08:01:50Z</time>
      </trkpt>
      <trkpt lat="45.71108" lon="2.94453">
        <ele>1051.53</ele>
        <time>2021-07-20T08:01:53Z</time>
      </trkpt>
      <trkpt lat="45.71105" lon="2.94439">
        <ele>1050.02</ele>
        <time>2021-07-20T08:01:56Z</time>
      </trkpt>
      <trkpt lat="45.71099" lon="2.94426">
        <ele>1047.91</ele>
        <time>2021-07-20T08:02:00Z</time>
      </trkpt>
      <trkpt lat="45.71092" lon="2.94412">
        <ele>1049.33</ele>
        <time>2021-07-20T08:02:03Z</time>
      </trkpt>
      <trkpt lat="45.71087" lon="2.94396">
        <ele>1049.05</ele>
        <time>2021-07-20T08:02:06Z</time>
      </trkpt>
      <trkpt lat="45.71083" lon="2.94381">
        <ele>1049.36</ele>
        <time>2021-07-20T08:02:08Z</time>
      </trkpt>
      <trkpt lat="45.71079" lon="2.94365">
        <ele>1049.24</ele>
        <time>2021-07-20T08:02:10Z</time>
      </trkpt>
      <trkpt lat="45.71073" lon="2.9435">
        <ele>1049.29</ele>
        <time>2021-07-20T08:02:12Z</time>
      </trkpt>
      <trkpt lat="45.71065" lon="2.94334">
        <ele>1047.55</ele>
        <time>2021-07-20T08:02:14Z</time>
      </trkpt>
      <trkpt lat="45.71056" lon="2.94321">
        <ele>1046.91</ele>
        <time>2021-07-20T08:02:16Z</time>
      </trkpt>
      <trkpt lat="45.71048" lon="2.94307">
        <ele>1047.57</ele>
        <time>2021-07-20T08:02:18Z</time>
      </trkpt>
      <trkpt lat="45.71041" lon="2.94294">
        <ele>1046.92</ele>
        <time>2021-07-20T08:02:20Z</time>
      </trkpt>
      <trkpt lat="45.71035" lon="2.9428">
        <ele>1045.75</ele>
        <time>2021-07-20T08:02:23Z</time>
      </trkpt>
      <trkpt lat="45.7103" lon="2.94266">
        <ele>1045.85</ele>
        <time>2021-07-20T08:02:26Z</time>
      </trkpt>
      <trkpt lat="45.71022" lon="2.94259">
        <ele>1044.83</ele>
        <time>2021-07-20T08:02:30Z</time>
      </trkpt>
      <trkpt lat="45.71013" lon="2.94249">
        <ele>1044.64</ele>
        <time>2021-07-20T08:02:31Z</time>
      </trkpt>
      <trkpt lat="45.71004" lon="2.9424">
        <ele>1043.28</ele>
        <time>2021-07-20T08:02:32Z</time>
      </trkpt>
      <trkpt lat="45.70997" lon="2.94232">
        <ele>1042.7</ele>
        <time>2021-07-20T08:02:34Z</time>
      </trkpt>
      <trkpt lat="45.70988" lon="2.94222">
        <ele>1041.89</ele>
        <time>2021-07-20T08:02:36Z</time>
      </trkpt>
      <trkpt lat="45.70981" lon="2.94213">
        <ele>1041.36</ele>
        <time>2021-07-20T08:02:38Z</time>
      </trkpt>
      <trkpt lat="45.70973" lon="2.94205">
        <ele>1041.7</ele>
        <time>2021-07-20T08:02:40Z</time>
      </trkpt>
      <trkpt lat="45.70966" lon="2.94197">
        <ele>1042.04</ele>
        <time>2021-07-20T08:02:42Z</time>
      </trkpt>
      <trkpt lat="45.70956" lon="2.94186">
        <ele>1042.99</ele>
        <time>2021-07-20T08:02:45Z</time>
      </trkpt>
      <trkpt lat="45.70951" lon="2.94176">
        <ele>1045</ele>
        <time>2021-07-20T08:02:50Z</time>
      </trkpt>
      <trkpt lat="45.70943" lon="2.94167">
        <ele>1044.86</ele>
        <time>2021-07-20T08:03:07Z</time>
      </trkpt>
      <trkpt lat="45.70936" lon="2.94154">
        <ele>1044.2</ele>
        <time>2021-07-20T08:03:12Z</time>
      </trkpt>
      <trkpt lat="45.7093" lon="2.94144">
        <ele>1045.52</ele>
        <time>2021-07-20T08:03:16Z</time>
      </trkpt>
      <trkpt lat="45.70923" lon="2.94133">
        <ele>1045.91</ele>
        <time>2021-07-20T08:03:20Z</time>
      </trkpt>
      <trkpt lat="45.70916" lon="2.94121">
        <ele>1046.17</ele>
        <time>2021-07-20T08:03:24Z</time>
      </trkpt>
      <trkpt lat="45.70908" lon="2.94111">
        <ele>1047.21</ele>
        <time>2021-07-20T08:03:27Z</time>
      </trkpt>
      <trkpt lat="45.70898" lon="2.94099">
        <ele>1045.32</ele>
        <time>2021-07-20T08:03:29Z</time>
      </trkpt>
      <trkpt lat="45.70888" lon="2.9409">
        <ele>1042.34</ele>
        <time>2021-07-20T08:03:32Z</time>
      </trkpt>
      <trkpt lat="45.70879" lon="2.94083">
        <ele>1043.61</ele>
        <time>2021-07-20T08:03:35Z</time>
      </trkpt>
      <trkpt lat="45.70868" lon="2.94073">
        <ele>1042.99</ele>
        <time>2021-07-20T08:03:38Z</time>
      </trkpt>
      <trkpt lat="45.7086" lon="2.94059">
        <ele>1042.5</ele>
        <time>2021-07-20T08:03:41Z</time>
      </trkpt>
      <trkpt lat="45.70849" lon="2.94051">
        <ele>1042.93</ele>
        <time>2021-07-20T08:03:44Z</time>
      </trkpt>
      <trkpt lat="45.70839" lon="2.94042">
        <ele>1044.19</ele>
        <time>2021-07-20T08:03:47Z</time>
      </trkpt>
      <trkpt lat="45.70831" lon="2.94032">
        <ele>1044.28</ele>
        <time>2021-07-20T08:03:49Z</time>
      </trkpt>
      <trkpt lat="45.70821" lon="2.9402">
        <ele>1045.27</ele>
        <time>2021-07-20T08:03:52Z</time>
      </trkpt>
      <trkpt lat="45.70811" lon="2.94012">
        <ele>1046.11</ele>
        <time>2021-07-20T08:03:55Z</time>
      </trkpt>
      <trkpt lat="45.708" lon="2.94001">
        <ele>1045.71</ele>
        <time>2021-07-20T08:03:58Z</time>
      </trkpt>
      <trkpt lat="45.70795" lon="2.93983">
        <ele>1044.83</ele>
        <time>2021-07-20T08:04:01Z</time>
      </trkpt>
      <trkpt lat="45.70789" lon="2.93969">
        <ele>1044.92</ele>
        <time>2021-07-20T08:04:04Z</time>
      </trkpt>
      <trkpt lat="45.70781" lon="2.93958">
        <ele>1045.63</ele>
        <time>2021-07-20T08:04:07Z</time>
      </trkpt>
      <trkpt lat="45.70773" lon="2.93948">
        <ele>1046.46</ele>
        <time>2021-07-20T08:04:10Z</time>
      </trkpt>
      <trkpt lat="45.70766" lon="2.93937">
        <ele>1047.5</ele>
        <time>2021-07-20T08:04:13Z</time>
      </trkpt>
      <trkpt lat="45.7076" lon="2.93928">
        <ele>1047.91</ele>
        <time>2021-07-20T08:04:16Z</time>
      </trkpt>
      <trkpt lat="45.70752" lon="2.93917">
        <ele>1046.56</ele>
        <time>2021-07-20T08:04:20Z</time>
      </trkpt>
      <trkpt lat="45.70743" lon="2.93905">
        <ele>1045.49</ele>
        <time>2021-07-20T08:04:24Z</time>
      </trkpt>
      <trkpt lat="45.70736" lon="2.93895">
        <ele>1043.41</ele>
        <time>2021-07-20T08:04:27Z</time>
      </trkpt>
      <trkpt lat="45.70726" lon="2.93886">
        <ele>1040.84</ele>
        <time>2021-07-20T08:04:30Z</time>
      </trkpt>
      <trkpt lat="45.70717" lon="2.93878">
        <ele>1040.87</ele>
        <time>2021-07-20T08:04:33Z</time>
      </trkpt>
      <trkpt lat="45.7071" lon="2.93868">
        <ele>1040.76</ele>
        <time>2021-07-20T08:04:36Z</time>
      </trkpt>
      <trkpt lat="45.70702" lon="2.9386">
        <ele>1036.12</ele>
        <time>2021-07-20T08:04:39Z</time>
      </trkpt>
      <trkpt lat="45.70696" lon="2.93847">
        <ele>1037.54</ele>
        <time>2021-07-20T08:04:43Z</time>
      </trkpt>
      <trkpt lat="45.70692" lon="2.93833">
        <ele>1034.2</ele>
        <time>2021-07-20T08:04:46Z</time>
      </trkpt>
      <trkpt lat="45.70689" lon="2.93818">
        <ele>1033.88</ele>
        <time>2021-07-20T08:04:49Z</time>
      </trkpt>
      <trkpt lat="45.70686" lon="2.93802">
        <ele>1035.45</ele>
        <time>2021-07-20T08:04:52Z</time>
      </trkpt>
      <trkpt lat="45.70683" lon="2.93786">
        <ele>1036.08</ele>
        <time>2021-07-20T08:04:55Z</time>
      </trkpt>
      <trkpt lat="45.70679" lon="2.9377">
        <ele>1037.13</ele>
        <time>2021-07-20T08:04:58Z</time>
      </trkpt>
      <trkpt lat="45.70676" lon="2.93752">
        <ele>1037.87</ele>
        <time>2021-07-20T08:05:01Z</time>
      </trkpt>
      <trkpt lat="45.70674" lon="2.93738">
        <ele>1037.8</ele>
        <time>2021-07-20T08:05:03Z</time>
      </trkpt>
      <trkpt lat="45.70672" lon="2.93725">
        <ele>1038.54</ele>
        <time>2021-07-20T08:05:05Z</time>
      </trkpt>
      <trkpt lat="45.70667" lon="2.93712">
        <ele>1036.36</ele>
        <time>2021-07-20T08:05:07Z</time>
      </trkpt>
      <trkpt lat="45.70662" lon="2.93699">
        <ele>1035.45</ele>
        <time>2021-07-20T08:05:09Z</time>
      </trkpt>
      <trkpt lat="45.70656" lon="2.93682">
        <ele>1034</ele>
        <time>2021-07-20T08:05:12Z</time>
      </trkpt>
      <trkpt lat="45.70653" lon="2.93666">
        <ele>1034.94</ele>
        <time>2021-07-20T08:05:15Z</time>
      </trkpt>
      <trkpt lat="45.70649" lon="2.93651">
        <ele>1036.41</ele>
        <time>2021-07-20T08:05:18Z</time>
      </trkpt>
      <trkpt lat="45.70644" lon="2.93637">
        <ele>1037.75</ele>
        <time>2021-07-20T08:05:21Z</time>
      </trkpt>
      <trkpt lat="45.70642" lon="2.93622">
        <ele>1037.52</ele>
        <time>2021-07-20T08:05:24Z</time>
      </trkpt>
      <trkpt lat="45.70637" lon="2.93608">
        <ele>1036.79</ele>
        <time>2021-07-20T08:05:27Z</time>
      </trkpt>
      <trkpt lat="45.70633" lon="2.93594">
        <ele>1036.89</ele>
        <time>2021-07-20T08:05:30Z</time>
      </trkpt>
      <trkpt lat="45.7063" lon="2.93582">
        <ele>1036.04</ele>
        <time>2021-07-20T08:05:33Z</time>
      </trkpt>
      <trkpt lat="45.70626" lon="2.9357">
        <ele>1036.64</ele>
        <time>2021-07-20T08:05:36Z</time>
      </trkpt>
      <trkpt lat="45.70622" lon="2.93556">
        <ele>1037.41</ele>
        <time>2021-07-20T08:05:40Z</time>
      </trkpt>
      <trkpt lat="45.7062" lon="2.93543">
        <ele>1036.39</ele>
        <time>2021-07-20T08:05:44Z</time>
      </trkpt>
      <trkpt lat="45.70617" lon="2.93531">
        <ele>1036.94</ele>
        <time>2021-07-20T08:05:48Z</time>
      </trkpt>
      <trkpt lat="45.70614" lon="2.93518">
        <ele>1035.95</ele>
        <time>2021-07-20T08:05:52Z</time>
      </trkpt>
      <trkpt lat="45.70611" lon="2.93504">
        <ele>1034.72</ele>
        <time>2021-07-20T08:05:57Z</time>
      </trkpt>
      <trkpt lat="45.70609" lon="2.9349">
        <ele>1033.03</ele>
        <time>2021-07-20T08:06:01Z</time>
      </trkpt>
      <trkpt lat="45.70607" lon="2.93477">
        <ele>1034.56</ele>
        <time>2021-07-20T08:06:05Z</time>
      </trkpt>
      <trkpt lat="45.70603" lon="2.93465">
        <ele>1034.14</ele>
        <time>2021-07-20T08:06:09Z</time>
      </trkpt>
      <trkpt lat="45.70599" lon="2.93452">
        <ele>1035.83</ele>
        <time>2021-07-20T08:06:13Z</time>
      </trkpt>
      <trkpt lat="45.70597" lon="2.93436">
        <ele>1037.64</ele>
        <time>2021-07-20T08:06:18Z</time>
      </trkpt>
      <trkpt lat="45.70593" lon="2.93422">
        <ele>1036.1</ele>
        <time>2021-07-20T08:06:22Z</time>
      </trkpt>
      <trkpt lat="45.7059" lon="2.93409">
        <ele>1036.41</ele>
        <time>2021-07-20T08:06:25Z</time>
      </trkpt>
      <trkpt lat="45.70585" lon="2.93395">
        <ele>1033.26</ele>
        <time>2021-07-20T08:06:28Z</time>
      </trkpt>
      <trkpt lat="45.7058" lon="2.9338">
        <ele>1034.02</ele>
        <time>2021-07-20T08:06:31Z</time>
      </trkpt>
      <trkpt lat="45.70574" lon="2.93365">
        <ele>1033.25</ele>
        <time>2021-07-20T08:06:34Z</time>
      </trkpt>
      <trkpt lat="45.70569" lon="2.9335">
        <ele>1032.77</ele>
        <time>2021-07-20T08:06:37Z</time>
      </trkpt>
      <trkpt lat="45.70564" lon="2.93335">
        <ele>1032.27</ele>
        <time>2021-07-20T08:06:40Z</time>
      </trkpt>
      <trkpt lat="45.70558" lon="2.93324">
        <ele>1028.37</ele>
        <time>2021-07-20T08:06:43Z</time>
      </trkpt>
      <trkpt lat="45.70552" lon="2.93311">
        <ele>1028.33</ele>
        <time>2021-07-20T08:06:46Z</time>
      </trkpt>
      <trkpt lat="45.70549" lon="2.93297">
        <ele>1029.2</ele>
        <time>2021-07-20T08:06:49Z</time>
      </trkpt>
      <trkpt lat="45.70546" lon="2.93284">
        <ele>1030.48</ele>
        <time>2021-07-20T08:06:52Z</time>
      </trkpt>
      <trkpt lat="45.70543" lon="2.93271">
        <ele>1032.46</ele>
        <time>2021-07-20T08:06:55Z</time>
      </trkpt>
      <trkpt lat="45.70541" lon="2.93257">
        <ele>1033.41</ele>
        <time>2021-07-20T08:06:58Z</time>
      </trkpt>
      <trkpt lat="45.70539" lon="2.93241">
        <ele>1035.6</ele>
        <time>2021-07-20T08:07:02Z</time>
      </trkpt>
      <trkpt lat="45.70538" lon="2.93228">
        <ele>1036.23</ele>
        <time>2021-07-20T08:07:05Z</time>
      </trkpt>
      <trkpt lat="45.70538" lon="2.93214">
        <ele>1036.76</ele>
        <time>2021-07-20T08:07:08Z</time>
      </trkpt>
      <trkpt lat="45.70538" lon="2.93199">
        <ele>1036.94</ele>
        <time>2021-07-20T08:07:11Z</time>
      </trkpt>
      <trkpt lat="45.70538" lon="2.93183">
        <ele>1037.4</ele>
        <time>2021-07-20T08:07:14Z</time>
      </trkpt>
      <trkpt lat="45.70538" lon="2.93165">
        <ele>1037.41</ele>
        <time>2021-07-20T08:07:17Z</time>
      </trkpt>
      <trkpt lat="45.70536" lon="2.93147">
        <ele>1037.14</ele>
        <time>2021-07-20T08:07:20Z</time>
      </trkpt>
      <trkpt lat="45.70535" lon="2.9313">
        <ele>1035.97</ele>
        <time>2021-07-20T08:07:23Z</time>
      </trkpt>
      <trkpt lat="45.70533" lon="2.93112">
        <ele>1034.49</ele>
        <time>2021-07-20T08:07:26Z</time>
      </trkpt>
      <trkpt lat="45.70532" lon="2.93095">
        <ele>1034.18</ele>
        <time>2021-07-20T08:07:29Z</time>
      </trkpt>
      <trkpt lat="45.7053" lon="2.9308">
        <ele>1034.51</ele>
        <time>2021-07-20T08:07:32Z</time>
      </trkpt>
      <trkpt lat="45.70528" lon="2.93064">
        <ele>1036.47</ele>
        <time>2021-07-20T08:07:36Z</time>
      </trkpt>
      <trkpt lat="45.70526" lon="2.9305">
        <ele>1035.98</ele>
        <time>2021-07-20T08:07:40Z</time>
      </trkpt>
      <trkpt lat="45.70525" lon="2.93034">
        <ele>1036.98</ele>
        <time>2021-07-20T08:07:44Z</time>
      </trkpt>
      <trkpt lat="45.70526" lon="2.93019">
        <ele>1036</ele>
        <time>2021-07-20T08:07:49Z</time>
      </trkpt>
      <trkpt lat="45.70528" lon="2.93003">
        <ele>1035.47</ele>
        <time>2021-07-20T08:07:53Z</time>
      </trkpt>
      <trkpt lat="45.70531" lon="2.92987">
        <ele>1035.21</ele>
        <time>2021-07-20T08:07:57Z</time>
      </trkpt>
      <trkpt lat="45.70531" lon="2.92969">
        <ele>1034.49</ele>
        <time>2021-07-20T08:08:00Z</time>
      </trkpt>
      <trkpt lat="45.70531" lon="2.92954">
        <ele>1032.75</ele>
        <time>2021-07-20T08:08:03Z</time>
      </trkpt>
      <trkpt lat="45.70531" lon="2.92938">
        <ele>1033.4</ele>
        <time>2021-07-20T08:08:07Z</time>
      </trkpt>
      <trkpt lat="45.70528" lon="2.92922">
        <ele>1035.04</ele>
        <time>2021-07-20T08:08:11Z</time>
      </trkpt>
      <trkpt lat="45.70524" lon="2.92909">
        <ele>1033.95</ele>
        <time>2021-07-20T08:08:14Z</time>
      </trkpt>
      <trkpt lat="45.70519" lon="2.92895">
        <ele>1034.42</ele>
        <time>2021-07-20T08:08:18Z</time>
      </trkpt>
      <trkpt lat="45.70519" lon="2.92882">
        <ele>1036.16</ele>
        <time>2021-07-20T08:08:22Z</time>
      </trkpt>
      <trkpt lat="45.70517" lon="2.92865">
        <ele>1036.85</ele>
        <time>2021-07-20T08:08:26Z</time>
      </trkpt>
      <trkpt lat="45.70515" lon="2.92849">
        <ele>1035.61</ele>
        <time>2021-07-20T08:08:29Z</time>
      </trkpt>
      <trkpt lat="45.70513" lon="2.92833">
        <ele>1032.37</ele>
        <time>2021-07-20T08:08:32Z</time>
      </trkpt>
      <trkpt lat="45.7051" lon="2.92817">
        <ele>1031.94</ele>
        <time>2021-07-20T08:08:35Z</time>
      </trkpt>
      <trkpt lat="45.70507" lon="2.92799">
        <ele>1032.74</ele>
        <time>2021-07-20T08:08:38Z</time>
      </trkpt>
      <trkpt lat="45.70504" lon="2.92784">
        <ele>1034.66</ele>
        <time>2021-07-20T08:08:41Z</time>
      </trkpt>
      <trkpt lat="45.705" lon="2.92767">
        <ele>1034.18</ele>
        <time>2021-07-20T08:08:44Z</time>
      </trkpt>
      <trkpt lat="45.70498" lon="2.9275">
        <ele>1033.77</ele>
        <time>2021-07-20T08:08:47Z</time>
      </trkpt>
      <trkpt lat="45.70496" lon="2.92732">
        <ele>1034.77</ele>
        <time>2021-07-20T08:08:50Z</time>
      </trkpt>
      <trkpt lat="45.70495" lon="2.92715">
        <ele>1035.19</ele>
        <time>2021-07-20T08:08:53Z</time>
      </trkpt>
      <trkpt lat="45.70493" lon="2.927">
        <ele>1035.15</ele>
        <time>2021-07-20T08:08:57Z</time>
      </trkpt>
      <trkpt lat="45.70494" lon="2.92687">
        <ele>1034.35</ele>
        <time>2021-07-20T08:11:05Z</time>
      </trkpt>
      <trkpt lat="45.70492" lon="2.92672">
        <ele>1032.58</ele>
        <time>2021-07-20T08:11:08Z</time>
      </trkpt>
      <trkpt lat="45.70492" lon="2.92651">
        <ele>1031.64</ele>
        <time>2021-07-20T08:11:11Z</time>
      </trkpt>
      <trkpt lat="45.7049" lon="2.92635">
        <ele>1030.44</ele>
        <time>2021-07-20T08:11:13Z</time>
      </trkpt>
      <trkpt lat="45.70487" lon="2.92617">
        <ele>1030.34</ele>
        <time>2021-07-20T08:11:15Z</time>
      </trkpt>
      <trkpt lat="45.70488" lon="2.92599">
        <ele>1028.79</ele>
        <time>2021-07-20T08:11:17Z</time>
      </trkpt>
      <trkpt lat="45.70488" lon="2.92579">
        <ele>1025.26</ele>
        <time>2021-07-20T08:11:19Z</time>
      </trkpt>
      <trkpt lat="45.70486" lon="2.92561">
        <ele>1023.39</ele>
        <time>2021-07-20T08:11:21Z</time>
      </trkpt>
      <trkpt lat="45.70485" lon="2.92543">
        <ele>1021.8</ele>
        <time>2021-07-20T08:11:23Z</time>
      </trkpt>
      <trkpt lat="45.70485" lon="2.92524">
        <ele>1021.59</ele>
        <time>2021-07-20T08:11:25Z</time>
      </trkpt>
      <trkpt lat="45.7049" lon="2.92506">
        <ele>1020.65</ele>
        <time>2021-07-20T08:11:27Z</time>
      </trkpt>
      <trkpt lat="45.70494" lon="2.92488">
        <ele>1019.35</ele>
        <time>2021-07-20T08:11:29Z</time>
      </trkpt>
      <trkpt lat="45.705" lon="2.9247">
        <ele>1017.75</ele>
        <time>2021-07-20T08:11:31Z</time>
      </trkpt>
      <trkpt lat="45.70501" lon="2.9245">
        <ele>1017.14</ele>
        <time>2021-07-20T08:11:33Z</time>
      </trkpt>
      <trkpt lat="45.705" lon="2.92428">
        <ele>1016.8</ele>
        <time>2021-07-20T08:11:35Z</time>
      </trkpt>
      <trkpt lat="45.70496" lon="2.92404">
        <ele>1015.63</ele>
        <time>2021-07-20T08:11:37Z</time>
      </trkpt>
      <trkpt lat="45.70494" lon="2.92383">
        <ele>1014.32</ele>
        <time>2021-07-20T08:11:39Z</time>
      </trkpt>
      <trkpt lat="45.70492" lon="2.92361">
        <ele>1013.03</ele>
        <time>2021-07-20T08:11:41Z</time>
      </trkpt>
      <trkpt lat="45.7049" lon="2.92338">
        <ele>1010.98</ele>
        <time>2021-07-20T08:11:43Z</time>
      </trkpt>
      <trkpt lat="45.70489" lon="2.92314">
        <ele>1010.56</ele>
        <time>2021-07-20T08:11:45Z</time>
      </trkpt>
      <trkpt lat="45.7049" lon="2.92289">
        <ele>1008.44</ele>
        <time>2021-07-20T08:11:47Z</time>
      </trkpt>
      <trkpt lat="45.70491" lon="2.92264">
        <ele>1007.75</ele>
        <time>2021-07-20T08:11:49Z</time>
      </trkpt>
      <trkpt lat="45.7049" lon="2.92238">
        <ele>1006.64</ele>
        <time>2021-07-20T08:11:51Z</time>
      </trkpt>
      <trkpt lat="45.70489" lon="2.92213">
        <ele>1006.64</ele>
        <time>2021-07-20T08:11:53Z</time>
      </trkpt>
      <trkpt lat="45.70489" lon="2.92199">
        <ele>1006.52</ele>
        <time>2021-07-20T08:11:54Z</time>
      </trkpt>
      <trkpt lat="45.70491" lon="2.92176">
        <ele>1005.36</ele>
        <time>2021-07-20T08:11:56Z</time>
      </trkpt>
      <trkpt lat="45.70491" lon="2.92155">
        <ele>1003.94</ele>
        <time>2021-07-20T08:11:58Z</time>
      </trkpt>
      <trkpt lat="45.70492" lon="2.92135">
        <ele>1003.85</ele>
        <time>2021-07-20T08:12:00Z</time>
      </trkpt>
      <trkpt lat="45.70493" lon="2.92114">
        <ele>1003.6</ele>
        <time>2021-07-20T08:12:02Z</time>
      </trkpt>
      <trkpt lat="45.70493" lon="2.92097">
        <ele>1002.66</ele>
        <time>2021-07-20T08:12:04Z</time>
      </trkpt>
      <trkpt lat="45.70495" lon="2.9208">
        <ele>1000.76</ele>
        <time>2021-07-20T08:12:06Z</time>
      </trkpt>
      <trkpt lat="45.70493" lon="2.9206">
        <ele>999.07</ele>
        <time>2021-07-20T08:12:08Z</time>
      </trkpt>
      <trkpt lat="45.70492" lon="2.92041">
        <ele>997.84</ele>
        <time>2021-07-20T08:12:10Z</time>
      </trkpt>
      <trkpt lat="45.7049" lon="2.92018">
        <ele>995.97</ele>
        <time>2021-07-20T08:12:12Z</time>
      </trkpt>
      <trkpt lat="45.70484" lon="2.91996">
        <ele>995.22</ele>
        <time>2021-07-20T08:12:14Z</time>
      </trkpt>
      <trkpt lat="45.70477" lon="2.91974">
        <ele>993.66</ele>
        <time>2021-07-20T08:12:16Z</time>
      </trkpt>
      <trkpt lat="45.70471" lon="2.91952">
        <ele>991.32</ele>
        <time>2021-07-20T08:12:18Z</time>
      </trkpt>
      <trkpt lat="45.70464" lon="2.91932">
        <ele>989.28</ele>
        <time>2021-07-20T08:12:20Z</time>
      </trkpt>
      <trkpt lat="45.70458" lon="2.91913">
        <ele>987.45</ele>
        <time>2021-07-20T08:12:22Z</time>
      </trkpt>
      <trkpt lat="45.70453" lon="2.91895">
        <ele>985.82</ele>
        <time>2021-07-20T08:12:24Z</time>
      </trkpt>
      <trkpt lat="45.70447" lon="2.91877">
        <ele>983.84</ele>
        <time>2021-07-20T08:12:26Z</time>
      </trkpt>
      <trkpt lat="45.7044" lon="2.91857">
        <ele>981.92</ele>
        <time>2021-07-20T08:12:28Z</time>
      </trkpt>
      <trkpt lat="45.70434" lon="2.91836">
        <ele>981.13</ele>
        <time>2021-07-20T08:12:30Z</time>
      </trkpt>
      <trkpt lat="45.70427" lon="2.91817">
        <ele>981.29</ele>
        <time>2021-07-20T08:12:32Z</time>
      </trkpt>
      <trkpt lat="45.7042" lon="2.91798">
        <ele>981.45</ele>
        <time>2021-07-20T08:12:34Z</time>
      </trkpt>
      <trkpt lat="45.70415" lon="2.91778">
        <ele>978.54</ele>
        <time>2021-07-20T08:12:36Z</time>
      </trkpt>
      <trkpt lat="45.70413" lon="2.91765">
        <ele>975.5</ele>
        <time>2021-07-20T08:12:38Z</time>
      </trkpt>
      <trkpt lat="45.70409" lon="2.91751">
        <ele>975.65</ele>
        <time>2021-07-20T08:12:40Z</time>
      </trkpt>
      <trkpt lat="45.70398" lon="2.91742">
        <ele>975.33</ele>
        <time>2021-07-20T08:12:43Z</time>
      </trkpt>
      <trkpt lat="45.7039" lon="2.91755">
        <ele>973.43</ele>
        <time>2021-07-20T08:12:46Z</time>
      </trkpt>
      <trkpt lat="45.70383" lon="2.91773">
        <ele>972.94</ele>
        <time>2021-07-20T08:12:49Z</time>
      </trkpt>
      <trkpt lat="45.70379" lon="2.91785">
        <ele>972.29</ele>
        <time>2021-07-20T08:12:51Z</time>
      </trkpt>
      <trkpt lat="45.70369" lon="2.91792">
        <ele>972.1</ele>
        <time>2021-07-20T08:12:54Z</time>
      </trkpt>
      <trkpt lat="45.70365" lon="2.91778">
        <ele>971.27</ele>
        <time>2021-07-20T08:12:56Z</time>
      </trkpt>
      <trkpt lat="45.70365" lon="2.91761">
        <ele>969.01</ele>
        <time>2021-07-20T08:12:58Z</time>
      </trkpt>
      <trkpt lat="45.7037" lon="2.91741">
        <ele>967.9</ele>
        <time>2021-07-20T08:13:00Z</time>
      </trkpt>
      <trkpt lat="45.70376" lon="2.91722">
        <ele>966.03</ele>
        <time>2021-07-20T08:13:02Z</time>
      </trkpt>
      <trkpt lat="45.70384" lon="2.91702">
        <ele>964.83</ele>
        <time>2021-07-20T08:13:04Z</time>
      </trkpt>
      <trkpt lat="45.70389" lon="2.91686">
        <ele>964.84</ele>
        <time>2021-07-20T08:13:06Z</time>
      </trkpt>
      <trkpt lat="45.70395" lon="2.9167">
        <ele>963.69</ele>
        <time>2021-07-20T08:13:08Z</time>
      </trkpt>
      <trkpt lat="45.70406" lon="2.91654">
        <ele>961.42</ele>
        <time>2021-07-20T08:13:10Z</time>
      </trkpt>
      <trkpt lat="45.70414" lon="2.9164">
        <ele>958.31</ele>
        <time>2021-07-20T08:13:12Z</time>
      </trkpt>
      <trkpt lat="45.70423" lon="2.91629">
        <ele>956.24</ele>
        <time>2021-07-20T08:13:14Z</time>
      </trkpt>
      <trkpt lat="45.70432" lon="2.91623">
        <ele>955.33</ele>
        <time>2021-07-20T08:13:16Z</time>
      </trkpt>
      <trkpt lat="45.70439" lon="2.91615">
        <ele>956.8</ele>
        <time>2021-07-20T08:13:19Z</time>
      </trkpt>
      <trkpt lat="45.70431" lon="2.91607">
        <ele>951.72</ele>
        <time>2021-07-20T08:13:33Z</time>
      </trkpt>
      <trkpt lat="45.70422" lon="2.91612">
        <ele>954.82</ele>
        <time>2021-07-20T08:13:36Z</time>
      </trkpt>
      <trkpt lat="45.70413" lon="2.91616">
        <ele>955.81</ele>
        <time>2021-07-20T08:13:39Z</time>
      </trkpt>
      <trkpt lat="45.70403" lon="2.91618">
        <ele>956.6</ele>
        <time>2021-07-20T08:13:42Z</time>
      </trkpt>
      <trkpt lat="45.70392" lon="2.9162">
        <ele>956.99</ele>
        <time>2021-07-20T08:13:45Z</time>
      </trkpt>
      <trkpt lat="45.7038" lon="2.91623">
        <ele>955.86</ele>
        <time>2021-07-20T08:13:48Z</time>
      </trkpt>
      <trkpt lat="45.70371" lon="2.91625">
        <ele>955.03</ele>
        <time>2021-07-20T08:13:51Z</time>
      </trkpt>
      <trkpt lat="45.70362" lon="2.91627">
        <ele>953.69</ele>
        <time>2021-07-20T08:13:55Z</time>
      </trkpt>
      <trkpt lat="45.70358" lon="2.91614">
        <ele>950.5</ele>
        <time>2021-07-20T08:14:03Z</time>
      </trkpt>
      <trkpt lat="45.70354" lon="2.91601">
        <ele>949.88</ele>
        <time>2021-07-20T08:14:06Z</time>
      </trkpt>
      <trkpt lat="45.7035" lon="2.91587">
        <ele>949.35</ele>
        <time>2021-07-20T08:14:08Z</time>
      </trkpt>
      <trkpt lat="45.70345" lon="2.91571">
        <ele>947.6</ele>
        <time>2021-07-20T08:14:10Z</time>
      </trkpt>
      <trkpt lat="45.70342" lon="2.91554">
        <ele>946.05</ele>
        <time>2021-07-20T08:14:12Z</time>
      </trkpt>
      <trkpt lat="45.70338" lon="2.91538">
        <ele>945.62</ele>
        <time>2021-07-20T08:14:14Z</time>
      </trkpt>
      <trkpt lat="45.70334" lon="2.91521">
        <ele>943.39</ele>
        <time>2021-07-20T08:14:16Z</time>
      </trkpt>
      <trkpt lat="45.70332" lon="2.91502">
        <ele>941.86</ele>
        <time>2021-07-20T08:14:18Z</time>
      </trkpt>
      <trkpt lat="45.70335" lon="2.91484">
        <ele>939.91</ele>
        <time>2021-07-20T08:14:20Z</time>
      </trkpt>
      <trkpt lat="45.70339" lon="2.91466">
        <ele>937.51</ele>
        <time>2021-07-20T08:14:22Z</time>
      </trkpt>
      <trkpt lat="45.7034" lon="2.91449">
        <ele>937.59</ele>
        <time>2021-07-20T08:14:24Z</time>
      </trkpt>
      <trkpt lat="45.70337" lon="2.91436">
        <ele>937.44</ele>
        <time>2021-07-20T08:14:26Z</time>
      </trkpt>
      <trkpt lat="45.70331" lon="2.91422">
        <ele>935.81</ele>
        <time>2021-07-20T08:14:28Z</time>
      </trkpt>
      <trkpt lat="45.70325" lon="2.9141">
        <ele>934.35</ele>
        <time>2021-07-20T08:14:30Z</time>
      </trkpt>
      <trkpt lat="45.70325" lon="2.91392">
        <ele>932.53</ele>
        <time>2021-07-20T08:14:33Z</time>
      </trkpt>
      <trkpt lat="45.70334" lon="2.91385">
        <ele>930.51</ele>
        <time>2021-07-20T08:14:36Z</time>
      </trkpt>
      <trkpt lat="45.70332" lon="2.91359">
        <ele>929.45</ele>
        <time>2021-07-20T08:14:44Z</time>
      </trkpt>
      <trkpt lat="45.70326" lon="2.91348">
        <ele>931.28</ele>
        <time>2021-07-20T08:14:46Z</time>
      </trkpt>
      <trkpt lat="45.70326" lon="2.91333">
        <ele>934.15</ele>
        <time>2021-07-20T08:14:51Z</time>
      </trkpt>
      <trkpt lat="45.70339" lon="2.91325">
        <ele>932.88</ele>
        <time>2021-07-20T08:14:54Z</time>
      </trkpt>
      <trkpt lat="45.70348" lon="2.91319">
        <ele>931.27</ele>
        <time>2021-07-20T08:14:56Z</time>
      </trkpt>
      <trkpt lat="45.70357" lon="2.91312">
        <ele>932.1</ele>
        <time>2021-07-20T08:14:58Z</time>
      </trkpt>
      <trkpt lat="45.70366" lon="2.91306">
        <ele>931.23</ele>
        <time>2021-07-20T08:15:00Z</time>
      </trkpt>
      <trkpt lat="45.70378" lon="2.91297">
        <ele>930.84</ele>
        <time>2021-07-20T08:15:03Z</time>
      </trkpt>
      <trkpt lat="45.70391" lon="2.91292">
        <ele>930.63</ele>
        <time>2021-07-20T08:15:06Z</time>
      </trkpt>
      <trkpt lat="45.70402" lon="2.91284">
        <ele>931.31</ele>
        <time>2021-07-20T08:15:09Z</time>
      </trkpt>
      <trkpt lat="45.70413" lon="2.91276">
        <ele>931.47</ele>
        <time>2021-07-20T08:15:12Z</time>
      </trkpt>
      <trkpt lat="45.70426" lon="2.9127">
        <ele>931.34</ele>
        <time>2021-07-20T08:15:15Z</time>
      </trkpt>
      <trkpt lat="45.70435" lon="2.91265">
        <ele>930.09</ele>
        <time>2021-07-20T08:15:17Z</time>
      </trkpt>
      <trkpt lat="45.70444" lon="2.9126">
        <ele>927.93</ele>
        <time>2021-07-20T08:15:19Z</time>
      </trkpt>
      <trkpt lat="45.70454" lon="2.91254">
        <ele>926.88</ele>
        <time>2021-07-20T08:15:21Z</time>
      </trkpt>
      <trkpt lat="45.70462" lon="2.91247">
        <ele>929.91</ele>
        <time>2021-07-20T08:15:26Z</time>
      </trkpt>
      <trkpt lat="45.70473" lon="2.91238">
        <ele>924.2</ele>
        <time>2021-07-20T08:15:53Z</time>
      </trkpt>
      <trkpt lat="45.70479" lon="2.91227">
        <ele>923.29</ele>
        <time>2021-07-20T08:15:57Z</time>
      </trkpt>
      <trkpt lat="45.70477" lon="2.91211">
        <ele>922.38</ele>
        <time>2021-07-20T08:16:01Z</time>
      </trkpt>
      <trkpt lat="45.70471" lon="2.912">
        <ele>922.47</ele>
        <time>2021-07-20T08:16:04Z</time>
      </trkpt>
      <trkpt lat="45.70472" lon="2.91183">
        <ele>920.46</ele>
        <time>2021-07-20T08:16:08Z</time>
      </trkpt>
      <trkpt lat="45.7048" lon="2.91173">
        <ele>920.82</ele>
        <time>2021-07-20T08:16:12Z</time>
      </trkpt>
      <trkpt lat="45.70488" lon="2.91166">
        <ele>920.15</ele>
        <time>2021-07-20T08:16:16Z</time>
      </trkpt>
      <trkpt lat="45.70495" lon="2.91157">
        <ele>919.39</ele>
        <time>2021-07-20T08:16:20Z</time>
      </trkpt>
      <trkpt lat="45.70498" lon="2.91143">
        <ele>917.62</ele>
        <time>2021-07-20T08:16:25Z</time>
      </trkpt>
      <trkpt lat="45.70502" lon="2.91132">
        <ele>919.7</ele>
        <time>2021-07-20T08:16:29Z</time>
      </trkpt>
      <trkpt lat="45.70507" lon="2.9112">
        <ele>920.61</ele>
        <time>2021-07-20T08:16:33Z</time>
      </trkpt>
      <trkpt lat="45.70513" lon="2.9111">
        <ele>922.18</ele>
        <time>2021-07-20T08:16:37Z</time>
      </trkpt>
      <trkpt lat="45.70519" lon="2.91099">
        <ele>923.65</ele>
        <time>2021-07-20T08:16:42Z</time>
      </trkpt>
      <trkpt lat="45.70524" lon="2.91087">
        <ele>923.29</ele>
        <time>2021-07-20T08:16:46Z</time>
      </trkpt>
      <trkpt lat="45.70528" lon="2.91075">
        <ele>928.07</ele>
        <time>2021-07-20T08:16:51Z</time>
      </trkpt>
      <trkpt lat="45.70535" lon="2.91063">
        <ele>926.07</ele>
        <time>2021-07-20T08:16:56Z</time>
      </trkpt>
      <trkpt lat="45.70541" lon="2.91053">
        <ele>925.69</ele>
        <time>2021-07-20T08:17:00Z</time>
      </trkpt>
      <trkpt lat="45.70548" lon="2.91044">
        <ele>924.84</ele>
        <time>2021-07-20T08:17:04Z</time>
      </trkpt>
      <trkpt lat="45.70556" lon="2.91036">
        <ele>922.05</ele>
        <time>2021-07-20T08:17:07Z</time>
      </trkpt>
      <trkpt lat="45.70564" lon="2.91029">
        <ele>922.64</ele>
        <time>2021-07-20T08:17:11Z</time>
      </trkpt>
      <trkpt lat="45.70572" lon="2.91022">
        <ele>923.65</ele>
        <time>2021-07-20T08:17:15Z</time>
      </trkpt>
      <trkpt lat="45.70582" lon="2.91016">
        <ele>922.03</ele>
        <time>2021-07-20T08:17:19Z</time>
      </trkpt>
      <trkpt lat="45.70591" lon="2.91009">
        <ele>920.88</ele>
        <time>2021-07-20T08:17:23Z</time>
      </trkpt>
      <trkpt lat="45.70598" lon="2.91002">
        <ele>921.29</ele>
        <time>2021-07-20T08:17:26Z</time>
      </trkpt>
      <trkpt lat="45.70606" lon="2.90994">
        <ele>921.48</ele>
        <time>2021-07-20T08:17:30Z</time>
      </trkpt>
      <trkpt lat="45.70614" lon="2.90983">
        <ele>922.7</ele>
        <time>2021-07-20T08:17:34Z</time>
      </trkpt>
      <trkpt lat="45.70622" lon="2.90971">
        <ele>925</ele>
        <time>2021-07-20T08:17:38Z</time>
      </trkpt>
      <trkpt lat="45.70627" lon="2.90961">
        <ele>926.58</ele>
        <time>2021-07-20T08:17:42Z</time>
      </trkpt>
      <trkpt lat="45.70631" lon="2.90948">
        <ele>924.93</ele>
        <time>2021-07-20T08:17:47Z</time>
      </trkpt>
      <trkpt lat="45.70632" lon="2.90934">
        <ele>924.01</ele>
        <time>2021-07-20T08:17:52Z</time>
      </trkpt>
      <trkpt lat="45.70636" lon="2.90922">
        <ele>926.82</ele>
        <time>2021-07-20T08:17:57Z</time>
      </trkpt>
      <trkpt lat="45.7064" lon="2.9091">
        <ele>931.17</ele>
        <time>2021-07-20T08:18:01Z</time>
      </trkpt>
      <trkpt lat="45.70645" lon="2.90896">
        <ele>935.07</ele>
        <time>2021-07-20T08:18:05Z</time>
      </trkpt>
      <trkpt lat="45.70649" lon="2.90883">
        <ele>937.38</ele>
        <time>2021-07-20T08:18:09Z</time>
      </trkpt>
      <trkpt lat="45.70654" lon="2.90869">
        <ele>940.76</ele>
        <time>2021-07-20T08:18:14Z</time>
      </trkpt>
      <trkpt lat="45.70657" lon="2.90857">
        <ele>940.91</ele>
        <time>2021-07-20T08:18:18Z</time>
      </trkpt>
      <trkpt lat="45.7066" lon="2.90844">
        <ele>940.11</ele>
        <time>2021-07-20T08:18:22Z</time>
      </trkpt>
      <trkpt lat="45.70662" lon="2.9083">
        <ele>940.33</ele>
        <time>2021-07-20T08:18:26Z</time>
      </trkpt>
      <trkpt lat="45.70662" lon="2.90816">
        <ele>940.46</ele>
        <time>2021-07-20T08:18:30Z</time>
      </trkpt>
      <trkpt lat="45.70659" lon="2.908">
        <ele>938.83</ele>
        <time>2021-07-20T08:18:34Z</time>
      </trkpt>
      <trkpt lat="45.70653" lon="2.9079">
        <ele>937.08</ele>
        <time>2021-07-20T08:18:38Z</time>
      </trkpt>
      <trkpt lat="45.70644" lon="2.90782">
        <ele>933.8</ele>
        <time>2021-07-20T08:18:43Z</time>
      </trkpt>
      <trkpt lat="45.70634" lon="2.90779">
        <ele>933.34</ele>
        <time>2021-07-20T08:19:11Z</time>
      </trkpt>
      <trkpt lat="45.70625" lon="2.90779">
        <ele>933.15</ele>
        <time>2021-07-20T08:19:14Z</time>
      </trkpt>
      <trkpt lat="45.70612" lon="2.90779">
        <ele>934.12</ele>
        <time>2021-07-20T08:19:17Z</time>
      </trkpt>
      <trkpt lat="45.70599" lon="2.90774">
        <ele>931.51</ele>
        <time>2021-07-20T08:19:19Z</time>
      </trkpt>
      <trkpt lat="45.7059" lon="2.90766">
        <ele>930.44</ele>
        <time>2021-07-20T08:19:21Z</time>
      </trkpt>
      <trkpt lat="45.70578" lon="2.90757">
        <ele>929.84</ele>
        <time>2021-07-20T08:19:23Z</time>
      </trkpt>
      <trkpt lat="45.7057" lon="2.90746">
        <ele>930.03</ele>
        <time>2021-07-20T08:19:25Z</time>
      </trkpt>
      <trkpt lat="45.70561" lon="2.90731">
        <ele>927.77</ele>
        <time>2021-07-20T08:19:27Z</time>
      </trkpt>
      <trkpt lat="45.70555" lon="2.90717">
        <ele>926.63</ele>
        <time>2021-07-20T08:19:29Z</time>
      </trkpt>
      <trkpt lat="45.70551" lon="2.90699">
        <ele>925.12</ele>
        <time>2021-07-20T08:19:31Z</time>
      </trkpt>
      <trkpt lat="45.70542" lon="2.90678">
        <ele>926.36</ele>
        <time>2021-07-20T08:19:33Z</time>
      </trkpt>
      <trkpt lat="45.70535" lon="2.90657">
        <ele>927.36</ele>
        <time>2021-07-20T08:19:35Z</time>
      </trkpt>
      <trkpt lat="45.7053" lon="2.90639">
        <ele>926.84</ele>
        <time>2021-07-20T08:19:37Z</time>
      </trkpt>
      <trkpt lat="45.70524" lon="2.90619">
        <ele>926.79</ele>
        <time>2021-07-20T08:19:39Z</time>
      </trkpt>
      <trkpt lat="45.70518" lon="2.90603">
        <ele>925.46</ele>
        <time>2021-07-20T08:19:41Z</time>
      </trkpt>
      <trkpt lat="45.7051" lon="2.90587">
        <ele>925.12</ele>
        <time>2021-07-20T08:19:43Z</time>
      </trkpt>
      <trkpt lat="45.70504" lon="2.90571">
        <ele>924.32</ele>
        <time>2021-07-20T08:19:45Z</time>
      </trkpt>
      <trkpt lat="45.70495" lon="2.90556">
        <ele>925.19</ele>
        <time>2021-07-20T08:19:47Z</time>
      </trkpt>
      <trkpt lat="45.70492" lon="2.90538">
        <ele>924.93</ele>
        <time>2021-07-20T08:19:50Z</time>
      </trkpt>
      <trkpt lat="45.70489" lon="2.90523">
        <ele>923.72</ele>
        <time>2021-07-20T08:19:52Z</time>
      </trkpt>
      <trkpt lat="45.70482" lon="2.90511">
        <ele>921.83</ele>
        <time>2021-07-20T08:19:54Z</time>
      </trkpt>
      <trkpt lat="45.70477" lon="2.905">
        <ele>920.94</ele>
        <time>2021-07-20T08:19:56Z</time>
      </trkpt>
      <trkpt lat="45.70469" lon="2.90486">
        <ele>920.02</ele>
        <time>2021-07-20T08:19:58Z</time>
      </trkpt>
      <trkpt lat="45.70462" lon="2.9047">
        <ele>918.21</ele>
        <time>2021-07-20T08:20:00Z</time>
      </trkpt>
      <trkpt lat="45.70455" lon="2.90454">
        <ele>916.9</ele>
        <time>2021-07-20T08:20:02Z</time>
      </trkpt>
      <trkpt lat="45.70446" lon="2.90437">
        <ele>916.33</ele>
        <time>2021-07-20T08:20:04Z</time>
      </trkpt>
      <trkpt lat="45.70442" lon="2.90422">
        <ele>914.77</ele>
        <time>2021-07-20T08:20:06Z</time>
      </trkpt>
      <trkpt lat="45.70436" lon="2.9041">
        <ele>914.75</ele>
        <time>2021-07-20T08:20:08Z</time>
      </trkpt>
      <trkpt lat="45.70435" lon="2.90395">
        <ele>913.81</ele>
        <time>2021-07-20T08:20:10Z</time>
      </trkpt>
      <trkpt lat="45.70432" lon="2.90377">
        <ele>912.29</ele>
        <time>2021-07-20T08:20:13Z</time>
      </trkpt>
      <trkpt lat="45.70431" lon="2.90362">
        <ele>909.46</ele>
        <time>2021-07-20T08:20:15Z</time>
      </trkpt>
      <trkpt lat="45.70435" lon="2.90348">
        <ele>908.66</ele>
        <time>2021-07-20T08:20:18Z</time>
      </trkpt>
      <trkpt lat="45.70442" lon="2.90339">
        <ele>906.26</ele>
        <time>2021-07-20T08:20:21Z</time>
      </trkpt>
      <trkpt lat="45.7045" lon="2.9033">
        <ele>906.64</ele>
        <time>2021-07-20T08:20:22Z</time>
      </trkpt>
      <trkpt lat="45.70462" lon="2.90314">
        <ele>905.1</ele>
        <time>2021-07-20T08:20:23Z</time>
      </trkpt>
      <trkpt lat="45.70472" lon="2.90303">
        <ele>904.12</ele>
        <time>2021-07-20T08:20:26Z</time>
      </trkpt>
      <trkpt lat="45.70481" lon="2.90296">
        <ele>902.87</ele>
        <time>2021-07-20T08:20:29Z</time>
      </trkpt>
      <trkpt lat="45.70489" lon="2.90286">
        <ele>902.13</ele>
        <time>2021-07-20T08:20:34Z</time>
      </trkpt>
      <trkpt lat="45.70497" lon="2.90275">
        <ele>902.75</ele>
        <time>2021-07-20T08:20:38Z</time>
      </trkpt>
      <trkpt lat="45.70503" lon="2.90264">
        <ele>903.54</ele>
        <time>2021-07-20T08:20:43Z</time>
      </trkpt>
      <trkpt lat="45.70506" lon="2.9025">
        <ele>907.79</ele>
        <time>2021-07-20T08:20:48Z</time>
      </trkpt>
      <trkpt lat="45.70506" lon="2.90235">
        <ele>906.15</ele>
        <time>2021-07-20T08:20:54Z</time>
      </trkpt>
      <trkpt lat="45.70507" lon="2.90221">
        <ele>905.29</ele>
        <time>2021-07-20T08:20:59Z</time>
      </trkpt>
      <trkpt lat="45.7051" lon="2.90208">
        <ele>907.22</ele>
        <time>2021-07-20T08:21:03Z</time>
      </trkpt>
      <trkpt lat="45.70512" lon="2.90195">
        <ele>908.7</ele>
        <time>2021-07-20T08:21:07Z</time>
      </trkpt>
      <trkpt lat="45.70515" lon="2.90181">
        <ele>909.55</ele>
        <time>2021-07-20T08:21:12Z</time>
      </trkpt>
      <trkpt lat="45.70516" lon="2.90165">
        <ele>909.99</ele>
        <time>2021-07-20T08:21:17Z</time>
      </trkpt>
      <trkpt lat="45.70518" lon="2.90149">
        <ele>911.05</ele>
        <time>2021-07-20T08:21:21Z</time>
      </trkpt>
      <trkpt lat="45.7052" lon="2.90132">
        <ele>910.03</ele>
        <time>2021-07-20T08:21:25Z</time>
      </trkpt>
      <trkpt lat="45.7052" lon="2.90116">
        <ele>909.89</ele>
        <time>2021-07-20T08:21:28Z</time>
      </trkpt>
      <trkpt lat="45.70521" lon="2.901">
        <ele>909.42</ele>
        <time>2021-07-20T08:21:32Z</time>
      </trkpt>
      <trkpt lat="45.70521" lon="2.90085">
        <ele>911.03</ele>
        <time>2021-07-20T08:21:37Z</time>
      </trkpt>
      <trkpt lat="45.70514" lon="2.90075">
        <ele>912.66</ele>
        <time>2021-07-20T08:21:42Z</time>
      </trkpt>
      <trkpt lat="45.70505" lon="2.90071">
        <ele>916.37</ele>
        <time>2021-07-20T08:21:49Z</time>
      </trkpt>
      <trkpt lat="45.70496" lon="2.90064">
        <ele>916.16</ele>
        <time>2021-07-20T08:21:56Z</time>
      </trkpt>
      <trkpt lat="45.70488" lon="2.90057">
        <ele>916.08</ele>
        <time>2021-07-20T08:22:03Z</time>
      </trkpt>
      <trkpt lat="45.70485" lon="2.90045">
        <ele>915.7</ele>
        <time>2021-07-20T08:22:14Z</time>
      </trkpt>
      <trkpt lat="45.70481" lon="2.90031">
        <ele>919.94</ele>
        <time>2021-07-20T08:23:10Z</time>
      </trkpt>
      <trkpt lat="45.70475" lon="2.90022">
        <ele>918.69</ele>
        <time>2021-07-20T08:23:14Z</time>
      </trkpt>
      <trkpt lat="45.70466" lon="2.90011">
        <ele>917.52</ele>
        <time>2021-07-20T08:23:18Z</time>
      </trkpt>
      <trkpt lat="45.70457" lon="2.90002">
        <ele>915.66</ele>
        <time>2021-07-20T08:23:21Z</time>
      </trkpt>
      <trkpt lat="45.70448" lon="2.89993">
        <ele>913.72</ele>
        <time>2021-07-20T08:23:24Z</time>
      </trkpt>
      <trkpt lat="45.70439" lon="2.89983">
        <ele>912.18</ele>
        <time>2021-07-20T08:23:27Z</time>
      </trkpt>
      <trkpt lat="45.70431" lon="2.89975">
        <ele>909.44</ele>
        <time>2021-07-20T08:23:30Z</time>
      </trkpt>
      <trkpt lat="45.70423" lon="2.89968">
        <ele>909.28</ele>
        <time>2021-07-20T08:23:33Z</time>
      </trkpt>
      <trkpt lat="45.7041" lon="2.89956">
        <ele>908.81</ele>
        <time>2021-07-20T08:23:35Z</time>
      </trkpt>
      <trkpt lat="45.70402" lon="2.89943">
        <ele>907.55</ele>
        <time>2021-07-20T08:23:38Z</time>
      </trkpt>
      <trkpt lat="45.70398" lon="2.89931">
        <ele>908.99</ele>
        <time>2021-07-20T08:23:41Z</time>
      </trkpt>
      <trkpt lat="45.70391" lon="2.89922">
        <ele>911.15</ele>
        <time>2021-07-20T08:23:46Z</time>
      </trkpt>
      <trkpt lat="45.70387" lon="2.89909">
        <ele>914.34</ele>
        <time>2021-07-20T08:23:50Z</time>
      </trkpt>
      <trkpt lat="45.7038" lon="2.89896">
        <ele>915.23</ele>
        <time>2021-07-20T08:23:54Z</time>
      </trkpt>
      <trkpt lat="45.70373" lon="2.89886">
        <ele>918.77</ele>
        <time>2021-07-20T08:23:58Z</time>
      </trkpt>
      <trkpt lat="45.70364" lon="2.89881">
        <ele>918.92</ele>
        <time>2021-07-20T08:24:01Z</time>
      </trkpt>
      <trkpt lat="45.70354" lon="2.89877">
        <ele>916.13</ele>
        <time>2021-07-20T08:24:04Z</time>
      </trkpt>
      <trkpt lat="45.70345" lon="2.89873">
        <ele>914.6</ele>
        <time>2021-07-20T08:24:06Z</time>
      </trkpt>
      <trkpt lat="45.70335" lon="2.89867">
        <ele>914.2</ele>
        <time>2021-07-20T08:24:08Z</time>
      </trkpt>
      <trkpt lat="45.70326" lon="2.89858">
        <ele>913.49</ele>
        <time>2021-07-20T08:24:10Z</time>
      </trkpt>
      <trkpt lat="45.70317" lon="2.8985">
        <ele>913.34</ele>
        <time>2021-07-20T08:24:12Z</time>
      </trkpt>
      <trkpt lat="45.70308" lon="2.89844">
        <ele>912.73</ele>
        <time>2021-07-20T08:24:14Z</time>
      </trkpt>
      <trkpt lat="45.70299" lon="2.89836">
        <ele>913.34</ele>
        <time>2021-07-20T08:24:20Z</time>
      </trkpt>
      <trkpt lat="45.70271" lon="2.89811">
        <ele>910.7</ele>
        <time>2021-07-20T08:24:22Z</time>
      </trkpt>
      <trkpt lat="45.70261" lon="2.89802">
        <ele>906.83</ele>
        <time>2021-07-20T08:24:24Z</time>
      </trkpt>
      <trkpt lat="45.70255" lon="2.89792">
        <ele>905.74</ele>
        <time>2021-07-20T08:24:26Z</time>
      </trkpt>
      <trkpt lat="45.70247" lon="2.89786">
        <ele>906.35</ele>
        <time>2021-07-20T08:24:28Z</time>
      </trkpt>
      <trkpt lat="45.7024" lon="2.89774">
        <ele>903.65</ele>
        <time>2021-07-20T08:24:32Z</time>
      </trkpt>
      <trkpt lat="45.70227" lon="2.89759">
        <ele>902.03</ele>
        <time>2021-07-20T08:24:36Z</time>
      </trkpt>
      <trkpt lat="45.70217" lon="2.89747">
        <ele>901.36</ele>
        <time>2021-07-20T08:24:38Z</time>
      </trkpt>
      <trkpt lat="45.70206" lon="2.89731">
        <ele>901.15</ele>
        <time>2021-07-20T08:24:41Z</time>
      </trkpt>
      <trkpt lat="45.70199" lon="2.8972">
        <ele>900.3</ele>
        <time>2021-07-20T08:24:45Z</time>
      </trkpt>
      <trkpt lat="45.70193" lon="2.89704">
        <ele>901.09</ele>
        <time>2021-07-20T08:24:49Z</time>
      </trkpt>
      <trkpt lat="45.70186" lon="2.89688">
        <ele>901.04</ele>
        <time>2021-07-20T08:24:52Z</time>
      </trkpt>
      <trkpt lat="45.7018" lon="2.89676">
        <ele>901.67</ele>
        <time>2021-07-20T08:24:54Z</time>
      </trkpt>
      <trkpt lat="45.70174" lon="2.89661">
        <ele>899.99</ele>
        <time>2021-07-20T08:24:56Z</time>
      </trkpt>
      <trkpt lat="45.70165" lon="2.89656">
        <ele>897.25</ele>
        <time>2021-07-20T08:24:58Z</time>
      </trkpt>
      <trkpt lat="45.70155" lon="2.89652">
        <ele>896.75</ele>
        <time>2021-07-20T08:25:01Z</time>
      </trkpt>
      <trkpt lat="45.70143" lon="2.89651">
        <ele>897.8</ele>
        <time>2021-07-20T08:25:06Z</time>
      </trkpt>
      <trkpt lat="45.70124" lon="2.89648">
        <ele>897.79</ele>
        <time>2021-07-20T08:25:07Z</time>
      </trkpt>
      <trkpt lat="45.7011" lon="2.89641">
        <ele>896.37</ele>
        <time>2021-07-20T08:25:10Z</time>
      </trkpt>
      <trkpt lat="45.701" lon="2.89637">
        <ele>895.41</ele>
        <time>2021-07-20T08:25:12Z</time>
      </trkpt>
      <trkpt lat="45.70092" lon="2.89631">
        <ele>892.95</ele>
        <time>2021-07-20T08:25:17Z</time>
      </trkpt>
      <trkpt lat="45.70082" lon="2.89625">
        <ele>892.02</ele>
        <time>2021-07-20T08:25:18Z</time>
      </trkpt>
      <trkpt lat="45.70063" lon="2.89614">
        <ele>891.93</ele>
        <time>2021-07-20T08:25:19Z</time>
      </trkpt>
      <trkpt lat="45.70054" lon="2.89607">
        <ele>889.88</ele>
        <time>2021-07-20T08:25:21Z</time>
      </trkpt>
      <trkpt lat="45.70046" lon="2.89598">
        <ele>888.2</ele>
        <time>2021-07-20T08:25:23Z</time>
      </trkpt>
      <trkpt lat="45.70039" lon="2.89587">
        <ele>886.61</ele>
        <time>2021-07-20T08:25:25Z</time>
      </trkpt>
      <trkpt lat="45.70032" lon="2.89575">
        <ele>885.4</ele>
        <time>2021-07-20T08:25:27Z</time>
      </trkpt>
      <trkpt lat="45.70025" lon="2.89563">
        <ele>885</ele>
        <time>2021-07-20T08:25:29Z</time>
      </trkpt>
      <trkpt lat="45.70016" lon="2.89553">
        <ele>884.66</ele>
        <time>2021-07-20T08:25:31Z</time>
      </trkpt>
      <trkpt lat="45.70005" lon="2.89546">
        <ele>883.3</ele>
        <time>2021-07-20T08:25:33Z</time>
      </trkpt>
      <trkpt lat="45.69995" lon="2.89541">
        <ele>883.46</ele>
        <time>2021-07-20T08:25:35Z</time>
      </trkpt>
      <trkpt lat="45.69985" lon="2.89537">
        <ele>882.9</ele>
        <time>2021-07-20T08:25:38Z</time>
      </trkpt>
      <trkpt lat="45.69976" lon="2.89526">
        <ele>881.28</ele>
        <time>2021-07-20T08:25:44Z</time>
      </trkpt>
      <trkpt lat="45.69961" lon="2.89509">
        <ele>882.26</ele>
        <time>2021-07-20T08:25:46Z</time>
      </trkpt>
      <trkpt lat="45.6995" lon="2.89498">
        <ele>879.6</ele>
        <time>2021-07-20T08:25:49Z</time>
      </trkpt>
      <trkpt lat="45.69944" lon="2.89488">
        <ele>876</ele>
        <time>2021-07-20T08:25:54Z</time>
      </trkpt>
      <trkpt lat="45.69945" lon="2.89475">
        <ele>879.92</ele>
        <time>2021-07-20T08:26:13Z</time>
      </trkpt>
      <trkpt lat="45.6994" lon="2.89461">
        <ele>877.02</ele>
        <time>2021-07-20T08:26:43Z</time>
      </trkpt>
      <trkpt lat="45.69935" lon="2.89449">
        <ele>877.69</ele>
        <time>2021-07-20T08:26:49Z</time>
      </trkpt>
      <trkpt lat="45.69932" lon="2.89435">
        <ele>878.26</ele>
        <time>2021-07-20T08:26:57Z</time>
      </trkpt>
      <trkpt lat="45.69929" lon="2.89422">
        <ele>879.37</ele>
        <time>2021-07-20T08:27:02Z</time>
      </trkpt>
      <trkpt lat="45.69927" lon="2.89408">
        <ele>881.8</ele>
        <time>2021-07-20T08:27:06Z</time>
      </trkpt>
      <trkpt lat="45.69925" lon="2.89394">
        <ele>881.26</ele>
        <time>2021-07-20T08:27:11Z</time>
      </trkpt>
      <trkpt lat="45.69923" lon="2.89381">
        <ele>880.72</ele>
        <time>2021-07-20T08:27:15Z</time>
      </trkpt>
      <trkpt lat="45.69918" lon="2.89367">
        <ele>881.11</ele>
        <time>2021-07-20T08:27:20Z</time>
      </trkpt>
      <trkpt lat="45.69913" lon="2.89356">
        <ele>880.89</ele>
        <time>2021-07-20T08:27:25Z</time>
      </trkpt>
      <trkpt lat="45.69906" lon="2.89348">
        <ele>881.31</ele>
        <time>2021-07-20T08:27:30Z</time>
      </trkpt>
      <trkpt lat="45.69898" lon="2.89341">
        <ele>886.48</ele>
        <time>2021-07-20T08:27:36Z</time>
      </trkpt>
      <trkpt lat="45.6989" lon="2.89337">
        <ele>886.04</ele>
        <time>2021-07-20T08:27:43Z</time>
      </trkpt>
      <trkpt lat="45.69882" lon="2.89327">
        <ele>884.78</ele>
        <time>2021-07-20T08:27:50Z</time>
      </trkpt>
      <trkpt lat="45.69875" lon="2.89316">
        <ele>885.3</ele>
        <time>2021-07-20T08:27:58Z</time>
      </trkpt>
      <trkpt lat="45.69874" lon="2.89302">
        <ele>886.65</ele>
        <time>2021-07-20T08:28:04Z</time>
      </trkpt>
      <trkpt lat="45.69882" lon="2.89292">
        <ele>888.15</ele>
        <time>2021-07-20T08:28:11Z</time>
      </trkpt>
      <trkpt lat="45.69891" lon="2.89287">
        <ele>888.85</ele>
        <time>2021-07-20T08:28:16Z</time>
      </trkpt>
      <trkpt lat="45.69898" lon="2.8928">
        <ele>889.17</ele>
        <time>2021-07-20T08:28:21Z</time>
      </trkpt>
      <trkpt lat="45.69908" lon="2.89273">
        <ele>889.56</ele>
        <time>2021-07-20T08:28:27Z</time>
      </trkpt>
      <trkpt lat="45.69917" lon="2.89265">
        <ele>888.58</ele>
        <time>2021-07-20T08:28:33Z</time>
      </trkpt>
      <trkpt lat="45.69924" lon="2.89257">
        <ele>887.53</ele>
        <time>2021-07-20T08:28:38Z</time>
      </trkpt>
      <trkpt lat="45.69934" lon="2.89251">
        <ele>888.77</ele>
        <time>2021-07-20T08:28:44Z</time>
      </trkpt>
      <trkpt lat="45.69942" lon="2.89244">
        <ele>888.98</ele>
        <time>2021-07-20T08:28:50Z</time>
      </trkpt>
      <trkpt lat="45.69951" lon="2.89237">
        <ele>886.61</ele>
        <time>2021-07-20T08:28:55Z</time>
      </trkpt>
      <trkpt lat="45.69958" lon="2.89229">
        <ele>885.06</ele>
        <time>2021-07-20T08:29:00Z</time>
      </trkpt>
      <trkpt lat="45.69966" lon="2.89221">
        <ele>888.76</ele>
        <time>2021-07-20T08:29:05Z</time>
      </trkpt>
      <trkpt lat="45.69974" lon="2.89214">
        <ele>889.5</ele>
        <time>2021-07-20T08:29:10Z</time>
      </trkpt>
      <trkpt lat="45.6998" lon="2.89202">
        <ele>890.57</ele>
        <time>2021-07-20T08:29:14Z</time>
      </trkpt>
      <trkpt lat="45.69985" lon="2.89191">
        <ele>891.39</ele>
        <time>2021-07-20T08:29:20Z</time>
      </trkpt>
      <trkpt lat="45.69992" lon="2.89181">
        <ele>891.64</ele>
        <time>2021-07-20T08:29:25Z</time>
      </trkpt>
      <trkpt lat="45.69998" lon="2.89169">
        <ele>891.83</ele>
        <time>2021-07-20T08:29:29Z</time>
      </trkpt>
      <trkpt lat="45.70005" lon="2.89157">
        <ele>893.4</ele>
        <time>2021-07-20T08:29:34Z</time>
      </trkpt>
      <trkpt lat="45.70011" lon="2.89146">
        <ele>892.45</ele>
        <time>2021-07-20T08:29:39Z</time>
      </trkpt>
      <trkpt lat="45.70019" lon="2.89136">
        <ele>892.53</ele>
        <time>2021-07-20T08:29:45Z</time>
      </trkpt>
      <trkpt lat="45.70029" lon="2.89129">
        <ele>890.5</ele>
        <time>2021-07-20T08:29:50Z</time>
      </trkpt>
      <trkpt lat="45.70038" lon="2.89125">
        <ele>892.64</ele>
        <time>2021-07-20T08:29:55Z</time>
      </trkpt>
      <trkpt lat="45.70048" lon="2.89121">
        <ele>894.85</ele>
        <time>2021-07-20T08:30:00Z</time>
      </trkpt>
      <trkpt lat="45.70057" lon="2.89119">
        <ele>895.26</ele>
        <time>2021-07-20T08:30:06Z</time>
      </trkpt>
      <trkpt lat="45.70066" lon="2.89116">
        <ele>897.48</ele>
        <time>2021-07-20T08:30:12Z</time>
      </trkpt>
      <trkpt lat="45.70076" lon="2.89114">
        <ele>898.82</ele>
        <time>2021-07-20T08:30:18Z</time>
      </trkpt>
      <trkpt lat="45.70086" lon="2.89118">
        <ele>901.47</ele>
        <time>2021-07-20T08:30:25Z</time>
      </trkpt>
      <trkpt lat="45.70096" lon="2.8912">
        <ele>901.41</ele>
        <time>2021-07-20T08:30:30Z</time>
      </trkpt>
      <trkpt lat="45.70106" lon="2.89124">
        <ele>903.66</ele>
        <time>2021-07-20T08:30:34Z</time>
      </trkpt>
      <trkpt lat="45.70117" lon="2.89127">
        <ele>902.73</ele>
        <time>2021-07-20T08:30:39Z</time>
      </trkpt>
      <trkpt lat="45.70127" lon="2.89127">
        <ele>901.14</ele>
        <time>2021-07-20T08:30:44Z</time>
      </trkpt>
      <trkpt lat="45.70137" lon="2.8913">
        <ele>903.11</ele>
        <time>2021-07-20T08:30:49Z</time>
      </trkpt>
      <trkpt lat="45.70146" lon="2.89131">
        <ele>904.21</ele>
        <time>2021-07-20T08:30:54Z</time>
      </trkpt>
      <trkpt lat="45.70156" lon="2.89133">
        <ele>903.72</ele>
        <time>2021-07-20T08:30:59Z</time>
      </trkpt>
      <trkpt lat="45.70165" lon="2.89133">
        <ele>903.39</ele>
        <time>2021-07-20T08:31:03Z</time>
      </trkpt>
      <trkpt lat="45.70175" lon="2.89131">
        <ele>906.27</ele>
        <time>2021-07-20T08:31:08Z</time>
      </trkpt>
      <trkpt lat="45.70184" lon="2.89129">
        <ele>908.5</ele>
        <time>2021-07-20T08:31:14Z</time>
      </trkpt>
      <trkpt lat="45.70193" lon="2.89129">
        <ele>912.28</ele>
        <time>2021-07-20T08:31:21Z</time>
      </trkpt>
      <trkpt lat="45.70203" lon="2.89127">
        <ele>913.48</ele>
        <time>2021-07-20T08:31:27Z</time>
      </trkpt>
      <trkpt lat="45.70212" lon="2.89127">
        <ele>915.98</ele>
        <time>2021-07-20T08:31:33Z</time>
      </trkpt>
      <trkpt lat="45.70222" lon="2.89125">
        <ele>916.2</ele>
        <time>2021-07-20T08:31:39Z</time>
      </trkpt>
      <trkpt lat="45.70231" lon="2.89118">
        <ele>918.36</ele>
        <time>2021-07-20T08:31:45Z</time>
      </trkpt>
      <trkpt lat="45.7024" lon="2.89111">
        <ele>919.77</ele>
        <time>2021-07-20T08:31:50Z</time>
      </trkpt>
      <trkpt lat="45.70247" lon="2.89103">
        <ele>921.22</ele>
        <time>2021-07-20T08:31:55Z</time>
      </trkpt>
      <trkpt lat="45.70255" lon="2.89092">
        <ele>923.19</ele>
        <time>2021-07-20T08:32:01Z</time>
      </trkpt>
      <trkpt lat="45.70261" lon="2.8908">
        <ele>926.29</ele>
        <time>2021-07-20T08:32:06Z</time>
      </trkpt>
      <trkpt lat="45.70267" lon="2.89068">
        <ele>926.73</ele>
        <time>2021-07-20T08:32:10Z</time>
      </trkpt>
      <trkpt lat="45.70274" lon="2.89054">
        <ele>926.62</ele>
        <time>2021-07-20T08:32:14Z</time>
      </trkpt>
      <trkpt lat="45.70279" lon="2.89041">
        <ele>926.37</ele>
        <time>2021-07-20T08:32:18Z</time>
      </trkpt>
      <trkpt lat="45.70284" lon="2.89028">
        <ele>926.56</ele>
        <time>2021-07-20T08:32:23Z</time>
      </trkpt>
      <trkpt lat="45.70289" lon="2.89017">
        <ele>925.07</ele>
        <time>2021-07-20T08:33:19Z</time>
      </trkpt>
      <trkpt lat="45.70293" lon="2.89005">
        <ele>925.95</ele>
        <time>2021-07-20T08:33:25Z</time>
      </trkpt>
      <trkpt lat="45.70298" lon="2.88993">
        <ele>922.95</ele>
        <time>2021-07-20T08:33:31Z</time>
      </trkpt>
      <trkpt lat="45.70304" lon="2.8898">
        <ele>923.45</ele>
        <time>2021-07-20T08:33:36Z</time>
      </trkpt>
      <trkpt lat="45.70309" lon="2.88968">
        <ele>921.37</ele>
        <time>2021-07-20T08:33:40Z</time>
      </trkpt>
      <trkpt lat="45.70314" lon="2.88957">
        <ele>919.85</ele>
        <time>2021-07-20T08:33:44Z</time>
      </trkpt>
      <trkpt lat="45.70306" lon="2.88949">
        <ele>926.69</ele>
        <time>2021-07-20T08:35:25Z</time>
      </trkpt>
      <trkpt lat="45.70296" lon="2.88947">
        <ele>929.7</ele>
        <time>2021-07-20T08:35:31Z</time>
      </trkpt>
      <trkpt lat="45.70286" lon="2.88944">
        <ele>930.36</ele>
        <time>2021-07-20T08:35:36Z</time>
      </trkpt>
      <trkpt lat="45.70275" lon="2.88941">
        <ele>926.94</ele>
        <time>2021-07-20T08:35:41Z</time>
      </trkpt>
      <trkpt lat="45.70265" lon="2.88938">
        <ele>925.23</ele>
        <time>2021-07-20T08:35:48Z</time>
      </trkpt>
      <trkpt lat="45.70256" lon="2.88937">
        <ele>925.4</ele>
        <time>2021-07-20T08:35:53Z</time>
      </trkpt>
      <trkpt lat="45.70245" lon="2.88935">
        <ele>924.84</ele>
        <time>2021-07-20T08:35:59Z</time>
      </trkpt>
      <trkpt lat="45.70236" lon="2.88933">
        <ele>923.95</ele>
        <time>2021-07-20T08:36:57Z</time>
      </trkpt>
      <trkpt lat="45.70225" lon="2.88931">
        <ele>925.25</ele>
        <time>2021-07-20T08:37:04Z</time>
      </trkpt>
      <trkpt lat="45.70214" lon="2.88929">
        <ele>927.1</ele>
        <time>2021-07-20T08:37:09Z</time>
      </trkpt>
      <trkpt lat="45.70204" lon="2.88928">
        <ele>926.45</ele>
        <time>2021-07-20T08:37:13Z</time>
      </trkpt>
      <trkpt lat="45.70193" lon="2.88927">
        <ele>927.66</ele>
        <time>2021-07-20T08:37:17Z</time>
      </trkpt>
      <trkpt lat="45.70183" lon="2.88924">
        <ele>928.03</ele>
        <time>2021-07-20T08:37:20Z</time>
      </trkpt>
      <trkpt lat="45.70171" lon="2.88922">
        <ele>928.88</ele>
        <time>2021-07-20T08:37:23Z</time>
      </trkpt>
      <trkpt lat="45.70161" lon="2.88918">
        <ele>928.99</ele>
        <time>2021-07-20T08:37:26Z</time>
      </trkpt>
      <trkpt lat="45.70151" lon="2.88917">
        <ele>928.5</ele>
        <time>2021-07-20T08:37:30Z</time>
      </trkpt>
      <trkpt lat="45.70142" lon="2.88915">
        <ele>927.62</ele>
        <time>2021-07-20T08:37:33Z</time>
      </trkpt>
      <trkpt lat="45.7013" lon="2.88912">
        <ele>927.06</ele>
        <time>2021-07-20T08:37:36Z</time>
      </trkpt>
      <trkpt lat="45.70119" lon="2.88911">
        <ele>929.45</ele>
        <time>2021-07-20T08:37:40Z</time>
      </trkpt>
      <trkpt lat="45.70108" lon="2.88909">
        <ele>930.63</ele>
        <time>2021-07-20T08:37:45Z</time>
      </trkpt>
      <trkpt lat="45.70096" lon="2.88908">
        <ele>930.43</ele>
        <time>2021-07-20T08:37:47Z</time>
      </trkpt>
      <trkpt lat="45.70087" lon="2.88906">
        <ele>929.78</ele>
        <time>2021-07-20T08:37:50Z</time>
      </trkpt>
      <trkpt lat="45.70077" lon="2.88904">
        <ele>929.44</ele>
        <time>2021-07-20T08:37:53Z</time>
      </trkpt>
      <trkpt lat="45.70067" lon="2.88902">
        <ele>929.49</ele>
        <time>2021-07-20T08:37:58Z</time>
      </trkpt>
      <trkpt lat="45.70058" lon="2.889">
        <ele>930.04</ele>
        <time>2021-07-20T08:38:01Z</time>
      </trkpt>
      <trkpt lat="45.7004" lon="2.88896">
        <ele>929.96</ele>
        <time>2021-07-20T08:38:04Z</time>
      </trkpt>
      <trkpt lat="45.70029" lon="2.88894">
        <ele>930.63</ele>
        <time>2021-07-20T08:38:06Z</time>
      </trkpt>
      <trkpt lat="45.7002" lon="2.88892">
        <ele>930.65</ele>
        <time>2021-07-20T08:38:09Z</time>
      </trkpt>
      <trkpt lat="45.70011" lon="2.88892">
        <ele>930.61</ele>
        <time>2021-07-20T08:38:12Z</time>
      </trkpt>
      <trkpt lat="45.70001" lon="2.88891">
        <ele>931.82</ele>
        <time>2021-07-20T08:38:16Z</time>
      </trkpt>
      <trkpt lat="45.69989" lon="2.8889">
        <ele>932.59</ele>
        <time>2021-07-20T08:38:19Z</time>
      </trkpt>
      <trkpt lat="45.69979" lon="2.8889">
        <ele>931.94</ele>
        <time>2021-07-20T08:38:22Z</time>
      </trkpt>
      <trkpt lat="45.69966" lon="2.88894">
        <ele>931.73</ele>
        <time>2021-07-20T08:38:26Z</time>
      </trkpt>
      <trkpt lat="45.69957" lon="2.88895">
        <ele>932.38</ele>
        <time>2021-07-20T08:38:29Z</time>
      </trkpt>
      <trkpt lat="45.69948" lon="2.88896">
        <ele>932.7</ele>
        <time>2021-07-20T08:38:32Z</time>
      </trkpt>
      <trkpt lat="45.69939" lon="2.88896">
        <ele>932.08</ele>
        <time>2021-07-20T08:38:35Z</time>
      </trkpt>
      <trkpt lat="45.69929" lon="2.88898">
        <ele>932.28</ele>
        <time>2021-07-20T08:38:38Z</time>
      </trkpt>
      <trkpt lat="45.69918" lon="2.88899">
        <ele>931.84</ele>
        <time>2021-07-20T08:38:41Z</time>
      </trkpt>
      <trkpt lat="45.69907" lon="2.889">
        <ele>932.55</ele>
        <time>2021-07-20T08:38:44Z</time>
      </trkpt>
      <trkpt lat="45.69897" lon="2.88901">
        <ele>931.57</ele>
        <time>2021-07-20T08:38:47Z</time>
      </trkpt>
      <trkpt lat="45.69887" lon="2.88901">
        <ele>931.36</ele>
        <time>2021-07-20T08:38:50Z</time>
      </trkpt>
      <trkpt lat="45.69878" lon="2.88902">
        <ele>931.01</ele>
        <time>2021-07-20T08:38:53Z</time>
      </trkpt>
      <trkpt lat="45.69868" lon="2.88902">
        <ele>932.24</ele>
        <time>2021-07-20T08:38:56Z</time>
      </trkpt>
      <trkpt lat="45.69858" lon="2.88902">
        <ele>931.54</ele>
        <time>2021-07-20T08:38:59Z</time>
      </trkpt>
      <trkpt lat="45.69848" lon="2.88902">
        <ele>929.56</ele>
        <time>2021-07-20T08:39:03Z</time>
      </trkpt>
      <trkpt lat="45.69838" lon="2.88903">
        <ele>928.96</ele>
        <time>2021-07-20T08:39:08Z</time>
      </trkpt>
      <trkpt lat="45.69829" lon="2.88905">
        <ele>932.89</ele>
        <time>2021-07-20T08:39:46Z</time>
      </trkpt>
      <trkpt lat="45.69817" lon="2.88907">
        <ele>932.8</ele>
        <time>2021-07-20T08:39:50Z</time>
      </trkpt>
      <trkpt lat="45.69807" lon="2.88908">
        <ele>932.5</ele>
        <time>2021-07-20T08:39:53Z</time>
      </trkpt>
      <trkpt lat="45.69797" lon="2.88909">
        <ele>932.61</ele>
        <time>2021-07-20T08:39:56Z</time>
      </trkpt>
      <trkpt lat="45.69786" lon="2.8891">
        <ele>932.05</ele>
        <time>2021-07-20T08:39:59Z</time>
      </trkpt>
      <trkpt lat="45.69775" lon="2.88911">
        <ele>932.08</ele>
        <time>2021-07-20T08:40:03Z</time>
      </trkpt>
      <trkpt lat="45.69763" lon="2.88912">
        <ele>931.73</ele>
        <time>2021-07-20T08:40:07Z</time>
      </trkpt>
      <trkpt lat="45.69754" lon="2.88913">
        <ele>931.41</ele>
        <time>2021-07-20T08:40:10Z</time>
      </trkpt>
      <trkpt lat="45.69744" lon="2.88914">
        <ele>932</ele>
        <time>2021-07-20T08:40:13Z</time>
      </trkpt>
      <trkpt lat="45.69733" lon="2.88915">
        <ele>932.31</ele>
        <time>2021-07-20T08:40:16Z</time>
      </trkpt>
      <trkpt lat="45.69722" lon="2.88916">
        <ele>931.6</ele>
        <time>2021-07-20T08:40:19Z</time>
      </trkpt>
      <trkpt lat="45.6971" lon="2.88917">
        <ele>932.03</ele>
        <time>2021-07-20T08:40:22Z</time>
      </trkpt>
      <trkpt lat="45.69699" lon="2.88918">
        <ele>931.63</ele>
        <time>2021-07-20T08:40:25Z</time>
      </trkpt>
      <trkpt lat="45.69688" lon="2.88919">
        <ele>930.29</ele>
        <time>2021-07-20T08:40:28Z</time>
      </trkpt>
      <trkpt lat="45.69677" lon="2.88919">
        <ele>930.14</ele>
        <time>2021-07-20T08:40:31Z</time>
      </trkpt>
      <trkpt lat="45.69667" lon="2.88918">
        <ele>929.35</ele>
        <time>2021-07-20T08:40:34Z</time>
      </trkpt>
      <trkpt lat="45.69656" lon="2.88916">
        <ele>930.88</ele>
        <time>2021-07-20T08:40:37Z</time>
      </trkpt>
      <trkpt lat="45.69646" lon="2.88916">
        <ele>931.89</ele>
        <time>2021-07-20T08:40:40Z</time>
      </trkpt>
      <trkpt lat="45.69635" lon="2.88916">
        <ele>931.65</ele>
        <time>2021-07-20T08:40:43Z</time>
      </trkpt>
      <trkpt lat="45.69624" lon="2.88916">
        <ele>930.89</ele>
        <time>2021-07-20T08:40:46Z</time>
      </trkpt>
      <trkpt lat="45.69613" lon="2.88915">
        <ele>931.24</ele>
        <time>2021-07-20T08:40:49Z</time>
      </trkpt>
      <trkpt lat="45.69603" lon="2.88914">
        <ele>930.68</ele>
        <time>2021-07-20T08:40:52Z</time>
      </trkpt>
      <trkpt lat="45.69592" lon="2.88913">
        <ele>932.08</ele>
        <time>2021-07-20T08:40:55Z</time>
      </trkpt>
      <trkpt lat="45.69581" lon="2.8891">
        <ele>932.85</ele>
        <time>2021-07-20T08:40:58Z</time>
      </trkpt>
      <trkpt lat="45.69571" lon="2.88907">
        <ele>933.55</ele>
        <time>2021-07-20T08:41:01Z</time>
      </trkpt>
      <trkpt lat="45.69561" lon="2.88904">
        <ele>934.09</ele>
        <time>2021-07-20T08:41:04Z</time>
      </trkpt>
      <trkpt lat="45.69551" lon="2.889">
        <ele>933.85</ele>
        <time>2021-07-20T08:41:07Z</time>
      </trkpt>
      <trkpt lat="45.69541" lon="2.88895">
        <ele>934.38</ele>
        <time>2021-07-20T08:41:10Z</time>
      </trkpt>
      <trkpt lat="45.69532" lon="2.8889">
        <ele>934.46</ele>
        <time>2021-07-20T08:41:13Z</time>
      </trkpt>
      <trkpt lat="45.69523" lon="2.88885">
        <ele>934.17</ele>
        <time>2021-07-20T08:41:16Z</time>
      </trkpt>
      <trkpt lat="45.69514" lon="2.88879">
        <ele>933.82</ele>
        <time>2021-07-20T08:41:19Z</time>
      </trkpt>
      <trkpt lat="45.69503" lon="2.88874">
        <ele>932.74</ele>
        <time>2021-07-20T08:41:22Z</time>
      </trkpt>
      <trkpt lat="45.69491" lon="2.88868">
        <ele>932.5</ele>
        <time>2021-07-20T08:41:25Z</time>
      </trkpt>
      <trkpt lat="45.6948" lon="2.88863">
        <ele>932.42</ele>
        <time>2021-07-20T08:41:28Z</time>
      </trkpt>
      <trkpt lat="45.69468" lon="2.88858">
        <ele>932.33</ele>
        <time>2021-07-20T08:41:31Z</time>
      </trkpt>
      <trkpt lat="45.69458" lon="2.88852">
        <ele>931.89</ele>
        <time>2021-07-20T08:41:34Z</time>
      </trkpt>
      <trkpt lat="45.69448" lon="2.88848">
        <ele>933.12</ele>
        <time>2021-07-20T08:41:37Z</time>
      </trkpt>
      <trkpt lat="45.69438" lon="2.88842">
        <ele>933.89</ele>
        <time>2021-07-20T08:41:40Z</time>
      </trkpt>
      <trkpt lat="45.69427" lon="2.88839">
        <ele>933.74</ele>
        <time>2021-07-20T08:41:43Z</time>
      </trkpt>
      <trkpt lat="45.69415" lon="2.88836">
        <ele>933.26</ele>
        <time>2021-07-20T08:41:46Z</time>
      </trkpt>
      <trkpt lat="45.69404" lon="2.88832">
        <ele>933.29</ele>
        <time>2021-07-20T08:41:49Z</time>
      </trkpt>
      <trkpt lat="45.69394" lon="2.8883">
        <ele>933.7</ele>
        <time>2021-07-20T08:41:52Z</time>
      </trkpt>
      <trkpt lat="45.69385" lon="2.88831">
        <ele>935.43</ele>
        <time>2021-07-20T08:41:56Z</time>
      </trkpt>
      <trkpt lat="45.69375" lon="2.88835">
        <ele>937.43</ele>
        <time>2021-07-20T08:42:02Z</time>
      </trkpt>
      <trkpt lat="45.69365" lon="2.88839">
        <ele>939.46</ele>
        <time>2021-07-20T08:42:07Z</time>
      </trkpt>
      <trkpt lat="45.69354" lon="2.88842">
        <ele>942.01</ele>
        <time>2021-07-20T08:42:12Z</time>
      </trkpt>
      <trkpt lat="45.69345" lon="2.88843">
        <ele>942.08</ele>
        <time>2021-07-20T08:42:16Z</time>
      </trkpt>
      <trkpt lat="45.69334" lon="2.88844">
        <ele>940.61</ele>
        <time>2021-07-20T08:42:21Z</time>
      </trkpt>
      <trkpt lat="45.69323" lon="2.88844">
        <ele>941.91</ele>
        <time>2021-07-20T08:42:25Z</time>
      </trkpt>
      <trkpt lat="45.69312" lon="2.88843">
        <ele>941.8</ele>
        <time>2021-07-20T08:42:29Z</time>
      </trkpt>
      <trkpt lat="45.69302" lon="2.88843">
        <ele>942.01</ele>
        <time>2021-07-20T08:42:33Z</time>
      </trkpt>
      <trkpt lat="45.69293" lon="2.88844">
        <ele>942.43</ele>
        <time>2021-07-20T08:42:38Z</time>
      </trkpt>
      <trkpt lat="45.69284" lon="2.88845">
        <ele>941.56</ele>
        <time>2021-07-20T08:42:43Z</time>
      </trkpt>
      <trkpt lat="45.69274" lon="2.88845">
        <ele>942.66</ele>
        <time>2021-07-20T08:42:48Z</time>
      </trkpt>
      <trkpt lat="45.69264" lon="2.88845">
        <ele>942.68</ele>
        <time>2021-07-20T08:42:53Z</time>
      </trkpt>
      <trkpt lat="45.69253" lon="2.88844">
        <ele>942.55</ele>
        <time>2021-07-20T08:42:58Z</time>
      </trkpt>
      <trkpt lat="45.69244" lon="2.88844">
        <ele>943.81</ele>
        <time>2021-07-20T08:43:03Z</time>
      </trkpt>
      <trkpt lat="45.69234" lon="2.88844">
        <ele>944.43</ele>
        <time>2021-07-20T08:43:08Z</time>
      </trkpt>
      <trkpt lat="45.69224" lon="2.88845">
        <ele>946.15</ele>
        <time>2021-07-20T08:43:12Z</time>
      </trkpt>
      <trkpt lat="45.69212" lon="2.88845">
        <ele>945.93</ele>
        <time>2021-07-20T08:43:16Z</time>
      </trkpt>
      <trkpt lat="45.692" lon="2.88839">
        <ele>944.67</ele>
        <time>2021-07-20T08:43:19Z</time>
      </trkpt>
      <trkpt lat="45.6919" lon="2.88827">
        <ele>942.75</ele>
        <time>2021-07-20T08:43:22Z</time>
      </trkpt>
      <trkpt lat="45.69185" lon="2.88816">
        <ele>942.74</ele>
        <time>2021-07-20T08:43:26Z</time>
      </trkpt>
      <trkpt lat="45.69177" lon="2.88807">
        <ele>944.53</ele>
        <time>2021-07-20T08:43:31Z</time>
      </trkpt>
      <trkpt lat="45.69169" lon="2.88798">
        <ele>943.14</ele>
        <time>2021-07-20T08:43:34Z</time>
      </trkpt>
      <trkpt lat="45.69158" lon="2.88784">
        <ele>942.44</ele>
        <time>2021-07-20T08:43:37Z</time>
      </trkpt>
      <trkpt lat="45.6915" lon="2.88776">
        <ele>941.13</ele>
        <time>2021-07-20T08:43:40Z</time>
      </trkpt>
      <trkpt lat="45.69141" lon="2.88769">
        <ele>941.27</ele>
        <time>2021-07-20T08:43:43Z</time>
      </trkpt>
      <trkpt lat="45.69132" lon="2.88756">
        <ele>941.11</ele>
        <time>2021-07-20T08:43:47Z</time>
      </trkpt>
      <trkpt lat="45.69122" lon="2.88753">
        <ele>940.43</ele>
        <time>2021-07-20T08:43:50Z</time>
      </trkpt>
      <trkpt lat="45.69112" lon="2.8875">
        <ele>939.2</ele>
        <time>2021-07-20T08:43:53Z</time>
      </trkpt>
      <trkpt lat="45.69101" lon="2.88751">
        <ele>939.54</ele>
        <time>2021-07-20T08:43:56Z</time>
      </trkpt>
      <trkpt lat="45.6909" lon="2.88751">
        <ele>940.09</ele>
        <time>2021-07-20T08:43:59Z</time>
      </trkpt>
      <trkpt lat="45.69079" lon="2.88753">
        <ele>941.41</ele>
        <time>2021-07-20T08:44:02Z</time>
      </trkpt>
      <trkpt lat="45.69069" lon="2.88754">
        <ele>940.54</ele>
        <time>2021-07-20T08:44:05Z</time>
      </trkpt>
      <trkpt lat="45.69059" lon="2.88755">
        <ele>939.75</ele>
        <time>2021-07-20T08:44:08Z</time>
      </trkpt>
      <trkpt lat="45.69049" lon="2.88755">
        <ele>939.52</ele>
        <time>2021-07-20T08:44:11Z</time>
      </trkpt>
      <trkpt lat="45.6904" lon="2.88755">
        <ele>941.24</ele>
        <time>2021-07-20T08:44:14Z</time>
      </trkpt>
      <trkpt lat="45.6903" lon="2.88752">
        <ele>943.01</ele>
        <time>2021-07-20T08:44:17Z</time>
      </trkpt>
      <trkpt lat="45.69022" lon="2.88747">
        <ele>946.23</ele>
        <time>2021-07-20T08:44:20Z</time>
      </trkpt>
      <trkpt lat="45.69012" lon="2.88741">
        <ele>948.61</ele>
        <time>2021-07-20T08:44:24Z</time>
      </trkpt>
      <trkpt lat="45.69001" lon="2.88733">
        <ele>947.88</ele>
        <time>2021-07-20T08:44:28Z</time>
      </trkpt>
      <trkpt lat="45.68993" lon="2.88727">
        <ele>947.29</ele>
        <time>2021-07-20T08:44:31Z</time>
      </trkpt>
      <trkpt lat="45.68983" lon="2.88717">
        <ele>948.06</ele>
        <time>2021-07-20T08:44:35Z</time>
      </trkpt>
      <trkpt lat="45.68975" lon="2.8871">
        <ele>946.82</ele>
        <time>2021-07-20T08:44:38Z</time>
      </trkpt>
      <trkpt lat="45.68965" lon="2.88702">
        <ele>947.21</ele>
        <time>2021-07-20T08:44:42Z</time>
      </trkpt>
      <trkpt lat="45.68956" lon="2.88698">
        <ele>946.95</ele>
        <time>2021-07-20T08:44:45Z</time>
      </trkpt>
      <trkpt lat="45.68947" lon="2.88692">
        <ele>946</ele>
        <time>2021-07-20T08:44:48Z</time>
      </trkpt>
      <trkpt lat="45.68939" lon="2.88685">
        <ele>946.35</ele>
        <time>2021-07-20T08:44:53Z</time>
      </trkpt>
      <trkpt lat="45.6893" lon="2.8868">
        <ele>948.81</ele>
        <time>2021-07-20T08:44:58Z</time>
      </trkpt>
      <trkpt lat="45.68921" lon="2.88675">
        <ele>949.47</ele>
        <time>2021-07-20T08:45:01Z</time>
      </trkpt>
      <trkpt lat="45.6891" lon="2.88666">
        <ele>950.91</ele>
        <time>2021-07-20T08:45:05Z</time>
      </trkpt>
      <trkpt lat="45.68901" lon="2.88658">
        <ele>949.76</ele>
        <time>2021-07-20T08:45:09Z</time>
      </trkpt>
      <trkpt lat="45.68891" lon="2.88651">
        <ele>950.32</ele>
        <time>2021-07-20T08:45:13Z</time>
      </trkpt>
      <trkpt lat="45.68883" lon="2.88645">
        <ele>951.28</ele>
        <time>2021-07-20T08:45:17Z</time>
      </trkpt>
      <trkpt lat="45.68878" lon="2.88633">
        <ele>950.31</ele>
        <time>2021-07-20T08:45:22Z</time>
      </trkpt>
      <trkpt lat="45.68885" lon="2.88623">
        <ele>952.54</ele>
        <time>2021-07-20T08:48:47Z</time>
      </trkpt>
      <trkpt lat="45.6889" lon="2.88611">
        <ele>952.76</ele>
        <time>2021-07-20T08:48:52Z</time>
      </trkpt>
      <trkpt lat="45.68894" lon="2.88599">
        <ele>953.42</ele>
        <time>2021-07-20T08:48:57Z</time>
      </trkpt>
      <trkpt lat="45.68898" lon="2.88586">
        <ele>953.27</ele>
        <time>2021-07-20T08:49:03Z</time>
      </trkpt>
      <trkpt lat="45.689" lon="2.88573">
        <ele>954.85</ele>
        <time>2021-07-20T08:49:09Z</time>
      </trkpt>
      <trkpt lat="45.68901" lon="2.88558">
        <ele>955.2</ele>
        <time>2021-07-20T08:49:15Z</time>
      </trkpt>
      <trkpt lat="45.68901" lon="2.88544">
        <ele>957.29</ele>
        <time>2021-07-20T08:49:20Z</time>
      </trkpt>
      <trkpt lat="45.689" lon="2.88532">
        <ele>955.26</ele>
        <time>2021-07-20T08:49:25Z</time>
      </trkpt>
      <trkpt lat="45.68898" lon="2.88517">
        <ele>957.17</ele>
        <time>2021-07-20T08:49:31Z</time>
      </trkpt>
      <trkpt lat="45.68894" lon="2.88505">
        <ele>957.77</ele>
        <time>2021-07-20T08:49:35Z</time>
      </trkpt>
      <trkpt lat="45.68895" lon="2.88491">
        <ele>956.73</ele>
        <time>2021-07-20T08:49:40Z</time>
      </trkpt>
      <trkpt lat="45.68896" lon="2.88477">
        <ele>956.59</ele>
        <time>2021-07-20T08:49:44Z</time>
      </trkpt>
      <trkpt lat="45.689" lon="2.88461">
        <ele>957.55</ele>
        <time>2021-07-20T08:49:48Z</time>
      </trkpt>
      <trkpt lat="45.68904" lon="2.88445">
        <ele>958</ele>
        <time>2021-07-20T08:49:52Z</time>
      </trkpt>
      <trkpt lat="45.68907" lon="2.88432">
        <ele>958.18</ele>
        <time>2021-07-20T08:49:55Z</time>
      </trkpt>
      <trkpt lat="45.6891" lon="2.88419">
        <ele>953.8</ele>
        <time>2021-07-20T08:49:59Z</time>
      </trkpt>
      <trkpt lat="45.68915" lon="2.88406">
        <ele>955.96</ele>
        <time>2021-07-20T08:50:04Z</time>
      </trkpt>
      <trkpt lat="45.68917" lon="2.88393">
        <ele>955.92</ele>
        <time>2021-07-20T08:50:39Z</time>
      </trkpt>
      <trkpt lat="45.68918" lon="2.88378">
        <ele>956.13</ele>
        <time>2021-07-20T08:50:45Z</time>
      </trkpt>
      <trkpt lat="45.68918" lon="2.88365">
        <ele>955.71</ele>
        <time>2021-07-20T08:50:51Z</time>
      </trkpt>
      <trkpt lat="45.68917" lon="2.88352">
        <ele>956.77</ele>
        <time>2021-07-20T08:50:57Z</time>
      </trkpt>
      <trkpt lat="45.6892" lon="2.88338">
        <ele>956.93</ele>
        <time>2021-07-20T08:51:01Z</time>
      </trkpt>
      <trkpt lat="45.68923" lon="2.88323">
        <ele>956.66</ele>
        <time>2021-07-20T08:51:05Z</time>
      </trkpt>
      <trkpt lat="45.68924" lon="2.88306">
        <ele>955.58</ele>
        <time>2021-07-20T08:51:09Z</time>
      </trkpt>
      <trkpt lat="45.68926" lon="2.88289">
        <ele>957.01</ele>
        <time>2021-07-20T08:51:13Z</time>
      </trkpt>
      <trkpt lat="45.68928" lon="2.88276">
        <ele>957.72</ele>
        <time>2021-07-20T08:51:17Z</time>
      </trkpt>
      <trkpt lat="45.6893" lon="2.88261">
        <ele>959.51</ele>
        <time>2021-07-20T08:51:21Z</time>
      </trkpt>
      <trkpt lat="45.68932" lon="2.88246">
        <ele>960.61</ele>
        <time>2021-07-20T08:51:25Z</time>
      </trkpt>
      <trkpt lat="45.68934" lon="2.88232">
        <ele>962.53</ele>
        <time>2021-07-20T08:51:29Z</time>
      </trkpt>
      <trkpt lat="45.68935" lon="2.88219">
        <ele>962.45</ele>
        <time>2021-07-20T08:51:33Z</time>
      </trkpt>
      <trkpt lat="45.68936" lon="2.88204">
        <ele>962.73</ele>
        <time>2021-07-20T08:51:39Z</time>
      </trkpt>
      <trkpt lat="45.68937" lon="2.88189">
        <ele>962.85</ele>
        <time>2021-07-20T08:51:44Z</time>
      </trkpt>
      <trkpt lat="45.68939" lon="2.88176">
        <ele>961.35</ele>
        <time>2021-07-20T08:51:48Z</time>
      </trkpt>
      <trkpt lat="45.68943" lon="2.88151">
        <ele>959.68</ele>
        <time>2021-07-20T08:51:52Z</time>
      </trkpt>
      <trkpt lat="45.68944" lon="2.88136">
        <ele>958.42</ele>
        <time>2021-07-20T08:51:55Z</time>
      </trkpt>
      <trkpt lat="45.68941" lon="2.8812">
        <ele>958.22</ele>
        <time>2021-07-20T08:51:58Z</time>
      </trkpt>
      <trkpt lat="45.68944" lon="2.88106">
        <ele>957.78</ele>
        <time>2021-07-20T08:52:04Z</time>
      </trkpt>
      <trkpt lat="45.68949" lon="2.88092">
        <ele>956.23</ele>
        <time>2021-07-20T08:52:09Z</time>
      </trkpt>
      <trkpt lat="45.68946" lon="2.8808">
        <ele>953.19</ele>
        <time>2021-07-20T08:52:14Z</time>
      </trkpt>
      <trkpt lat="45.68942" lon="2.88068">
        <ele>950.23</ele>
        <time>2021-07-20T08:52:19Z</time>
      </trkpt>
      <trkpt lat="45.68935" lon="2.88056">
        <ele>947.84</ele>
        <time>2021-07-20T08:52:28Z</time>
      </trkpt>
      <trkpt lat="45.68927" lon="2.88038">
        <ele>944.19</ele>
        <time>2021-07-20T08:52:31Z</time>
      </trkpt>
      <trkpt lat="45.68923" lon="2.88022">
        <ele>943.66</ele>
        <time>2021-07-20T08:52:32Z</time>
      </trkpt>
      <trkpt lat="45.68919" lon="2.88003">
        <ele>940.62</ele>
        <time>2021-07-20T08:52:34Z</time>
      </trkpt>
      <trkpt lat="45.68916" lon="2.87987">
        <ele>936.86</ele>
        <time>2021-07-20T08:52:36Z</time>
      </trkpt>
      <trkpt lat="45.68915" lon="2.87971">
        <ele>935.37</ele>
        <time>2021-07-20T08:52:38Z</time>
      </trkpt>
      <trkpt lat="45.68916" lon="2.87956">
        <ele>934.16</ele>
        <time>2021-07-20T08:52:40Z</time>
      </trkpt>
      <trkpt lat="45.68916" lon="2.87937">
        <ele>932.29</ele>
        <time>2021-07-20T08:52:42Z</time>
      </trkpt>
      <trkpt lat="45.68919" lon="2.87913">
        <ele>930.9</ele>
        <time>2021-07-20T08:52:44Z</time>
      </trkpt>
      <trkpt lat="45.6892" lon="2.87899">
        <ele>930.24</ele>
        <time>2021-07-20T08:52:45Z</time>
      </trkpt>
      <trkpt lat="45.68921" lon="2.87886">
        <ele>929.42</ele>
        <time>2021-07-20T08:52:46Z</time>
      </trkpt>
      <trkpt lat="45.68922" lon="2.87861">
        <ele>927.61</ele>
        <time>2021-07-20T08:52:48Z</time>
      </trkpt>
      <trkpt lat="45.68922" lon="2.87839">
        <ele>926.19</ele>
        <time>2021-07-20T08:52:50Z</time>
      </trkpt>
      <trkpt lat="45.68922" lon="2.87818">
        <ele>925.5</ele>
        <time>2021-07-20T08:52:52Z</time>
      </trkpt>
      <trkpt lat="45.68919" lon="2.87803">
        <ele>923.3</ele>
        <time>2021-07-20T08:52:54Z</time>
      </trkpt>
      <trkpt lat="45.6892" lon="2.87789">
        <ele>923.12</ele>
        <time>2021-07-20T08:52:56Z</time>
      </trkpt>
      <trkpt lat="45.68921" lon="2.87775">
        <ele>923.42</ele>
        <time>2021-07-20T08:52:58Z</time>
      </trkpt>
      <trkpt lat="45.6892" lon="2.87758">
        <ele>919.39</ele>
        <time>2021-07-20T08:53:03Z</time>
      </trkpt>
      <trkpt lat="45.68914" lon="2.87719">
        <ele>919.27</ele>
        <time>2021-07-20T08:53:05Z</time>
      </trkpt>
      <trkpt lat="45.68912" lon="2.87704">
        <ele>920.64</ele>
        <time>2021-07-20T08:53:07Z</time>
      </trkpt>
      <trkpt lat="45.68909" lon="2.87687">
        <ele>924.19</ele>
        <time>2021-07-20T08:53:09Z</time>
      </trkpt>
      <trkpt lat="45.68912" lon="2.87671">
        <ele>924.97</ele>
        <time>2021-07-20T08:53:11Z</time>
      </trkpt>
      <trkpt lat="45.68911" lon="2.87656">
        <ele>924.55</ele>
        <time>2021-07-20T08:53:13Z</time>
      </trkpt>
      <trkpt lat="45.68914" lon="2.87643">
        <ele>923.57</ele>
        <time>2021-07-20T08:53:16Z</time>
      </trkpt>
      <trkpt lat="45.68907" lon="2.87615">
        <ele>920.73</ele>
        <time>2021-07-20T08:53:20Z</time>
      </trkpt>
      <trkpt lat="45.68907" lon="2.87592">
        <ele>923.27</ele>
        <time>2021-07-20T08:53:21Z</time>
      </trkpt>
      <trkpt lat="45.68905" lon="2.87574">
        <ele>920.86</ele>
        <time>2021-07-20T08:53:24Z</time>
      </trkpt>
      <trkpt lat="45.68903" lon="2.8756">
        <ele>917.43</ele>
        <time>2021-07-20T08:53:26Z</time>
      </trkpt>
      <trkpt lat="45.68903" lon="2.87547">
        <ele>914.05</ele>
        <time>2021-07-20T08:53:30Z</time>
      </trkpt>
      <trkpt lat="45.68905" lon="2.87529">
        <ele>910.31</ele>
        <time>2021-07-20T08:53:34Z</time>
      </trkpt>
      <trkpt lat="45.68908" lon="2.87513">
        <ele>906.61</ele>
        <time>2021-07-20T08:53:37Z</time>
      </trkpt>
      <trkpt lat="45.68911" lon="2.87496">
        <ele>905.72</ele>
        <time>2021-07-20T08:53:38Z</time>
      </trkpt>
      <trkpt lat="45.68911" lon="2.87479">
        <ele>904.99</ele>
        <time>2021-07-20T08:53:39Z</time>
      </trkpt>
      <trkpt lat="45.68915" lon="2.87464">
        <ele>903.55</ele>
        <time>2021-07-20T08:53:42Z</time>
      </trkpt>
      <trkpt lat="45.68919" lon="2.87451">
        <ele>900.57</ele>
        <time>2021-07-20T08:53:45Z</time>
      </trkpt>
      <trkpt lat="45.68925" lon="2.87429">
        <ele>896.86</ele>
        <time>2021-07-20T08:53:50Z</time>
      </trkpt>
      <trkpt lat="45.68929" lon="2.87415">
        <ele>895.99</ele>
        <time>2021-07-20T08:53:51Z</time>
      </trkpt>
      <trkpt lat="45.68932" lon="2.874">
        <ele>895.2</ele>
        <time>2021-07-20T08:53:54Z</time>
      </trkpt>
      <trkpt lat="45.6894" lon="2.87389">
        <ele>890.25</ele>
        <time>2021-07-20T08:53:57Z</time>
      </trkpt>
      <trkpt lat="45.68944" lon="2.87375">
        <ele>889.54</ele>
        <time>2021-07-20T08:54:02Z</time>
      </trkpt>
      <trkpt lat="45.6895" lon="2.87357">
        <ele>886.15</ele>
        <time>2021-07-20T08:54:04Z</time>
      </trkpt>
      <trkpt lat="45.68955" lon="2.87344">
        <ele>882.94</ele>
        <time>2021-07-20T08:54:07Z</time>
      </trkpt>
      <trkpt lat="45.68958" lon="2.87332">
        <ele>881.35</ele>
        <time>2021-07-20T08:54:09Z</time>
      </trkpt>
      <trkpt lat="45.68961" lon="2.87317">
        <ele>879.01</ele>
        <time>2021-07-20T08:54:13Z</time>
      </trkpt>
      <trkpt lat="45.68973" lon="2.8729">
        <ele>873.39</ele>
        <time>2021-07-20T08:54:16Z</time>
      </trkpt>
      <trkpt lat="45.68979" lon="2.87272">
        <ele>870.47</ele>
        <time>2021-07-20T08:54:19Z</time>
      </trkpt>
      <trkpt lat="45.68978" lon="2.87255">
        <ele>868.16</ele>
        <time>2021-07-20T08:54:21Z</time>
      </trkpt>
      <trkpt lat="45.68977" lon="2.87234">
        <ele>866</ele>
        <time>2021-07-20T08:54:23Z</time>
      </trkpt>
      <trkpt lat="45.68975" lon="2.87216">
        <ele>863.85</ele>
        <time>2021-07-20T08:54:25Z</time>
      </trkpt>
      <trkpt lat="45.68973" lon="2.87201">
        <ele>862.61</ele>
        <time>2021-07-20T08:54:27Z</time>
      </trkpt>
      <trkpt lat="45.6897" lon="2.87186">
        <ele>861.52</ele>
        <time>2021-07-20T08:54:29Z</time>
      </trkpt>
      <trkpt lat="45.68969" lon="2.87171">
        <ele>861.1</ele>
        <time>2021-07-20T08:54:31Z</time>
      </trkpt>
      <trkpt lat="45.68967" lon="2.87154">
        <ele>860.06</ele>
        <time>2021-07-20T08:54:34Z</time>
      </trkpt>
      <trkpt lat="45.68964" lon="2.87141">
        <ele>859.85</ele>
        <time>2021-07-20T08:54:38Z</time>
      </trkpt>
      <trkpt lat="45.68957" lon="2.87126">
        <ele>857.26</ele>
        <time>2021-07-20T08:54:41Z</time>
      </trkpt>
      <trkpt lat="45.6895" lon="2.87113">
        <ele>851.75</ele>
        <time>2021-07-20T08:54:46Z</time>
      </trkpt>
      <trkpt lat="45.68944" lon="2.87101">
        <ele>846.23</ele>
        <time>2021-07-20T08:54:50Z</time>
      </trkpt>
      <trkpt lat="45.68942" lon="2.87088">
        <ele>843.15</ele>
        <time>2021-07-20T08:54:54Z</time>
      </trkpt>
      <trkpt lat="45.68944" lon="2.87073">
        <ele>842</ele>
        <time>2021-07-20T08:54:57Z</time>
      </trkpt>
      <trkpt lat="45.68942" lon="2.8706">
        <ele>839.99</ele>
        <time>2021-07-20T08:56:41Z</time>
      </trkpt>
      <trkpt lat="45.68941" lon="2.87045">
        <ele>841.45</ele>
        <time>2021-07-20T08:59:00Z</time>
      </trkpt>
      <trkpt lat="45.68941" lon="2.87027">
        <ele>839.74</ele>
        <time>2021-07-20T08:59:04Z</time>
      </trkpt>
      <trkpt lat="45.68938" lon="2.8701">
        <ele>839.16</ele>
        <time>2021-07-20T08:59:07Z</time>
      </trkpt>
      <trkpt lat="45.68938" lon="2.86994">
        <ele>835.58</ele>
        <time>2021-07-20T08:59:10Z</time>
      </trkpt>
      <trkpt lat="45.6894" lon="2.86977">
        <ele>834.6</ele>
        <time>2021-07-20T08:59:13Z</time>
      </trkpt>
      <trkpt lat="45.68943" lon="2.86963">
        <ele>834.27</ele>
        <time>2021-07-20T08:59:17Z</time>
      </trkpt>
      <trkpt lat="45.68945" lon="2.86948">
        <ele>835.68</ele>
        <time>2021-07-20T08:59:19Z</time>
      </trkpt>
      <trkpt lat="45.68947" lon="2.86933">
        <ele>836.64</ele>
        <time>2021-07-20T08:59:21Z</time>
      </trkpt>
      <trkpt lat="45.68949" lon="2.8692">
        <ele>837.23</ele>
        <time>2021-07-20T08:59:24Z</time>
      </trkpt>
      <trkpt lat="45.68953" lon="2.86905">
        <ele>838.55</ele>
        <time>2021-07-20T08:59:27Z</time>
      </trkpt>
      <trkpt lat="45.68959" lon="2.86892">
        <ele>838.3</ele>
        <time>2021-07-20T08:59:30Z</time>
      </trkpt>
      <trkpt lat="45.68968" lon="2.86883">
        <ele>840.12</ele>
        <time>2021-07-20T08:59:33Z</time>
      </trkpt>
      <trkpt lat="45.68977" lon="2.86872">
        <ele>841.35</ele>
        <time>2021-07-20T08:59:36Z</time>
      </trkpt>
      <trkpt lat="45.68985" lon="2.86864">
        <ele>842.12</ele>
        <time>2021-07-20T08:59:38Z</time>
      </trkpt>
      <trkpt lat="45.68994" lon="2.86865">
        <ele>838.92</ele>
        <time>2021-07-20T08:59:41Z</time>
      </trkpt>
      <trkpt lat="45.69005" lon="2.86867">
        <ele>838.37</ele>
        <time>2021-07-20T08:59:43Z</time>
      </trkpt>
      <trkpt lat="45.69014" lon="2.86865">
        <ele>837.41</ele>
        <time>2021-07-20T08:59:46Z</time>
      </trkpt>
      <trkpt lat="45.69023" lon="2.86862">
        <ele>836.39</ele>
        <time>2021-07-20T08:59:51Z</time>
      </trkpt>
      <trkpt lat="45.69034" lon="2.86859">
        <ele>836.27</ele>
        <time>2021-07-20T08:59:55Z</time>
      </trkpt>
      <trkpt lat="45.69045" lon="2.86856">
        <ele>835.79</ele>
        <time>2021-07-20T08:59:58Z</time>
      </trkpt>
      <trkpt lat="45.69058" lon="2.86855">
        <ele>835.94</ele>
        <time>2021-07-20T09:00:01Z</time>
      </trkpt>
      <trkpt lat="45.69071" lon="2.86855">
        <ele>834.75</ele>
        <time>2021-07-20T09:00:04Z</time>
      </trkpt>
      <trkpt lat="45.69081" lon="2.86854">
        <ele>833.96</ele>
        <time>2021-07-20T09:00:06Z</time>
      </trkpt>
      <trkpt lat="45.6909" lon="2.86854">
        <ele>833.07</ele>
        <time>2021-07-20T09:00:08Z</time>
      </trkpt>
      <trkpt lat="45.691" lon="2.86852">
        <ele>833.66</ele>
        <time>2021-07-20T09:00:10Z</time>
      </trkpt>
      <trkpt lat="45.69111" lon="2.8685">
        <ele>835.64</ele>
        <time>2021-07-20T09:00:13Z</time>
      </trkpt>
      <trkpt lat="45.69122" lon="2.86846">
        <ele>833.49</ele>
        <time>2021-07-20T09:00:17Z</time>
      </trkpt>
      <trkpt lat="45.69132" lon="2.86841">
        <ele>834.53</ele>
        <time>2021-07-20T09:00:20Z</time>
      </trkpt>
      <trkpt lat="45.69142" lon="2.86838">
        <ele>835.39</ele>
        <time>2021-07-20T09:00:22Z</time>
      </trkpt>
      <trkpt lat="45.69152" lon="2.86833">
        <ele>835.64</ele>
        <time>2021-07-20T09:00:24Z</time>
      </trkpt>
      <trkpt lat="45.69162" lon="2.86828">
        <ele>835.75</ele>
        <time>2021-07-20T09:00:26Z</time>
      </trkpt>
      <trkpt lat="45.69172" lon="2.86824">
        <ele>836.53</ele>
        <time>2021-07-20T09:00:28Z</time>
      </trkpt>
      <trkpt lat="45.69182" lon="2.86819">
        <ele>837.45</ele>
        <time>2021-07-20T09:00:30Z</time>
      </trkpt>
      <trkpt lat="45.69191" lon="2.86814">
        <ele>836.41</ele>
        <time>2021-07-20T09:00:32Z</time>
      </trkpt>
      <trkpt lat="45.69202" lon="2.86806">
        <ele>836.3</ele>
        <time>2021-07-20T09:00:35Z</time>
      </trkpt>
      <trkpt lat="45.69212" lon="2.86797">
        <ele>836.44</ele>
        <time>2021-07-20T09:00:38Z</time>
      </trkpt>
      <trkpt lat="45.69218" lon="2.86783">
        <ele>836.18</ele>
        <time>2021-07-20T09:00:41Z</time>
      </trkpt>
      <trkpt lat="45.69216" lon="2.86768">
        <ele>836.12</ele>
        <time>2021-07-20T09:00:44Z</time>
      </trkpt>
      <trkpt lat="45.6921" lon="2.86758">
        <ele>833.74</ele>
        <time>2021-07-20T09:00:48Z</time>
      </trkpt>
      <trkpt lat="45.69207" lon="2.86744">
        <ele>834.56</ele>
        <time>2021-07-20T09:00:53Z</time>
      </trkpt>
      <trkpt lat="45.69206" lon="2.86731">
        <ele>834.87</ele>
        <time>2021-07-20T09:00:58Z</time>
      </trkpt>
      <trkpt lat="45.69212" lon="2.8672">
        <ele>838.8</ele>
        <time>2021-07-20T09:01:06Z</time>
      </trkpt>
      <trkpt lat="45.69219" lon="2.86713">
        <ele>837.44</ele>
        <time>2021-07-20T09:01:14Z</time>
      </trkpt>
      <trkpt lat="45.69227" lon="2.86703">
        <ele>838.31</ele>
        <time>2021-07-20T09:01:18Z</time>
      </trkpt>
      <trkpt lat="45.69231" lon="2.8669">
        <ele>838.15</ele>
        <time>2021-07-20T09:01:23Z</time>
      </trkpt>
      <trkpt lat="45.69232" lon="2.86677">
        <ele>839.48</ele>
        <time>2021-07-20T09:01:27Z</time>
      </trkpt>
      <trkpt lat="45.69236" lon="2.86663">
        <ele>839.85</ele>
        <time>2021-07-20T09:01:32Z</time>
      </trkpt>
      <trkpt lat="45.69238" lon="2.86649">
        <ele>839.98</ele>
        <time>2021-07-20T09:01:36Z</time>
      </trkpt>
      <trkpt lat="45.69228" lon="2.8665">
        <ele>844.95</ele>
        <time>2021-07-20T09:01:41Z</time>
      </trkpt>
      <trkpt lat="45.69222" lon="2.86659">
        <ele>846.85</ele>
        <time>2021-07-20T09:01:45Z</time>
      </trkpt>
      <trkpt lat="45.69214" lon="2.86668">
        <ele>845.22</ele>
        <time>2021-07-20T09:01:50Z</time>
      </trkpt>
      <trkpt lat="45.69204" lon="2.86677">
        <ele>844.39</ele>
        <time>2021-07-20T09:01:54Z</time>
      </trkpt>
      <trkpt lat="45.69196" lon="2.86683">
        <ele>845.04</ele>
        <time>2021-07-20T09:01:57Z</time>
      </trkpt>
      <trkpt lat="45.69185" lon="2.86688">
        <ele>845.87</ele>
        <time>2021-07-20T09:02:01Z</time>
      </trkpt>
      <trkpt lat="45.69174" lon="2.86688">
        <ele>845.45</ele>
        <time>2021-07-20T09:02:05Z</time>
      </trkpt>
      <trkpt lat="45.69163" lon="2.86688">
        <ele>846.08</ele>
        <time>2021-07-20T09:02:10Z</time>
      </trkpt>
      <trkpt lat="45.69153" lon="2.86688">
        <ele>847.75</ele>
        <time>2021-07-20T09:02:16Z</time>
      </trkpt>
      <trkpt lat="45.69143" lon="2.86689">
        <ele>849.03</ele>
        <time>2021-07-20T09:02:21Z</time>
      </trkpt>
      <trkpt lat="45.69133" lon="2.86692">
        <ele>850.48</ele>
        <time>2021-07-20T09:02:26Z</time>
      </trkpt>
      <trkpt lat="45.69124" lon="2.86695">
        <ele>852.49</ele>
        <time>2021-07-20T09:02:31Z</time>
      </trkpt>
      <trkpt lat="45.69115" lon="2.86696">
        <ele>849</ele>
        <time>2021-07-20T09:02:37Z</time>
      </trkpt>
      <trkpt lat="45.69125" lon="2.86703">
        <ele>849.45</ele>
        <time>2021-07-20T09:09:50Z</time>
      </trkpt>
      <trkpt lat="45.69137" lon="2.86702">
        <ele>847.89</ele>
        <time>2021-07-20T09:09:55Z</time>
      </trkpt>
      <trkpt lat="45.6915" lon="2.86702">
        <ele>845.21</ele>
        <time>2021-07-20T09:09:57Z</time>
      </trkpt>
      <trkpt lat="45.69163" lon="2.86699">
        <ele>846.27</ele>
        <time>2021-07-20T09:10:00Z</time>
      </trkpt>
      <trkpt lat="45.69172" lon="2.86696">
        <ele>847.21</ele>
        <time>2021-07-20T09:10:02Z</time>
      </trkpt>
      <trkpt lat="45.69183" lon="2.86693">
        <ele>847.66</ele>
        <time>2021-07-20T09:10:04Z</time>
      </trkpt>
      <trkpt lat="45.69193" lon="2.86687">
        <ele>847.46</ele>
        <time>2021-07-20T09:10:06Z</time>
      </trkpt>
      <trkpt lat="45.69202" lon="2.86678">
        <ele>846.52</ele>
        <time>2021-07-20T09:10:08Z</time>
      </trkpt>
      <trkpt lat="45.69211" lon="2.86671">
        <ele>846.03</ele>
        <time>2021-07-20T09:10:10Z</time>
      </trkpt>
      <trkpt lat="45.6922" lon="2.86662">
        <ele>846.05</ele>
        <time>2021-07-20T09:10:12Z</time>
      </trkpt>
      <trkpt lat="45.69228" lon="2.86653">
        <ele>846.13</ele>
        <time>2021-07-20T09:10:15Z</time>
      </trkpt>
      <trkpt lat="45.69234" lon="2.86644">
        <ele>845.38</ele>
        <time>2021-07-20T09:10:20Z</time>
      </trkpt>
      <trkpt lat="45.69235" lon="2.86658">
        <ele>846.46</ele>
        <time>2021-07-20T09:10:25Z</time>
      </trkpt>
      <trkpt lat="45.69229" lon="2.86668">
        <ele>847.77</ele>
        <time>2021-07-20T09:10:29Z</time>
      </trkpt>
      <trkpt lat="45.69225" lon="2.86682">
        <ele>846.16</ele>
        <time>2021-07-20T09:10:33Z</time>
      </trkpt>
      <trkpt lat="45.69228" lon="2.86694">
        <ele>844.22</ele>
        <time>2021-07-20T09:10:39Z</time>
      </trkpt>
      <trkpt lat="45.69223" lon="2.86706">
        <ele>843.1</ele>
        <time>2021-07-20T09:10:55Z</time>
      </trkpt>
      <trkpt lat="45.69218" lon="2.86717">
        <ele>842.8</ele>
        <time>2021-07-20T09:10:59Z</time>
      </trkpt>
      <trkpt lat="45.69211" lon="2.86726">
        <ele>843.3</ele>
        <time>2021-07-20T09:11:03Z</time>
      </trkpt>
      <trkpt lat="45.69204" lon="2.86739">
        <ele>839.6</ele>
        <time>2021-07-20T09:11:09Z</time>
      </trkpt>
      <trkpt lat="45.69209" lon="2.86754">
        <ele>838.88</ele>
        <time>2021-07-20T09:11:13Z</time>
      </trkpt>
      <trkpt lat="45.69214" lon="2.86765">
        <ele>835.99</ele>
        <time>2021-07-20T09:11:17Z</time>
      </trkpt>
      <trkpt lat="45.69218" lon="2.86779">
        <ele>836.19</ele>
        <time>2021-07-20T09:11:21Z</time>
      </trkpt>
      <trkpt lat="45.69219" lon="2.86794">
        <ele>833.24</ele>
        <time>2021-07-20T09:11:25Z</time>
      </trkpt>
      <trkpt lat="45.69218" lon="2.8678">
        <ele>837.98</ele>
        <time>2021-07-20T09:11:51Z</time>
      </trkpt>
      <trkpt lat="45.69213" lon="2.86769">
        <ele>837.8</ele>
        <time>2021-07-20T09:11:55Z</time>
      </trkpt>
      <trkpt lat="45.6921" lon="2.86757">
        <ele>838.39</ele>
        <time>2021-07-20T09:11:59Z</time>
      </trkpt>
      <trkpt lat="45.69206" lon="2.86745">
        <ele>837.23</ele>
        <time>2021-07-20T09:12:03Z</time>
      </trkpt>
      <trkpt lat="45.69208" lon="2.8673">
        <ele>835.25</ele>
        <time>2021-07-20T09:12:08Z</time>
      </trkpt>
      <trkpt lat="45.69217" lon="2.86721">
        <ele>836.24</ele>
        <time>2021-07-20T09:12:13Z</time>
      </trkpt>
      <trkpt lat="45.69224" lon="2.86713">
        <ele>834.73</ele>
        <time>2021-07-20T09:12:22Z</time>
      </trkpt>
      <trkpt lat="45.69231" lon="2.86703">
        <ele>836.11</ele>
        <time>2021-07-20T09:12:27Z</time>
      </trkpt>
      <trkpt lat="45.69236" lon="2.86691">
        <ele>835.79</ele>
        <time>2021-07-20T09:12:33Z</time>
      </trkpt>
      <trkpt lat="45.69241" lon="2.86703">
        <ele>832.43</ele>
        <time>2021-07-20T09:12:37Z</time>
      </trkpt>
      <trkpt lat="45.69246" lon="2.86718">
        <ele>833.1</ele>
        <time>2021-07-20T09:12:41Z</time>
      </trkpt>
      <trkpt lat="45.69248" lon="2.86731">
        <ele>831.96</ele>
        <time>2021-07-20T09:12:45Z</time>
      </trkpt>
      <trkpt lat="45.69248" lon="2.86747">
        <ele>829.9</ele>
        <time>2021-07-20T09:12:49Z</time>
      </trkpt>
      <trkpt lat="45.69252" lon="2.8676">
        <ele>829.85</ele>
        <time>2021-07-20T09:12:52Z</time>
      </trkpt>
      <trkpt lat="45.69261" lon="2.86784">
        <ele>832.11</ele>
        <time>2021-07-20T09:12:53Z</time>
      </trkpt>
      <trkpt lat="45.69269" lon="2.86793">
        <ele>831.61</ele>
        <time>2021-07-20T09:12:55Z</time>
      </trkpt>
      <trkpt lat="45.69276" lon="2.86801">
        <ele>830.98</ele>
        <time>2021-07-20T09:12:57Z</time>
      </trkpt>
      <trkpt lat="45.69286" lon="2.86804">
        <ele>831.53</ele>
        <time>2021-07-20T09:13:00Z</time>
      </trkpt>
      <trkpt lat="45.69299" lon="2.86803">
        <ele>829.48</ele>
        <time>2021-07-20T09:13:04Z</time>
      </trkpt>
      <trkpt lat="45.69308" lon="2.86808">
        <ele>829.8</ele>
        <time>2021-07-20T09:13:07Z</time>
      </trkpt>
      <trkpt lat="45.6932" lon="2.8681">
        <ele>828.26</ele>
        <time>2021-07-20T09:13:11Z</time>
      </trkpt>
      <trkpt lat="45.69329" lon="2.86813">
        <ele>830.26</ele>
        <time>2021-07-20T09:13:15Z</time>
      </trkpt>
      <trkpt lat="45.69338" lon="2.86817">
        <ele>834.72</ele>
        <time>2021-07-20T09:13:20Z</time>
      </trkpt>
      <trkpt lat="45.69348" lon="2.86818">
        <ele>837.22</ele>
        <time>2021-07-20T09:13:25Z</time>
      </trkpt>
      <trkpt lat="45.69358" lon="2.86816">
        <ele>840.96</ele>
        <time>2021-07-20T09:13:28Z</time>
      </trkpt>
      <trkpt lat="45.69369" lon="2.86814">
        <ele>839.2</ele>
        <time>2021-07-20T09:13:32Z</time>
      </trkpt>
      <trkpt lat="45.69381" lon="2.86812">
        <ele>839.68</ele>
        <time>2021-07-20T09:13:36Z</time>
      </trkpt>
      <trkpt lat="45.69391" lon="2.86809">
        <ele>838.21</ele>
        <time>2021-07-20T09:13:40Z</time>
      </trkpt>
      <trkpt lat="45.69401" lon="2.86806">
        <ele>840.32</ele>
        <time>2021-07-20T09:13:44Z</time>
      </trkpt>
      <trkpt lat="45.6941" lon="2.86803">
        <ele>840.74</ele>
        <time>2021-07-20T09:13:48Z</time>
      </trkpt>
      <trkpt lat="45.6942" lon="2.86803">
        <ele>840.16</ele>
        <time>2021-07-20T09:13:52Z</time>
      </trkpt>
      <trkpt lat="45.6943" lon="2.86806">
        <ele>841.31</ele>
        <time>2021-07-20T09:13:56Z</time>
      </trkpt>
      <trkpt lat="45.69437" lon="2.86817">
        <ele>843.15</ele>
        <time>2021-07-20T09:14:01Z</time>
      </trkpt>
      <trkpt lat="45.69442" lon="2.86831">
        <ele>841.78</ele>
        <time>2021-07-20T09:14:06Z</time>
      </trkpt>
      <trkpt lat="45.69448" lon="2.86843">
        <ele>842.59</ele>
        <time>2021-07-20T09:14:11Z</time>
      </trkpt>
      <trkpt lat="45.69453" lon="2.86855">
        <ele>841.26</ele>
        <time>2021-07-20T09:14:16Z</time>
      </trkpt>
      <trkpt lat="45.6946" lon="2.86866">
        <ele>840.93</ele>
        <time>2021-07-20T09:14:21Z</time>
      </trkpt>
      <trkpt lat="45.6947" lon="2.86871">
        <ele>842.13</ele>
        <time>2021-07-20T09:14:26Z</time>
      </trkpt>
      <trkpt lat="45.6948" lon="2.86865">
        <ele>843.63</ele>
        <time>2021-07-20T09:14:30Z</time>
      </trkpt>
      <trkpt lat="45.69487" lon="2.86855">
        <ele>842.84</ele>
        <time>2021-07-20T09:14:34Z</time>
      </trkpt>
      <trkpt lat="45.69493" lon="2.86843">
        <ele>842.93</ele>
        <time>2021-07-20T09:14:38Z</time>
      </trkpt>
      <trkpt lat="45.695" lon="2.8683">
        <ele>843.15</ele>
        <time>2021-07-20T09:14:42Z</time>
      </trkpt>
      <trkpt lat="45.69504" lon="2.86818">
        <ele>843.09</ele>
        <time>2021-07-20T09:14:46Z</time>
      </trkpt>
      <trkpt lat="45.69512" lon="2.8681">
        <ele>844.33</ele>
        <time>2021-07-20T09:14:50Z</time>
      </trkpt>
      <trkpt lat="45.69521" lon="2.86804">
        <ele>845.88</ele>
        <time>2021-07-20T09:14:54Z</time>
      </trkpt>
      <trkpt lat="45.69531" lon="2.86801">
        <ele>847.28</ele>
        <time>2021-07-20T09:14:58Z</time>
      </trkpt>
      <trkpt lat="45.69542" lon="2.86802">
        <ele>847.71</ele>
        <time>2021-07-20T09:15:03Z</time>
      </trkpt>
      <trkpt lat="45.69552" lon="2.86804">
        <ele>850.47</ele>
        <time>2021-07-20T09:15:08Z</time>
      </trkpt>
      <trkpt lat="45.69563" lon="2.86809">
        <ele>850.83</ele>
        <time>2021-07-20T09:15:14Z</time>
      </trkpt>
      <trkpt lat="45.69572" lon="2.86812">
        <ele>852.42</ele>
        <time>2021-07-20T09:15:19Z</time>
      </trkpt>
      <trkpt lat="45.69583" lon="2.86813">
        <ele>855.22</ele>
        <time>2021-07-20T09:15:24Z</time>
      </trkpt>
      <trkpt lat="45.69592" lon="2.86813">
        <ele>855.12</ele>
        <time>2021-07-20T09:15:29Z</time>
      </trkpt>
      <trkpt lat="45.69602" lon="2.86808">
        <ele>855.53</ele>
        <time>2021-07-20T09:15:36Z</time>
      </trkpt>
      <trkpt lat="45.6961" lon="2.86801">
        <ele>853.11</ele>
        <time>2021-07-20T09:19:07Z</time>
      </trkpt>
      <trkpt lat="45.69621" lon="2.86798">
        <ele>853.64</ele>
        <time>2021-07-20T09:19:12Z</time>
      </trkpt>
      <trkpt lat="45.6963" lon="2.86796">
        <ele>852.83</ele>
        <time>2021-07-20T09:19:15Z</time>
      </trkpt>
      <trkpt lat="45.69641" lon="2.86793">
        <ele>852.35</ele>
        <time>2021-07-20T09:19:18Z</time>
      </trkpt>
      <trkpt lat="45.69652" lon="2.86792">
        <ele>851.87</ele>
        <time>2021-07-20T09:19:21Z</time>
      </trkpt>
      <trkpt lat="45.69663" lon="2.86787">
        <ele>850.92</ele>
        <time>2021-07-20T09:19:24Z</time>
      </trkpt>
      <trkpt lat="45.69673" lon="2.86782">
        <ele>848.71</ele>
        <time>2021-07-20T09:19:26Z</time>
      </trkpt>
      <trkpt lat="45.69684" lon="2.86779">
        <ele>848.11</ele>
        <time>2021-07-20T09:19:28Z</time>
      </trkpt>
      <trkpt lat="45.69696" lon="2.86777">
        <ele>845.88</ele>
        <time>2021-07-20T09:19:30Z</time>
      </trkpt>
      <trkpt lat="45.69706" lon="2.86774">
        <ele>845.12</ele>
        <time>2021-07-20T09:19:32Z</time>
      </trkpt>
      <trkpt lat="45.69715" lon="2.8677">
        <ele>843.96</ele>
        <time>2021-07-20T09:19:34Z</time>
      </trkpt>
      <trkpt lat="45.69725" lon="2.8677">
        <ele>842.91</ele>
        <time>2021-07-20T09:19:36Z</time>
      </trkpt>
      <trkpt lat="45.69736" lon="2.86767">
        <ele>841.52</ele>
        <time>2021-07-20T09:19:39Z</time>
      </trkpt>
      <trkpt lat="45.69747" lon="2.86764">
        <ele>843.27</ele>
        <time>2021-07-20T09:19:42Z</time>
      </trkpt>
      <trkpt lat="45.69759" lon="2.86761">
        <ele>842.89</ele>
        <time>2021-07-20T09:19:44Z</time>
      </trkpt>
      <trkpt lat="45.69769" lon="2.86757">
        <ele>843.43</ele>
        <time>2021-07-20T09:19:46Z</time>
      </trkpt>
      <trkpt lat="45.69779" lon="2.86753">
        <ele>843.19</ele>
        <time>2021-07-20T09:19:48Z</time>
      </trkpt>
      <trkpt lat="45.69789" lon="2.8675">
        <ele>841.87</ele>
        <time>2021-07-20T09:19:50Z</time>
      </trkpt>
      <trkpt lat="45.698" lon="2.86747">
        <ele>842.02</ele>
        <time>2021-07-20T09:19:52Z</time>
      </trkpt>
      <trkpt lat="45.69813" lon="2.86746">
        <ele>839.43</ele>
        <time>2021-07-20T09:19:54Z</time>
      </trkpt>
      <trkpt lat="45.69827" lon="2.86743">
        <ele>838.32</ele>
        <time>2021-07-20T09:19:56Z</time>
      </trkpt>
      <trkpt lat="45.69843" lon="2.8674">
        <ele>836.21</ele>
        <time>2021-07-20T09:19:58Z</time>
      </trkpt>
      <trkpt lat="45.69857" lon="2.86735">
        <ele>834.71</ele>
        <time>2021-07-20T09:20:00Z</time>
      </trkpt>
      <trkpt lat="45.69866" lon="2.86735">
        <ele>833.5</ele>
        <time>2021-07-20T09:20:01Z</time>
      </trkpt>
      <trkpt lat="45.6988" lon="2.86731">
        <ele>833.22</ele>
        <time>2021-07-20T09:20:03Z</time>
      </trkpt>
      <trkpt lat="45.69893" lon="2.86726">
        <ele>832.71</ele>
        <time>2021-07-20T09:20:05Z</time>
      </trkpt>
      <trkpt lat="45.69909" lon="2.86724">
        <ele>833.25</ele>
        <time>2021-07-20T09:20:07Z</time>
      </trkpt>
      <trkpt lat="45.69925" lon="2.8672">
        <ele>832.32</ele>
        <time>2021-07-20T09:20:09Z</time>
      </trkpt>
      <trkpt lat="45.69934" lon="2.86718">
        <ele>831.46</ele>
        <time>2021-07-20T09:20:10Z</time>
      </trkpt>
      <trkpt lat="45.69944" lon="2.86717">
        <ele>831.32</ele>
        <time>2021-07-20T09:20:11Z</time>
      </trkpt>
      <trkpt lat="45.69959" lon="2.8671">
        <ele>826.23</ele>
        <time>2021-07-20T09:20:13Z</time>
      </trkpt>
      <trkpt lat="45.69976" lon="2.86707">
        <ele>824.42</ele>
        <time>2021-07-20T09:20:15Z</time>
      </trkpt>
      <trkpt lat="45.69986" lon="2.86706">
        <ele>823.6</ele>
        <time>2021-07-20T09:20:16Z</time>
      </trkpt>
      <trkpt lat="45.70002" lon="2.86702">
        <ele>822.34</ele>
        <time>2021-07-20T09:20:18Z</time>
      </trkpt>
      <trkpt lat="45.70018" lon="2.86698">
        <ele>822.46</ele>
        <time>2021-07-20T09:20:20Z</time>
      </trkpt>
      <trkpt lat="45.70032" lon="2.86694">
        <ele>822.31</ele>
        <time>2021-07-20T09:20:22Z</time>
      </trkpt>
      <trkpt lat="45.70046" lon="2.86692">
        <ele>822.43</ele>
        <time>2021-07-20T09:20:24Z</time>
      </trkpt>
      <trkpt lat="45.70058" lon="2.86688">
        <ele>823.2</ele>
        <time>2021-07-20T09:20:26Z</time>
      </trkpt>
      <trkpt lat="45.70071" lon="2.86686">
        <ele>822.52</ele>
        <time>2021-07-20T09:20:28Z</time>
      </trkpt>
      <trkpt lat="45.70083" lon="2.86683">
        <ele>824.04</ele>
        <time>2021-07-20T09:20:30Z</time>
      </trkpt>
      <trkpt lat="45.70094" lon="2.86678">
        <ele>824.07</ele>
        <time>2021-07-20T09:20:32Z</time>
      </trkpt>
      <trkpt lat="45.70104" lon="2.86675">
        <ele>823.7</ele>
        <time>2021-07-20T09:20:34Z</time>
      </trkpt>
      <trkpt lat="45.70114" lon="2.86672">
        <ele>824.83</ele>
        <time>2021-07-20T09:20:36Z</time>
      </trkpt>
      <trkpt lat="45.70124" lon="2.8667">
        <ele>825.17</ele>
        <time>2021-07-20T09:20:38Z</time>
      </trkpt>
      <trkpt lat="45.70135" lon="2.86668">
        <ele>825.53</ele>
        <time>2021-07-20T09:20:40Z</time>
      </trkpt>
      <trkpt lat="45.70145" lon="2.86666">
        <ele>825.74</ele>
        <time>2021-07-20T09:20:42Z</time>
      </trkpt>
      <trkpt lat="45.70155" lon="2.86662">
        <ele>825.25</ele>
        <time>2021-07-20T09:20:44Z</time>
      </trkpt>
      <trkpt lat="45.70165" lon="2.8666">
        <ele>824.69</ele>
        <time>2021-07-20T09:20:46Z</time>
      </trkpt>
      <trkpt lat="45.70178" lon="2.86658">
        <ele>825.05</ele>
        <time>2021-07-20T09:20:49Z</time>
      </trkpt>
      <trkpt lat="45.70197" lon="2.86652">
        <ele>823.15</ele>
        <time>2021-07-20T09:20:54Z</time>
      </trkpt>
      <trkpt lat="45.70208" lon="2.86649">
        <ele>822.66</ele>
        <time>2021-07-20T09:20:55Z</time>
      </trkpt>
      <trkpt lat="45.70218" lon="2.86647">
        <ele>821.18</ele>
        <time>2021-07-20T09:20:57Z</time>
      </trkpt>
      <trkpt lat="45.70228" lon="2.86646">
        <ele>820.16</ele>
        <time>2021-07-20T09:20:59Z</time>
      </trkpt>
      <trkpt lat="45.7024" lon="2.86641">
        <ele>819.34</ele>
        <time>2021-07-20T09:21:01Z</time>
      </trkpt>
      <trkpt lat="45.7025" lon="2.86633">
        <ele>818.74</ele>
        <time>2021-07-20T09:21:03Z</time>
      </trkpt>
      <trkpt lat="45.70263" lon="2.86632">
        <ele>819.7</ele>
        <time>2021-07-20T09:21:05Z</time>
      </trkpt>
      <trkpt lat="45.70272" lon="2.86627">
        <ele>818.17</ele>
        <time>2021-07-20T09:21:07Z</time>
      </trkpt>
      <trkpt lat="45.70281" lon="2.8662">
        <ele>816.37</ele>
        <time>2021-07-20T09:21:09Z</time>
      </trkpt>
      <trkpt lat="45.70292" lon="2.86616">
        <ele>815.88</ele>
        <time>2021-07-20T09:21:11Z</time>
      </trkpt>
      <trkpt lat="45.70304" lon="2.86613">
        <ele>817.98</ele>
        <time>2021-07-20T09:21:14Z</time>
      </trkpt>
      <trkpt lat="45.70315" lon="2.86608">
        <ele>818.35</ele>
        <time>2021-07-20T09:21:19Z</time>
      </trkpt>
      <trkpt lat="45.70327" lon="2.86604">
        <ele>820.86</ele>
        <time>2021-07-20T09:21:23Z</time>
      </trkpt>
      <trkpt lat="45.70341" lon="2.86603">
        <ele>820.11</ele>
        <time>2021-07-20T09:21:26Z</time>
      </trkpt>
      <trkpt lat="45.70351" lon="2.86599">
        <ele>819.48</ele>
        <time>2021-07-20T09:21:28Z</time>
      </trkpt>
      <trkpt lat="45.70362" lon="2.86597">
        <ele>819.69</ele>
        <time>2021-07-20T09:21:31Z</time>
      </trkpt>
      <trkpt lat="45.70372" lon="2.86592">
        <ele>820.22</ele>
        <time>2021-07-20T09:21:34Z</time>
      </trkpt>
      <trkpt lat="45.70383" lon="2.86588">
        <ele>819.96</ele>
        <time>2021-07-20T09:21:37Z</time>
      </trkpt>
      <trkpt lat="45.70395" lon="2.86584">
        <ele>819.24</ele>
        <time>2021-07-20T09:21:40Z</time>
      </trkpt>
      <trkpt lat="45.70407" lon="2.86578">
        <ele>819.23</ele>
        <time>2021-07-20T09:21:43Z</time>
      </trkpt>
      <trkpt lat="45.70419" lon="2.86575">
        <ele>815.63</ele>
        <time>2021-07-20T09:21:46Z</time>
      </trkpt>
      <trkpt lat="45.70431" lon="2.8657">
        <ele>816.42</ele>
        <time>2021-07-20T09:21:49Z</time>
      </trkpt>
      <trkpt lat="45.70444" lon="2.86564">
        <ele>816.73</ele>
        <time>2021-07-20T09:21:52Z</time>
      </trkpt>
      <trkpt lat="45.70456" lon="2.86559">
        <ele>818.22</ele>
        <time>2021-07-20T09:21:55Z</time>
      </trkpt>
      <trkpt lat="45.70469" lon="2.86554">
        <ele>818.31</ele>
        <time>2021-07-20T09:21:58Z</time>
      </trkpt>
      <trkpt lat="45.7048" lon="2.86548">
        <ele>817.35</ele>
        <time>2021-07-20T09:22:01Z</time>
      </trkpt>
      <trkpt lat="45.70489" lon="2.86546">
        <ele>817.93</ele>
        <time>2021-07-20T09:22:03Z</time>
      </trkpt>
      <trkpt lat="45.705" lon="2.86541">
        <ele>817.93</ele>
        <time>2021-07-20T09:22:06Z</time>
      </trkpt>
      <trkpt lat="45.7051" lon="2.86537">
        <ele>819.1</ele>
        <time>2021-07-20T09:22:11Z</time>
      </trkpt>
      <trkpt lat="45.70528" lon="2.8653">
        <ele>819.24</ele>
        <time>2021-07-20T09:22:13Z</time>
      </trkpt>
      <trkpt lat="45.70539" lon="2.86525">
        <ele>820.28</ele>
        <time>2021-07-20T09:22:16Z</time>
      </trkpt>
      <trkpt lat="45.70549" lon="2.86521">
        <ele>820.21</ele>
        <time>2021-07-20T09:22:19Z</time>
      </trkpt>
      <trkpt lat="45.70559" lon="2.86516">
        <ele>821.88</ele>
        <time>2021-07-20T09:22:24Z</time>
      </trkpt>
      <trkpt lat="45.70572" lon="2.86511">
        <ele>821.93</ele>
        <time>2021-07-20T09:22:26Z</time>
      </trkpt>
      <trkpt lat="45.70581" lon="2.86506">
        <ele>821.08</ele>
        <time>2021-07-20T09:22:29Z</time>
      </trkpt>
      <trkpt lat="45.7059" lon="2.86503">
        <ele>821.17</ele>
        <time>2021-07-20T09:22:32Z</time>
      </trkpt>
      <trkpt lat="45.70602" lon="2.86499">
        <ele>819.91</ele>
        <time>2021-07-20T09:22:36Z</time>
      </trkpt>
      <trkpt lat="45.70616" lon="2.86494">
        <ele>819.17</ele>
        <time>2021-07-20T09:22:38Z</time>
      </trkpt>
      <trkpt lat="45.70627" lon="2.86494">
        <ele>817.64</ele>
        <time>2021-07-20T09:22:40Z</time>
      </trkpt>
      <trkpt lat="45.70637" lon="2.86491">
        <ele>817</ele>
        <time>2021-07-20T09:22:42Z</time>
      </trkpt>
      <trkpt lat="45.70646" lon="2.86484">
        <ele>815.88</ele>
        <time>2021-07-20T09:22:45Z</time>
      </trkpt>
      <trkpt lat="45.70657" lon="2.8648">
        <ele>815.45</ele>
        <time>2021-07-20T09:22:48Z</time>
      </trkpt>
      <trkpt lat="45.70666" lon="2.86476">
        <ele>814.92</ele>
        <time>2021-07-20T09:22:51Z</time>
      </trkpt>
      <trkpt lat="45.70675" lon="2.86476">
        <ele>817</ele>
        <time>2021-07-20T09:22:54Z</time>
      </trkpt>
      <trkpt lat="45.70674" lon="2.8646">
        <ele>817.36</ele>
        <time>2021-07-20T09:23:44Z</time>
      </trkpt>
      <trkpt lat="45.70672" lon="2.86446">
        <ele>815.03</ele>
        <time>2021-07-20T09:23:47Z</time>
      </trkpt>
      <trkpt lat="45.70668" lon="2.8643">
        <ele>814.41</ele>
        <time>2021-07-20T09:23:50Z</time>
      </trkpt>
      <trkpt lat="45.70664" lon="2.86417">
        <ele>812.72</ele>
        <time>2021-07-20T09:23:52Z</time>
      </trkpt>
      <trkpt lat="45.70661" lon="2.86404">
        <ele>811.59</ele>
        <time>2021-07-20T09:23:54Z</time>
      </trkpt>
      <trkpt lat="45.70659" lon="2.86392">
        <ele>811.35</ele>
        <time>2021-07-20T09:23:56Z</time>
      </trkpt>
      <trkpt lat="45.70655" lon="2.86377">
        <ele>808.61</ele>
        <time>2021-07-20T09:23:58Z</time>
      </trkpt>
      <trkpt lat="45.70652" lon="2.86361">
        <ele>806.47</ele>
        <time>2021-07-20T09:24:00Z</time>
      </trkpt>
      <trkpt lat="45.70651" lon="2.86347">
        <ele>805.27</ele>
        <time>2021-07-20T09:24:02Z</time>
      </trkpt>
      <trkpt lat="45.70652" lon="2.86331">
        <ele>803.92</ele>
        <time>2021-07-20T09:24:04Z</time>
      </trkpt>
      <trkpt lat="45.70654" lon="2.86312">
        <ele>802.58</ele>
        <time>2021-07-20T09:24:06Z</time>
      </trkpt>
      <trkpt lat="45.70655" lon="2.86292">
        <ele>802.17</ele>
        <time>2021-07-20T09:24:08Z</time>
      </trkpt>
      <trkpt lat="45.70657" lon="2.86273">
        <ele>800.94</ele>
        <time>2021-07-20T09:24:10Z</time>
      </trkpt>
      <trkpt lat="45.70656" lon="2.86251">
        <ele>799.53</ele>
        <time>2021-07-20T09:24:12Z</time>
      </trkpt>
      <trkpt lat="45.70653" lon="2.86227">
        <ele>797.42</ele>
        <time>2021-07-20T09:24:14Z</time>
      </trkpt>
      <trkpt lat="45.70646" lon="2.86205">
        <ele>796.94</ele>
        <time>2021-07-20T09:24:16Z</time>
      </trkpt>
      <trkpt lat="45.70639" lon="2.86182">
        <ele>796.79</ele>
        <time>2021-07-20T09:24:18Z</time>
      </trkpt>
      <trkpt lat="45.70635" lon="2.86165">
        <ele>797.77</ele>
        <time>2021-07-20T09:24:20Z</time>
      </trkpt>
      <trkpt lat="45.70631" lon="2.86151">
        <ele>798.49</ele>
        <time>2021-07-20T09:24:22Z</time>
      </trkpt>
      <trkpt lat="45.70627" lon="2.86134">
        <ele>797.68</ele>
        <time>2021-07-20T09:24:25Z</time>
      </trkpt>
      <trkpt lat="45.70624" lon="2.8612">
        <ele>797.4</ele>
        <time>2021-07-20T09:24:28Z</time>
      </trkpt>
      <trkpt lat="45.70624" lon="2.86106">
        <ele>798.8</ele>
        <time>2021-07-20T09:24:31Z</time>
      </trkpt>
      <trkpt lat="45.70622" lon="2.86092">
        <ele>798.86</ele>
        <time>2021-07-20T09:24:36Z</time>
      </trkpt>
      <trkpt lat="45.70621" lon="2.86078">
        <ele>794.61</ele>
        <time>2021-07-20T09:24:41Z</time>
      </trkpt>
      <trkpt lat="45.7062" lon="2.86063">
        <ele>794.79</ele>
        <time>2021-07-20T09:24:46Z</time>
      </trkpt>
      <trkpt lat="45.70617" lon="2.86049">
        <ele>796.05</ele>
        <time>2021-07-20T09:24:51Z</time>
      </trkpt>
      <trkpt lat="45.70613" lon="2.86037">
        <ele>797.57</ele>
        <time>2021-07-20T09:24:56Z</time>
      </trkpt>
      <trkpt lat="45.70609" lon="2.86024">
        <ele>797.87</ele>
        <time>2021-07-20T09:25:01Z</time>
      </trkpt>
      <trkpt lat="45.70608" lon="2.86009">
        <ele>799.78</ele>
        <time>2021-07-20T09:25:07Z</time>
      </trkpt>
      <trkpt lat="45.70603" lon="2.85997">
        <ele>803.21</ele>
        <time>2021-07-20T09:25:13Z</time>
      </trkpt>
      <trkpt lat="45.706" lon="2.85982">
        <ele>805.26</ele>
        <time>2021-07-20T09:25:19Z</time>
      </trkpt>
      <trkpt lat="45.70592" lon="2.85974">
        <ele>804.08</ele>
        <time>2021-07-20T09:25:26Z</time>
      </trkpt>
      <trkpt lat="45.70592" lon="2.8596">
        <ele>808.83</ele>
        <time>2021-07-20T09:26:30Z</time>
      </trkpt>
      <trkpt lat="45.70596" lon="2.85947">
        <ele>810.26</ele>
        <time>2021-07-20T09:26:36Z</time>
      </trkpt>
      <trkpt lat="45.70598" lon="2.85934">
        <ele>809.72</ele>
        <time>2021-07-20T09:26:43Z</time>
      </trkpt>
      <trkpt lat="45.70599" lon="2.8592">
        <ele>814.67</ele>
        <time>2021-07-20T09:26:51Z</time>
      </trkpt>
      <trkpt lat="45.70609" lon="2.85914">
        <ele>812.9</ele>
        <time>2021-07-20T09:26:57Z</time>
      </trkpt>
      <trkpt lat="45.70619" lon="2.8591">
        <ele>814.94</ele>
        <time>2021-07-20T09:27:04Z</time>
      </trkpt>
      <trkpt lat="45.70628" lon="2.85905">
        <ele>817.94</ele>
        <time>2021-07-20T09:27:10Z</time>
      </trkpt>
      <trkpt lat="45.70638" lon="2.85903">
        <ele>819.11</ele>
        <time>2021-07-20T09:27:17Z</time>
      </trkpt>
      <trkpt lat="45.70647" lon="2.85903">
        <ele>816.92</ele>
        <time>2021-07-20T09:27:24Z</time>
      </trkpt>
      <trkpt lat="45.70657" lon="2.85903">
        <ele>814.41</ele>
        <time>2021-07-20T09:27:31Z</time>
      </trkpt>
      <trkpt lat="45.70666" lon="2.85899">
        <ele>815.39</ele>
        <time>2021-07-20T09:27:38Z</time>
      </trkpt>
      <trkpt lat="45.70675" lon="2.85894">
        <ele>816.72</ele>
        <time>2021-07-20T09:27:45Z</time>
      </trkpt>
      <trkpt lat="45.70681" lon="2.85883">
        <ele>819.54</ele>
        <time>2021-07-20T09:27:54Z</time>
      </trkpt>
      <trkpt lat="45.70687" lon="2.85872">
        <ele>821.42</ele>
        <time>2021-07-20T09:28:02Z</time>
      </trkpt>
      <trkpt lat="45.70696" lon="2.85866">
        <ele>822.62</ele>
        <time>2021-07-20T09:28:09Z</time>
      </trkpt>
      <trkpt lat="45.70703" lon="2.85857">
        <ele>826.41</ele>
        <time>2021-07-20T09:28:15Z</time>
      </trkpt>
      <trkpt lat="45.70712" lon="2.8585">
        <ele>827.66</ele>
        <time>2021-07-20T09:28:21Z</time>
      </trkpt>
      <trkpt lat="45.70721" lon="2.85843">
        <ele>830.41</ele>
        <time>2021-07-20T09:28:27Z</time>
      </trkpt>
      <trkpt lat="45.70729" lon="2.85833">
        <ele>830.43</ele>
        <time>2021-07-20T09:28:33Z</time>
      </trkpt>
      <trkpt lat="45.70737" lon="2.85824">
        <ele>832.78</ele>
        <time>2021-07-20T09:28:39Z</time>
      </trkpt>
      <trkpt lat="45.70746" lon="2.85819">
        <ele>835.08</ele>
        <time>2021-07-20T09:28:45Z</time>
      </trkpt>
      <trkpt lat="45.70755" lon="2.85812">
        <ele>833.74</ele>
        <time>2021-07-20T09:28:52Z</time>
      </trkpt>
      <trkpt lat="45.70762" lon="2.85801">
        <ele>834.55</ele>
        <time>2021-07-20T09:28:59Z</time>
      </trkpt>
      <trkpt lat="45.70769" lon="2.85792">
        <ele>834.81</ele>
        <time>2021-07-20T09:29:05Z</time>
      </trkpt>
      <trkpt lat="45.70776" lon="2.85784">
        <ele>830.31</ele>
        <time>2021-07-20T09:29:12Z</time>
      </trkpt>
      <trkpt lat="45.70783" lon="2.85772">
        <ele>832.45</ele>
        <time>2021-07-20T09:29:19Z</time>
      </trkpt>
      <trkpt lat="45.70791" lon="2.85764">
        <ele>833.12</ele>
        <time>2021-07-20T09:29:25Z</time>
      </trkpt>
      <trkpt lat="45.70801" lon="2.85764">
        <ele>834.94</ele>
        <time>2021-07-20T09:29:30Z</time>
      </trkpt>
      <trkpt lat="45.70811" lon="2.85767">
        <ele>836.8</ele>
        <time>2021-07-20T09:29:34Z</time>
      </trkpt>
      <trkpt lat="45.70821" lon="2.85771">
        <ele>838.59</ele>
        <time>2021-07-20T09:29:39Z</time>
      </trkpt>
      <trkpt lat="45.70831" lon="2.85773">
        <ele>841.9</ele>
        <time>2021-07-20T09:29:43Z</time>
      </trkpt>
      <trkpt lat="45.7084" lon="2.85776">
        <ele>840.47</ele>
        <time>2021-07-20T09:29:47Z</time>
      </trkpt>
      <trkpt lat="45.70851" lon="2.85778">
        <ele>842.05</ele>
        <time>2021-07-20T09:29:51Z</time>
      </trkpt>
      <trkpt lat="45.70861" lon="2.85781">
        <ele>841.34</ele>
        <time>2021-07-20T09:29:55Z</time>
      </trkpt>
      <trkpt lat="45.70871" lon="2.85785">
        <ele>837.82</ele>
        <time>2021-07-20T09:29:59Z</time>
      </trkpt>
      <trkpt lat="45.70882" lon="2.85787">
        <ele>832.76</ele>
        <time>2021-07-20T09:30:04Z</time>
      </trkpt>
      <trkpt lat="45.70893" lon="2.85787">
        <ele>833.87</ele>
        <time>2021-07-20T09:30:08Z</time>
      </trkpt>
      <trkpt lat="45.70904" lon="2.85788">
        <ele>834.15</ele>
        <time>2021-07-20T09:30:12Z</time>
      </trkpt>
      <trkpt lat="45.70915" lon="2.85788">
        <ele>834.31</ele>
        <time>2021-07-20T09:30:16Z</time>
      </trkpt>
      <trkpt lat="45.70925" lon="2.85789">
        <ele>833.48</ele>
        <time>2021-07-20T09:30:20Z</time>
      </trkpt>
      <trkpt lat="45.70937" lon="2.85789">
        <ele>833.45</ele>
        <time>2021-07-20T09:30:24Z</time>
      </trkpt>
      <trkpt lat="45.70949" lon="2.85788">
        <ele>834.17</ele>
        <time>2021-07-20T09:30:27Z</time>
      </trkpt>
      <trkpt lat="45.7097" lon="2.85787">
        <ele>834.42</ele>
        <time>2021-07-20T09:30:30Z</time>
      </trkpt>
      <trkpt lat="45.7098" lon="2.85783">
        <ele>834.1</ele>
        <time>2021-07-20T09:30:33Z</time>
      </trkpt>
      <trkpt lat="45.70991" lon="2.8578">
        <ele>829.09</ele>
        <time>2021-07-20T09:30:37Z</time>
      </trkpt>
      <trkpt lat="45.71002" lon="2.85779">
        <ele>829.17</ele>
        <time>2021-07-20T09:30:40Z</time>
      </trkpt>
      <trkpt lat="45.7101" lon="2.85771">
        <ele>827.61</ele>
        <time>2021-07-20T09:30:43Z</time>
      </trkpt>
      <trkpt lat="45.7101" lon="2.85758">
        <ele>828.1</ele>
        <time>2021-07-20T09:30:46Z</time>
      </trkpt>
      <trkpt lat="45.71002" lon="2.85748">
        <ele>827.49</ele>
        <time>2021-07-20T09:30:49Z</time>
      </trkpt>
      <trkpt lat="45.70991" lon="2.85746">
        <ele>828.95</ele>
        <time>2021-07-20T09:30:52Z</time>
      </trkpt>
      <trkpt lat="45.70982" lon="2.85744">
        <ele>829.41</ele>
        <time>2021-07-20T09:30:55Z</time>
      </trkpt>
      <trkpt lat="45.7097" lon="2.85742">
        <ele>830.19</ele>
        <time>2021-07-20T09:30:59Z</time>
      </trkpt>
      <trkpt lat="45.70962" lon="2.85738">
        <ele>827.1</ele>
        <time>2021-07-20T09:31:02Z</time>
      </trkpt>
      <trkpt lat="45.70952" lon="2.85734">
        <ele>829.72</ele>
        <time>2021-07-20T09:31:06Z</time>
      </trkpt>
      <trkpt lat="45.70943" lon="2.8573">
        <ele>828.97</ele>
        <time>2021-07-20T09:31:10Z</time>
      </trkpt>
      <trkpt lat="45.70934" lon="2.85724">
        <ele>827.88</ele>
        <time>2021-07-20T09:31:13Z</time>
      </trkpt>
      <trkpt lat="45.70927" lon="2.85716">
        <ele>829.76</ele>
        <time>2021-07-20T09:31:17Z</time>
      </trkpt>
      <trkpt lat="45.7092" lon="2.85704">
        <ele>827.49</ele>
        <time>2021-07-20T09:31:22Z</time>
      </trkpt>
      <trkpt lat="45.70913" lon="2.85693">
        <ele>828.68</ele>
        <time>2021-07-20T09:31:28Z</time>
      </trkpt>
      <trkpt lat="45.70906" lon="2.85685">
        <ele>829.63</ele>
        <time>2021-07-20T09:31:32Z</time>
      </trkpt>
      <trkpt lat="45.70899" lon="2.85674">
        <ele>827.18</ele>
        <time>2021-07-20T09:31:36Z</time>
      </trkpt>
      <trkpt lat="45.7089" lon="2.85661">
        <ele>829.72</ele>
        <time>2021-07-20T09:31:40Z</time>
      </trkpt>
      <trkpt lat="45.70884" lon="2.8565">
        <ele>827.21</ele>
        <time>2021-07-20T09:31:43Z</time>
      </trkpt>
      <trkpt lat="45.70878" lon="2.8564">
        <ele>829.1</ele>
        <time>2021-07-20T09:31:46Z</time>
      </trkpt>
      <trkpt lat="45.70872" lon="2.85629">
        <ele>832.12</ele>
        <time>2021-07-20T09:31:50Z</time>
      </trkpt>
      <trkpt lat="45.70866" lon="2.85617">
        <ele>831.86</ele>
        <time>2021-07-20T09:31:56Z</time>
      </trkpt>
      <trkpt lat="45.70861" lon="2.85628">
        <ele>836.24</ele>
        <time>2021-07-20T09:32:04Z</time>
      </trkpt>
      <trkpt lat="45.70856" lon="2.85639">
        <ele>834.52</ele>
        <time>2021-07-20T09:32:09Z</time>
      </trkpt>
      <trkpt lat="45.70862" lon="2.85626">
        <ele>839.36</ele>
        <time>2021-07-20T09:32:36Z</time>
      </trkpt>
      <trkpt lat="45.70859" lon="2.85613">
        <ele>838.6</ele>
        <time>2021-07-20T09:32:39Z</time>
      </trkpt>
      <trkpt lat="45.70855" lon="2.85601">
        <ele>839.54</ele>
        <time>2021-07-20T09:32:42Z</time>
      </trkpt>
      <trkpt lat="45.7085" lon="2.85588">
        <ele>839.8</ele>
        <time>2021-07-20T09:32:46Z</time>
      </trkpt>
      <trkpt lat="45.70846" lon="2.85575">
        <ele>842.33</ele>
        <time>2021-07-20T09:32:51Z</time>
      </trkpt>
      <trkpt lat="45.70848" lon="2.85562">
        <ele>845.43</ele>
        <time>2021-07-20T09:32:56Z</time>
      </trkpt>
      <trkpt lat="45.70848" lon="2.85548">
        <ele>848.31</ele>
        <time>2021-07-20T09:33:02Z</time>
      </trkpt>
      <trkpt lat="45.70843" lon="2.85535">
        <ele>847.92</ele>
        <time>2021-07-20T09:33:08Z</time>
      </trkpt>
      <trkpt lat="45.7084" lon="2.85523">
        <ele>848.72</ele>
        <time>2021-07-20T09:33:13Z</time>
      </trkpt>
      <trkpt lat="45.70836" lon="2.85535">
        <ele>856.31</ele>
        <time>2021-07-20T09:33:22Z</time>
      </trkpt>
      <trkpt lat="45.70838" lon="2.85549">
        <ele>860.45</ele>
        <time>2021-07-20T09:33:25Z</time>
      </trkpt>
      <trkpt lat="45.70836" lon="2.85562">
        <ele>864.22</ele>
        <time>2021-07-20T09:35:37Z</time>
      </trkpt>
      <trkpt lat="45.70828" lon="2.85569">
        <ele>864.35</ele>
        <time>2021-07-20T09:36:12Z</time>
      </trkpt>
      <trkpt lat="45.70817" lon="2.85573">
        <ele>866.24</ele>
        <time>2021-07-20T09:36:18Z</time>
      </trkpt>
      <trkpt lat="45.7081" lon="2.8558">
        <ele>867.1</ele>
        <time>2021-07-20T09:36:23Z</time>
      </trkpt>
      <trkpt lat="45.70801" lon="2.85586">
        <ele>867.16</ele>
        <time>2021-07-20T09:36:30Z</time>
      </trkpt>
      <trkpt lat="45.70793" lon="2.85594">
        <ele>866.77</ele>
        <time>2021-07-20T09:36:38Z</time>
      </trkpt>
      <trkpt lat="45.70784" lon="2.85601">
        <ele>864.03</ele>
        <time>2021-07-20T09:36:46Z</time>
      </trkpt>
      <trkpt lat="45.70775" lon="2.85607">
        <ele>867.44</ele>
        <time>2021-07-20T09:36:54Z</time>
      </trkpt>
      <trkpt lat="45.70766" lon="2.85611">
        <ele>864.2</ele>
        <time>2021-07-20T09:37:00Z</time>
      </trkpt>
      <trkpt lat="45.70756" lon="2.85615">
        <ele>862.01</ele>
        <time>2021-07-20T09:37:06Z</time>
      </trkpt>
      <trkpt lat="45.70747" lon="2.85621">
        <ele>869.33</ele>
        <time>2021-07-20T09:37:12Z</time>
      </trkpt>
      <trkpt lat="45.70738" lon="2.85625">
        <ele>872.85</ele>
        <time>2021-07-20T09:37:18Z</time>
      </trkpt>
      <trkpt lat="45.70729" lon="2.85628">
        <ele>866.75</ele>
        <time>2021-07-20T09:37:26Z</time>
      </trkpt>
      <trkpt lat="45.7072" lon="2.85631">
        <ele>870.45</ele>
        <time>2021-07-20T09:37:32Z</time>
      </trkpt>
      <trkpt lat="45.7071" lon="2.85634">
        <ele>869.56</ele>
        <time>2021-07-20T09:37:38Z</time>
      </trkpt>
      <trkpt lat="45.70701" lon="2.85638">
        <ele>873.6</ele>
        <time>2021-07-20T09:37:45Z</time>
      </trkpt>
      <trkpt lat="45.70692" lon="2.8564">
        <ele>874.43</ele>
        <time>2021-07-20T09:37:51Z</time>
      </trkpt>
      <trkpt lat="45.70683" lon="2.8564">
        <ele>879.05</ele>
        <time>2021-07-20T09:37:58Z</time>
      </trkpt>
      <trkpt lat="45.70674" lon="2.85641">
        <ele>884.4</ele>
        <time>2021-07-20T09:38:03Z</time>
      </trkpt>
      <trkpt lat="45.70664" lon="2.85641">
        <ele>884.69</ele>
        <time>2021-07-20T09:38:09Z</time>
      </trkpt>
      <trkpt lat="45.70655" lon="2.8564">
        <ele>884.78</ele>
        <time>2021-07-20T09:38:14Z</time>
      </trkpt>
      <trkpt lat="45.70645" lon="2.85641">
        <ele>886.76</ele>
        <time>2021-07-20T09:38:19Z</time>
      </trkpt>
      <trkpt lat="45.70635" lon="2.85646">
        <ele>887.93</ele>
        <time>2021-07-20T09:38:25Z</time>
      </trkpt>
      <trkpt lat="45.70626" lon="2.85646">
        <ele>887.93</ele>
        <time>2021-07-20T09:38:30Z</time>
      </trkpt>
      <trkpt lat="45.70617" lon="2.85644">
        <ele>887.48</ele>
        <time>2021-07-20T09:38:35Z</time>
      </trkpt>
      <trkpt lat="45.70606" lon="2.85641">
        <ele>889.58</ele>
        <time>2021-07-20T09:38:41Z</time>
      </trkpt>
      <trkpt lat="45.70596" lon="2.85638">
        <ele>891.22</ele>
        <time>2021-07-20T09:38:46Z</time>
      </trkpt>
      <trkpt lat="45.70588" lon="2.85633">
        <ele>891.86</ele>
        <time>2021-07-20T09:38:50Z</time>
      </trkpt>
      <trkpt lat="45.70578" lon="2.85627">
        <ele>889.21</ele>
        <time>2021-07-20T09:38:55Z</time>
      </trkpt>
      <trkpt lat="45.7057" lon="2.8562">
        <ele>887.21</ele>
        <time>2021-07-20T09:39:01Z</time>
      </trkpt>
      <trkpt lat="45.70561" lon="2.85615">
        <ele>891.38</ele>
        <time>2021-07-20T09:39:07Z</time>
      </trkpt>
      <trkpt lat="45.70553" lon="2.85609">
        <ele>894.15</ele>
        <time>2021-07-20T09:39:13Z</time>
      </trkpt>
      <trkpt lat="45.70544" lon="2.856">
        <ele>893.89</ele>
        <time>2021-07-20T09:39:22Z</time>
      </trkpt>
      <trkpt lat="45.70538" lon="2.85589">
        <ele>887.37</ele>
        <time>2021-07-20T09:39:27Z</time>
      </trkpt>
      <trkpt lat="45.70532" lon="2.85578">
        <ele>884.15</ele>
        <time>2021-07-20T09:39:32Z</time>
      </trkpt>
      <trkpt lat="45.70525" lon="2.85566">
        <ele>884.82</ele>
        <time>2021-07-20T09:39:37Z</time>
      </trkpt>
      <trkpt lat="45.70519" lon="2.85554">
        <ele>887.93</ele>
        <time>2021-07-20T09:39:42Z</time>
      </trkpt>
      <trkpt lat="45.70513" lon="2.85543">
        <ele>887.89</ele>
        <time>2021-07-20T09:39:46Z</time>
      </trkpt>
      <trkpt lat="45.70506" lon="2.85532">
        <ele>881.53</ele>
        <time>2021-07-20T09:39:50Z</time>
      </trkpt>
      <trkpt lat="45.705" lon="2.85522">
        <ele>886.52</ele>
        <time>2021-07-20T09:39:54Z</time>
      </trkpt>
      <trkpt lat="45.70494" lon="2.8551">
        <ele>888.74</ele>
        <time>2021-07-20T09:40:01Z</time>
      </trkpt>
      <trkpt lat="45.70491" lon="2.85496">
        <ele>890.94</ele>
        <time>2021-07-20T09:40:07Z</time>
      </trkpt>
      <trkpt lat="45.70489" lon="2.85482">
        <ele>895.33</ele>
        <time>2021-07-20T09:40:12Z</time>
      </trkpt>
      <trkpt lat="45.70483" lon="2.85471">
        <ele>896.54</ele>
        <time>2021-07-20T09:40:16Z</time>
      </trkpt>
      <trkpt lat="45.70475" lon="2.85463">
        <ele>898.96</ele>
        <time>2021-07-20T09:40:20Z</time>
      </trkpt>
      <trkpt lat="45.70467" lon="2.85456">
        <ele>901.18</ele>
        <time>2021-07-20T09:40:24Z</time>
      </trkpt>
      <trkpt lat="45.70459" lon="2.85448">
        <ele>901.59</ele>
        <time>2021-07-20T09:40:29Z</time>
      </trkpt>
      <trkpt lat="45.70451" lon="2.85439">
        <ele>902.52</ele>
        <time>2021-07-20T09:40:33Z</time>
      </trkpt>
      <trkpt lat="45.70446" lon="2.85428">
        <ele>902.19</ele>
        <time>2021-07-20T09:40:37Z</time>
      </trkpt>
      <trkpt lat="45.7044" lon="2.85418">
        <ele>899.38</ele>
        <time>2021-07-20T09:40:42Z</time>
      </trkpt>
      <trkpt lat="45.70433" lon="2.85408">
        <ele>896.09</ele>
        <time>2021-07-20T09:40:47Z</time>
      </trkpt>
      <trkpt lat="45.70425" lon="2.85402">
        <ele>895.88</ele>
        <time>2021-07-20T09:40:52Z</time>
      </trkpt>
      <trkpt lat="45.70417" lon="2.85393">
        <ele>899.09</ele>
        <time>2021-07-20T09:40:57Z</time>
      </trkpt>
      <trkpt lat="45.70408" lon="2.85383">
        <ele>901.29</ele>
        <time>2021-07-20T09:41:02Z</time>
      </trkpt>
      <trkpt lat="45.704" lon="2.85377">
        <ele>907.31</ele>
        <time>2021-07-20T09:41:07Z</time>
      </trkpt>
      <trkpt lat="45.70393" lon="2.85369">
        <ele>910.66</ele>
        <time>2021-07-20T09:41:13Z</time>
      </trkpt>
      <trkpt lat="45.70384" lon="2.85362">
        <ele>905.77</ele>
        <time>2021-07-20T09:41:18Z</time>
      </trkpt>
      <trkpt lat="45.70374" lon="2.85357">
        <ele>904.39</ele>
        <time>2021-07-20T09:41:23Z</time>
      </trkpt>
      <trkpt lat="45.70365" lon="2.85354">
        <ele>905.45</ele>
        <time>2021-07-20T09:41:27Z</time>
      </trkpt>
      <trkpt lat="45.70356" lon="2.85353">
        <ele>905.16</ele>
        <time>2021-07-20T09:41:32Z</time>
      </trkpt>
      <trkpt lat="45.70346" lon="2.85351">
        <ele>907.03</ele>
        <time>2021-07-20T09:41:38Z</time>
      </trkpt>
      <trkpt lat="45.70337" lon="2.85349">
        <ele>910.27</ele>
        <time>2021-07-20T09:41:43Z</time>
      </trkpt>
      <trkpt lat="45.70327" lon="2.85347">
        <ele>912.37</ele>
        <time>2021-07-20T09:41:47Z</time>
      </trkpt>
      <trkpt lat="45.70316" lon="2.85344">
        <ele>914.79</ele>
        <time>2021-07-20T09:41:51Z</time>
      </trkpt>
      <trkpt lat="45.70306" lon="2.8534">
        <ele>914.4</ele>
        <time>2021-07-20T09:41:55Z</time>
      </trkpt>
      <trkpt lat="45.70297" lon="2.85335">
        <ele>915.69</ele>
        <time>2021-07-20T09:41:59Z</time>
      </trkpt>
      <trkpt lat="45.70287" lon="2.8533">
        <ele>917</ele>
        <time>2021-07-20T09:42:03Z</time>
      </trkpt>
      <trkpt lat="45.70276" lon="2.85324">
        <ele>919.88</ele>
        <time>2021-07-20T09:42:07Z</time>
      </trkpt>
      <trkpt lat="45.70266" lon="2.85319">
        <ele>921.07</ele>
        <time>2021-07-20T09:42:11Z</time>
      </trkpt>
      <trkpt lat="45.70256" lon="2.85314">
        <ele>920.62</ele>
        <time>2021-07-20T09:42:16Z</time>
      </trkpt>
      <trkpt lat="45.70246" lon="2.85307">
        <ele>919.39</ele>
        <time>2021-07-20T09:42:20Z</time>
      </trkpt>
      <trkpt lat="45.70235" lon="2.853">
        <ele>917.75</ele>
        <time>2021-07-20T09:42:24Z</time>
      </trkpt>
      <trkpt lat="45.70224" lon="2.85295">
        <ele>921.24</ele>
        <time>2021-07-20T09:42:28Z</time>
      </trkpt>
      <trkpt lat="45.70213" lon="2.85291">
        <ele>921.81</ele>
        <time>2021-07-20T09:42:32Z</time>
      </trkpt>
      <trkpt lat="45.70204" lon="2.85287">
        <ele>921.78</ele>
        <time>2021-07-20T09:42:35Z</time>
      </trkpt>
      <trkpt lat="45.70194" lon="2.85285">
        <ele>920.38</ele>
        <time>2021-07-20T09:42:38Z</time>
      </trkpt>
      <trkpt lat="45.70183" lon="2.85281">
        <ele>920.18</ele>
        <time>2021-07-20T09:42:43Z</time>
      </trkpt>
      <trkpt lat="45.7017" lon="2.85276">
        <ele>921.22</ele>
        <time>2021-07-20T09:42:46Z</time>
      </trkpt>
      <trkpt lat="45.7016" lon="2.85272">
        <ele>921.36</ele>
        <time>2021-07-20T09:42:49Z</time>
      </trkpt>
      <trkpt lat="45.70148" lon="2.85268">
        <ele>923.71</ele>
        <time>2021-07-20T09:42:53Z</time>
      </trkpt>
      <trkpt lat="45.70139" lon="2.85264">
        <ele>923.1</ele>
        <time>2021-07-20T09:42:57Z</time>
      </trkpt>
      <trkpt lat="45.70127" lon="2.85258">
        <ele>921.64</ele>
        <time>2021-07-20T09:43:00Z</time>
      </trkpt>
      <trkpt lat="45.70116" lon="2.85254">
        <ele>922.22</ele>
        <time>2021-07-20T09:43:04Z</time>
      </trkpt>
      <trkpt lat="45.70104" lon="2.85247">
        <ele>921.74</ele>
        <time>2021-07-20T09:43:08Z</time>
      </trkpt>
      <trkpt lat="45.70093" lon="2.85245">
        <ele>924.65</ele>
        <time>2021-07-20T09:43:12Z</time>
      </trkpt>
      <trkpt lat="45.70082" lon="2.85241">
        <ele>925.45</ele>
        <time>2021-07-20T09:43:16Z</time>
      </trkpt>
      <trkpt lat="45.70071" lon="2.85238">
        <ele>925.91</ele>
        <time>2021-07-20T09:43:20Z</time>
      </trkpt>
      <trkpt lat="45.70061" lon="2.85234">
        <ele>924.61</ele>
        <time>2021-07-20T09:43:24Z</time>
      </trkpt>
      <trkpt lat="45.7005" lon="2.8523">
        <ele>925.19</ele>
        <time>2021-07-20T09:43:28Z</time>
      </trkpt>
      <trkpt lat="45.70039" lon="2.85227">
        <ele>928.39</ele>
        <time>2021-07-20T09:43:32Z</time>
      </trkpt>
      <trkpt lat="45.7003" lon="2.85224">
        <ele>929.12</ele>
        <time>2021-07-20T09:43:35Z</time>
      </trkpt>
      <trkpt lat="45.70019" lon="2.8522">
        <ele>927.94</ele>
        <time>2021-07-20T09:43:39Z</time>
      </trkpt>
      <trkpt lat="45.70007" lon="2.85216">
        <ele>927.09</ele>
        <time>2021-07-20T09:43:43Z</time>
      </trkpt>
      <trkpt lat="45.69996" lon="2.85211">
        <ele>928.07</ele>
        <time>2021-07-20T09:43:47Z</time>
      </trkpt>
      <trkpt lat="45.69988" lon="2.85207">
        <ele>928.7</ele>
        <time>2021-07-20T09:43:50Z</time>
      </trkpt>
      <trkpt lat="45.69979" lon="2.85204">
        <ele>926.88</ele>
        <time>2021-07-20T09:43:53Z</time>
      </trkpt>
      <trkpt lat="45.69969" lon="2.85201">
        <ele>926.38</ele>
        <time>2021-07-20T09:43:56Z</time>
      </trkpt>
      <trkpt lat="45.69959" lon="2.85197">
        <ele>927.95</ele>
        <time>2021-07-20T09:43:59Z</time>
      </trkpt>
      <trkpt lat="45.69949" lon="2.85194">
        <ele>927.53</ele>
        <time>2021-07-20T09:44:02Z</time>
      </trkpt>
      <trkpt lat="45.69941" lon="2.8519">
        <ele>929.32</ele>
        <time>2021-07-20T09:44:05Z</time>
      </trkpt>
      <trkpt lat="45.69932" lon="2.85186">
        <ele>927.2</ele>
        <time>2021-07-20T09:44:08Z</time>
      </trkpt>
      <trkpt lat="45.69921" lon="2.8518">
        <ele>927.11</ele>
        <time>2021-07-20T09:44:12Z</time>
      </trkpt>
      <trkpt lat="45.6991" lon="2.85175">
        <ele>929.08</ele>
        <time>2021-07-20T09:44:16Z</time>
      </trkpt>
      <trkpt lat="45.699" lon="2.85171">
        <ele>929.07</ele>
        <time>2021-07-20T09:44:19Z</time>
      </trkpt>
      <trkpt lat="45.69891" lon="2.85165">
        <ele>927.75</ele>
        <time>2021-07-20T09:44:22Z</time>
      </trkpt>
      <trkpt lat="45.69882" lon="2.85161">
        <ele>926</ele>
        <time>2021-07-20T09:44:25Z</time>
      </trkpt>
      <trkpt lat="45.69872" lon="2.85156">
        <ele>923.46</ele>
        <time>2021-07-20T09:44:30Z</time>
      </trkpt>
      <trkpt lat="45.69862" lon="2.85153">
        <ele>926.34</ele>
        <time>2021-07-20T09:44:34Z</time>
      </trkpt>
      <trkpt lat="45.69851" lon="2.85149">
        <ele>927.07</ele>
        <time>2021-07-20T09:44:38Z</time>
      </trkpt>
      <trkpt lat="45.69841" lon="2.85145">
        <ele>927.44</ele>
        <time>2021-07-20T09:44:42Z</time>
      </trkpt>
      <trkpt lat="45.69831" lon="2.8514">
        <ele>927.15</ele>
        <time>2021-07-20T09:44:45Z</time>
      </trkpt>
      <trkpt lat="45.6982" lon="2.85136">
        <ele>926.04</ele>
        <time>2021-07-20T09:44:48Z</time>
      </trkpt>
      <trkpt lat="45.69807" lon="2.85131">
        <ele>922.65</ele>
        <time>2021-07-20T09:44:51Z</time>
      </trkpt>
      <trkpt lat="45.69796" lon="2.85126">
        <ele>923.39</ele>
        <time>2021-07-20T09:44:54Z</time>
      </trkpt>
      <trkpt lat="45.69785" lon="2.85122">
        <ele>924.13</ele>
        <time>2021-07-20T09:44:57Z</time>
      </trkpt>
      <trkpt lat="45.69775" lon="2.85121">
        <ele>925.58</ele>
        <time>2021-07-20T09:45:00Z</time>
      </trkpt>
      <trkpt lat="45.69765" lon="2.85118">
        <ele>926.24</ele>
        <time>2021-07-20T09:45:04Z</time>
      </trkpt>
      <trkpt lat="45.69755" lon="2.85111">
        <ele>931.04</ele>
        <time>2021-07-20T09:45:09Z</time>
      </trkpt>
      <trkpt lat="45.69745" lon="2.85106">
        <ele>932.4</ele>
        <time>2021-07-20T09:45:12Z</time>
      </trkpt>
      <trkpt lat="45.6973" lon="2.85101">
        <ele>931.92</ele>
        <time>2021-07-20T09:45:15Z</time>
      </trkpt>
      <trkpt lat="45.6972" lon="2.85097">
        <ele>933.26</ele>
        <time>2021-07-20T09:45:18Z</time>
      </trkpt>
      <trkpt lat="45.69711" lon="2.85093">
        <ele>933.67</ele>
        <time>2021-07-20T09:45:21Z</time>
      </trkpt>
      <trkpt lat="45.69699" lon="2.85089">
        <ele>934.69</ele>
        <time>2021-07-20T09:45:25Z</time>
      </trkpt>
      <trkpt lat="45.6969" lon="2.85087">
        <ele>935.09</ele>
        <time>2021-07-20T09:45:28Z</time>
      </trkpt>
      <trkpt lat="45.69681" lon="2.85084">
        <ele>935.57</ele>
        <time>2021-07-20T09:45:31Z</time>
      </trkpt>
      <trkpt lat="45.69672" lon="2.85082">
        <ele>936.6</ele>
        <time>2021-07-20T09:45:34Z</time>
      </trkpt>
      <trkpt lat="45.69662" lon="2.85079">
        <ele>937.81</ele>
        <time>2021-07-20T09:45:37Z</time>
      </trkpt>
      <trkpt lat="45.69654" lon="2.85074">
        <ele>939</ele>
        <time>2021-07-20T09:45:40Z</time>
      </trkpt>
      <trkpt lat="45.69645" lon="2.8507">
        <ele>938.4</ele>
        <time>2021-07-20T09:45:43Z</time>
      </trkpt>
      <trkpt lat="45.69636" lon="2.85065">
        <ele>938.43</ele>
        <time>2021-07-20T09:45:46Z</time>
      </trkpt>
      <trkpt lat="45.69627" lon="2.85059">
        <ele>939.93</ele>
        <time>2021-07-20T09:45:49Z</time>
      </trkpt>
      <trkpt lat="45.69617" lon="2.85053">
        <ele>937.1</ele>
        <time>2021-07-20T09:45:52Z</time>
      </trkpt>
      <trkpt lat="45.69609" lon="2.85048">
        <ele>935.32</ele>
        <time>2021-07-20T09:45:55Z</time>
      </trkpt>
      <trkpt lat="45.696" lon="2.8504">
        <ele>935.69</ele>
        <time>2021-07-20T09:45:59Z</time>
      </trkpt>
      <trkpt lat="45.69591" lon="2.85031">
        <ele>936.38</ele>
        <time>2021-07-20T09:46:03Z</time>
      </trkpt>
      <trkpt lat="45.69583" lon="2.85023">
        <ele>937.6</ele>
        <time>2021-07-20T09:46:06Z</time>
      </trkpt>
      <trkpt lat="45.69574" lon="2.85014">
        <ele>936.82</ele>
        <time>2021-07-20T09:46:09Z</time>
      </trkpt>
      <trkpt lat="45.69563" lon="2.85004">
        <ele>935.78</ele>
        <time>2021-07-20T09:46:12Z</time>
      </trkpt>
      <trkpt lat="45.69556" lon="2.84996">
        <ele>933.85</ele>
        <time>2021-07-20T09:46:14Z</time>
      </trkpt>
      <trkpt lat="45.69547" lon="2.84989">
        <ele>933.52</ele>
        <time>2021-07-20T09:46:16Z</time>
      </trkpt>
      <trkpt lat="45.69538" lon="2.84984">
        <ele>933.99</ele>
        <time>2021-07-20T09:46:18Z</time>
      </trkpt>
      <trkpt lat="45.6953" lon="2.84979">
        <ele>935.81</ele>
        <time>2021-07-20T09:46:21Z</time>
      </trkpt>
      <trkpt lat="45.69519" lon="2.84974">
        <ele>935.24</ele>
        <time>2021-07-20T09:46:25Z</time>
      </trkpt>
      <trkpt lat="45.6951" lon="2.84975">
        <ele>936.6</ele>
        <time>2021-07-20T09:46:27Z</time>
      </trkpt>
      <trkpt lat="45.69501" lon="2.84976">
        <ele>950.2</ele>
        <time>2021-07-20T09:52:32Z</time>
      </trkpt>
      <trkpt lat="45.6951" lon="2.8498">
        <ele>949.29</ele>
        <time>2021-07-20T09:53:24Z</time>
      </trkpt>
      <trkpt lat="45.69501" lon="2.84974">
        <ele>947.79</ele>
        <time>2021-07-20T09:58:39Z</time>
      </trkpt>
      <trkpt lat="45.69493" lon="2.8497">
        <ele>944.6</ele>
        <time>2021-07-20T09:58:43Z</time>
      </trkpt>
      <trkpt lat="45.69482" lon="2.84966">
        <ele>943.85</ele>
        <time>2021-07-20T09:58:47Z</time>
      </trkpt>
      <trkpt lat="45.69472" lon="2.84963">
        <ele>941.74</ele>
        <time>2021-07-20T09:58:51Z</time>
      </trkpt>
      <trkpt lat="45.69462" lon="2.8496">
        <ele>942.55</ele>
        <time>2021-07-20T09:58:55Z</time>
      </trkpt>
      <trkpt lat="45.69453" lon="2.84956">
        <ele>940.56</ele>
        <time>2021-07-20T09:59:01Z</time>
      </trkpt>
      <trkpt lat="45.69444" lon="2.84952">
        <ele>937.21</ele>
        <time>2021-07-20T09:59:05Z</time>
      </trkpt>
      <trkpt lat="45.69433" lon="2.84948">
        <ele>934.3</ele>
        <time>2021-07-20T09:59:09Z</time>
      </trkpt>
      <trkpt lat="45.69423" lon="2.84944">
        <ele>934.35</ele>
        <time>2021-07-20T09:59:13Z</time>
      </trkpt>
      <trkpt lat="45.69413" lon="2.84939">
        <ele>935.24</ele>
        <time>2021-07-20T09:59:17Z</time>
      </trkpt>
      <trkpt lat="45.69402" lon="2.84935">
        <ele>934.57</ele>
        <time>2021-07-20T09:59:21Z</time>
      </trkpt>
      <trkpt lat="45.69394" lon="2.8493">
        <ele>934.5</ele>
        <time>2021-07-20T09:59:24Z</time>
      </trkpt>
      <trkpt lat="45.69384" lon="2.84925">
        <ele>933.25</ele>
        <time>2021-07-20T09:59:27Z</time>
      </trkpt>
      <trkpt lat="45.69375" lon="2.84919">
        <ele>934.22</ele>
        <time>2021-07-20T09:59:30Z</time>
      </trkpt>
      <trkpt lat="45.69364" lon="2.84912">
        <ele>935.04</ele>
        <time>2021-07-20T09:59:34Z</time>
      </trkpt>
      <trkpt lat="45.69353" lon="2.84905">
        <ele>937.84</ele>
        <time>2021-07-20T09:59:39Z</time>
      </trkpt>
      <trkpt lat="45.6934" lon="2.84897">
        <ele>939.35</ele>
        <time>2021-07-20T09:59:42Z</time>
      </trkpt>
      <trkpt lat="45.69331" lon="2.84891">
        <ele>941.82</ele>
        <time>2021-07-20T09:59:46Z</time>
      </trkpt>
      <trkpt lat="45.69321" lon="2.84882">
        <ele>941.56</ele>
        <time>2021-07-20T09:59:50Z</time>
      </trkpt>
      <trkpt lat="45.69313" lon="2.84876">
        <ele>941.55</ele>
        <time>2021-07-20T09:59:54Z</time>
      </trkpt>
      <trkpt lat="45.69303" lon="2.8487">
        <ele>942.57</ele>
        <time>2021-07-20T09:59:59Z</time>
      </trkpt>
      <trkpt lat="45.69295" lon="2.84863">
        <ele>944.23</ele>
        <time>2021-07-20T10:00:04Z</time>
      </trkpt>
      <trkpt lat="45.69285" lon="2.84854">
        <ele>946.07</ele>
        <time>2021-07-20T10:00:08Z</time>
      </trkpt>
      <trkpt lat="45.69274" lon="2.84845">
        <ele>946.11</ele>
        <time>2021-07-20T10:00:11Z</time>
      </trkpt>
      <trkpt lat="45.69265" lon="2.84839">
        <ele>944.75</ele>
        <time>2021-07-20T10:00:13Z</time>
      </trkpt>
      <trkpt lat="45.69255" lon="2.84835">
        <ele>944.79</ele>
        <time>2021-07-20T10:00:15Z</time>
      </trkpt>
      <trkpt lat="45.69247" lon="2.84829">
        <ele>944.26</ele>
        <time>2021-07-20T10:00:17Z</time>
      </trkpt>
      <trkpt lat="45.69238" lon="2.84825">
        <ele>943.94</ele>
        <time>2021-07-20T10:00:19Z</time>
      </trkpt>
      <trkpt lat="45.69229" lon="2.84818">
        <ele>944.12</ele>
        <time>2021-07-20T10:00:21Z</time>
      </trkpt>
      <trkpt lat="45.6922" lon="2.84812">
        <ele>944.66</ele>
        <time>2021-07-20T10:00:23Z</time>
      </trkpt>
      <trkpt lat="45.69212" lon="2.84805">
        <ele>944.78</ele>
        <time>2021-07-20T10:00:25Z</time>
      </trkpt>
      <trkpt lat="45.69201" lon="2.84796">
        <ele>945.29</ele>
        <time>2021-07-20T10:00:28Z</time>
      </trkpt>
      <trkpt lat="45.69193" lon="2.84788">
        <ele>945.81</ele>
        <time>2021-07-20T10:00:31Z</time>
      </trkpt>
      <trkpt lat="45.69185" lon="2.84775">
        <ele>945.41</ele>
        <time>2021-07-20T10:00:33Z</time>
      </trkpt>
      <trkpt lat="45.69178" lon="2.84763">
        <ele>944.81</ele>
        <time>2021-07-20T10:00:35Z</time>
      </trkpt>
      <trkpt lat="45.69172" lon="2.84754">
        <ele>944.69</ele>
        <time>2021-07-20T10:00:37Z</time>
      </trkpt>
      <trkpt lat="45.69165" lon="2.84742">
        <ele>944.93</ele>
        <time>2021-07-20T10:00:40Z</time>
      </trkpt>
      <trkpt lat="45.69153" lon="2.84731">
        <ele>945.36</ele>
        <time>2021-07-20T10:00:45Z</time>
      </trkpt>
      <trkpt lat="45.69143" lon="2.84721">
        <ele>947.32</ele>
        <time>2021-07-20T10:00:46Z</time>
      </trkpt>
      <trkpt lat="45.69133" lon="2.84715">
        <ele>947.85</ele>
        <time>2021-07-20T10:00:49Z</time>
      </trkpt>
      <trkpt lat="45.69123" lon="2.84709">
        <ele>947.54</ele>
        <time>2021-07-20T10:00:52Z</time>
      </trkpt>
      <trkpt lat="45.69111" lon="2.84704">
        <ele>945.58</ele>
        <time>2021-07-20T10:00:58Z</time>
      </trkpt>
      <trkpt lat="45.69102" lon="2.84699">
        <ele>946.04</ele>
        <time>2021-07-20T10:01:01Z</time>
      </trkpt>
      <trkpt lat="45.69093" lon="2.84694">
        <ele>946.69</ele>
        <time>2021-07-20T10:01:05Z</time>
      </trkpt>
      <trkpt lat="45.69083" lon="2.84689">
        <ele>946.51</ele>
        <time>2021-07-20T10:01:08Z</time>
      </trkpt>
      <trkpt lat="45.69075" lon="2.84683">
        <ele>945.66</ele>
        <time>2021-07-20T10:01:09Z</time>
      </trkpt>
      <trkpt lat="45.69066" lon="2.84678">
        <ele>948.01</ele>
        <time>2021-07-20T10:01:14Z</time>
      </trkpt>
      <trkpt lat="45.69058" lon="2.84671">
        <ele>947.42</ele>
        <time>2021-07-20T10:01:20Z</time>
      </trkpt>
      <trkpt lat="45.69049" lon="2.84661">
        <ele>947.58</ele>
        <time>2021-07-20T10:01:24Z</time>
      </trkpt>
      <trkpt lat="45.6904" lon="2.84652">
        <ele>946.62</ele>
        <time>2021-07-20T10:01:27Z</time>
      </trkpt>
      <trkpt lat="45.69031" lon="2.8464">
        <ele>945.48</ele>
        <time>2021-07-20T10:01:30Z</time>
      </trkpt>
      <trkpt lat="45.69023" lon="2.84632">
        <ele>945.22</ele>
        <time>2021-07-20T10:01:32Z</time>
      </trkpt>
      <trkpt lat="45.69015" lon="2.84622">
        <ele>944.97</ele>
        <time>2021-07-20T10:01:34Z</time>
      </trkpt>
      <trkpt lat="45.69005" lon="2.84612">
        <ele>943.93</ele>
        <time>2021-07-20T10:01:36Z</time>
      </trkpt>
      <trkpt lat="45.68995" lon="2.84601">
        <ele>943.66</ele>
        <time>2021-07-20T10:01:38Z</time>
      </trkpt>
      <trkpt lat="45.68982" lon="2.84588">
        <ele>942.83</ele>
        <time>2021-07-20T10:01:40Z</time>
      </trkpt>
      <trkpt lat="45.6897" lon="2.84573">
        <ele>942</ele>
        <time>2021-07-20T10:01:42Z</time>
      </trkpt>
      <trkpt lat="45.68962" lon="2.84566">
        <ele>942.05</ele>
        <time>2021-07-20T10:01:43Z</time>
      </trkpt>
      <trkpt lat="45.68948" lon="2.84552">
        <ele>941.4</ele>
        <time>2021-07-20T10:01:45Z</time>
      </trkpt>
      <trkpt lat="45.68933" lon="2.84539">
        <ele>940.71</ele>
        <time>2021-07-20T10:01:47Z</time>
      </trkpt>
      <trkpt lat="45.68926" lon="2.84531">
        <ele>940.46</ele>
        <time>2021-07-20T10:01:48Z</time>
      </trkpt>
      <trkpt lat="45.68918" lon="2.8452">
        <ele>940.35</ele>
        <time>2021-07-20T10:01:49Z</time>
      </trkpt>
      <trkpt lat="45.68906" lon="2.84508">
        <ele>938.86</ele>
        <time>2021-07-20T10:01:51Z</time>
      </trkpt>
      <trkpt lat="45.68895" lon="2.84501">
        <ele>938.44</ele>
        <time>2021-07-20T10:01:53Z</time>
      </trkpt>
      <trkpt lat="45.68884" lon="2.84492">
        <ele>937.01</ele>
        <time>2021-07-20T10:01:55Z</time>
      </trkpt>
      <trkpt lat="45.68873" lon="2.84484">
        <ele>936.58</ele>
        <time>2021-07-20T10:01:57Z</time>
      </trkpt>
      <trkpt lat="45.6886" lon="2.84482">
        <ele>934.61</ele>
        <time>2021-07-20T10:01:59Z</time>
      </trkpt>
      <trkpt lat="45.68848" lon="2.8448">
        <ele>932.26</ele>
        <time>2021-07-20T10:02:01Z</time>
      </trkpt>
      <trkpt lat="45.68836" lon="2.84477">
        <ele>932.12</ele>
        <time>2021-07-20T10:02:03Z</time>
      </trkpt>
      <trkpt lat="45.68821" lon="2.84475">
        <ele>931.55</ele>
        <time>2021-07-20T10:02:06Z</time>
      </trkpt>
      <trkpt lat="45.68811" lon="2.84475">
        <ele>932.57</ele>
        <time>2021-07-20T10:02:08Z</time>
      </trkpt>
      <trkpt lat="45.68802" lon="2.84467">
        <ele>928.06</ele>
        <time>2021-07-20T10:02:10Z</time>
      </trkpt>
      <trkpt lat="45.68793" lon="2.84467">
        <ele>925.85</ele>
        <time>2021-07-20T10:02:12Z</time>
      </trkpt>
      <trkpt lat="45.68781" lon="2.84464">
        <ele>925.96</ele>
        <time>2021-07-20T10:02:14Z</time>
      </trkpt>
      <trkpt lat="45.68765" lon="2.84462">
        <ele>925.3</ele>
        <time>2021-07-20T10:02:16Z</time>
      </trkpt>
      <trkpt lat="45.68752" lon="2.84456">
        <ele>924.11</ele>
        <time>2021-07-20T10:02:18Z</time>
      </trkpt>
      <trkpt lat="45.68735" lon="2.84452">
        <ele>920.97</ele>
        <time>2021-07-20T10:02:20Z</time>
      </trkpt>
      <trkpt lat="45.68725" lon="2.8445">
        <ele>920.47</ele>
        <time>2021-07-20T10:02:21Z</time>
      </trkpt>
      <trkpt lat="45.68708" lon="2.84447">
        <ele>917.39</ele>
        <time>2021-07-20T10:02:23Z</time>
      </trkpt>
      <trkpt lat="45.68698" lon="2.84445">
        <ele>916.35</ele>
        <time>2021-07-20T10:02:24Z</time>
      </trkpt>
      <trkpt lat="45.68689" lon="2.8444">
        <ele>914.74</ele>
        <time>2021-07-20T10:02:25Z</time>
      </trkpt>
      <trkpt lat="45.68675" lon="2.84435">
        <ele>911.61</ele>
        <time>2021-07-20T10:02:27Z</time>
      </trkpt>
      <trkpt lat="45.68664" lon="2.84432">
        <ele>908.16</ele>
        <time>2021-07-20T10:02:30Z</time>
      </trkpt>
      <trkpt lat="45.68655" lon="2.84437">
        <ele>905.37</ele>
        <time>2021-07-20T10:04:05Z</time>
      </trkpt>
      <trkpt lat="45.68645" lon="2.84443">
        <ele>904.13</ele>
        <time>2021-07-20T10:04:11Z</time>
      </trkpt>
      <trkpt lat="45.68632" lon="2.84443">
        <ele>900.58</ele>
        <time>2021-07-20T10:04:14Z</time>
      </trkpt>
      <trkpt lat="45.68617" lon="2.84446">
        <ele>895.96</ele>
        <time>2021-07-20T10:04:16Z</time>
      </trkpt>
      <trkpt lat="45.68602" lon="2.8444">
        <ele>892.54</ele>
        <time>2021-07-20T10:04:18Z</time>
      </trkpt>
      <trkpt lat="45.68587" lon="2.84434">
        <ele>890.97</ele>
        <time>2021-07-20T10:04:20Z</time>
      </trkpt>
      <trkpt lat="45.68578" lon="2.84428">
        <ele>890.44</ele>
        <time>2021-07-20T10:04:22Z</time>
      </trkpt>
      <trkpt lat="45.68569" lon="2.84426">
        <ele>890</ele>
        <time>2021-07-20T10:04:23Z</time>
      </trkpt>
      <trkpt lat="45.68555" lon="2.84418">
        <ele>889.16</ele>
        <time>2021-07-20T10:04:25Z</time>
      </trkpt>
      <trkpt lat="45.68545" lon="2.84414">
        <ele>889.85</ele>
        <time>2021-07-20T10:04:26Z</time>
      </trkpt>
      <trkpt lat="45.68532" lon="2.8442">
        <ele>887.38</ele>
        <time>2021-07-20T10:04:28Z</time>
      </trkpt>
      <trkpt lat="45.6852" lon="2.84417">
        <ele>886.08</ele>
        <time>2021-07-20T10:04:30Z</time>
      </trkpt>
      <trkpt lat="45.68509" lon="2.84414">
        <ele>885.02</ele>
        <time>2021-07-20T10:04:32Z</time>
      </trkpt>
      <trkpt lat="45.68499" lon="2.84409">
        <ele>883.93</ele>
        <time>2021-07-20T10:04:35Z</time>
      </trkpt>
      <trkpt lat="45.6849" lon="2.84397">
        <ele>884.83</ele>
        <time>2021-07-20T10:04:38Z</time>
      </trkpt>
      <trkpt lat="45.6848" lon="2.84396">
        <ele>885.42</ele>
        <time>2021-07-20T10:04:41Z</time>
      </trkpt>
      <trkpt lat="45.68469" lon="2.84396">
        <ele>886.49</ele>
        <time>2021-07-20T10:04:45Z</time>
      </trkpt>
      <trkpt lat="45.68458" lon="2.84396">
        <ele>884.54</ele>
        <time>2021-07-20T10:04:49Z</time>
      </trkpt>
      <trkpt lat="45.68447" lon="2.84397">
        <ele>883.77</ele>
        <time>2021-07-20T10:04:53Z</time>
      </trkpt>
      <trkpt lat="45.68437" lon="2.84397">
        <ele>883.65</ele>
        <time>2021-07-20T10:04:57Z</time>
      </trkpt>
      <trkpt lat="45.68424" lon="2.84396">
        <ele>882.79</ele>
        <time>2021-07-20T10:05:01Z</time>
      </trkpt>
      <trkpt lat="45.68416" lon="2.84391">
        <ele>884.32</ele>
        <time>2021-07-20T10:05:04Z</time>
      </trkpt>
      <trkpt lat="45.68405" lon="2.84391">
        <ele>885.49</ele>
        <time>2021-07-20T10:05:08Z</time>
      </trkpt>
      <trkpt lat="45.68394" lon="2.84388">
        <ele>885.02</ele>
        <time>2021-07-20T10:05:13Z</time>
      </trkpt>
      <trkpt lat="45.68384" lon="2.84381">
        <ele>883.97</ele>
        <time>2021-07-20T10:05:17Z</time>
      </trkpt>
      <trkpt lat="45.68374" lon="2.84376">
        <ele>883.66</ele>
        <time>2021-07-20T10:05:21Z</time>
      </trkpt>
      <trkpt lat="45.68364" lon="2.84373">
        <ele>885.81</ele>
        <time>2021-07-20T10:05:26Z</time>
      </trkpt>
      <trkpt lat="45.68355" lon="2.84364">
        <ele>886.86</ele>
        <time>2021-07-20T10:05:30Z</time>
      </trkpt>
      <trkpt lat="45.68347" lon="2.84357">
        <ele>885.53</ele>
        <time>2021-07-20T10:05:36Z</time>
      </trkpt>
      <trkpt lat="45.68339" lon="2.8435">
        <ele>882.94</ele>
        <time>2021-07-20T10:05:42Z</time>
      </trkpt>
      <trkpt lat="45.6833" lon="2.84348">
        <ele>879.28</ele>
        <time>2021-07-20T10:05:47Z</time>
      </trkpt>
      <trkpt lat="45.68321" lon="2.8434">
        <ele>880.44</ele>
        <time>2021-07-20T10:05:52Z</time>
      </trkpt>
      <trkpt lat="45.6831" lon="2.84338">
        <ele>879.06</ele>
        <time>2021-07-20T10:05:55Z</time>
      </trkpt>
      <trkpt lat="45.683" lon="2.84334">
        <ele>879.49</ele>
        <time>2021-07-20T10:05:58Z</time>
      </trkpt>
      <trkpt lat="45.6829" lon="2.84327">
        <ele>879.42</ele>
        <time>2021-07-20T10:06:01Z</time>
      </trkpt>
      <trkpt lat="45.683" lon="2.84324">
        <ele>881.24</ele>
        <time>2021-07-20T10:06:11Z</time>
      </trkpt>
      <trkpt lat="45.6831" lon="2.84319">
        <ele>878.48</ele>
        <time>2021-07-20T10:06:16Z</time>
      </trkpt>
      <trkpt lat="45.6831" lon="2.84304">
        <ele>879.46</ele>
        <time>2021-07-20T10:06:19Z</time>
      </trkpt>
      <trkpt lat="45.68315" lon="2.84292">
        <ele>879.94</ele>
        <time>2021-07-20T10:06:23Z</time>
      </trkpt>
      <trkpt lat="45.6832" lon="2.84281">
        <ele>878.09</ele>
        <time>2021-07-20T10:06:27Z</time>
      </trkpt>
      <trkpt lat="45.68323" lon="2.84268">
        <ele>877.2</ele>
        <time>2021-07-20T10:06:31Z</time>
      </trkpt>
      <trkpt lat="45.68323" lon="2.84253">
        <ele>876.96</ele>
        <time>2021-07-20T10:06:35Z</time>
      </trkpt>
      <trkpt lat="45.68321" lon="2.84237">
        <ele>876.76</ele>
        <time>2021-07-20T10:06:39Z</time>
      </trkpt>
      <trkpt lat="45.68318" lon="2.84224">
        <ele>875.97</ele>
        <time>2021-07-20T10:06:42Z</time>
      </trkpt>
      <trkpt lat="45.68315" lon="2.84211">
        <ele>876.2</ele>
        <time>2021-07-20T10:06:46Z</time>
      </trkpt>
      <trkpt lat="45.68313" lon="2.84198">
        <ele>877.51</ele>
        <time>2021-07-20T10:06:51Z</time>
      </trkpt>
      <trkpt lat="45.68305" lon="2.84188">
        <ele>878.09</ele>
        <time>2021-07-20T10:06:57Z</time>
      </trkpt>
      <trkpt lat="45.68296" lon="2.84183">
        <ele>877.98</ele>
        <time>2021-07-20T10:07:02Z</time>
      </trkpt>
      <trkpt lat="45.68288" lon="2.84172">
        <ele>873.88</ele>
        <time>2021-07-20T10:07:07Z</time>
      </trkpt>
      <trkpt lat="45.68284" lon="2.8416">
        <ele>874.13</ele>
        <time>2021-07-20T10:07:11Z</time>
      </trkpt>
      <trkpt lat="45.6828" lon="2.84148">
        <ele>880.32</ele>
        <time>2021-07-20T10:07:22Z</time>
      </trkpt>
      <trkpt lat="45.68279" lon="2.84135">
        <ele>880.59</ele>
        <time>2021-07-20T10:07:32Z</time>
      </trkpt>
      <trkpt lat="45.6828" lon="2.84149">
        <ele>867.43</ele>
        <time>2021-07-20T10:18:14Z</time>
      </trkpt>
      <trkpt lat="45.68279" lon="2.84162">
        <ele>874.55</ele>
        <time>2021-07-20T10:18:51Z</time>
      </trkpt>
      <trkpt lat="45.68288" lon="2.84165">
        <ele>865.65</ele>
        <time>2021-07-20T10:20:19Z</time>
      </trkpt>
      <trkpt lat="45.68285" lon="2.84152">
        <ele>871.3</ele>
        <time>2021-07-20T10:20:37Z</time>
      </trkpt>
      <trkpt lat="45.68282" lon="2.8414">
        <ele>875.41</ele>
        <time>2021-07-20T10:20:46Z</time>
      </trkpt>
      <trkpt lat="45.68287" lon="2.84151">
        <ele>872.35</ele>
        <time>2021-07-20T10:21:25Z</time>
      </trkpt>
      <trkpt lat="45.68283" lon="2.84163">
        <ele>871.64</ele>
        <time>2021-07-20T10:22:12Z</time>
      </trkpt>
      <trkpt lat="45.68275" lon="2.84172">
        <ele>879.33</ele>
        <time>2021-07-20T10:39:19Z</time>
      </trkpt>
      <trkpt lat="45.68265" lon="2.84169">
        <ele>877.86</ele>
        <time>2021-07-20T10:39:26Z</time>
      </trkpt>
      <trkpt lat="45.68259" lon="2.84181">
        <ele>878.61</ele>
        <time>2021-07-20T10:39:47Z</time>
      </trkpt>
      <trkpt lat="45.68256" lon="2.84195">
        <ele>878.11</ele>
        <time>2021-07-20T10:39:50Z</time>
      </trkpt>
      <trkpt lat="45.68254" lon="2.84209">
        <ele>878.78</ele>
        <time>2021-07-20T10:39:53Z</time>
      </trkpt>
      <trkpt lat="45.68245" lon="2.84216">
        <ele>878.44</ele>
        <time>2021-07-20T10:40:00Z</time>
      </trkpt>
      <trkpt lat="45.68237" lon="2.84222">
        <ele>879.31</ele>
        <time>2021-07-20T10:40:09Z</time>
      </trkpt>
      <trkpt lat="45.68228" lon="2.84219">
        <ele>877.12</ele>
        <time>2021-07-20T10:40:16Z</time>
      </trkpt>
      <trkpt lat="45.68218" lon="2.84221">
        <ele>875.86</ele>
        <time>2021-07-20T10:40:23Z</time>
      </trkpt>
      <trkpt lat="45.68208" lon="2.8422">
        <ele>875.81</ele>
        <time>2021-07-20T10:40:30Z</time>
      </trkpt>
      <trkpt lat="45.68199" lon="2.84219">
        <ele>877.86</ele>
        <time>2021-07-20T10:40:37Z</time>
      </trkpt>
      <trkpt lat="45.68189" lon="2.84223">
        <ele>878.41</ele>
        <time>2021-07-20T10:40:43Z</time>
      </trkpt>
      <trkpt lat="45.68179" lon="2.84227">
        <ele>877.88</ele>
        <time>2021-07-20T10:40:49Z</time>
      </trkpt>
      <trkpt lat="45.68169" lon="2.84231">
        <ele>875.38</ele>
        <time>2021-07-20T10:40:56Z</time>
      </trkpt>
      <trkpt lat="45.68161" lon="2.84235">
        <ele>874.53</ele>
        <time>2021-07-20T10:41:03Z</time>
      </trkpt>
      <trkpt lat="45.68154" lon="2.84245">
        <ele>879.18</ele>
        <time>2021-07-20T10:41:11Z</time>
      </trkpt>
      <trkpt lat="45.68147" lon="2.84256">
        <ele>883.26</ele>
        <time>2021-07-20T10:41:18Z</time>
      </trkpt>
      <trkpt lat="45.68141" lon="2.84266">
        <ele>885.41</ele>
        <time>2021-07-20T10:41:23Z</time>
      </trkpt>
      <trkpt lat="45.68134" lon="2.84275">
        <ele>885.68</ele>
        <time>2021-07-20T10:41:29Z</time>
      </trkpt>
      <trkpt lat="45.68126" lon="2.8428">
        <ele>885.1</ele>
        <time>2021-07-20T10:41:35Z</time>
      </trkpt>
      <trkpt lat="45.68115" lon="2.84282">
        <ele>884.37</ele>
        <time>2021-07-20T10:41:40Z</time>
      </trkpt>
      <trkpt lat="45.68105" lon="2.84281">
        <ele>886.15</ele>
        <time>2021-07-20T10:41:46Z</time>
      </trkpt>
      <trkpt lat="45.68096" lon="2.84278">
        <ele>886.95</ele>
        <time>2021-07-20T10:41:51Z</time>
      </trkpt>
      <trkpt lat="45.68086" lon="2.84276">
        <ele>887.67</ele>
        <time>2021-07-20T10:41:56Z</time>
      </trkpt>
      <trkpt lat="45.68076" lon="2.84271">
        <ele>886.14</ele>
        <time>2021-07-20T10:42:02Z</time>
      </trkpt>
      <trkpt lat="45.68067" lon="2.84269">
        <ele>887.22</ele>
        <time>2021-07-20T10:42:07Z</time>
      </trkpt>
      <trkpt lat="45.68056" lon="2.84266">
        <ele>887.82</ele>
        <time>2021-07-20T10:42:15Z</time>
      </trkpt>
      <trkpt lat="45.68047" lon="2.84262">
        <ele>888.51</ele>
        <time>2021-07-20T10:42:21Z</time>
      </trkpt>
      <trkpt lat="45.68038" lon="2.84256">
        <ele>886.97</ele>
        <time>2021-07-20T10:42:26Z</time>
      </trkpt>
      <trkpt lat="45.68029" lon="2.84252">
        <ele>888.32</ele>
        <time>2021-07-20T10:42:31Z</time>
      </trkpt>
      <trkpt lat="45.68021" lon="2.84247">
        <ele>887.99</ele>
        <time>2021-07-20T10:42:36Z</time>
      </trkpt>
      <trkpt lat="45.68012" lon="2.84241">
        <ele>891.26</ele>
        <time>2021-07-20T10:42:42Z</time>
      </trkpt>
      <trkpt lat="45.68002" lon="2.84237">
        <ele>892.64</ele>
        <time>2021-07-20T10:42:49Z</time>
      </trkpt>
      <trkpt lat="45.67992" lon="2.84231">
        <ele>891.45</ele>
        <time>2021-07-20T10:42:54Z</time>
      </trkpt>
      <trkpt lat="45.67984" lon="2.84225">
        <ele>892.34</ele>
        <time>2021-07-20T10:42:59Z</time>
      </trkpt>
      <trkpt lat="45.67975" lon="2.84217">
        <ele>894.49</ele>
        <time>2021-07-20T10:43:06Z</time>
      </trkpt>
      <trkpt lat="45.67964" lon="2.84212">
        <ele>895.02</ele>
        <time>2021-07-20T10:43:11Z</time>
      </trkpt>
      <trkpt lat="45.67954" lon="2.8421">
        <ele>895.21</ele>
        <time>2021-07-20T10:43:15Z</time>
      </trkpt>
      <trkpt lat="45.67944" lon="2.84205">
        <ele>893.48</ele>
        <time>2021-07-20T10:43:19Z</time>
      </trkpt>
      <trkpt lat="45.67934" lon="2.84201">
        <ele>890.89</ele>
        <time>2021-07-20T10:43:23Z</time>
      </trkpt>
      <trkpt lat="45.67922" lon="2.842">
        <ele>888.53</ele>
        <time>2021-07-20T10:43:27Z</time>
      </trkpt>
      <trkpt lat="45.67912" lon="2.84197">
        <ele>887.01</ele>
        <time>2021-07-20T10:43:30Z</time>
      </trkpt>
      <trkpt lat="45.67902" lon="2.84195">
        <ele>886.24</ele>
        <time>2021-07-20T10:43:33Z</time>
      </trkpt>
      <trkpt lat="45.67892" lon="2.84194">
        <ele>886.16</ele>
        <time>2021-07-20T10:43:36Z</time>
      </trkpt>
      <trkpt lat="45.67883" lon="2.84193">
        <ele>887.07</ele>
        <time>2021-07-20T10:43:39Z</time>
      </trkpt>
      <trkpt lat="45.67874" lon="2.84194">
        <ele>885.51</ele>
        <time>2021-07-20T10:43:42Z</time>
      </trkpt>
      <trkpt lat="45.67863" lon="2.84197">
        <ele>886.06</ele>
        <time>2021-07-20T10:43:46Z</time>
      </trkpt>
      <trkpt lat="45.67854" lon="2.842">
        <ele>887.14</ele>
        <time>2021-07-20T10:43:50Z</time>
      </trkpt>
      <trkpt lat="45.67845" lon="2.84203">
        <ele>888.65</ele>
        <time>2021-07-20T10:43:55Z</time>
      </trkpt>
      <trkpt lat="45.67835" lon="2.84201">
        <ele>888.16</ele>
        <time>2021-07-20T10:44:01Z</time>
      </trkpt>
      <trkpt lat="45.67826" lon="2.84201">
        <ele>888.65</ele>
        <time>2021-07-20T10:44:08Z</time>
      </trkpt>
      <trkpt lat="45.67817" lon="2.84199">
        <ele>890.84</ele>
        <time>2021-07-20T10:44:16Z</time>
      </trkpt>
      <trkpt lat="45.67807" lon="2.84199">
        <ele>891.19</ele>
        <time>2021-07-20T10:44:24Z</time>
      </trkpt>
      <trkpt lat="45.67798" lon="2.84199">
        <ele>893.87</ele>
        <time>2021-07-20T10:44:31Z</time>
      </trkpt>
      <trkpt lat="45.67789" lon="2.84202">
        <ele>894.56</ele>
        <time>2021-07-20T10:44:37Z</time>
      </trkpt>
      <trkpt lat="45.67779" lon="2.84202">
        <ele>896.92</ele>
        <time>2021-07-20T10:44:43Z</time>
      </trkpt>
      <trkpt lat="45.67769" lon="2.84206">
        <ele>896.92</ele>
        <time>2021-07-20T10:44:50Z</time>
      </trkpt>
      <trkpt lat="45.6776" lon="2.84207">
        <ele>898.24</ele>
        <time>2021-07-20T10:44:57Z</time>
      </trkpt>
      <trkpt lat="45.6775" lon="2.8421">
        <ele>901.02</ele>
        <time>2021-07-20T10:45:04Z</time>
      </trkpt>
      <trkpt lat="45.67741" lon="2.8421">
        <ele>904.26</ele>
        <time>2021-07-20T10:45:11Z</time>
      </trkpt>
      <trkpt lat="45.67731" lon="2.84212">
        <ele>906.11</ele>
        <time>2021-07-20T10:45:18Z</time>
      </trkpt>
      <trkpt lat="45.67722" lon="2.84214">
        <ele>907.33</ele>
        <time>2021-07-20T10:45:27Z</time>
      </trkpt>
      <trkpt lat="45.67712" lon="2.84213">
        <ele>908.83</ele>
        <time>2021-07-20T10:45:36Z</time>
      </trkpt>
      <trkpt lat="45.67703" lon="2.84219">
        <ele>908.1</ele>
        <time>2021-07-20T10:45:44Z</time>
      </trkpt>
      <trkpt lat="45.67694" lon="2.84227">
        <ele>907.94</ele>
        <time>2021-07-20T10:45:52Z</time>
      </trkpt>
      <trkpt lat="45.67688" lon="2.84238">
        <ele>911.4</ele>
        <time>2021-07-20T10:46:01Z</time>
      </trkpt>
      <trkpt lat="45.6768" lon="2.84245">
        <ele>915.8</ele>
        <time>2021-07-20T10:46:08Z</time>
      </trkpt>
      <trkpt lat="45.67671" lon="2.84249">
        <ele>916.87</ele>
        <time>2021-07-20T10:46:16Z</time>
      </trkpt>
      <trkpt lat="45.67663" lon="2.84258">
        <ele>918.88</ele>
        <time>2021-07-20T10:46:25Z</time>
      </trkpt>
      <trkpt lat="45.67656" lon="2.84266">
        <ele>920.8</ele>
        <time>2021-07-20T10:46:35Z</time>
      </trkpt>
      <trkpt lat="45.67649" lon="2.84276">
        <ele>922.43</ele>
        <time>2021-07-20T10:46:43Z</time>
      </trkpt>
      <trkpt lat="45.67643" lon="2.84285">
        <ele>923.17</ele>
        <time>2021-07-20T10:46:51Z</time>
      </trkpt>
      <trkpt lat="45.67636" lon="2.84294">
        <ele>926.95</ele>
        <time>2021-07-20T10:46:59Z</time>
      </trkpt>
      <trkpt lat="45.67629" lon="2.84304">
        <ele>927.85</ele>
        <time>2021-07-20T10:47:06Z</time>
      </trkpt>
      <trkpt lat="45.67622" lon="2.84314">
        <ele>929.39</ele>
        <time>2021-07-20T10:47:13Z</time>
      </trkpt>
      <trkpt lat="45.67615" lon="2.84324">
        <ele>928.87</ele>
        <time>2021-07-20T10:47:20Z</time>
      </trkpt>
      <trkpt lat="45.6761" lon="2.84335">
        <ele>931.81</ele>
        <time>2021-07-20T10:47:26Z</time>
      </trkpt>
      <trkpt lat="45.67603" lon="2.84347">
        <ele>932.76</ele>
        <time>2021-07-20T10:47:32Z</time>
      </trkpt>
      <trkpt lat="45.67596" lon="2.84355">
        <ele>935.05</ele>
        <time>2021-07-20T10:47:37Z</time>
      </trkpt>
      <trkpt lat="45.67589" lon="2.84365">
        <ele>933.99</ele>
        <time>2021-07-20T10:47:44Z</time>
      </trkpt>
      <trkpt lat="45.67583" lon="2.84377">
        <ele>934.6</ele>
        <time>2021-07-20T10:47:51Z</time>
      </trkpt>
      <trkpt lat="45.67578" lon="2.84388">
        <ele>937.69</ele>
        <time>2021-07-20T10:47:57Z</time>
      </trkpt>
      <trkpt lat="45.67574" lon="2.84399">
        <ele>938.56</ele>
        <time>2021-07-20T10:48:05Z</time>
      </trkpt>
      <trkpt lat="45.67566" lon="2.84409">
        <ele>940.94</ele>
        <time>2021-07-20T10:48:12Z</time>
      </trkpt>
      <trkpt lat="45.67561" lon="2.84421">
        <ele>942.93</ele>
        <time>2021-07-20T10:48:19Z</time>
      </trkpt>
      <trkpt lat="45.67556" lon="2.84431">
        <ele>940.48</ele>
        <time>2021-07-20T10:48:26Z</time>
      </trkpt>
      <trkpt lat="45.67551" lon="2.84444">
        <ele>943.41</ele>
        <time>2021-07-20T10:48:33Z</time>
      </trkpt>
      <trkpt lat="45.67545" lon="2.84455">
        <ele>943.35</ele>
        <time>2021-07-20T10:48:39Z</time>
      </trkpt>
      <trkpt lat="45.67541" lon="2.84468">
        <ele>943.97</ele>
        <time>2021-07-20T10:48:46Z</time>
      </trkpt>
      <trkpt lat="45.67536" lon="2.8448">
        <ele>944.37</ele>
        <time>2021-07-20T10:48:53Z</time>
      </trkpt>
      <trkpt lat="45.6753" lon="2.8449">
        <ele>946.92</ele>
        <time>2021-07-20T10:49:00Z</time>
      </trkpt>
      <trkpt lat="45.67524" lon="2.84502">
        <ele>948.25</ele>
        <time>2021-07-20T10:49:07Z</time>
      </trkpt>
      <trkpt lat="45.67518" lon="2.84512">
        <ele>949.32</ele>
        <time>2021-07-20T10:49:14Z</time>
      </trkpt>
      <trkpt lat="45.67516" lon="2.84526">
        <ele>951.4</ele>
        <time>2021-07-20T10:49:22Z</time>
      </trkpt>
      <trkpt lat="45.67511" lon="2.84537">
        <ele>952.97</ele>
        <time>2021-07-20T10:49:29Z</time>
      </trkpt>
      <trkpt lat="45.67505" lon="2.84549">
        <ele>954.19</ele>
        <time>2021-07-20T10:49:37Z</time>
      </trkpt>
      <trkpt lat="45.67499" lon="2.84558">
        <ele>955.41</ele>
        <time>2021-07-20T10:49:48Z</time>
      </trkpt>
      <trkpt lat="45.67494" lon="2.8457">
        <ele>958.78</ele>
        <time>2021-07-20T10:50:03Z</time>
      </trkpt>
      <trkpt lat="45.6749" lon="2.84582">
        <ele>964.01</ele>
        <time>2021-07-20T10:50:19Z</time>
      </trkpt>
      <trkpt lat="45.67486" lon="2.84594">
        <ele>966.56</ele>
        <time>2021-07-20T10:50:37Z</time>
      </trkpt>
      <trkpt lat="45.67479" lon="2.84602">
        <ele>971.19</ele>
        <time>2021-07-20T10:50:57Z</time>
      </trkpt>
      <trkpt lat="45.67472" lon="2.84613">
        <ele>972.02</ele>
        <time>2021-07-20T10:51:22Z</time>
      </trkpt>
      <trkpt lat="45.67468" lon="2.84624">
        <ele>975.18</ele>
        <time>2021-07-20T10:51:43Z</time>
      </trkpt>
      <trkpt lat="45.67461" lon="2.84634">
        <ele>982.93</ele>
        <time>2021-07-20T10:52:00Z</time>
      </trkpt>
      <trkpt lat="45.67453" lon="2.84641">
        <ele>982.18</ele>
        <time>2021-07-20T10:52:14Z</time>
      </trkpt>
      <trkpt lat="45.67445" lon="2.84647">
        <ele>987.96</ele>
        <time>2021-07-20T10:52:32Z</time>
      </trkpt>
      <trkpt lat="45.67436" lon="2.84651">
        <ele>989.65</ele>
        <time>2021-07-20T11:00:05Z</time>
      </trkpt>
      <trkpt lat="45.67427" lon="2.84655">
        <ele>989.5</ele>
        <time>2021-07-20T11:00:12Z</time>
      </trkpt>
      <trkpt lat="45.67419" lon="2.84662">
        <ele>988.96</ele>
        <time>2021-07-20T11:00:19Z</time>
      </trkpt>
      <trkpt lat="45.6741" lon="2.8466">
        <ele>988.35</ele>
        <time>2021-07-20T11:00:24Z</time>
      </trkpt>
      <trkpt lat="45.67401" lon="2.84659">
        <ele>988.57</ele>
        <time>2021-07-20T11:00:30Z</time>
      </trkpt>
      <trkpt lat="45.67392" lon="2.84654">
        <ele>992.05</ele>
        <time>2021-07-20T11:00:38Z</time>
      </trkpt>
      <trkpt lat="45.67383" lon="2.84651">
        <ele>993.33</ele>
        <time>2021-07-20T11:00:47Z</time>
      </trkpt>
      <trkpt lat="45.67374" lon="2.84645">
        <ele>993.24</ele>
        <time>2021-07-20T11:00:57Z</time>
      </trkpt>
      <trkpt lat="45.67366" lon="2.84639">
        <ele>992.23</ele>
        <time>2021-07-20T11:01:04Z</time>
      </trkpt>
      <trkpt lat="45.67359" lon="2.8463">
        <ele>993.2</ele>
        <time>2021-07-20T11:01:12Z</time>
      </trkpt>
      <trkpt lat="45.67353" lon="2.84618">
        <ele>992.08</ele>
        <time>2021-07-20T11:01:21Z</time>
      </trkpt>
      <trkpt lat="45.67345" lon="2.84612">
        <ele>994.56</ele>
        <time>2021-07-20T11:01:28Z</time>
      </trkpt>
      <trkpt lat="45.67336" lon="2.84606">
        <ele>996.92</ele>
        <time>2021-07-20T11:01:35Z</time>
      </trkpt>
      <trkpt lat="45.67328" lon="2.84601">
        <ele>997.94</ele>
        <time>2021-07-20T11:01:44Z</time>
      </trkpt>
      <trkpt lat="45.67318" lon="2.84601">
        <ele>1000.63</ele>
        <time>2021-07-20T11:01:52Z</time>
      </trkpt>
      <trkpt lat="45.67309" lon="2.84605">
        <ele>1000.56</ele>
        <time>2021-07-20T11:01:59Z</time>
      </trkpt>
      <trkpt lat="45.67304" lon="2.84617">
        <ele>1001.51</ele>
        <time>2021-07-20T11:02:07Z</time>
      </trkpt>
      <trkpt lat="45.67304" lon="2.8463">
        <ele>1000.97</ele>
        <time>2021-07-20T11:02:14Z</time>
      </trkpt>
      <trkpt lat="45.67308" lon="2.84643">
        <ele>999.81</ele>
        <time>2021-07-20T11:02:21Z</time>
      </trkpt>
      <trkpt lat="45.67311" lon="2.84656">
        <ele>999.63</ele>
        <time>2021-07-20T11:02:29Z</time>
      </trkpt>
      <trkpt lat="45.67311" lon="2.84671">
        <ele>1003.13</ele>
        <time>2021-07-20T11:02:38Z</time>
      </trkpt>
      <trkpt lat="45.67311" lon="2.84683">
        <ele>1007.98</ele>
        <time>2021-07-20T11:02:47Z</time>
      </trkpt>
      <trkpt lat="45.67309" lon="2.84697">
        <ele>1010.81</ele>
        <time>2021-07-20T11:02:56Z</time>
      </trkpt>
      <trkpt lat="45.67306" lon="2.84709">
        <ele>1010.4</ele>
        <time>2021-07-20T11:03:03Z</time>
      </trkpt>
      <trkpt lat="45.67303" lon="2.84723">
        <ele>1012.01</ele>
        <time>2021-07-20T11:03:12Z</time>
      </trkpt>
      <trkpt lat="45.67302" lon="2.84736">
        <ele>1010.46</ele>
        <time>2021-07-20T11:03:21Z</time>
      </trkpt>
      <trkpt lat="45.673" lon="2.84749">
        <ele>1012.15</ele>
        <time>2021-07-20T11:03:29Z</time>
      </trkpt>
      <trkpt lat="45.67295" lon="2.8476">
        <ele>1014.22</ele>
        <time>2021-07-20T11:03:36Z</time>
      </trkpt>
      <trkpt lat="45.67294" lon="2.84773">
        <ele>1013.4</ele>
        <time>2021-07-20T11:03:43Z</time>
      </trkpt>
      <trkpt lat="45.6729" lon="2.84786">
        <ele>1014.84</ele>
        <time>2021-07-20T11:03:51Z</time>
      </trkpt>
      <trkpt lat="45.67285" lon="2.848">
        <ele>1014.26</ele>
        <time>2021-07-20T11:03:59Z</time>
      </trkpt>
      <trkpt lat="45.67283" lon="2.84815">
        <ele>1012.8</ele>
        <time>2021-07-20T11:04:05Z</time>
      </trkpt>
      <trkpt lat="45.67281" lon="2.84828">
        <ele>1013.79</ele>
        <time>2021-07-20T11:04:11Z</time>
      </trkpt>
      <trkpt lat="45.67276" lon="2.84842">
        <ele>1012.12</ele>
        <time>2021-07-20T11:04:16Z</time>
      </trkpt>
      <trkpt lat="45.67271" lon="2.84855">
        <ele>1013.61</ele>
        <time>2021-07-20T11:04:23Z</time>
      </trkpt>
      <trkpt lat="45.67267" lon="2.8487">
        <ele>1014.62</ele>
        <time>2021-07-20T11:04:27Z</time>
      </trkpt>
      <trkpt lat="45.67262" lon="2.84883">
        <ele>1015.34</ele>
        <time>2021-07-20T11:04:33Z</time>
      </trkpt>
      <trkpt lat="45.67258" lon="2.84895">
        <ele>1018.05</ele>
        <time>2021-07-20T11:04:38Z</time>
      </trkpt>
      <trkpt lat="45.67254" lon="2.84907">
        <ele>1020.45</ele>
        <time>2021-07-20T11:08:18Z</time>
      </trkpt>
      <trkpt lat="45.6725" lon="2.84922">
        <ele>1020.91</ele>
        <time>2021-07-20T11:08:23Z</time>
      </trkpt>
      <trkpt lat="45.67245" lon="2.84934">
        <ele>1020.93</ele>
        <time>2021-07-20T11:08:27Z</time>
      </trkpt>
      <trkpt lat="45.6724" lon="2.84949">
        <ele>1020.78</ele>
        <time>2021-07-20T11:08:32Z</time>
      </trkpt>
      <trkpt lat="45.67234" lon="2.84961">
        <ele>1019.76</ele>
        <time>2021-07-20T11:08:36Z</time>
      </trkpt>
      <trkpt lat="45.67227" lon="2.84969">
        <ele>1020.62</ele>
        <time>2021-07-20T11:08:39Z</time>
      </trkpt>
      <trkpt lat="45.67218" lon="2.8498">
        <ele>1020.43</ele>
        <time>2021-07-20T11:08:43Z</time>
      </trkpt>
      <trkpt lat="45.6721" lon="2.84989">
        <ele>1021.66</ele>
        <time>2021-07-20T11:08:47Z</time>
      </trkpt>
      <trkpt lat="45.672" lon="2.84992">
        <ele>1020.23</ele>
        <time>2021-07-20T11:08:51Z</time>
      </trkpt>
      <trkpt lat="45.67191" lon="2.84993">
        <ele>1019.97</ele>
        <time>2021-07-20T11:08:53Z</time>
      </trkpt>
      <trkpt lat="45.6718" lon="2.84992">
        <ele>1018.14</ele>
        <time>2021-07-20T11:08:56Z</time>
      </trkpt>
      <trkpt lat="45.67171" lon="2.84993">
        <ele>1018.51</ele>
        <time>2021-07-20T11:08:59Z</time>
      </trkpt>
      <trkpt lat="45.67162" lon="2.84992">
        <ele>1017.87</ele>
        <time>2021-07-20T11:09:02Z</time>
      </trkpt>
      <trkpt lat="45.67152" lon="2.84993">
        <ele>1019.42</ele>
        <time>2021-07-20T11:09:07Z</time>
      </trkpt>
      <trkpt lat="45.67142" lon="2.84991">
        <ele>1020.34</ele>
        <time>2021-07-20T11:09:12Z</time>
      </trkpt>
      <trkpt lat="45.67132" lon="2.84991">
        <ele>1021.16</ele>
        <time>2021-07-20T11:09:18Z</time>
      </trkpt>
      <trkpt lat="45.67123" lon="2.84998">
        <ele>1023.11</ele>
        <time>2021-07-20T11:09:25Z</time>
      </trkpt>
      <trkpt lat="45.67128" lon="2.85011">
        <ele>1025.5</ele>
        <time>2021-07-20T11:09:30Z</time>
      </trkpt>
      <trkpt lat="45.67135" lon="2.85018">
        <ele>1026.98</ele>
        <time>2021-07-20T11:09:35Z</time>
      </trkpt>
      <trkpt lat="45.67142" lon="2.85027">
        <ele>1029.65</ele>
        <time>2021-07-20T11:09:40Z</time>
      </trkpt>
      <trkpt lat="45.67149" lon="2.85038">
        <ele>1032.97</ele>
        <time>2021-07-20T11:09:46Z</time>
      </trkpt>
      <trkpt lat="45.67156" lon="2.85047">
        <ele>1034.09</ele>
        <time>2021-07-20T11:09:51Z</time>
      </trkpt>
      <trkpt lat="45.67162" lon="2.85059">
        <ele>1033.79</ele>
        <time>2021-07-20T11:09:57Z</time>
      </trkpt>
      <trkpt lat="45.6717" lon="2.85072">
        <ele>1034.92</ele>
        <time>2021-07-20T11:10:03Z</time>
      </trkpt>
      <trkpt lat="45.67177" lon="2.85082">
        <ele>1035.56</ele>
        <time>2021-07-20T11:10:08Z</time>
      </trkpt>
      <trkpt lat="45.67182" lon="2.85093">
        <ele>1035.81</ele>
        <time>2021-07-20T11:10:12Z</time>
      </trkpt>
      <trkpt lat="45.67189" lon="2.85104">
        <ele>1035.87</ele>
        <time>2021-07-20T11:10:16Z</time>
      </trkpt>
      <trkpt lat="45.67189" lon="2.85119">
        <ele>1036.47</ele>
        <time>2021-07-20T11:10:21Z</time>
      </trkpt>
      <trkpt lat="45.67179" lon="2.8512">
        <ele>1036.8</ele>
        <time>2021-07-20T11:10:25Z</time>
      </trkpt>
      <trkpt lat="45.6717" lon="2.85118">
        <ele>1036.39</ele>
        <time>2021-07-20T11:10:29Z</time>
      </trkpt>
      <trkpt lat="45.67161" lon="2.85113">
        <ele>1036.83</ele>
        <time>2021-07-20T11:10:33Z</time>
      </trkpt>
      <trkpt lat="45.67153" lon="2.85109">
        <ele>1035.88</ele>
        <time>2021-07-20T11:10:36Z</time>
      </trkpt>
      <trkpt lat="45.67143" lon="2.85106">
        <ele>1034.9</ele>
        <time>2021-07-20T11:10:39Z</time>
      </trkpt>
      <trkpt lat="45.67134" lon="2.85105">
        <ele>1035.53</ele>
        <time>2021-07-20T11:10:42Z</time>
      </trkpt>
      <trkpt lat="45.67123" lon="2.85102">
        <ele>1035.29</ele>
        <time>2021-07-20T11:10:46Z</time>
      </trkpt>
      <trkpt lat="45.67114" lon="2.85099">
        <ele>1034.94</ele>
        <time>2021-07-20T11:10:49Z</time>
      </trkpt>
      <trkpt lat="45.67104" lon="2.85095">
        <ele>1035.87</ele>
        <time>2021-07-20T11:10:53Z</time>
      </trkpt>
      <trkpt lat="45.67095" lon="2.85093">
        <ele>1035.79</ele>
        <time>2021-07-20T11:10:56Z</time>
      </trkpt>
      <trkpt lat="45.67084" lon="2.85089">
        <ele>1035.31</ele>
        <time>2021-07-20T11:11:00Z</time>
      </trkpt>
      <trkpt lat="45.67074" lon="2.85086">
        <ele>1034.69</ele>
        <time>2021-07-20T11:11:03Z</time>
      </trkpt>
      <trkpt lat="45.67065" lon="2.85082">
        <ele>1033.13</ele>
        <time>2021-07-20T11:11:07Z</time>
      </trkpt>
      <trkpt lat="45.67055" lon="2.85079">
        <ele>1033.8</ele>
        <time>2021-07-20T11:11:11Z</time>
      </trkpt>
      <trkpt lat="45.67046" lon="2.85075">
        <ele>1034.74</ele>
        <time>2021-07-20T11:11:15Z</time>
      </trkpt>
      <trkpt lat="45.67036" lon="2.85072">
        <ele>1036.07</ele>
        <time>2021-07-20T11:11:20Z</time>
      </trkpt>
      <trkpt lat="45.67026" lon="2.85068">
        <ele>1035.88</ele>
        <time>2021-07-20T11:11:24Z</time>
      </trkpt>
      <trkpt lat="45.67018" lon="2.85064">
        <ele>1037.53</ele>
        <time>2021-07-20T11:11:28Z</time>
      </trkpt>
      <trkpt lat="45.67008" lon="2.85059">
        <ele>1038.04</ele>
        <time>2021-07-20T11:11:33Z</time>
      </trkpt>
      <trkpt lat="45.66998" lon="2.85054">
        <ele>1038.33</ele>
        <time>2021-07-20T11:11:38Z</time>
      </trkpt>
      <trkpt lat="45.66988" lon="2.8505">
        <ele>1038.2</ele>
        <time>2021-07-20T11:11:43Z</time>
      </trkpt>
      <trkpt lat="45.66978" lon="2.8505">
        <ele>1036.7</ele>
        <time>2021-07-20T11:11:48Z</time>
      </trkpt>
      <trkpt lat="45.66968" lon="2.85047">
        <ele>1037.5</ele>
        <time>2021-07-20T11:11:53Z</time>
      </trkpt>
      <trkpt lat="45.66959" lon="2.85044">
        <ele>1038.09</ele>
        <time>2021-07-20T11:11:58Z</time>
      </trkpt>
      <trkpt lat="45.6695" lon="2.85041">
        <ele>1037.93</ele>
        <time>2021-07-20T11:12:03Z</time>
      </trkpt>
      <trkpt lat="45.6694" lon="2.85036">
        <ele>1036.35</ele>
        <time>2021-07-20T11:12:08Z</time>
      </trkpt>
      <trkpt lat="45.6693" lon="2.85032">
        <ele>1037.85</ele>
        <time>2021-07-20T11:12:14Z</time>
      </trkpt>
      <trkpt lat="45.66922" lon="2.85028">
        <ele>1040.16</ele>
        <time>2021-07-20T11:12:19Z</time>
      </trkpt>
      <trkpt lat="45.66912" lon="2.85023">
        <ele>1040.75</ele>
        <time>2021-07-20T11:12:25Z</time>
      </trkpt>
      <trkpt lat="45.66904" lon="2.85016">
        <ele>1040.66</ele>
        <time>2021-07-20T11:12:32Z</time>
      </trkpt>
      <trkpt lat="45.66895" lon="2.8501">
        <ele>1041.41</ele>
        <time>2021-07-20T11:12:38Z</time>
      </trkpt>
      <trkpt lat="45.66885" lon="2.85004">
        <ele>1043.49</ele>
        <time>2021-07-20T11:12:45Z</time>
      </trkpt>
      <trkpt lat="45.66875" lon="2.85">
        <ele>1046.59</ele>
        <time>2021-07-20T11:12:52Z</time>
      </trkpt>
      <trkpt lat="45.66866" lon="2.84996">
        <ele>1049.37</ele>
        <time>2021-07-20T11:12:59Z</time>
      </trkpt>
      <trkpt lat="45.66856" lon="2.84992">
        <ele>1050.23</ele>
        <time>2021-07-20T11:13:06Z</time>
      </trkpt>
      <trkpt lat="45.66847" lon="2.84988">
        <ele>1051.78</ele>
        <time>2021-07-20T11:13:13Z</time>
      </trkpt>
      <trkpt lat="45.66837" lon="2.84983">
        <ele>1053.04</ele>
        <time>2021-07-20T11:13:20Z</time>
      </trkpt>
      <trkpt lat="45.66828" lon="2.84979">
        <ele>1052.75</ele>
        <time>2021-07-20T11:13:26Z</time>
      </trkpt>
      <trkpt lat="45.66819" lon="2.84975">
        <ele>1053.38</ele>
        <time>2021-07-20T11:13:32Z</time>
      </trkpt>
      <trkpt lat="45.66809" lon="2.84972">
        <ele>1054.01</ele>
        <time>2021-07-20T11:13:39Z</time>
      </trkpt>
      <trkpt lat="45.668" lon="2.84969">
        <ele>1055.15</ele>
        <time>2021-07-20T11:13:46Z</time>
      </trkpt>
      <trkpt lat="45.6679" lon="2.84967">
        <ele>1055</ele>
        <time>2021-07-20T11:13:52Z</time>
      </trkpt>
      <trkpt lat="45.66781" lon="2.84966">
        <ele>1056.03</ele>
        <time>2021-07-20T11:13:57Z</time>
      </trkpt>
      <trkpt lat="45.66772" lon="2.84964">
        <ele>1057.04</ele>
        <time>2021-07-20T11:14:03Z</time>
      </trkpt>
      <trkpt lat="45.66763" lon="2.8496">
        <ele>1057.49</ele>
        <time>2021-07-20T11:14:09Z</time>
      </trkpt>
      <trkpt lat="45.66753" lon="2.84953">
        <ele>1059.96</ele>
        <time>2021-07-20T11:14:16Z</time>
      </trkpt>
      <trkpt lat="45.66745" lon="2.84947">
        <ele>1059.25</ele>
        <time>2021-07-20T11:14:23Z</time>
      </trkpt>
      <trkpt lat="45.66735" lon="2.84944">
        <ele>1059.92</ele>
        <time>2021-07-20T11:14:31Z</time>
      </trkpt>
      <trkpt lat="45.66726" lon="2.84941">
        <ele>1060.48</ele>
        <time>2021-07-20T11:14:38Z</time>
      </trkpt>
      <trkpt lat="45.66717" lon="2.84937">
        <ele>1061.57</ele>
        <time>2021-07-20T11:14:44Z</time>
      </trkpt>
      <trkpt lat="45.66708" lon="2.84934">
        <ele>1062.16</ele>
        <time>2021-07-20T11:14:50Z</time>
      </trkpt>
      <trkpt lat="45.66699" lon="2.8493">
        <ele>1064.56</ele>
        <time>2021-07-20T11:14:57Z</time>
      </trkpt>
      <trkpt lat="45.66689" lon="2.84928">
        <ele>1066.93</ele>
        <time>2021-07-20T11:15:05Z</time>
      </trkpt>
      <trkpt lat="45.66679" lon="2.84924">
        <ele>1069.07</ele>
        <time>2021-07-20T11:15:13Z</time>
      </trkpt>
      <trkpt lat="45.6667" lon="2.84919">
        <ele>1069.7</ele>
        <time>2021-07-20T11:15:20Z</time>
      </trkpt>
      <trkpt lat="45.6666" lon="2.84916">
        <ele>1069.07</ele>
        <time>2021-07-20T11:15:26Z</time>
      </trkpt>
      <trkpt lat="45.66649" lon="2.84915">
        <ele>1070.97</ele>
        <time>2021-07-20T11:15:33Z</time>
      </trkpt>
      <trkpt lat="45.6664" lon="2.84913">
        <ele>1072.52</ele>
        <time>2021-07-20T11:15:39Z</time>
      </trkpt>
      <trkpt lat="45.66631" lon="2.84911">
        <ele>1073.67</ele>
        <time>2021-07-20T11:15:44Z</time>
      </trkpt>
      <trkpt lat="45.6662" lon="2.84908">
        <ele>1073.97</ele>
        <time>2021-07-20T11:15:49Z</time>
      </trkpt>
      <trkpt lat="45.6661" lon="2.84904">
        <ele>1074.02</ele>
        <time>2021-07-20T11:15:53Z</time>
      </trkpt>
      <trkpt lat="45.666" lon="2.849">
        <ele>1074.03</ele>
        <time>2021-07-20T11:15:57Z</time>
      </trkpt>
      <trkpt lat="45.6659" lon="2.84894">
        <ele>1072.76</ele>
        <time>2021-07-20T11:16:01Z</time>
      </trkpt>
      <trkpt lat="45.66581" lon="2.8489">
        <ele>1071.8</ele>
        <time>2021-07-20T11:16:05Z</time>
      </trkpt>
      <trkpt lat="45.66572" lon="2.84886">
        <ele>1071.83</ele>
        <time>2021-07-20T11:16:10Z</time>
      </trkpt>
      <trkpt lat="45.66562" lon="2.84882">
        <ele>1070.37</ele>
        <time>2021-07-20T11:16:16Z</time>
      </trkpt>
      <trkpt lat="45.66553" lon="2.84878">
        <ele>1071.76</ele>
        <time>2021-07-20T11:16:22Z</time>
      </trkpt>
      <trkpt lat="45.66543" lon="2.84874">
        <ele>1071.16</ele>
        <time>2021-07-20T11:16:27Z</time>
      </trkpt>
      <trkpt lat="45.66534" lon="2.84869">
        <ele>1072.49</ele>
        <time>2021-07-20T11:16:31Z</time>
      </trkpt>
      <trkpt lat="45.66525" lon="2.84864">
        <ele>1073.77</ele>
        <time>2021-07-20T11:16:35Z</time>
      </trkpt>
      <trkpt lat="45.66517" lon="2.84859">
        <ele>1074.02</ele>
        <time>2021-07-20T11:16:40Z</time>
      </trkpt>
      <trkpt lat="45.66506" lon="2.84853">
        <ele>1073.6</ele>
        <time>2021-07-20T11:16:45Z</time>
      </trkpt>
      <trkpt lat="45.66496" lon="2.84848">
        <ele>1074.65</ele>
        <time>2021-07-20T11:16:50Z</time>
      </trkpt>
      <trkpt lat="45.66486" lon="2.84843">
        <ele>1074.16</ele>
        <time>2021-07-20T11:16:55Z</time>
      </trkpt>
      <trkpt lat="45.66477" lon="2.84838">
        <ele>1075.94</ele>
        <time>2021-07-20T11:17:00Z</time>
      </trkpt>
      <trkpt lat="45.66469" lon="2.84831">
        <ele>1075.75</ele>
        <time>2021-07-20T11:17:05Z</time>
      </trkpt>
      <trkpt lat="45.66459" lon="2.84824">
        <ele>1073.54</ele>
        <time>2021-07-20T11:17:10Z</time>
      </trkpt>
      <trkpt lat="45.66452" lon="2.84816">
        <ele>1076.01</ele>
        <time>2021-07-20T11:17:15Z</time>
      </trkpt>
      <trkpt lat="45.66443" lon="2.84809">
        <ele>1076.74</ele>
        <time>2021-07-20T11:17:20Z</time>
      </trkpt>
      <trkpt lat="45.66434" lon="2.84804">
        <ele>1075.78</ele>
        <time>2021-07-20T11:17:25Z</time>
      </trkpt>
      <trkpt lat="45.66424" lon="2.84796">
        <ele>1074.99</ele>
        <time>2021-07-20T11:17:30Z</time>
      </trkpt>
      <trkpt lat="45.66416" lon="2.84788">
        <ele>1074.2</ele>
        <time>2021-07-20T11:17:35Z</time>
      </trkpt>
      <trkpt lat="45.66408" lon="2.84782">
        <ele>1075.32</ele>
        <time>2021-07-20T11:17:40Z</time>
      </trkpt>
      <trkpt lat="45.66399" lon="2.84777">
        <ele>1074.96</ele>
        <time>2021-07-20T11:17:45Z</time>
      </trkpt>
      <trkpt lat="45.6639" lon="2.8477">
        <ele>1076.28</ele>
        <time>2021-07-20T11:17:50Z</time>
      </trkpt>
      <trkpt lat="45.6638" lon="2.84764">
        <ele>1074.93</ele>
        <time>2021-07-20T11:17:55Z</time>
      </trkpt>
      <trkpt lat="45.6637" lon="2.84758">
        <ele>1075.52</ele>
        <time>2021-07-20T11:18:00Z</time>
      </trkpt>
      <trkpt lat="45.66361" lon="2.84752">
        <ele>1076.62</ele>
        <time>2021-07-20T11:18:04Z</time>
      </trkpt>
      <trkpt lat="45.66351" lon="2.84746">
        <ele>1077.33</ele>
        <time>2021-07-20T11:18:09Z</time>
      </trkpt>
      <trkpt lat="45.66343" lon="2.8474">
        <ele>1078.92</ele>
        <time>2021-07-20T11:18:13Z</time>
      </trkpt>
      <trkpt lat="45.66334" lon="2.8473">
        <ele>1077.67</ele>
        <time>2021-07-20T11:18:17Z</time>
      </trkpt>
      <trkpt lat="45.66322" lon="2.84718">
        <ele>1076.95</ele>
        <time>2021-07-20T11:18:20Z</time>
      </trkpt>
      <trkpt lat="45.66312" lon="2.84717">
        <ele>1075.8</ele>
        <time>2021-07-20T11:18:22Z</time>
      </trkpt>
      <trkpt lat="45.66303" lon="2.84723">
        <ele>1074.77</ele>
        <time>2021-07-20T11:18:25Z</time>
      </trkpt>
      <trkpt lat="45.66294" lon="2.84731">
        <ele>1076.92</ele>
        <time>2021-07-20T11:18:30Z</time>
      </trkpt>
      <trkpt lat="45.66285" lon="2.84737">
        <ele>1077.57</ele>
        <time>2021-07-20T11:18:35Z</time>
      </trkpt>
      <trkpt lat="45.66277" lon="2.84746">
        <ele>1077.17</ele>
        <time>2021-07-20T11:18:39Z</time>
      </trkpt>
      <trkpt lat="45.66268" lon="2.84753">
        <ele>1076.14</ele>
        <time>2021-07-20T11:18:44Z</time>
      </trkpt>
      <trkpt lat="45.66258" lon="2.84756">
        <ele>1074.47</ele>
        <time>2021-07-20T11:18:48Z</time>
      </trkpt>
      <trkpt lat="45.66248" lon="2.84758">
        <ele>1073.68</ele>
        <time>2021-07-20T11:18:52Z</time>
      </trkpt>
      <trkpt lat="45.66237" lon="2.84759">
        <ele>1072.41</ele>
        <time>2021-07-20T11:18:56Z</time>
      </trkpt>
      <trkpt lat="45.66228" lon="2.84761">
        <ele>1073.29</ele>
        <time>2021-07-20T11:19:00Z</time>
      </trkpt>
      <trkpt lat="45.66219" lon="2.84764">
        <ele>1073.81</ele>
        <time>2021-07-20T11:19:04Z</time>
      </trkpt>
      <trkpt lat="45.66209" lon="2.84767">
        <ele>1075.57</ele>
        <time>2021-07-20T11:19:09Z</time>
      </trkpt>
      <trkpt lat="45.66202" lon="2.84775">
        <ele>1077.33</ele>
        <time>2021-07-20T11:19:14Z</time>
      </trkpt>
      <trkpt lat="45.66196" lon="2.84785">
        <ele>1080.64</ele>
        <time>2021-07-20T11:19:19Z</time>
      </trkpt>
      <trkpt lat="45.66197" lon="2.848">
        <ele>1081.64</ele>
        <time>2021-07-20T11:19:24Z</time>
      </trkpt>
      <trkpt lat="45.66197" lon="2.84815">
        <ele>1079.23</ele>
        <time>2021-07-20T11:19:29Z</time>
      </trkpt>
      <trkpt lat="45.66195" lon="2.84829">
        <ele>1074.68</ele>
        <time>2021-07-20T11:19:33Z</time>
      </trkpt>
      <trkpt lat="45.66194" lon="2.84845">
        <ele>1074.44</ele>
        <time>2021-07-20T11:19:37Z</time>
      </trkpt>
      <trkpt lat="45.66193" lon="2.84858">
        <ele>1073.72</ele>
        <time>2021-07-20T11:19:40Z</time>
      </trkpt>
      <trkpt lat="45.66192" lon="2.84871">
        <ele>1074.94</ele>
        <time>2021-07-20T11:19:43Z</time>
      </trkpt>
      <trkpt lat="45.66187" lon="2.84885">
        <ele>1076.79</ele>
        <time>2021-07-20T11:19:47Z</time>
      </trkpt>
      <trkpt lat="45.66178" lon="2.84891">
        <ele>1077.32</ele>
        <time>2021-07-20T11:19:52Z</time>
      </trkpt>
      <trkpt lat="45.66169" lon="2.84896">
        <ele>1078.61</ele>
        <time>2021-07-20T11:19:56Z</time>
      </trkpt>
      <trkpt lat="45.66161" lon="2.84903">
        <ele>1078.3</ele>
        <time>2021-07-20T11:20:00Z</time>
      </trkpt>
      <trkpt lat="45.66153" lon="2.84911">
        <ele>1082.25</ele>
        <time>2021-07-20T11:20:06Z</time>
      </trkpt>
      <trkpt lat="45.66143" lon="2.84915">
        <ele>1085.36</ele>
        <time>2021-07-20T11:20:12Z</time>
      </trkpt>
      <trkpt lat="45.66133" lon="2.84921">
        <ele>1088.99</ele>
        <time>2021-07-20T11:20:18Z</time>
      </trkpt>
      <trkpt lat="45.66124" lon="2.84925">
        <ele>1091.06</ele>
        <time>2021-07-20T11:20:23Z</time>
      </trkpt>
      <trkpt lat="45.66114" lon="2.8493">
        <ele>1095.72</ele>
        <time>2021-07-20T11:20:28Z</time>
      </trkpt>
      <trkpt lat="45.66105" lon="2.84935">
        <ele>1098.66</ele>
        <time>2021-07-20T11:20:34Z</time>
      </trkpt>
      <trkpt lat="45.66096" lon="2.84939">
        <ele>1101.81</ele>
        <time>2021-07-20T11:20:39Z</time>
      </trkpt>
      <trkpt lat="45.66088" lon="2.84946">
        <ele>1100.17</ele>
        <time>2021-07-20T11:21:01Z</time>
      </trkpt>
      <trkpt lat="45.66079" lon="2.84953">
        <ele>1101.88</ele>
        <time>2021-07-20T11:21:06Z</time>
      </trkpt>
      <trkpt lat="45.6607" lon="2.84956">
        <ele>1101.54</ele>
        <time>2021-07-20T11:21:15Z</time>
      </trkpt>
      <trkpt lat="45.66061" lon="2.84963">
        <ele>1103.19</ele>
        <time>2021-07-20T11:21:23Z</time>
      </trkpt>
      <trkpt lat="45.66052" lon="2.84964">
        <ele>1102.51</ele>
        <time>2021-07-20T11:21:29Z</time>
      </trkpt>
      <trkpt lat="45.66042" lon="2.84963">
        <ele>1102.38</ele>
        <time>2021-07-20T11:21:35Z</time>
      </trkpt>
      <trkpt lat="45.66032" lon="2.84964">
        <ele>1104.44</ele>
        <time>2021-07-20T11:21:43Z</time>
      </trkpt>
      <trkpt lat="45.66023" lon="2.84968">
        <ele>1104.95</ele>
        <time>2021-07-20T11:21:49Z</time>
      </trkpt>
      <trkpt lat="45.66012" lon="2.84968">
        <ele>1100.73</ele>
        <time>2021-07-20T11:21:54Z</time>
      </trkpt>
      <trkpt lat="45.66004" lon="2.84972">
        <ele>1102.05</ele>
        <time>2021-07-20T11:22:01Z</time>
      </trkpt>
      <trkpt lat="45.65994" lon="2.8498">
        <ele>1103.24</ele>
        <time>2021-07-20T11:22:12Z</time>
      </trkpt>
      <trkpt lat="45.65984" lon="2.84984">
        <ele>1103.93</ele>
        <time>2021-07-20T11:22:18Z</time>
      </trkpt>
      <trkpt lat="45.65974" lon="2.84985">
        <ele>1105.06</ele>
        <time>2021-07-20T11:22:24Z</time>
      </trkpt>
      <trkpt lat="45.65965" lon="2.84986">
        <ele>1106.06</ele>
        <time>2021-07-20T11:22:29Z</time>
      </trkpt>
      <trkpt lat="45.65956" lon="2.84989">
        <ele>1108.46</ele>
        <time>2021-07-20T11:22:35Z</time>
      </trkpt>
      <trkpt lat="45.65946" lon="2.8499">
        <ele>1107.63</ele>
        <time>2021-07-20T11:22:40Z</time>
      </trkpt>
      <trkpt lat="45.65936" lon="2.84989">
        <ele>1109.1</ele>
        <time>2021-07-20T11:22:46Z</time>
      </trkpt>
      <trkpt lat="45.65927" lon="2.8499">
        <ele>1110.69</ele>
        <time>2021-07-20T11:22:52Z</time>
      </trkpt>
      <trkpt lat="45.65917" lon="2.84992">
        <ele>1114.39</ele>
        <time>2021-07-20T11:22:58Z</time>
      </trkpt>
      <trkpt lat="45.65909" lon="2.84997">
        <ele>1114.98</ele>
        <time>2021-07-20T11:23:03Z</time>
      </trkpt>
      <trkpt lat="45.659" lon="2.85005">
        <ele>1113.86</ele>
        <time>2021-07-20T11:23:10Z</time>
      </trkpt>
      <trkpt lat="45.65891" lon="2.85005">
        <ele>1110.01</ele>
        <time>2021-07-20T11:25:06Z</time>
      </trkpt>
      <trkpt lat="45.65884" lon="2.85014">
        <ele>1118.12</ele>
        <time>2021-07-20T11:25:20Z</time>
      </trkpt>
      <trkpt lat="45.65875" lon="2.85016">
        <ele>1118.42</ele>
        <time>2021-07-20T11:25:27Z</time>
      </trkpt>
      <trkpt lat="45.65865" lon="2.8502">
        <ele>1123.61</ele>
        <time>2021-07-20T11:25:38Z</time>
      </trkpt>
      <trkpt lat="45.65856" lon="2.85026">
        <ele>1124.35</ele>
        <time>2021-07-20T11:25:44Z</time>
      </trkpt>
      <trkpt lat="45.65846" lon="2.85031">
        <ele>1123.56</ele>
        <time>2021-07-20T11:25:53Z</time>
      </trkpt>
      <trkpt lat="45.65837" lon="2.85033">
        <ele>1123.4</ele>
        <time>2021-07-20T11:25:58Z</time>
      </trkpt>
      <trkpt lat="45.65829" lon="2.85039">
        <ele>1123.69</ele>
        <time>2021-07-20T11:26:03Z</time>
      </trkpt>
      <trkpt lat="45.65822" lon="2.85048">
        <ele>1123.41</ele>
        <time>2021-07-20T11:26:10Z</time>
      </trkpt>
      <trkpt lat="45.65814" lon="2.85054">
        <ele>1125.25</ele>
        <time>2021-07-20T11:26:16Z</time>
      </trkpt>
      <trkpt lat="45.65804" lon="2.85057">
        <ele>1123.98</ele>
        <time>2021-07-20T11:26:23Z</time>
      </trkpt>
      <trkpt lat="45.65795" lon="2.85061">
        <ele>1124.77</ele>
        <time>2021-07-20T11:26:29Z</time>
      </trkpt>
      <trkpt lat="45.65786" lon="2.85063">
        <ele>1125.68</ele>
        <time>2021-07-20T11:26:34Z</time>
      </trkpt>
      <trkpt lat="45.65778" lon="2.85068">
        <ele>1122.31</ele>
        <time>2021-07-20T11:26:51Z</time>
      </trkpt>
      <trkpt lat="45.65769" lon="2.85076">
        <ele>1124.44</ele>
        <time>2021-07-20T11:27:04Z</time>
      </trkpt>
      <trkpt lat="45.6576" lon="2.85075">
        <ele>1128.98</ele>
        <time>2021-07-20T11:27:28Z</time>
      </trkpt>
      <trkpt lat="45.65751" lon="2.85078">
        <ele>1127.07</ele>
        <time>2021-07-20T11:27:42Z</time>
      </trkpt>
      <trkpt lat="45.65742" lon="2.85084">
        <ele>1130.07</ele>
        <time>2021-07-20T11:27:50Z</time>
      </trkpt>
      <trkpt lat="45.65734" lon="2.8509">
        <ele>1128.46</ele>
        <time>2021-07-20T11:28:00Z</time>
      </trkpt>
      <trkpt lat="45.65731" lon="2.85102">
        <ele>1131.66</ele>
        <time>2021-07-20T11:28:14Z</time>
      </trkpt>
      <trkpt lat="45.65722" lon="2.85107">
        <ele>1133.56</ele>
        <time>2021-07-20T11:28:23Z</time>
      </trkpt>
      <trkpt lat="45.65716" lon="2.85119">
        <ele>1134.27</ele>
        <time>2021-07-20T11:28:31Z</time>
      </trkpt>
      <trkpt lat="45.65708" lon="2.85127">
        <ele>1135.47</ele>
        <time>2021-07-20T11:28:41Z</time>
      </trkpt>
      <trkpt lat="45.65699" lon="2.85134">
        <ele>1136.58</ele>
        <time>2021-07-20T11:28:49Z</time>
      </trkpt>
      <trkpt lat="45.65692" lon="2.85144">
        <ele>1137.25</ele>
        <time>2021-07-20T11:29:02Z</time>
      </trkpt>
      <trkpt lat="45.65686" lon="2.85154">
        <ele>1138.26</ele>
        <time>2021-07-20T11:29:13Z</time>
      </trkpt>
      <trkpt lat="45.65682" lon="2.85167">
        <ele>1139.76</ele>
        <time>2021-07-20T11:29:23Z</time>
      </trkpt>
      <trkpt lat="45.65674" lon="2.85176">
        <ele>1138.23</ele>
        <time>2021-07-20T11:29:28Z</time>
      </trkpt>
      <trkpt lat="45.65666" lon="2.85186">
        <ele>1137.38</ele>
        <time>2021-07-20T11:29:33Z</time>
      </trkpt>
      <trkpt lat="45.65661" lon="2.85196">
        <ele>1138.85</ele>
        <time>2021-07-20T11:29:37Z</time>
      </trkpt>
      <trkpt lat="45.65656" lon="2.85209">
        <ele>1139.16</ele>
        <time>2021-07-20T11:29:43Z</time>
      </trkpt>
      <trkpt lat="45.65649" lon="2.8522">
        <ele>1139.82</ele>
        <time>2021-07-20T11:29:48Z</time>
      </trkpt>
      <trkpt lat="45.65642" lon="2.8523">
        <ele>1139.2</ele>
        <time>2021-07-20T11:29:53Z</time>
      </trkpt>
      <trkpt lat="45.65632" lon="2.85236">
        <ele>1139.4</ele>
        <time>2021-07-20T11:29:58Z</time>
      </trkpt>
      <trkpt lat="45.65626" lon="2.85246">
        <ele>1141.37</ele>
        <time>2021-07-20T11:30:05Z</time>
      </trkpt>
      <trkpt lat="45.65619" lon="2.85255">
        <ele>1142.69</ele>
        <time>2021-07-20T11:30:12Z</time>
      </trkpt>
      <trkpt lat="45.65611" lon="2.85263">
        <ele>1142.91</ele>
        <time>2021-07-20T11:30:18Z</time>
      </trkpt>
      <trkpt lat="45.65604" lon="2.85274">
        <ele>1143.48</ele>
        <time>2021-07-20T11:30:25Z</time>
      </trkpt>
      <trkpt lat="45.65596" lon="2.85283">
        <ele>1145.74</ele>
        <time>2021-07-20T11:30:31Z</time>
      </trkpt>
      <trkpt lat="45.65589" lon="2.85293">
        <ele>1148.5</ele>
        <time>2021-07-20T11:30:36Z</time>
      </trkpt>
      <trkpt lat="45.6558" lon="2.85301">
        <ele>1149.11</ele>
        <time>2021-07-20T11:30:43Z</time>
      </trkpt>
      <trkpt lat="45.6557" lon="2.85307">
        <ele>1148.82</ele>
        <time>2021-07-20T11:30:51Z</time>
      </trkpt>
      <trkpt lat="45.65561" lon="2.85314">
        <ele>1151.01</ele>
        <time>2021-07-20T11:31:00Z</time>
      </trkpt>
      <trkpt lat="45.65553" lon="2.85322">
        <ele>1152.03</ele>
        <time>2021-07-20T11:31:05Z</time>
      </trkpt>
      <trkpt lat="45.6555" lon="2.85336">
        <ele>1151.81</ele>
        <time>2021-07-20T11:31:11Z</time>
      </trkpt>
      <trkpt lat="45.65544" lon="2.85346">
        <ele>1153.95</ele>
        <time>2021-07-20T11:31:18Z</time>
      </trkpt>
      <trkpt lat="45.65537" lon="2.85356">
        <ele>1155.53</ele>
        <time>2021-07-20T11:31:28Z</time>
      </trkpt>
      <trkpt lat="45.6553" lon="2.85363">
        <ele>1161.8</ele>
        <time>2021-07-20T11:31:39Z</time>
      </trkpt>
      <trkpt lat="45.65522" lon="2.8537">
        <ele>1161.26</ele>
        <time>2021-07-20T11:31:55Z</time>
      </trkpt>
      <trkpt lat="45.65514" lon="2.85378">
        <ele>1158.12</ele>
        <time>2021-07-20T11:32:07Z</time>
      </trkpt>
      <trkpt lat="45.65506" lon="2.85388">
        <ele>1164.86</ele>
        <time>2021-07-20T11:35:44Z</time>
      </trkpt>
      <trkpt lat="45.65497" lon="2.85393">
        <ele>1164.31</ele>
        <time>2021-07-20T11:35:50Z</time>
      </trkpt>
      <trkpt lat="45.65487" lon="2.85394">
        <ele>1164.9</ele>
        <time>2021-07-20T11:35:59Z</time>
      </trkpt>
      <trkpt lat="45.65477" lon="2.85396">
        <ele>1167.79</ele>
        <time>2021-07-20T11:36:06Z</time>
      </trkpt>
      <trkpt lat="45.65467" lon="2.85397">
        <ele>1168.23</ele>
        <time>2021-07-20T11:36:17Z</time>
      </trkpt>
      <trkpt lat="45.65458" lon="2.85406">
        <ele>1164.95</ele>
        <time>2021-07-20T11:36:23Z</time>
      </trkpt>
      <trkpt lat="45.65449" lon="2.85412">
        <ele>1164.17</ele>
        <time>2021-07-20T11:36:28Z</time>
      </trkpt>
      <trkpt lat="45.65439" lon="2.85412">
        <ele>1164.46</ele>
        <time>2021-07-20T11:36:34Z</time>
      </trkpt>
      <trkpt lat="45.6543" lon="2.85409">
        <ele>1163.05</ele>
        <time>2021-07-20T11:36:39Z</time>
      </trkpt>
      <trkpt lat="45.65423" lon="2.85401">
        <ele>1165.95</ele>
        <time>2021-07-20T11:36:46Z</time>
      </trkpt>
      <trkpt lat="45.65414" lon="2.85396">
        <ele>1165.69</ele>
        <time>2021-07-20T11:36:54Z</time>
      </trkpt>
      <trkpt lat="45.65404" lon="2.85395">
        <ele>1166.25</ele>
        <time>2021-07-20T11:37:01Z</time>
      </trkpt>
      <trkpt lat="45.65395" lon="2.85395">
        <ele>1167.72</ele>
        <time>2021-07-20T11:37:07Z</time>
      </trkpt>
      <trkpt lat="45.65385" lon="2.85396">
        <ele>1168.63</ele>
        <time>2021-07-20T11:37:13Z</time>
      </trkpt>
      <trkpt lat="45.65376" lon="2.85398">
        <ele>1168.6</ele>
        <time>2021-07-20T11:37:19Z</time>
      </trkpt>
      <trkpt lat="45.65366" lon="2.85397">
        <ele>1166.54</ele>
        <time>2021-07-20T11:37:26Z</time>
      </trkpt>
      <trkpt lat="45.65355" lon="2.85396">
        <ele>1169.01</ele>
        <time>2021-07-20T11:37:32Z</time>
      </trkpt>
      <trkpt lat="45.65346" lon="2.85394">
        <ele>1168.54</ele>
        <time>2021-07-20T11:37:38Z</time>
      </trkpt>
      <trkpt lat="45.65336" lon="2.85389">
        <ele>1168.94</ele>
        <time>2021-07-20T11:37:45Z</time>
      </trkpt>
      <trkpt lat="45.65326" lon="2.85384">
        <ele>1170.23</ele>
        <time>2021-07-20T11:37:51Z</time>
      </trkpt>
      <trkpt lat="45.65317" lon="2.85385">
        <ele>1171.25</ele>
        <time>2021-07-20T11:37:57Z</time>
      </trkpt>
      <trkpt lat="45.65308" lon="2.8538">
        <ele>1168.97</ele>
        <time>2021-07-20T11:38:03Z</time>
      </trkpt>
      <trkpt lat="45.65305" lon="2.85367">
        <ele>1166.67</ele>
        <time>2021-07-20T11:38:07Z</time>
      </trkpt>
      <trkpt lat="45.653" lon="2.85352">
        <ele>1162.41</ele>
        <time>2021-07-20T11:38:11Z</time>
      </trkpt>
      <trkpt lat="45.65295" lon="2.8534">
        <ele>1160.03</ele>
        <time>2021-07-20T11:38:15Z</time>
      </trkpt>
      <trkpt lat="45.65291" lon="2.85326">
        <ele>1161.05</ele>
        <time>2021-07-20T11:38:21Z</time>
      </trkpt>
      <trkpt lat="45.65285" lon="2.85314">
        <ele>1163.28</ele>
        <time>2021-07-20T11:38:25Z</time>
      </trkpt>
      <trkpt lat="45.65279" lon="2.85302">
        <ele>1161.04</ele>
        <time>2021-07-20T11:38:29Z</time>
      </trkpt>
      <trkpt lat="45.65273" lon="2.85292">
        <ele>1162.3</ele>
        <time>2021-07-20T11:38:32Z</time>
      </trkpt>
      <trkpt lat="45.65265" lon="2.8528">
        <ele>1162.49</ele>
        <time>2021-07-20T11:38:36Z</time>
      </trkpt>
      <trkpt lat="45.65256" lon="2.85271">
        <ele>1166.26</ele>
        <time>2021-07-20T11:38:40Z</time>
      </trkpt>
      <trkpt lat="45.65246" lon="2.85262">
        <ele>1169.03</ele>
        <time>2021-07-20T11:38:44Z</time>
      </trkpt>
      <trkpt lat="45.65235" lon="2.85255">
        <ele>1170.44</ele>
        <time>2021-07-20T11:38:48Z</time>
      </trkpt>
      <trkpt lat="45.65226" lon="2.85251">
        <ele>1171.85</ele>
        <time>2021-07-20T11:38:51Z</time>
      </trkpt>
      <trkpt lat="45.65215" lon="2.85247">
        <ele>1173.88</ele>
        <time>2021-07-20T11:38:55Z</time>
      </trkpt>
      <trkpt lat="45.65206" lon="2.85242">
        <ele>1176.21</ele>
        <time>2021-07-20T11:38:58Z</time>
      </trkpt>
      <trkpt lat="45.65197" lon="2.85239">
        <ele>1179.41</ele>
        <time>2021-07-20T11:39:01Z</time>
      </trkpt>
      <trkpt lat="45.65186" lon="2.85236">
        <ele>1177.18</ele>
        <time>2021-07-20T11:39:04Z</time>
      </trkpt>
      <trkpt lat="45.65174" lon="2.85233">
        <ele>1178.07</ele>
        <time>2021-07-20T11:39:07Z</time>
      </trkpt>
      <trkpt lat="45.65164" lon="2.85232">
        <ele>1180.69</ele>
        <time>2021-07-20T11:39:08Z</time>
      </trkpt>
      <trkpt lat="45.65153" lon="2.8523">
        <ele>1183.17</ele>
        <time>2021-07-20T11:39:11Z</time>
      </trkpt>
      <trkpt lat="45.65144" lon="2.85221">
        <ele>1185.08</ele>
        <time>2021-07-20T11:39:14Z</time>
      </trkpt>
      <trkpt lat="45.65134" lon="2.8522">
        <ele>1185.4</ele>
        <time>2021-07-20T11:39:17Z</time>
      </trkpt>
      <trkpt lat="45.65121" lon="2.8522">
        <ele>1185.46</ele>
        <time>2021-07-20T11:39:20Z</time>
      </trkpt>
      <trkpt lat="45.6511" lon="2.85219">
        <ele>1184.37</ele>
        <time>2021-07-20T11:39:23Z</time>
      </trkpt>
      <trkpt lat="45.65098" lon="2.85218">
        <ele>1183.25</ele>
        <time>2021-07-20T11:39:26Z</time>
      </trkpt>
      <trkpt lat="45.65085" lon="2.85218">
        <ele>1183.34</ele>
        <time>2021-07-20T11:39:29Z</time>
      </trkpt>
      <trkpt lat="45.65072" lon="2.85218">
        <ele>1179.71</ele>
        <time>2021-07-20T11:39:32Z</time>
      </trkpt>
      <trkpt lat="45.65058" lon="2.85217">
        <ele>1178.23</ele>
        <time>2021-07-20T11:39:35Z</time>
      </trkpt>
      <trkpt lat="45.65048" lon="2.85217">
        <ele>1178.84</ele>
        <time>2021-07-20T11:39:37Z</time>
      </trkpt>
      <trkpt lat="45.65035" lon="2.85214">
        <ele>1178.31</ele>
        <time>2021-07-20T11:39:40Z</time>
      </trkpt>
      <trkpt lat="45.65026" lon="2.85213">
        <ele>1177.86</ele>
        <time>2021-07-20T11:39:42Z</time>
      </trkpt>
      <trkpt lat="45.65012" lon="2.85212">
        <ele>1178.76</ele>
        <time>2021-07-20T11:39:45Z</time>
      </trkpt>
      <trkpt lat="45.65003" lon="2.85212">
        <ele>1178.56</ele>
        <time>2021-07-20T11:39:47Z</time>
      </trkpt>
      <trkpt lat="45.64993" lon="2.85213">
        <ele>1178.27</ele>
        <time>2021-07-20T11:39:50Z</time>
      </trkpt>
      <trkpt lat="45.64981" lon="2.8521">
        <ele>1178.94</ele>
        <time>2021-07-20T11:39:53Z</time>
      </trkpt>
      <trkpt lat="45.6497" lon="2.85209">
        <ele>1180.95</ele>
        <time>2021-07-20T11:39:57Z</time>
      </trkpt>
      <trkpt lat="45.64961" lon="2.8521">
        <ele>1181.22</ele>
        <time>2021-07-20T11:40:02Z</time>
      </trkpt>
      <trkpt lat="45.64957" lon="2.85223">
        <ele>1179.87</ele>
        <time>2021-07-20T11:40:06Z</time>
      </trkpt>
      <trkpt lat="45.64946" lon="2.85225">
        <ele>1182.9</ele>
        <time>2021-07-20T11:40:10Z</time>
      </trkpt>
      <trkpt lat="45.64936" lon="2.85229">
        <ele>1183.71</ele>
        <time>2021-07-20T11:40:14Z</time>
      </trkpt>
      <trkpt lat="45.64926" lon="2.85232">
        <ele>1185.11</ele>
        <time>2021-07-20T11:40:18Z</time>
      </trkpt>
      <trkpt lat="45.64918" lon="2.8524">
        <ele>1186.39</ele>
        <time>2021-07-20T11:40:23Z</time>
      </trkpt>
      <trkpt lat="45.64909" lon="2.85243">
        <ele>1186.86</ele>
        <time>2021-07-20T11:40:28Z</time>
      </trkpt>
      <trkpt lat="45.649" lon="2.8525">
        <ele>1186.7</ele>
        <time>2021-07-20T11:40:34Z</time>
      </trkpt>
      <trkpt lat="45.64891" lon="2.85256">
        <ele>1187.88</ele>
        <time>2021-07-20T11:40:38Z</time>
      </trkpt>
      <trkpt lat="45.64884" lon="2.85265">
        <ele>1181.07</ele>
        <time>2021-07-20T11:42:00Z</time>
      </trkpt>
      <trkpt lat="45.64874" lon="2.85271">
        <ele>1182.45</ele>
        <time>2021-07-20T11:42:05Z</time>
      </trkpt>
      <trkpt lat="45.64866" lon="2.85276">
        <ele>1185.3</ele>
        <time>2021-07-20T11:42:10Z</time>
      </trkpt>
      <trkpt lat="45.64857" lon="2.85283">
        <ele>1184.83</ele>
        <time>2021-07-20T11:42:15Z</time>
      </trkpt>
      <trkpt lat="45.64847" lon="2.85286">
        <ele>1186.47</ele>
        <time>2021-07-20T11:42:22Z</time>
      </trkpt>
      <trkpt lat="45.64838" lon="2.8529">
        <ele>1182.71</ele>
        <time>2021-07-20T11:42:27Z</time>
      </trkpt>
      <trkpt lat="45.64829" lon="2.85296">
        <ele>1183.95</ele>
        <time>2021-07-20T11:42:32Z</time>
      </trkpt>
      <trkpt lat="45.64819" lon="2.85305">
        <ele>1184.83</ele>
        <time>2021-07-20T11:42:37Z</time>
      </trkpt>
      <trkpt lat="45.64812" lon="2.85313">
        <ele>1189.78</ele>
        <time>2021-07-20T11:42:41Z</time>
      </trkpt>
      <trkpt lat="45.64803" lon="2.85321">
        <ele>1192.29</ele>
        <time>2021-07-20T11:42:46Z</time>
      </trkpt>
      <trkpt lat="45.64795" lon="2.85332">
        <ele>1192.1</ele>
        <time>2021-07-20T11:42:51Z</time>
      </trkpt>
      <trkpt lat="45.64788" lon="2.85344">
        <ele>1193.98</ele>
        <time>2021-07-20T11:42:57Z</time>
      </trkpt>
      <trkpt lat="45.64779" lon="2.85353">
        <ele>1196.97</ele>
        <time>2021-07-20T11:43:02Z</time>
      </trkpt>
      <trkpt lat="45.64772" lon="2.85363">
        <ele>1198.4</ele>
        <time>2021-07-20T11:43:07Z</time>
      </trkpt>
      <trkpt lat="45.64768" lon="2.85375">
        <ele>1199.38</ele>
        <time>2021-07-20T11:43:13Z</time>
      </trkpt>
      <trkpt lat="45.6476" lon="2.85383">
        <ele>1199.16</ele>
        <time>2021-07-20T11:43:19Z</time>
      </trkpt>
      <trkpt lat="45.64754" lon="2.85393">
        <ele>1199.32</ele>
        <time>2021-07-20T11:43:24Z</time>
      </trkpt>
      <trkpt lat="45.64753" lon="2.85406">
        <ele>1201.05</ele>
        <time>2021-07-20T11:43:29Z</time>
      </trkpt>
      <trkpt lat="45.6475" lon="2.85419">
        <ele>1201.7</ele>
        <time>2021-07-20T11:43:34Z</time>
      </trkpt>
      <trkpt lat="45.64751" lon="2.85432">
        <ele>1202.51</ele>
        <time>2021-07-20T11:43:40Z</time>
      </trkpt>
      <trkpt lat="45.6475" lon="2.85446">
        <ele>1202.1</ele>
        <time>2021-07-20T11:43:45Z</time>
      </trkpt>
      <trkpt lat="45.64747" lon="2.85459">
        <ele>1203.5</ele>
        <time>2021-07-20T11:43:50Z</time>
      </trkpt>
      <trkpt lat="45.64748" lon="2.85474">
        <ele>1203.86</ele>
        <time>2021-07-20T11:43:55Z</time>
      </trkpt>
      <trkpt lat="45.64745" lon="2.85488">
        <ele>1201.34</ele>
        <time>2021-07-20T11:44:00Z</time>
      </trkpt>
      <trkpt lat="45.64745" lon="2.85501">
        <ele>1202.81</ele>
        <time>2021-07-20T11:44:05Z</time>
      </trkpt>
      <trkpt lat="45.64743" lon="2.85515">
        <ele>1205.28</ele>
        <time>2021-07-20T11:44:12Z</time>
      </trkpt>
      <trkpt lat="45.64742" lon="2.85529">
        <ele>1202.4</ele>
        <time>2021-07-20T11:44:55Z</time>
      </trkpt>
      <trkpt lat="45.64744" lon="2.85544">
        <ele>1202.85</ele>
        <time>2021-07-20T11:45:04Z</time>
      </trkpt>
      <trkpt lat="45.64744" lon="2.85559">
        <ele>1206.86</ele>
        <time>2021-07-20T11:45:10Z</time>
      </trkpt>
      <trkpt lat="45.64746" lon="2.85572">
        <ele>1210.08</ele>
        <time>2021-07-20T11:45:17Z</time>
      </trkpt>
      <trkpt lat="45.64751" lon="2.85587">
        <ele>1207.7</ele>
        <time>2021-07-20T11:45:23Z</time>
      </trkpt>
      <trkpt lat="45.64754" lon="2.856">
        <ele>1206.25</ele>
        <time>2021-07-20T11:45:27Z</time>
      </trkpt>
      <trkpt lat="45.64757" lon="2.85612">
        <ele>1202.92</ele>
        <time>2021-07-20T11:45:31Z</time>
      </trkpt>
      <trkpt lat="45.64759" lon="2.85625">
        <ele>1202.02</ele>
        <time>2021-07-20T11:45:35Z</time>
      </trkpt>
      <trkpt lat="45.6476" lon="2.85639">
        <ele>1198.67</ele>
        <time>2021-07-20T11:45:39Z</time>
      </trkpt>
      <trkpt lat="45.64761" lon="2.85655">
        <ele>1198.63</ele>
        <time>2021-07-20T11:45:43Z</time>
      </trkpt>
      <trkpt lat="45.64763" lon="2.85668">
        <ele>1200.03</ele>
        <time>2021-07-20T11:45:46Z</time>
      </trkpt>
      <trkpt lat="45.64768" lon="2.8568">
        <ele>1201.93</ele>
        <time>2021-07-20T11:45:49Z</time>
      </trkpt>
      <trkpt lat="45.64773" lon="2.85692">
        <ele>1203.09</ele>
        <time>2021-07-20T11:45:52Z</time>
      </trkpt>
      <trkpt lat="45.64776" lon="2.85707">
        <ele>1202.59</ele>
        <time>2021-07-20T11:45:56Z</time>
      </trkpt>
      <trkpt lat="45.64776" lon="2.85723">
        <ele>1202.95</ele>
        <time>2021-07-20T11:46:00Z</time>
      </trkpt>
      <trkpt lat="45.64768" lon="2.85734">
        <ele>1204.09</ele>
        <time>2021-07-20T11:46:04Z</time>
      </trkpt>
      <trkpt lat="45.64759" lon="2.85741">
        <ele>1203.6</ele>
        <time>2021-07-20T12:32:50Z</time>
      </trkpt>
      <trkpt lat="45.64754" lon="2.85752">
        <ele>1201.25</ele>
        <time>2021-07-20T12:33:00Z</time>
      </trkpt>
      <trkpt lat="45.64757" lon="2.85765">
        <ele>1199.43</ele>
        <time>2021-07-20T12:33:26Z</time>
      </trkpt>
      <trkpt lat="45.6476" lon="2.85777">
        <ele>1198.38</ele>
        <time>2021-07-20T12:33:34Z</time>
      </trkpt>
      <trkpt lat="45.64756" lon="2.85764">
        <ele>1197.87</ele>
        <time>2021-07-20T12:34:31Z</time>
      </trkpt>
      <trkpt lat="45.64755" lon="2.85751">
        <ele>1202.53</ele>
        <time>2021-07-20T12:34:43Z</time>
      </trkpt>
      <trkpt lat="45.6476" lon="2.8574">
        <ele>1201.12</ele>
        <time>2021-07-20T12:34:50Z</time>
      </trkpt>
      <trkpt lat="45.64771" lon="2.85737">
        <ele>1201.95</ele>
        <time>2021-07-20T12:34:55Z</time>
      </trkpt>
      <trkpt lat="45.64776" lon="2.85727">
        <ele>1202.57</ele>
        <time>2021-07-20T12:35:01Z</time>
      </trkpt>
      <trkpt lat="45.64771" lon="2.85737">
        <ele>1198.42</ele>
        <time>2021-07-20T12:35:31Z</time>
      </trkpt>
      <trkpt lat="45.64762" lon="2.85737">
        <ele>1199.94</ele>
        <time>2021-07-20T12:36:18Z</time>
      </trkpt>
      <trkpt lat="45.6477" lon="2.85729">
        <ele>1206.94</ele>
        <time>2021-07-20T12:52:29Z</time>
      </trkpt>
      <trkpt lat="45.64776" lon="2.85738">
        <ele>1210.16</ele>
        <time>2021-07-20T12:58:24Z</time>
      </trkpt>
      <trkpt lat="45.6478" lon="2.8575">
        <ele>1208.81</ele>
        <time>2021-07-20T12:58:40Z</time>
      </trkpt>
      <trkpt lat="45.64784" lon="2.85762">
        <ele>1208.07</ele>
        <time>2021-07-20T12:58:45Z</time>
      </trkpt>
      <trkpt lat="45.64787" lon="2.85777">
        <ele>1208.89</ele>
        <time>2021-07-20T12:58:49Z</time>
      </trkpt>
      <trkpt lat="45.64791" lon="2.85789">
        <ele>1207.36</ele>
        <time>2021-07-20T12:58:54Z</time>
      </trkpt>
      <trkpt lat="45.64794" lon="2.85804">
        <ele>1208.02</ele>
        <time>2021-07-20T12:58:58Z</time>
      </trkpt>
      <trkpt lat="45.64796" lon="2.85819">
        <ele>1208.5</ele>
        <time>2021-07-20T12:59:01Z</time>
      </trkpt>
      <trkpt lat="45.64799" lon="2.85833">
        <ele>1204.94</ele>
        <time>2021-07-20T12:59:04Z</time>
      </trkpt>
      <trkpt lat="45.64799" lon="2.85848">
        <ele>1202.09</ele>
        <time>2021-07-20T12:59:08Z</time>
      </trkpt>
      <trkpt lat="45.64795" lon="2.85861">
        <ele>1202.14</ele>
        <time>2021-07-20T12:59:12Z</time>
      </trkpt>
      <trkpt lat="45.64792" lon="2.85879">
        <ele>1203.85</ele>
        <time>2021-07-20T12:59:15Z</time>
      </trkpt>
      <trkpt lat="45.6479" lon="2.85893">
        <ele>1201.72</ele>
        <time>2021-07-20T12:59:18Z</time>
      </trkpt>
      <trkpt lat="45.64789" lon="2.85907">
        <ele>1198.45</ele>
        <time>2021-07-20T12:59:21Z</time>
      </trkpt>
      <trkpt lat="45.64788" lon="2.85924">
        <ele>1197.25</ele>
        <time>2021-07-20T12:59:24Z</time>
      </trkpt>
      <trkpt lat="45.64785" lon="2.85942">
        <ele>1197.5</ele>
        <time>2021-07-20T12:59:27Z</time>
      </trkpt>
      <trkpt lat="45.64783" lon="2.8596">
        <ele>1200.38</ele>
        <time>2021-07-20T12:59:29Z</time>
      </trkpt>
      <trkpt lat="45.6478" lon="2.85972">
        <ele>1201.37</ele>
        <time>2021-07-20T12:59:31Z</time>
      </trkpt>
      <trkpt lat="45.64779" lon="2.85987">
        <ele>1197.38</ele>
        <time>2021-07-20T12:59:35Z</time>
      </trkpt>
      <trkpt lat="45.64775" lon="2.86005">
        <ele>1195.54</ele>
        <time>2021-07-20T12:59:38Z</time>
      </trkpt>
      <trkpt lat="45.64772" lon="2.86021">
        <ele>1196.69</ele>
        <time>2021-07-20T12:59:39Z</time>
      </trkpt>
      <trkpt lat="45.6477" lon="2.86036">
        <ele>1196.26</ele>
        <time>2021-07-20T12:59:42Z</time>
      </trkpt>
      <trkpt lat="45.64767" lon="2.86052">
        <ele>1197.06</ele>
        <time>2021-07-20T12:59:45Z</time>
      </trkpt>
      <trkpt lat="45.64763" lon="2.86066">
        <ele>1198.26</ele>
        <time>2021-07-20T12:59:48Z</time>
      </trkpt>
      <trkpt lat="45.64761" lon="2.86078">
        <ele>1196.63</ele>
        <time>2021-07-20T12:59:51Z</time>
      </trkpt>
      <trkpt lat="45.64758" lon="2.86091">
        <ele>1199.33</ele>
        <time>2021-07-20T12:59:55Z</time>
      </trkpt>
      <trkpt lat="45.64758" lon="2.86106">
        <ele>1199.13</ele>
        <time>2021-07-20T13:00:02Z</time>
      </trkpt>
      <trkpt lat="45.64755" lon="2.86118">
        <ele>1199.91</ele>
        <time>2021-07-20T13:00:07Z</time>
      </trkpt>
      <trkpt lat="45.64752" lon="2.86134">
        <ele>1198.99</ele>
        <time>2021-07-20T13:00:11Z</time>
      </trkpt>
      <trkpt lat="45.6475" lon="2.86148">
        <ele>1194.84</ele>
        <time>2021-07-20T13:00:15Z</time>
      </trkpt>
      <trkpt lat="45.64749" lon="2.86163">
        <ele>1194.61</ele>
        <time>2021-07-20T13:00:19Z</time>
      </trkpt>
      <trkpt lat="45.64746" lon="2.86177">
        <ele>1196.35</ele>
        <time>2021-07-20T13:00:23Z</time>
      </trkpt>
      <trkpt lat="45.64743" lon="2.86193">
        <ele>1193.92</ele>
        <time>2021-07-20T13:00:27Z</time>
      </trkpt>
      <trkpt lat="45.6474" lon="2.8621">
        <ele>1192.88</ele>
        <time>2021-07-20T13:00:30Z</time>
      </trkpt>
      <trkpt lat="45.64738" lon="2.86226">
        <ele>1191.96</ele>
        <time>2021-07-20T13:00:33Z</time>
      </trkpt>
      <trkpt lat="45.64737" lon="2.86243">
        <ele>1190.47</ele>
        <time>2021-07-20T13:00:36Z</time>
      </trkpt>
      <trkpt lat="45.64736" lon="2.86258">
        <ele>1190.01</ele>
        <time>2021-07-20T13:00:39Z</time>
      </trkpt>
      <trkpt lat="45.64734" lon="2.8627">
        <ele>1192.37</ele>
        <time>2021-07-20T13:00:42Z</time>
      </trkpt>
      <trkpt lat="45.64734" lon="2.86289">
        <ele>1192.44</ele>
        <time>2021-07-20T13:00:45Z</time>
      </trkpt>
      <trkpt lat="45.64736" lon="2.86305">
        <ele>1192.04</ele>
        <time>2021-07-20T13:00:48Z</time>
      </trkpt>
      <trkpt lat="45.64738" lon="2.86318">
        <ele>1191.47</ele>
        <time>2021-07-20T13:00:52Z</time>
      </trkpt>
      <trkpt lat="45.64736" lon="2.86332">
        <ele>1191.83</ele>
        <time>2021-07-20T13:00:55Z</time>
      </trkpt>
      <trkpt lat="45.64736" lon="2.86354">
        <ele>1193.2</ele>
        <time>2021-07-20T13:00:58Z</time>
      </trkpt>
      <trkpt lat="45.64734" lon="2.8637">
        <ele>1195.95</ele>
        <time>2021-07-20T13:01:00Z</time>
      </trkpt>
      <trkpt lat="45.6473" lon="2.8639">
        <ele>1197.44</ele>
        <time>2021-07-20T13:01:02Z</time>
      </trkpt>
      <trkpt lat="45.64731" lon="2.86407">
        <ele>1195.56</ele>
        <time>2021-07-20T13:01:04Z</time>
      </trkpt>
      <trkpt lat="45.6473" lon="2.86422">
        <ele>1194.94</ele>
        <time>2021-07-20T13:01:06Z</time>
      </trkpt>
      <trkpt lat="45.64729" lon="2.86439">
        <ele>1194.63</ele>
        <time>2021-07-20T13:01:08Z</time>
      </trkpt>
      <trkpt lat="45.64728" lon="2.86455">
        <ele>1194.41</ele>
        <time>2021-07-20T13:01:10Z</time>
      </trkpt>
      <trkpt lat="45.64725" lon="2.86469">
        <ele>1191.04</ele>
        <time>2021-07-20T13:01:12Z</time>
      </trkpt>
      <trkpt lat="45.64723" lon="2.86488">
        <ele>1188.21</ele>
        <time>2021-07-20T13:01:14Z</time>
      </trkpt>
      <trkpt lat="45.64722" lon="2.86506">
        <ele>1185.21</ele>
        <time>2021-07-20T13:01:16Z</time>
      </trkpt>
      <trkpt lat="45.64722" lon="2.86528">
        <ele>1185.11</ele>
        <time>2021-07-20T13:01:18Z</time>
      </trkpt>
      <trkpt lat="45.64722" lon="2.86546">
        <ele>1184.28</ele>
        <time>2021-07-20T13:01:20Z</time>
      </trkpt>
      <trkpt lat="45.6472" lon="2.86568">
        <ele>1184.55</ele>
        <time>2021-07-20T13:01:22Z</time>
      </trkpt>
      <trkpt lat="45.6472" lon="2.86588">
        <ele>1185.04</ele>
        <time>2021-07-20T13:01:24Z</time>
      </trkpt>
      <trkpt lat="45.64723" lon="2.86607">
        <ele>1183.22</ele>
        <time>2021-07-20T13:01:26Z</time>
      </trkpt>
      <trkpt lat="45.64724" lon="2.8662">
        <ele>1181.64</ele>
        <time>2021-07-20T13:01:28Z</time>
      </trkpt>
      <trkpt lat="45.64722" lon="2.86637">
        <ele>1179.86</ele>
        <time>2021-07-20T13:02:50Z</time>
      </trkpt>
      <trkpt lat="45.64717" lon="2.86651">
        <ele>1179.22</ele>
        <time>2021-07-20T13:02:53Z</time>
      </trkpt>
      <trkpt lat="45.64715" lon="2.86666">
        <ele>1178.06</ele>
        <time>2021-07-20T13:02:58Z</time>
      </trkpt>
      <trkpt lat="45.64712" lon="2.86682">
        <ele>1177.86</ele>
        <time>2021-07-20T13:03:00Z</time>
      </trkpt>
      <trkpt lat="45.64708" lon="2.867">
        <ele>1177.14</ele>
        <time>2021-07-20T13:03:02Z</time>
      </trkpt>
      <trkpt lat="45.64706" lon="2.86716">
        <ele>1175.16</ele>
        <time>2021-07-20T13:03:05Z</time>
      </trkpt>
      <trkpt lat="45.64703" lon="2.86728">
        <ele>1174.05</ele>
        <time>2021-07-20T13:03:06Z</time>
      </trkpt>
      <trkpt lat="45.64699" lon="2.86751">
        <ele>1174.32</ele>
        <time>2021-07-20T13:03:07Z</time>
      </trkpt>
      <trkpt lat="45.64694" lon="2.86766">
        <ele>1174.51</ele>
        <time>2021-07-20T13:03:09Z</time>
      </trkpt>
      <trkpt lat="45.6469" lon="2.8678">
        <ele>1170.48</ele>
        <time>2021-07-20T13:03:11Z</time>
      </trkpt>
      <trkpt lat="45.64687" lon="2.86796">
        <ele>1169.05</ele>
        <time>2021-07-20T13:03:13Z</time>
      </trkpt>
      <trkpt lat="45.64685" lon="2.86812">
        <ele>1167.59</ele>
        <time>2021-07-20T13:03:15Z</time>
      </trkpt>
      <trkpt lat="45.64681" lon="2.86827">
        <ele>1167.68</ele>
        <time>2021-07-20T13:03:17Z</time>
      </trkpt>
      <trkpt lat="45.64677" lon="2.86842">
        <ele>1167.86</ele>
        <time>2021-07-20T13:03:19Z</time>
      </trkpt>
      <trkpt lat="45.64673" lon="2.86856">
        <ele>1167.57</ele>
        <time>2021-07-20T13:03:21Z</time>
      </trkpt>
      <trkpt lat="45.64668" lon="2.86869">
        <ele>1166.59</ele>
        <time>2021-07-20T13:03:23Z</time>
      </trkpt>
      <trkpt lat="45.64662" lon="2.86883">
        <ele>1166.32</ele>
        <time>2021-07-20T13:03:25Z</time>
      </trkpt>
      <trkpt lat="45.64654" lon="2.86895">
        <ele>1167.05</ele>
        <time>2021-07-20T13:03:27Z</time>
      </trkpt>
      <trkpt lat="45.64649" lon="2.86909">
        <ele>1168.16</ele>
        <time>2021-07-20T13:03:31Z</time>
      </trkpt>
      <trkpt lat="45.64643" lon="2.86922">
        <ele>1168.73</ele>
        <time>2021-07-20T13:03:33Z</time>
      </trkpt>
      <trkpt lat="45.64636" lon="2.86936">
        <ele>1169.53</ele>
        <time>2021-07-20T13:03:34Z</time>
      </trkpt>
      <trkpt lat="45.64631" lon="2.86947">
        <ele>1169.82</ele>
        <time>2021-07-20T13:03:36Z</time>
      </trkpt>
      <trkpt lat="45.64623" lon="2.86954">
        <ele>1170.46</ele>
        <time>2021-07-20T13:03:38Z</time>
      </trkpt>
      <trkpt lat="45.64615" lon="2.86962">
        <ele>1170.2</ele>
        <time>2021-07-20T13:03:41Z</time>
      </trkpt>
      <trkpt lat="45.64606" lon="2.86973">
        <ele>1172.29</ele>
        <time>2021-07-20T13:03:45Z</time>
      </trkpt>
      <trkpt lat="45.64596" lon="2.86985">
        <ele>1172.5</ele>
        <time>2021-07-20T13:03:48Z</time>
      </trkpt>
      <trkpt lat="45.64588" lon="2.86996">
        <ele>1172.5</ele>
        <time>2021-07-20T13:03:50Z</time>
      </trkpt>
      <trkpt lat="45.64576" lon="2.8701">
        <ele>1172.75</ele>
        <time>2021-07-20T13:03:52Z</time>
      </trkpt>
      <trkpt lat="45.64569" lon="2.87022">
        <ele>1173.05</ele>
        <time>2021-07-20T13:03:55Z</time>
      </trkpt>
      <trkpt lat="45.64565" lon="2.87034">
        <ele>1171.55</ele>
        <time>2021-07-20T13:03:59Z</time>
      </trkpt>
      <trkpt lat="45.64565" lon="2.87047">
        <ele>1177.97</ele>
        <time>2021-07-20T13:05:10Z</time>
      </trkpt>
      <trkpt lat="45.64564" lon="2.8706">
        <ele>1175.57</ele>
        <time>2021-07-20T13:06:10Z</time>
      </trkpt>
      <trkpt lat="45.64559" lon="2.87072">
        <ele>1173.59</ele>
        <time>2021-07-20T13:06:17Z</time>
      </trkpt>
      <trkpt lat="45.64554" lon="2.87085">
        <ele>1173.22</ele>
        <time>2021-07-20T13:06:22Z</time>
      </trkpt>
      <trkpt lat="45.64549" lon="2.87099">
        <ele>1174.16</ele>
        <time>2021-07-20T13:06:26Z</time>
      </trkpt>
      <trkpt lat="45.64539" lon="2.87105">
        <ele>1173.72</ele>
        <time>2021-07-20T13:06:29Z</time>
      </trkpt>
      <trkpt lat="45.64527" lon="2.87116">
        <ele>1175.43</ele>
        <time>2021-07-20T13:06:30Z</time>
      </trkpt>
      <trkpt lat="45.6452" lon="2.87127">
        <ele>1176.45</ele>
        <time>2021-07-20T13:06:33Z</time>
      </trkpt>
      <trkpt lat="45.64518" lon="2.87143">
        <ele>1174.93</ele>
        <time>2021-07-20T13:06:36Z</time>
      </trkpt>
      <trkpt lat="45.64518" lon="2.87157">
        <ele>1174.85</ele>
        <time>2021-07-20T13:06:39Z</time>
      </trkpt>
      <trkpt lat="45.64516" lon="2.87172">
        <ele>1174.13</ele>
        <time>2021-07-20T13:06:43Z</time>
      </trkpt>
      <trkpt lat="45.64518" lon="2.87186">
        <ele>1171.55</ele>
        <time>2021-07-20T13:07:14Z</time>
      </trkpt>
      <trkpt lat="45.6451" lon="2.87195">
        <ele>1168.57</ele>
        <time>2021-07-20T13:09:15Z</time>
      </trkpt>
      <trkpt lat="45.64502" lon="2.87201">
        <ele>1168.35</ele>
        <time>2021-07-20T13:09:19Z</time>
      </trkpt>
      <trkpt lat="45.64494" lon="2.8721">
        <ele>1167.26</ele>
        <time>2021-07-20T13:09:23Z</time>
      </trkpt>
      <trkpt lat="45.64489" lon="2.87222">
        <ele>1168.34</ele>
        <time>2021-07-20T13:09:27Z</time>
      </trkpt>
      <trkpt lat="45.64494" lon="2.87238">
        <ele>1168.43</ele>
        <time>2021-07-20T13:09:31Z</time>
      </trkpt>
      <trkpt lat="45.64499" lon="2.87251">
        <ele>1168.02</ele>
        <time>2021-07-20T13:09:33Z</time>
      </trkpt>
      <trkpt lat="45.64505" lon="2.87267">
        <ele>1167.73</ele>
        <time>2021-07-20T13:09:36Z</time>
      </trkpt>
      <trkpt lat="45.64508" lon="2.8728">
        <ele>1166.17</ele>
        <time>2021-07-20T13:09:39Z</time>
      </trkpt>
      <trkpt lat="45.64511" lon="2.87293">
        <ele>1167.1</ele>
        <time>2021-07-20T13:09:46Z</time>
      </trkpt>
      <trkpt lat="45.64513" lon="2.87311">
        <ele>1167.21</ele>
        <time>2021-07-20T13:09:51Z</time>
      </trkpt>
      <trkpt lat="45.64515" lon="2.87339">
        <ele>1166.24</ele>
        <time>2021-07-20T13:09:53Z</time>
      </trkpt>
      <trkpt lat="45.64517" lon="2.87351">
        <ele>1166.19</ele>
        <time>2021-07-20T13:09:54Z</time>
      </trkpt>
      <trkpt lat="45.64517" lon="2.87365">
        <ele>1164.39</ele>
        <time>2021-07-20T13:09:57Z</time>
      </trkpt>
      <trkpt lat="45.6452" lon="2.87381">
        <ele>1162.76</ele>
        <time>2021-07-20T13:10:00Z</time>
      </trkpt>
      <trkpt lat="45.64522" lon="2.87395">
        <ele>1159.22</ele>
        <time>2021-07-20T13:10:04Z</time>
      </trkpt>
      <trkpt lat="45.64525" lon="2.87412">
        <ele>1162.56</ele>
        <time>2021-07-20T13:10:08Z</time>
      </trkpt>
      <trkpt lat="45.64524" lon="2.87437">
        <ele>1161.88</ele>
        <time>2021-07-20T13:10:11Z</time>
      </trkpt>
      <trkpt lat="45.64522" lon="2.87452">
        <ele>1162.76</ele>
        <time>2021-07-20T13:10:13Z</time>
      </trkpt>
      <trkpt lat="45.6452" lon="2.87468">
        <ele>1163.63</ele>
        <time>2021-07-20T13:10:15Z</time>
      </trkpt>
      <trkpt lat="45.64518" lon="2.8749">
        <ele>1162.46</ele>
        <time>2021-07-20T13:10:17Z</time>
      </trkpt>
      <trkpt lat="45.64515" lon="2.87512">
        <ele>1159.95</ele>
        <time>2021-07-20T13:10:19Z</time>
      </trkpt>
      <trkpt lat="45.64514" lon="2.87528">
        <ele>1160.04</ele>
        <time>2021-07-20T13:10:21Z</time>
      </trkpt>
      <trkpt lat="45.64512" lon="2.87547">
        <ele>1161.39</ele>
        <time>2021-07-20T13:10:24Z</time>
      </trkpt>
      <trkpt lat="45.64512" lon="2.87562">
        <ele>1160.24</ele>
        <time>2021-07-20T13:10:28Z</time>
      </trkpt>
      <trkpt lat="45.64518" lon="2.87577">
        <ele>1157.68</ele>
        <time>2021-07-20T13:10:30Z</time>
      </trkpt>
      <trkpt lat="45.64516" lon="2.87603">
        <ele>1158.96</ele>
        <time>2021-07-20T13:10:31Z</time>
      </trkpt>
      <trkpt lat="45.64521" lon="2.87615">
        <ele>1160.53</ele>
        <time>2021-07-20T13:10:34Z</time>
      </trkpt>
      <trkpt lat="45.64514" lon="2.87625">
        <ele>1159.86</ele>
        <time>2021-07-20T13:11:06Z</time>
      </trkpt>
      <trkpt lat="45.64509" lon="2.87637">
        <ele>1156.83</ele>
        <time>2021-07-20T13:11:10Z</time>
      </trkpt>
      <trkpt lat="45.64509" lon="2.8765">
        <ele>1155.94</ele>
        <time>2021-07-20T13:11:13Z</time>
      </trkpt>
      <trkpt lat="45.64508" lon="2.87667">
        <ele>1156.55</ele>
        <time>2021-07-20T13:11:19Z</time>
      </trkpt>
      <trkpt lat="45.64511" lon="2.87683">
        <ele>1153.58</ele>
        <time>2021-07-20T13:11:22Z</time>
      </trkpt>
      <trkpt lat="45.64513" lon="2.87695">
        <ele>1153.92</ele>
        <time>2021-07-20T13:11:24Z</time>
      </trkpt>
      <trkpt lat="45.6452" lon="2.87713">
        <ele>1152.75</ele>
        <time>2021-07-20T13:11:26Z</time>
      </trkpt>
      <trkpt lat="45.64519" lon="2.87729">
        <ele>1151.9</ele>
        <time>2021-07-20T13:11:28Z</time>
      </trkpt>
      <trkpt lat="45.64522" lon="2.87748">
        <ele>1148.51</ele>
        <time>2021-07-20T13:11:31Z</time>
      </trkpt>
      <trkpt lat="45.64525" lon="2.87762">
        <ele>1143.34</ele>
        <time>2021-07-20T13:11:33Z</time>
      </trkpt>
      <trkpt lat="45.64531" lon="2.87773">
        <ele>1140.97</ele>
        <time>2021-07-20T13:11:35Z</time>
      </trkpt>
      <trkpt lat="45.64531" lon="2.87787">
        <ele>1136.92</ele>
        <time>2021-07-20T13:11:37Z</time>
      </trkpt>
      <trkpt lat="45.6454" lon="2.878">
        <ele>1135.41</ele>
        <time>2021-07-20T13:11:39Z</time>
      </trkpt>
      <trkpt lat="45.64546" lon="2.87819">
        <ele>1134.25</ele>
        <time>2021-07-20T13:11:42Z</time>
      </trkpt>
      <trkpt lat="45.64556" lon="2.87834">
        <ele>1133.97</ele>
        <time>2021-07-20T13:11:44Z</time>
      </trkpt>
      <trkpt lat="45.64566" lon="2.87847">
        <ele>1133.33</ele>
        <time>2021-07-20T13:11:46Z</time>
      </trkpt>
      <trkpt lat="45.64575" lon="2.87853">
        <ele>1133.06</ele>
        <time>2021-07-20T13:11:48Z</time>
      </trkpt>
      <trkpt lat="45.64585" lon="2.8786">
        <ele>1131.59</ele>
        <time>2021-07-20T13:11:50Z</time>
      </trkpt>
      <trkpt lat="45.64593" lon="2.87866">
        <ele>1134.22</ele>
        <time>2021-07-20T13:11:53Z</time>
      </trkpt>
      <trkpt lat="45.64601" lon="2.87873">
        <ele>1133.91</ele>
        <time>2021-07-20T13:11:55Z</time>
      </trkpt>
      <trkpt lat="45.64614" lon="2.87882">
        <ele>1133.1</ele>
        <time>2021-07-20T13:11:57Z</time>
      </trkpt>
      <trkpt lat="45.64623" lon="2.87891">
        <ele>1132.69</ele>
        <time>2021-07-20T13:11:59Z</time>
      </trkpt>
      <trkpt lat="45.64633" lon="2.879">
        <ele>1131.9</ele>
        <time>2021-07-20T13:12:01Z</time>
      </trkpt>
      <trkpt lat="45.64642" lon="2.87911">
        <ele>1132.16</ele>
        <time>2021-07-20T13:12:03Z</time>
      </trkpt>
      <trkpt lat="45.64652" lon="2.87924">
        <ele>1131.06</ele>
        <time>2021-07-20T13:12:05Z</time>
      </trkpt>
      <trkpt lat="45.64662" lon="2.87932">
        <ele>1130.67</ele>
        <time>2021-07-20T13:12:07Z</time>
      </trkpt>
      <trkpt lat="45.64673" lon="2.87937">
        <ele>1131.93</ele>
        <time>2021-07-20T13:12:09Z</time>
      </trkpt>
      <trkpt lat="45.64682" lon="2.87944">
        <ele>1132.84</ele>
        <time>2021-07-20T13:12:11Z</time>
      </trkpt>
      <trkpt lat="45.64691" lon="2.87951">
        <ele>1131.65</ele>
        <time>2021-07-20T13:12:13Z</time>
      </trkpt>
      <trkpt lat="45.64699" lon="2.87964">
        <ele>1131.48</ele>
        <time>2021-07-20T13:12:15Z</time>
      </trkpt>
      <trkpt lat="45.64706" lon="2.87974">
        <ele>1130.67</ele>
        <time>2021-07-20T13:12:17Z</time>
      </trkpt>
      <trkpt lat="45.64714" lon="2.87984">
        <ele>1130.79</ele>
        <time>2021-07-20T13:12:19Z</time>
      </trkpt>
      <trkpt lat="45.6472" lon="2.87997">
        <ele>1127.08</ele>
        <time>2021-07-20T13:12:23Z</time>
      </trkpt>
      <trkpt lat="45.64727" lon="2.88009">
        <ele>1125.36</ele>
        <time>2021-07-20T13:12:26Z</time>
      </trkpt>
      <trkpt lat="45.64736" lon="2.88023">
        <ele>1123.22</ele>
        <time>2021-07-20T13:12:28Z</time>
      </trkpt>
      <trkpt lat="45.64745" lon="2.88036">
        <ele>1122.99</ele>
        <time>2021-07-20T13:12:30Z</time>
      </trkpt>
      <trkpt lat="45.64754" lon="2.88044">
        <ele>1123.13</ele>
        <time>2021-07-20T13:12:31Z</time>
      </trkpt>
      <trkpt lat="45.64763" lon="2.88057">
        <ele>1123.56</ele>
        <time>2021-07-20T13:12:33Z</time>
      </trkpt>
      <trkpt lat="45.64771" lon="2.88066">
        <ele>1123.95</ele>
        <time>2021-07-20T13:12:35Z</time>
      </trkpt>
      <trkpt lat="45.64778" lon="2.88077">
        <ele>1125.37</ele>
        <time>2021-07-20T13:12:38Z</time>
      </trkpt>
      <trkpt lat="45.64769" lon="2.88086">
        <ele>1121.93</ele>
        <time>2021-07-20T13:12:44Z</time>
      </trkpt>
      <trkpt lat="45.64758" lon="2.88087">
        <ele>1119.95</ele>
        <time>2021-07-20T13:12:47Z</time>
      </trkpt>
      <trkpt lat="45.64744" lon="2.88088">
        <ele>1117.8</ele>
        <time>2021-07-20T13:12:50Z</time>
      </trkpt>
      <trkpt lat="45.64735" lon="2.88087">
        <ele>1116.4</ele>
        <time>2021-07-20T13:12:53Z</time>
      </trkpt>
      <trkpt lat="45.64724" lon="2.88091">
        <ele>1116.43</ele>
        <time>2021-07-20T13:12:57Z</time>
      </trkpt>
      <trkpt lat="45.64715" lon="2.88095">
        <ele>1119.04</ele>
        <time>2021-07-20T13:13:02Z</time>
      </trkpt>
      <trkpt lat="45.64706" lon="2.88097">
        <ele>1118.46</ele>
        <time>2021-07-20T13:13:05Z</time>
      </trkpt>
      <trkpt lat="45.64696" lon="2.88098">
        <ele>1118.51</ele>
        <time>2021-07-20T13:13:08Z</time>
      </trkpt>
      <trkpt lat="45.64685" lon="2.88097">
        <ele>1120.54</ele>
        <time>2021-07-20T13:13:11Z</time>
      </trkpt>
      <trkpt lat="45.64674" lon="2.88095">
        <ele>1120.99</ele>
        <time>2021-07-20T13:13:14Z</time>
      </trkpt>
      <trkpt lat="45.64664" lon="2.88093">
        <ele>1125.75</ele>
        <time>2021-07-20T13:13:19Z</time>
      </trkpt>
      <trkpt lat="45.64655" lon="2.88089">
        <ele>1126.19</ele>
        <time>2021-07-20T13:13:24Z</time>
      </trkpt>
      <trkpt lat="45.64647" lon="2.8808">
        <ele>1122.72</ele>
        <time>2021-07-20T13:13:28Z</time>
      </trkpt>
      <trkpt lat="45.64639" lon="2.88074">
        <ele>1129.28</ele>
        <time>2021-07-20T13:14:15Z</time>
      </trkpt>
      <trkpt lat="45.6463" lon="2.88074">
        <ele>1129.72</ele>
        <time>2021-07-20T13:14:21Z</time>
      </trkpt>
      <trkpt lat="45.6462" lon="2.88073">
        <ele>1132.02</ele>
        <time>2021-07-20T13:14:26Z</time>
      </trkpt>
      <trkpt lat="45.64611" lon="2.88076">
        <ele>1129.24</ele>
        <time>2021-07-20T13:14:31Z</time>
      </trkpt>
      <trkpt lat="45.64601" lon="2.88078">
        <ele>1132.48</ele>
        <time>2021-07-20T13:14:37Z</time>
      </trkpt>
      <trkpt lat="45.64592" lon="2.8808">
        <ele>1131.91</ele>
        <time>2021-07-20T13:14:42Z</time>
      </trkpt>
      <trkpt lat="45.64582" lon="2.88083">
        <ele>1132.75</ele>
        <time>2021-07-20T13:14:48Z</time>
      </trkpt>
      <trkpt lat="45.64572" lon="2.88084">
        <ele>1134.25</ele>
        <time>2021-07-20T13:14:53Z</time>
      </trkpt>
      <trkpt lat="45.64562" lon="2.88087">
        <ele>1133.83</ele>
        <time>2021-07-20T13:15:00Z</time>
      </trkpt>
      <trkpt lat="45.64553" lon="2.88092">
        <ele>1132.1</ele>
        <time>2021-07-20T13:15:06Z</time>
      </trkpt>
      <trkpt lat="45.64544" lon="2.88097">
        <ele>1134.35</ele>
        <time>2021-07-20T13:15:13Z</time>
      </trkpt>
      <trkpt lat="45.64535" lon="2.88101">
        <ele>1130.84</ele>
        <time>2021-07-20T13:15:21Z</time>
      </trkpt>
      <trkpt lat="45.64526" lon="2.88107">
        <ele>1132.61</ele>
        <time>2021-07-20T13:15:27Z</time>
      </trkpt>
      <trkpt lat="45.64517" lon="2.88112">
        <ele>1133.03</ele>
        <time>2021-07-20T13:15:33Z</time>
      </trkpt>
      <trkpt lat="45.64508" lon="2.88116">
        <ele>1133.91</ele>
        <time>2021-07-20T13:15:39Z</time>
      </trkpt>
      <trkpt lat="45.64498" lon="2.88119">
        <ele>1135.42</ele>
        <time>2021-07-20T13:15:44Z</time>
      </trkpt>
      <trkpt lat="45.64487" lon="2.8812">
        <ele>1138.32</ele>
        <time>2021-07-20T13:15:49Z</time>
      </trkpt>
      <trkpt lat="45.64477" lon="2.88121">
        <ele>1139.64</ele>
        <time>2021-07-20T13:15:53Z</time>
      </trkpt>
      <trkpt lat="45.64468" lon="2.88123">
        <ele>1139.57</ele>
        <time>2021-07-20T13:15:57Z</time>
      </trkpt>
      <trkpt lat="45.6446" lon="2.8813">
        <ele>1138.02</ele>
        <time>2021-07-20T13:16:01Z</time>
      </trkpt>
      <trkpt lat="45.64451" lon="2.88137">
        <ele>1137.33</ele>
        <time>2021-07-20T13:16:05Z</time>
      </trkpt>
      <trkpt lat="45.64443" lon="2.88147">
        <ele>1137.97</ele>
        <time>2021-07-20T13:16:10Z</time>
      </trkpt>
      <trkpt lat="45.64436" lon="2.88156">
        <ele>1138.59</ele>
        <time>2021-07-20T13:16:14Z</time>
      </trkpt>
      <trkpt lat="45.64428" lon="2.88165">
        <ele>1141.26</ele>
        <time>2021-07-20T13:16:18Z</time>
      </trkpt>
      <trkpt lat="45.6442" lon="2.88173">
        <ele>1140.67</ele>
        <time>2021-07-20T13:16:22Z</time>
      </trkpt>
      <trkpt lat="45.64411" lon="2.8818">
        <ele>1140.32</ele>
        <time>2021-07-20T13:16:28Z</time>
      </trkpt>
      <trkpt lat="45.64401" lon="2.88184">
        <ele>1140.32</ele>
        <time>2021-07-20T13:16:34Z</time>
      </trkpt>
      <trkpt lat="45.64391" lon="2.88188">
        <ele>1139.42</ele>
        <time>2021-07-20T13:16:39Z</time>
      </trkpt>
      <trkpt lat="45.64381" lon="2.88189">
        <ele>1139.69</ele>
        <time>2021-07-20T13:16:43Z</time>
      </trkpt>
      <trkpt lat="45.64371" lon="2.88191">
        <ele>1137.06</ele>
        <time>2021-07-20T13:16:47Z</time>
      </trkpt>
      <trkpt lat="45.64361" lon="2.88195">
        <ele>1136.79</ele>
        <time>2021-07-20T13:16:51Z</time>
      </trkpt>
      <trkpt lat="45.64351" lon="2.88197">
        <ele>1137.42</ele>
        <time>2021-07-20T13:16:55Z</time>
      </trkpt>
      <trkpt lat="45.64343" lon="2.882">
        <ele>1135.31</ele>
        <time>2021-07-20T13:17:00Z</time>
      </trkpt>
      <trkpt lat="45.64333" lon="2.88199">
        <ele>1137.26</ele>
        <time>2021-07-20T13:17:08Z</time>
      </trkpt>
      <trkpt lat="45.64323" lon="2.88195">
        <ele>1140.67</ele>
        <time>2021-07-20T13:17:16Z</time>
      </trkpt>
      <trkpt lat="45.64312" lon="2.88192">
        <ele>1142.24</ele>
        <time>2021-07-20T13:17:21Z</time>
      </trkpt>
      <trkpt lat="45.64303" lon="2.88191">
        <ele>1141.16</ele>
        <time>2021-07-20T13:17:26Z</time>
      </trkpt>
      <trkpt lat="45.64293" lon="2.88188">
        <ele>1140.4</ele>
        <time>2021-07-20T13:17:32Z</time>
      </trkpt>
      <trkpt lat="45.64284" lon="2.88184">
        <ele>1142.19</ele>
        <time>2021-07-20T13:17:40Z</time>
      </trkpt>
      <trkpt lat="45.64275" lon="2.88184">
        <ele>1143.78</ele>
        <time>2021-07-20T13:17:46Z</time>
      </trkpt>
      <trkpt lat="45.64266" lon="2.88184">
        <ele>1143.07</ele>
        <time>2021-07-20T13:17:53Z</time>
      </trkpt>
      <trkpt lat="45.64257" lon="2.88178">
        <ele>1140.78</ele>
        <time>2021-07-20T13:18:00Z</time>
      </trkpt>
      <trkpt lat="45.64248" lon="2.88181">
        <ele>1141.85</ele>
        <time>2021-07-20T13:18:07Z</time>
      </trkpt>
      <trkpt lat="45.64239" lon="2.88182">
        <ele>1142.96</ele>
        <time>2021-07-20T13:18:13Z</time>
      </trkpt>
      <trkpt lat="45.6423" lon="2.88183">
        <ele>1140.65</ele>
        <time>2021-07-20T13:18:18Z</time>
      </trkpt>
      <trkpt lat="45.64219" lon="2.88183">
        <ele>1139.99</ele>
        <time>2021-07-20T13:18:25Z</time>
      </trkpt>
      <trkpt lat="45.6421" lon="2.88185">
        <ele>1140.11</ele>
        <time>2021-07-20T13:18:31Z</time>
      </trkpt>
      <trkpt lat="45.64201" lon="2.88187">
        <ele>1142.69</ele>
        <time>2021-07-20T13:18:37Z</time>
      </trkpt>
      <trkpt lat="45.64191" lon="2.88191">
        <ele>1145.72</ele>
        <time>2021-07-20T13:18:44Z</time>
      </trkpt>
      <trkpt lat="45.64182" lon="2.88193">
        <ele>1148.64</ele>
        <time>2021-07-20T13:18:51Z</time>
      </trkpt>
      <trkpt lat="45.64173" lon="2.88193">
        <ele>1151.58</ele>
        <time>2021-07-20T13:18:59Z</time>
      </trkpt>
      <trkpt lat="45.64163" lon="2.88195">
        <ele>1152.3</ele>
        <time>2021-07-20T13:19:07Z</time>
      </trkpt>
      <trkpt lat="45.64154" lon="2.88199">
        <ele>1154.67</ele>
        <time>2021-07-20T13:19:13Z</time>
      </trkpt>
      <trkpt lat="45.64144" lon="2.88198">
        <ele>1153.48</ele>
        <time>2021-07-20T13:19:20Z</time>
      </trkpt>
      <trkpt lat="45.64133" lon="2.88203">
        <ele>1152.82</ele>
        <time>2021-07-20T13:19:25Z</time>
      </trkpt>
      <trkpt lat="45.64124" lon="2.88206">
        <ele>1151.48</ele>
        <time>2021-07-20T13:19:29Z</time>
      </trkpt>
      <trkpt lat="45.64115" lon="2.88211">
        <ele>1154.2</ele>
        <time>2021-07-20T13:19:33Z</time>
      </trkpt>
      <trkpt lat="45.64106" lon="2.88216">
        <ele>1154.67</ele>
        <time>2021-07-20T13:19:37Z</time>
      </trkpt>
      <trkpt lat="45.64097" lon="2.88218">
        <ele>1152.15</ele>
        <time>2021-07-20T13:19:41Z</time>
      </trkpt>
      <trkpt lat="45.64088" lon="2.8822">
        <ele>1149.68</ele>
        <time>2021-07-20T13:19:46Z</time>
      </trkpt>
      <trkpt lat="45.64079" lon="2.88219">
        <ele>1152.5</ele>
        <time>2021-07-20T13:19:51Z</time>
      </trkpt>
      <trkpt lat="45.64069" lon="2.88223">
        <ele>1153.32</ele>
        <time>2021-07-20T13:19:56Z</time>
      </trkpt>
      <trkpt lat="45.6406" lon="2.88231">
        <ele>1151.11</ele>
        <time>2021-07-20T13:20:02Z</time>
      </trkpt>
      <trkpt lat="45.64052" lon="2.8824">
        <ele>1153.59</ele>
        <time>2021-07-20T13:20:07Z</time>
      </trkpt>
      <trkpt lat="45.64044" lon="2.88251">
        <ele>1153.07</ele>
        <time>2021-07-20T13:20:12Z</time>
      </trkpt>
      <trkpt lat="45.64038" lon="2.88263">
        <ele>1153.63</ele>
        <time>2021-07-20T13:20:17Z</time>
      </trkpt>
      <trkpt lat="45.64031" lon="2.88274">
        <ele>1154.47</ele>
        <time>2021-07-20T13:20:21Z</time>
      </trkpt>
      <trkpt lat="45.64024" lon="2.88287">
        <ele>1153.18</ele>
        <time>2021-07-20T13:20:25Z</time>
      </trkpt>
      <trkpt lat="45.64017" lon="2.88301">
        <ele>1156.32</ele>
        <time>2021-07-20T13:20:29Z</time>
      </trkpt>
      <trkpt lat="45.64012" lon="2.88314">
        <ele>1156.04</ele>
        <time>2021-07-20T13:20:33Z</time>
      </trkpt>
      <trkpt lat="45.64008" lon="2.88329">
        <ele>1157.52</ele>
        <time>2021-07-20T13:20:37Z</time>
      </trkpt>
      <trkpt lat="45.64002" lon="2.88344">
        <ele>1157.69</ele>
        <time>2021-07-20T13:20:41Z</time>
      </trkpt>
      <trkpt lat="45.63998" lon="2.88356">
        <ele>1157.78</ele>
        <time>2021-07-20T13:20:44Z</time>
      </trkpt>
      <trkpt lat="45.63994" lon="2.88369">
        <ele>1157.9</ele>
        <time>2021-07-20T13:20:48Z</time>
      </trkpt>
      <trkpt lat="45.63988" lon="2.88385">
        <ele>1157.69</ele>
        <time>2021-07-20T13:20:52Z</time>
      </trkpt>
      <trkpt lat="45.63985" lon="2.88398">
        <ele>1157.76</ele>
        <time>2021-07-20T13:20:55Z</time>
      </trkpt>
      <trkpt lat="45.63979" lon="2.8841">
        <ele>1156.84</ele>
        <time>2021-07-20T13:20:58Z</time>
      </trkpt>
      <trkpt lat="45.63974" lon="2.88422">
        <ele>1157.31</ele>
        <time>2021-07-20T13:21:01Z</time>
      </trkpt>
      <trkpt lat="45.6397" lon="2.88436">
        <ele>1158.65</ele>
        <time>2021-07-20T13:21:05Z</time>
      </trkpt>
      <trkpt lat="45.63964" lon="2.8845">
        <ele>1157.67</ele>
        <time>2021-07-20T13:21:09Z</time>
      </trkpt>
      <trkpt lat="45.6396" lon="2.88465">
        <ele>1159.58</ele>
        <time>2021-07-20T13:21:13Z</time>
      </trkpt>
      <trkpt lat="45.63955" lon="2.88479">
        <ele>1162.34</ele>
        <time>2021-07-20T13:21:17Z</time>
      </trkpt>
      <trkpt lat="45.6395" lon="2.88493">
        <ele>1163.23</ele>
        <time>2021-07-20T13:21:21Z</time>
      </trkpt>
      <trkpt lat="45.63945" lon="2.88506">
        <ele>1162.57</ele>
        <time>2021-07-20T13:21:25Z</time>
      </trkpt>
      <trkpt lat="45.6394" lon="2.8852">
        <ele>1162.64</ele>
        <time>2021-07-20T13:21:29Z</time>
      </trkpt>
      <trkpt lat="45.63936" lon="2.88532">
        <ele>1161.73</ele>
        <time>2021-07-20T13:21:32Z</time>
      </trkpt>
      <trkpt lat="45.63928" lon="2.88542">
        <ele>1160.52</ele>
        <time>2021-07-20T13:21:35Z</time>
      </trkpt>
      <trkpt lat="45.63923" lon="2.88555">
        <ele>1162.45</ele>
        <time>2021-07-20T13:21:39Z</time>
      </trkpt>
      <trkpt lat="45.63917" lon="2.88566">
        <ele>1163.75</ele>
        <time>2021-07-20T13:21:42Z</time>
      </trkpt>
      <trkpt lat="45.63912" lon="2.88582">
        <ele>1165.1</ele>
        <time>2021-07-20T13:21:46Z</time>
      </trkpt>
      <trkpt lat="45.63907" lon="2.88596">
        <ele>1163.94</ele>
        <time>2021-07-20T13:21:50Z</time>
      </trkpt>
      <trkpt lat="45.63901" lon="2.8861">
        <ele>1163.54</ele>
        <time>2021-07-20T13:21:54Z</time>
      </trkpt>
      <trkpt lat="45.63896" lon="2.88622">
        <ele>1164.17</ele>
        <time>2021-07-20T13:21:57Z</time>
      </trkpt>
      <trkpt lat="45.63893" lon="2.88635">
        <ele>1166.71</ele>
        <time>2021-07-20T13:22:00Z</time>
      </trkpt>
      <trkpt lat="45.63888" lon="2.88647">
        <ele>1165.76</ele>
        <time>2021-07-20T13:22:03Z</time>
      </trkpt>
      <trkpt lat="45.63882" lon="2.88656">
        <ele>1163.82</ele>
        <time>2021-07-20T13:22:06Z</time>
      </trkpt>
      <trkpt lat="45.63875" lon="2.88666">
        <ele>1161.28</ele>
        <time>2021-07-20T13:22:09Z</time>
      </trkpt>
      <trkpt lat="45.63868" lon="2.88675">
        <ele>1159.68</ele>
        <time>2021-07-20T13:22:12Z</time>
      </trkpt>
      <trkpt lat="45.63861" lon="2.88684">
        <ele>1158.63</ele>
        <time>2021-07-20T13:22:15Z</time>
      </trkpt>
      <trkpt lat="45.63854" lon="2.88696">
        <ele>1157.64</ele>
        <time>2021-07-20T13:22:18Z</time>
      </trkpt>
      <trkpt lat="45.63848" lon="2.88709">
        <ele>1158.53</ele>
        <time>2021-07-20T13:22:21Z</time>
      </trkpt>
      <trkpt lat="45.63842" lon="2.88723">
        <ele>1159.39</ele>
        <time>2021-07-20T13:22:24Z</time>
      </trkpt>
      <trkpt lat="45.63836" lon="2.88736">
        <ele>1159.08</ele>
        <time>2021-07-20T13:22:27Z</time>
      </trkpt>
      <trkpt lat="45.6383" lon="2.88749">
        <ele>1157.28</ele>
        <time>2021-07-20T13:22:30Z</time>
      </trkpt>
      <trkpt lat="45.63823" lon="2.88761">
        <ele>1156.88</ele>
        <time>2021-07-20T13:22:33Z</time>
      </trkpt>
      <trkpt lat="45.63819" lon="2.88775">
        <ele>1158.38</ele>
        <time>2021-07-20T13:22:36Z</time>
      </trkpt>
      <trkpt lat="45.6381" lon="2.88788">
        <ele>1157.17</ele>
        <time>2021-07-20T13:22:40Z</time>
      </trkpt>
      <trkpt lat="45.63801" lon="2.88794">
        <ele>1158.46</ele>
        <time>2021-07-20T13:22:43Z</time>
      </trkpt>
      <trkpt lat="45.63792" lon="2.88801">
        <ele>1160.17</ele>
        <time>2021-07-20T13:22:46Z</time>
      </trkpt>
      <trkpt lat="45.63781" lon="2.8881">
        <ele>1161.72</ele>
        <time>2021-07-20T13:22:49Z</time>
      </trkpt>
      <trkpt lat="45.63774" lon="2.8882">
        <ele>1163.61</ele>
        <time>2021-07-20T13:22:51Z</time>
      </trkpt>
      <trkpt lat="45.63769" lon="2.88831">
        <ele>1166.69</ele>
        <time>2021-07-20T13:22:54Z</time>
      </trkpt>
      <trkpt lat="45.63762" lon="2.88841">
        <ele>1168.77</ele>
        <time>2021-07-20T13:22:58Z</time>
      </trkpt>
      <trkpt lat="45.63754" lon="2.88847">
        <ele>1168.07</ele>
        <time>2021-07-20T13:24:59Z</time>
      </trkpt>
      <trkpt lat="45.63746" lon="2.88855">
        <ele>1170.12</ele>
        <time>2021-07-20T13:30:35Z</time>
      </trkpt>
      <trkpt lat="45.6374" lon="2.88867">
        <ele>1172.28</ele>
        <time>2021-07-20T13:30:40Z</time>
      </trkpt>
      <trkpt lat="45.63733" lon="2.88879">
        <ele>1173</ele>
        <time>2021-07-20T13:30:46Z</time>
      </trkpt>
      <trkpt lat="45.63726" lon="2.88889">
        <ele>1174.08</ele>
        <time>2021-07-20T13:30:52Z</time>
      </trkpt>
      <trkpt lat="45.63718" lon="2.88897">
        <ele>1169.54</ele>
        <time>2021-07-20T13:30:58Z</time>
      </trkpt>
      <trkpt lat="45.63711" lon="2.88909">
        <ele>1167.24</ele>
        <time>2021-07-20T13:31:04Z</time>
      </trkpt>
      <trkpt lat="45.63711" lon="2.88922">
        <ele>1166.96</ele>
        <time>2021-07-20T13:31:08Z</time>
      </trkpt>
      <trkpt lat="45.63703" lon="2.88929">
        <ele>1166.49</ele>
        <time>2021-07-20T13:31:12Z</time>
      </trkpt>
      <trkpt lat="45.63693" lon="2.88931">
        <ele>1166.97</ele>
        <time>2021-07-20T13:31:16Z</time>
      </trkpt>
      <trkpt lat="45.63683" lon="2.88937">
        <ele>1169.47</ele>
        <time>2021-07-20T13:31:21Z</time>
      </trkpt>
      <trkpt lat="45.63677" lon="2.88947">
        <ele>1170.75</ele>
        <time>2021-07-20T13:31:25Z</time>
      </trkpt>
      <trkpt lat="45.63673" lon="2.8896">
        <ele>1170.57</ele>
        <time>2021-07-20T13:31:29Z</time>
      </trkpt>
      <trkpt lat="45.63666" lon="2.88971">
        <ele>1169</ele>
        <time>2021-07-20T13:31:33Z</time>
      </trkpt>
      <trkpt lat="45.63657" lon="2.88967">
        <ele>1169.05</ele>
        <time>2021-07-20T13:31:38Z</time>
      </trkpt>
      <trkpt lat="45.63647" lon="2.88965">
        <ele>1171.44</ele>
        <time>2021-07-20T13:31:44Z</time>
      </trkpt>
      <trkpt lat="45.63637" lon="2.88964">
        <ele>1171.47</ele>
        <time>2021-07-20T13:31:48Z</time>
      </trkpt>
      <trkpt lat="45.63627" lon="2.88963">
        <ele>1170.28</ele>
        <time>2021-07-20T13:31:53Z</time>
      </trkpt>
      <trkpt lat="45.63619" lon="2.88954">
        <ele>1172.8</ele>
        <time>2021-07-20T13:31:58Z</time>
      </trkpt>
      <trkpt lat="45.63613" lon="2.88941">
        <ele>1172.15</ele>
        <time>2021-07-20T13:32:03Z</time>
      </trkpt>
      <trkpt lat="45.63606" lon="2.88931">
        <ele>1171.39</ele>
        <time>2021-07-20T13:32:08Z</time>
      </trkpt>
      <trkpt lat="45.63599" lon="2.88921">
        <ele>1172.56</ele>
        <time>2021-07-20T13:32:13Z</time>
      </trkpt>
      <trkpt lat="45.63592" lon="2.88912">
        <ele>1171.34</ele>
        <time>2021-07-20T13:32:18Z</time>
      </trkpt>
      <trkpt lat="45.63585" lon="2.88902">
        <ele>1172.4</ele>
        <time>2021-07-20T13:32:23Z</time>
      </trkpt>
      <trkpt lat="45.63578" lon="2.88893">
        <ele>1173.06</ele>
        <time>2021-07-20T13:32:28Z</time>
      </trkpt>
      <trkpt lat="45.63569" lon="2.88886">
        <ele>1175.51</ele>
        <time>2021-07-20T13:32:33Z</time>
      </trkpt>
      <trkpt lat="45.63561" lon="2.8888">
        <ele>1177.9</ele>
        <time>2021-07-20T13:32:39Z</time>
      </trkpt>
      <trkpt lat="45.63552" lon="2.88873">
        <ele>1178.01</ele>
        <time>2021-07-20T13:32:44Z</time>
      </trkpt>
      <trkpt lat="45.63544" lon="2.88864">
        <ele>1177.08</ele>
        <time>2021-07-20T13:32:49Z</time>
      </trkpt>
      <trkpt lat="45.63535" lon="2.88861">
        <ele>1174.85</ele>
        <time>2021-07-20T13:32:53Z</time>
      </trkpt>
      <trkpt lat="45.63525" lon="2.88865">
        <ele>1173.65</ele>
        <time>2021-07-20T13:32:57Z</time>
      </trkpt>
      <trkpt lat="45.63516" lon="2.88873">
        <ele>1173.84</ele>
        <time>2021-07-20T13:33:01Z</time>
      </trkpt>
      <trkpt lat="45.63508" lon="2.8888">
        <ele>1174.05</ele>
        <time>2021-07-20T13:33:05Z</time>
      </trkpt>
      <trkpt lat="45.63499" lon="2.88882">
        <ele>1175.94</ele>
        <time>2021-07-20T14:02:19Z</time>
      </trkpt>
      <trkpt lat="45.63491" lon="2.8889">
        <ele>1174.41</ele>
        <time>2021-07-20T14:02:29Z</time>
      </trkpt>
      <trkpt lat="45.63483" lon="2.88898">
        <ele>1174.45</ele>
        <time>2021-07-20T14:02:36Z</time>
      </trkpt>
      <trkpt lat="45.63472" lon="2.889">
        <ele>1172.56</ele>
        <time>2021-07-20T14:02:50Z</time>
      </trkpt>
      <trkpt lat="45.63463" lon="2.88906">
        <ele>1171.42</ele>
        <time>2021-07-20T14:02:54Z</time>
      </trkpt>
      <trkpt lat="45.63453" lon="2.8891">
        <ele>1171.86</ele>
        <time>2021-07-20T14:02:59Z</time>
      </trkpt>
      <trkpt lat="45.63443" lon="2.88912">
        <ele>1172.81</ele>
        <time>2021-07-20T14:03:05Z</time>
      </trkpt>
      <trkpt lat="45.63452" lon="2.88914">
        <ele>1176.82</ele>
        <time>2021-07-20T14:03:26Z</time>
      </trkpt>
      <trkpt lat="45.63458" lon="2.88925">
        <ele>1176.05</ele>
        <time>2021-07-20T14:03:32Z</time>
      </trkpt>
      <trkpt lat="45.63455" lon="2.8894">
        <ele>1174.45</ele>
        <time>2021-07-20T14:03:37Z</time>
      </trkpt>
      <trkpt lat="45.63452" lon="2.88954">
        <ele>1173.03</ele>
        <time>2021-07-20T14:03:40Z</time>
      </trkpt>
      <trkpt lat="45.63449" lon="2.88969">
        <ele>1172.1</ele>
        <time>2021-07-20T14:03:43Z</time>
      </trkpt>
      <trkpt lat="45.63444" lon="2.88983">
        <ele>1171.04</ele>
        <time>2021-07-20T14:03:46Z</time>
      </trkpt>
      <trkpt lat="45.63441" lon="2.88996">
        <ele>1170.43</ele>
        <time>2021-07-20T14:03:52Z</time>
      </trkpt>
      <trkpt lat="45.63449" lon="2.89005">
        <ele>1171.2</ele>
        <time>2021-07-20T14:03:59Z</time>
      </trkpt>
      <trkpt lat="45.63458" lon="2.89014">
        <ele>1172.19</ele>
        <time>2021-07-20T14:04:04Z</time>
      </trkpt>
      <trkpt lat="45.63462" lon="2.89026">
        <ele>1171.93</ele>
        <time>2021-07-20T14:04:07Z</time>
      </trkpt>
      <trkpt lat="45.63462" lon="2.89043">
        <ele>1171.41</ele>
        <time>2021-07-20T14:04:10Z</time>
      </trkpt>
      <trkpt lat="45.6346" lon="2.89061">
        <ele>1171.54</ele>
        <time>2021-07-20T14:04:12Z</time>
      </trkpt>
      <trkpt lat="45.63454" lon="2.89073">
        <ele>1169.63</ele>
        <time>2021-07-20T14:04:14Z</time>
      </trkpt>
      <trkpt lat="45.63451" lon="2.89091">
        <ele>1168.82</ele>
        <time>2021-07-20T14:04:16Z</time>
      </trkpt>
      <trkpt lat="45.63448" lon="2.89108">
        <ele>1167.84</ele>
        <time>2021-07-20T14:04:18Z</time>
      </trkpt>
      <trkpt lat="45.63444" lon="2.89122">
        <ele>1165.58</ele>
        <time>2021-07-20T14:04:20Z</time>
      </trkpt>
      <trkpt lat="45.63442" lon="2.89135">
        <ele>1163.85</ele>
        <time>2021-07-20T14:04:22Z</time>
      </trkpt>
      <trkpt lat="45.63446" lon="2.89151">
        <ele>1162.48</ele>
        <time>2021-07-20T14:04:24Z</time>
      </trkpt>
      <trkpt lat="45.63454" lon="2.89167">
        <ele>1160.89</ele>
        <time>2021-07-20T14:04:26Z</time>
      </trkpt>
      <trkpt lat="45.63466" lon="2.8918">
        <ele>1159.43</ele>
        <time>2021-07-20T14:04:28Z</time>
      </trkpt>
      <trkpt lat="45.63478" lon="2.89194">
        <ele>1157.88</ele>
        <time>2021-07-20T14:04:30Z</time>
      </trkpt>
      <trkpt lat="45.6349" lon="2.89211">
        <ele>1155.49</ele>
        <time>2021-07-20T14:04:32Z</time>
      </trkpt>
      <trkpt lat="45.63503" lon="2.89229">
        <ele>1154.55</ele>
        <time>2021-07-20T14:04:34Z</time>
      </trkpt>
      <trkpt lat="45.63515" lon="2.89246">
        <ele>1153.23</ele>
        <time>2021-07-20T14:04:36Z</time>
      </trkpt>
      <trkpt lat="45.63527" lon="2.89264">
        <ele>1152.23</ele>
        <time>2021-07-20T14:04:38Z</time>
      </trkpt>
      <trkpt lat="45.63534" lon="2.89274">
        <ele>1151.83</ele>
        <time>2021-07-20T14:04:39Z</time>
      </trkpt>
      <trkpt lat="45.63545" lon="2.8929">
        <ele>1151.24</ele>
        <time>2021-07-20T14:04:41Z</time>
      </trkpt>
      <trkpt lat="45.63556" lon="2.89307">
        <ele>1150.75</ele>
        <time>2021-07-20T14:04:43Z</time>
      </trkpt>
      <trkpt lat="45.63567" lon="2.89322">
        <ele>1149.62</ele>
        <time>2021-07-20T14:04:45Z</time>
      </trkpt>
      <trkpt lat="45.6358" lon="2.89338">
        <ele>1147.67</ele>
        <time>2021-07-20T14:04:47Z</time>
      </trkpt>
      <trkpt lat="45.6359" lon="2.89353">
        <ele>1147.44</ele>
        <time>2021-07-20T14:04:49Z</time>
      </trkpt>
      <trkpt lat="45.636" lon="2.89368">
        <ele>1146.6</ele>
        <time>2021-07-20T14:04:51Z</time>
      </trkpt>
      <trkpt lat="45.63608" lon="2.89379">
        <ele>1146.12</ele>
        <time>2021-07-20T14:04:53Z</time>
      </trkpt>
      <trkpt lat="45.63613" lon="2.89392">
        <ele>1146.11</ele>
        <time>2021-07-20T14:04:57Z</time>
      </trkpt>
      <trkpt lat="45.63607" lon="2.89406">
        <ele>1146.05</ele>
        <time>2021-07-20T14:05:13Z</time>
      </trkpt>
      <trkpt lat="45.63598" lon="2.89413">
        <ele>1146.08</ele>
        <time>2021-07-20T14:05:17Z</time>
      </trkpt>
      <trkpt lat="45.63588" lon="2.8942">
        <ele>1145.97</ele>
        <time>2021-07-20T14:05:21Z</time>
      </trkpt>
      <trkpt lat="45.63578" lon="2.89429">
        <ele>1144.1</ele>
        <time>2021-07-20T14:05:25Z</time>
      </trkpt>
      <trkpt lat="45.63569" lon="2.89436">
        <ele>1143.11</ele>
        <time>2021-07-20T14:05:28Z</time>
      </trkpt>
      <trkpt lat="45.6356" lon="2.89444">
        <ele>1142.77</ele>
        <time>2021-07-20T14:05:31Z</time>
      </trkpt>
      <trkpt lat="45.63549" lon="2.89453">
        <ele>1141.38</ele>
        <time>2021-07-20T14:05:34Z</time>
      </trkpt>
      <trkpt lat="45.63539" lon="2.89461">
        <ele>1140.72</ele>
        <time>2021-07-20T14:05:37Z</time>
      </trkpt>
      <trkpt lat="45.63528" lon="2.8947">
        <ele>1139.62</ele>
        <time>2021-07-20T14:05:40Z</time>
      </trkpt>
      <trkpt lat="45.63518" lon="2.89477">
        <ele>1138.48</ele>
        <time>2021-07-20T14:05:42Z</time>
      </trkpt>
      <trkpt lat="45.63508" lon="2.89486">
        <ele>1137.42</ele>
        <time>2021-07-20T14:05:44Z</time>
      </trkpt>
      <trkpt lat="45.63497" lon="2.89494">
        <ele>1135.81</ele>
        <time>2021-07-20T14:05:46Z</time>
      </trkpt>
      <trkpt lat="45.63487" lon="2.89501">
        <ele>1133.58</ele>
        <time>2021-07-20T14:05:48Z</time>
      </trkpt>
      <trkpt lat="45.63478" lon="2.89507">
        <ele>1132.37</ele>
        <time>2021-07-20T14:05:50Z</time>
      </trkpt>
      <trkpt lat="45.63467" lon="2.89513">
        <ele>1130.67</ele>
        <time>2021-07-20T14:05:52Z</time>
      </trkpt>
      <trkpt lat="45.63456" lon="2.89518">
        <ele>1128.91</ele>
        <time>2021-07-20T14:05:54Z</time>
      </trkpt>
      <trkpt lat="45.63443" lon="2.89523">
        <ele>1127.39</ele>
        <time>2021-07-20T14:05:56Z</time>
      </trkpt>
      <trkpt lat="45.63429" lon="2.89529">
        <ele>1125.84</ele>
        <time>2021-07-20T14:05:58Z</time>
      </trkpt>
      <trkpt lat="45.63414" lon="2.89533">
        <ele>1123.67</ele>
        <time>2021-07-20T14:06:00Z</time>
      </trkpt>
      <trkpt lat="45.634" lon="2.8954">
        <ele>1121.56</ele>
        <time>2021-07-20T14:06:02Z</time>
      </trkpt>
      <trkpt lat="45.63389" lon="2.89551">
        <ele>1119.4</ele>
        <time>2021-07-20T14:06:04Z</time>
      </trkpt>
      <trkpt lat="45.63377" lon="2.8957">
        <ele>1116.7</ele>
        <time>2021-07-20T14:06:06Z</time>
      </trkpt>
      <trkpt lat="45.63371" lon="2.89581">
        <ele>1115.13</ele>
        <time>2021-07-20T14:06:07Z</time>
      </trkpt>
      <trkpt lat="45.63365" lon="2.89592">
        <ele>1114.04</ele>
        <time>2021-07-20T14:06:08Z</time>
      </trkpt>
      <trkpt lat="45.63359" lon="2.89604">
        <ele>1113.41</ele>
        <time>2021-07-20T14:06:09Z</time>
      </trkpt>
      <trkpt lat="45.63352" lon="2.89617">
        <ele>1112.02</ele>
        <time>2021-07-20T14:06:10Z</time>
      </trkpt>
      <trkpt lat="45.63345" lon="2.89629">
        <ele>1111.07</ele>
        <time>2021-07-20T14:06:11Z</time>
      </trkpt>
      <trkpt lat="45.63338" lon="2.89642">
        <ele>1110.31</ele>
        <time>2021-07-20T14:06:12Z</time>
      </trkpt>
      <trkpt lat="45.6333" lon="2.89656">
        <ele>1109.26</ele>
        <time>2021-07-20T14:06:13Z</time>
      </trkpt>
      <trkpt lat="45.63323" lon="2.89668">
        <ele>1108.49</ele>
        <time>2021-07-20T14:06:14Z</time>
      </trkpt>
      <trkpt lat="45.63317" lon="2.89679">
        <ele>1107.83</ele>
        <time>2021-07-20T14:06:15Z</time>
      </trkpt>
      <trkpt lat="45.6331" lon="2.89689">
        <ele>1106.56</ele>
        <time>2021-07-20T14:06:16Z</time>
      </trkpt>
      <trkpt lat="45.633" lon="2.89703">
        <ele>1105.19</ele>
        <time>2021-07-20T14:06:18Z</time>
      </trkpt>
      <trkpt lat="45.63291" lon="2.8971">
        <ele>1103.63</ele>
        <time>2021-07-20T14:06:20Z</time>
      </trkpt>
      <trkpt lat="45.63279" lon="2.89717">
        <ele>1101.6</ele>
        <time>2021-07-20T14:06:22Z</time>
      </trkpt>
      <trkpt lat="45.63269" lon="2.89725">
        <ele>1100.43</ele>
        <time>2021-07-20T14:06:24Z</time>
      </trkpt>
      <trkpt lat="45.6326" lon="2.89734">
        <ele>1099.85</ele>
        <time>2021-07-20T14:06:26Z</time>
      </trkpt>
      <trkpt lat="45.6325" lon="2.89744">
        <ele>1099.27</ele>
        <time>2021-07-20T14:06:28Z</time>
      </trkpt>
      <trkpt lat="45.63241" lon="2.89757">
        <ele>1097.4</ele>
        <time>2021-07-20T14:06:30Z</time>
      </trkpt>
      <trkpt lat="45.63232" lon="2.8977">
        <ele>1095.23</ele>
        <time>2021-07-20T14:06:32Z</time>
      </trkpt>
      <trkpt lat="45.63223" lon="2.89786">
        <ele>1093.98</ele>
        <time>2021-07-20T14:06:34Z</time>
      </trkpt>
      <trkpt lat="45.63216" lon="2.89801">
        <ele>1091.88</ele>
        <time>2021-07-20T14:06:36Z</time>
      </trkpt>
      <trkpt lat="45.63209" lon="2.89818">
        <ele>1089.98</ele>
        <time>2021-07-20T14:06:38Z</time>
      </trkpt>
      <trkpt lat="45.63201" lon="2.89836">
        <ele>1088.17</ele>
        <time>2021-07-20T14:06:40Z</time>
      </trkpt>
      <trkpt lat="45.63193" lon="2.89857">
        <ele>1086.15</ele>
        <time>2021-07-20T14:06:42Z</time>
      </trkpt>
      <trkpt lat="45.63185" lon="2.89878">
        <ele>1083.98</ele>
        <time>2021-07-20T14:06:44Z</time>
      </trkpt>
      <trkpt lat="45.63176" lon="2.89896">
        <ele>1081.97</ele>
        <time>2021-07-20T14:06:46Z</time>
      </trkpt>
      <trkpt lat="45.63166" lon="2.89913">
        <ele>1080.14</ele>
        <time>2021-07-20T14:06:48Z</time>
      </trkpt>
      <trkpt lat="45.63157" lon="2.89927">
        <ele>1078.42</ele>
        <time>2021-07-20T14:06:50Z</time>
      </trkpt>
      <trkpt lat="45.63152" lon="2.89941">
        <ele>1077.26</ele>
        <time>2021-07-20T14:06:52Z</time>
      </trkpt>
      <trkpt lat="45.63145" lon="2.89955">
        <ele>1075.8</ele>
        <time>2021-07-20T14:06:54Z</time>
      </trkpt>
      <trkpt lat="45.6314" lon="2.89973">
        <ele>1073.89</ele>
        <time>2021-07-20T14:06:56Z</time>
      </trkpt>
      <trkpt lat="45.63137" lon="2.89994">
        <ele>1072.37</ele>
        <time>2021-07-20T14:06:58Z</time>
      </trkpt>
      <trkpt lat="45.63136" lon="2.90014">
        <ele>1071.81</ele>
        <time>2021-07-20T14:07:00Z</time>
      </trkpt>
      <trkpt lat="45.63138" lon="2.90035">
        <ele>1071.3</ele>
        <time>2021-07-20T14:07:02Z</time>
      </trkpt>
      <trkpt lat="45.63142" lon="2.90054">
        <ele>1070.13</ele>
        <time>2021-07-20T14:07:04Z</time>
      </trkpt>
      <trkpt lat="45.63144" lon="2.90067">
        <ele>1069.45</ele>
        <time>2021-07-20T14:07:06Z</time>
      </trkpt>
      <trkpt lat="45.6314" lon="2.90078">
        <ele>1071.22</ele>
        <time>2021-07-20T14:07:44Z</time>
      </trkpt>
      <trkpt lat="45.63137" lon="2.90093">
        <ele>1069.44</ele>
        <time>2021-07-20T14:07:48Z</time>
      </trkpt>
      <trkpt lat="45.63132" lon="2.90104">
        <ele>1069.24</ele>
        <time>2021-07-20T14:07:50Z</time>
      </trkpt>
      <trkpt lat="45.63123" lon="2.90116">
        <ele>1067.83</ele>
        <time>2021-07-20T14:07:52Z</time>
      </trkpt>
      <trkpt lat="45.63113" lon="2.90128">
        <ele>1065.74</ele>
        <time>2021-07-20T14:07:55Z</time>
      </trkpt>
      <trkpt lat="45.63105" lon="2.90136">
        <ele>1064.75</ele>
        <time>2021-07-20T14:07:57Z</time>
      </trkpt>
      <trkpt lat="45.63097" lon="2.90146">
        <ele>1063.26</ele>
        <time>2021-07-20T14:08:02Z</time>
      </trkpt>
      <trkpt lat="45.63085" lon="2.90158">
        <ele>1062.68</ele>
        <time>2021-07-20T14:08:04Z</time>
      </trkpt>
      <trkpt lat="45.63076" lon="2.90167">
        <ele>1060.96</ele>
        <time>2021-07-20T14:08:07Z</time>
      </trkpt>
      <trkpt lat="45.63067" lon="2.90176">
        <ele>1058.87</ele>
        <time>2021-07-20T14:08:10Z</time>
      </trkpt>
      <trkpt lat="45.63059" lon="2.90184">
        <ele>1057.05</ele>
        <time>2021-07-20T14:08:13Z</time>
      </trkpt>
      <trkpt lat="45.63051" lon="2.90195">
        <ele>1055.77</ele>
        <time>2021-07-20T14:08:17Z</time>
      </trkpt>
      <trkpt lat="45.63042" lon="2.90203">
        <ele>1054.1</ele>
        <time>2021-07-20T14:08:19Z</time>
      </trkpt>
      <trkpt lat="45.63034" lon="2.90209">
        <ele>1055.42</ele>
        <time>2021-07-20T14:08:25Z</time>
      </trkpt>
      <trkpt lat="45.6303" lon="2.90221">
        <ele>1057.29</ele>
        <time>2021-07-20T14:08:36Z</time>
      </trkpt>
      <trkpt lat="45.63021" lon="2.90229">
        <ele>1057.9</ele>
        <time>2021-07-20T14:08:55Z</time>
      </trkpt>
      <trkpt lat="45.63017" lon="2.90241">
        <ele>1057.91</ele>
        <time>2021-07-20T14:09:02Z</time>
      </trkpt>
      <trkpt lat="45.63019" lon="2.90254">
        <ele>1061.61</ele>
        <time>2021-07-20T14:09:08Z</time>
      </trkpt>
      <trkpt lat="45.63022" lon="2.90268">
        <ele>1061.63</ele>
        <time>2021-07-20T14:09:13Z</time>
      </trkpt>
      <trkpt lat="45.63026" lon="2.90281">
        <ele>1060.47</ele>
        <time>2021-07-20T14:09:20Z</time>
      </trkpt>
      <trkpt lat="45.63032" lon="2.90294">
        <ele>1061.03</ele>
        <time>2021-07-20T14:09:26Z</time>
      </trkpt>
      <trkpt lat="45.63038" lon="2.90307">
        <ele>1058.4</ele>
        <time>2021-07-20T14:09:32Z</time>
      </trkpt>
      <trkpt lat="45.6304" lon="2.90321">
        <ele>1058.74</ele>
        <time>2021-07-20T14:09:38Z</time>
      </trkpt>
      <trkpt lat="45.63037" lon="2.90333">
        <ele>1059.16</ele>
        <time>2021-07-20T14:09:48Z</time>
      </trkpt>
      <trkpt lat="45.63039" lon="2.90347">
        <ele>1062.66</ele>
        <time>2021-07-20T14:10:02Z</time>
      </trkpt>
      <trkpt lat="45.63043" lon="2.90359">
        <ele>1063.5</ele>
        <time>2021-07-20T14:10:15Z</time>
      </trkpt>
      <trkpt lat="45.63045" lon="2.90374">
        <ele>1062.66</ele>
        <time>2021-07-20T14:10:21Z</time>
      </trkpt>
      <trkpt lat="45.63047" lon="2.90389">
        <ele>1061.57</ele>
        <time>2021-07-20T14:10:26Z</time>
      </trkpt>
      <trkpt lat="45.63048" lon="2.90404">
        <ele>1062.21</ele>
        <time>2021-07-20T14:10:30Z</time>
      </trkpt>
      <trkpt lat="45.63052" lon="2.9042">
        <ele>1063.8</ele>
        <time>2021-07-20T14:10:34Z</time>
      </trkpt>
      <trkpt lat="45.63055" lon="2.90435">
        <ele>1063.58</ele>
        <time>2021-07-20T14:10:38Z</time>
      </trkpt>
      <trkpt lat="45.63058" lon="2.9045">
        <ele>1062.93</ele>
        <time>2021-07-20T14:10:43Z</time>
      </trkpt>
      <trkpt lat="45.63061" lon="2.90462">
        <ele>1063.46</ele>
        <time>2021-07-20T14:10:48Z</time>
      </trkpt>
      <trkpt lat="45.63065" lon="2.90474">
        <ele>1062.06</ele>
        <time>2021-07-20T14:10:53Z</time>
      </trkpt>
      <trkpt lat="45.63067" lon="2.90488">
        <ele>1059.62</ele>
        <time>2021-07-20T14:10:58Z</time>
      </trkpt>
      <trkpt lat="45.63069" lon="2.90501">
        <ele>1058.45</ele>
        <time>2021-07-20T14:11:03Z</time>
      </trkpt>
      <trkpt lat="45.63074" lon="2.90513">
        <ele>1056.86</ele>
        <time>2021-07-20T14:11:07Z</time>
      </trkpt>
      <trkpt lat="45.63077" lon="2.90528">
        <ele>1054.85</ele>
        <time>2021-07-20T14:11:11Z</time>
      </trkpt>
      <trkpt lat="45.6308" lon="2.90541">
        <ele>1053.7</ele>
        <time>2021-07-20T14:11:15Z</time>
      </trkpt>
      <trkpt lat="45.63084" lon="2.90555">
        <ele>1055.13</ele>
        <time>2021-07-20T14:11:19Z</time>
      </trkpt>
      <trkpt lat="45.63088" lon="2.90568">
        <ele>1059.88</ele>
        <time>2021-07-20T14:11:24Z</time>
      </trkpt>
      <trkpt lat="45.63091" lon="2.9058">
        <ele>1060.78</ele>
        <time>2021-07-20T14:11:29Z</time>
      </trkpt>
      <trkpt lat="45.63096" lon="2.90592">
        <ele>1059.35</ele>
        <time>2021-07-20T14:11:33Z</time>
      </trkpt>
      <trkpt lat="45.631" lon="2.90605">
        <ele>1055.78</ele>
        <time>2021-07-20T14:11:36Z</time>
      </trkpt>
      <trkpt lat="45.63103" lon="2.90619">
        <ele>1054.28</ele>
        <time>2021-07-20T14:11:39Z</time>
      </trkpt>
      <trkpt lat="45.63108" lon="2.90636">
        <ele>1052.12</ele>
        <time>2021-07-20T14:11:42Z</time>
      </trkpt>
      <trkpt lat="45.63115" lon="2.90647">
        <ele>1051.17</ele>
        <time>2021-07-20T14:11:45Z</time>
      </trkpt>
      <trkpt lat="45.63124" lon="2.90656">
        <ele>1050.68</ele>
        <time>2021-07-20T14:11:48Z</time>
      </trkpt>
      <trkpt lat="45.63135" lon="2.90666">
        <ele>1049.28</ele>
        <time>2021-07-20T14:11:53Z</time>
      </trkpt>
      <trkpt lat="45.63144" lon="2.90674">
        <ele>1048.79</ele>
        <time>2021-07-20T14:11:54Z</time>
      </trkpt>
      <trkpt lat="45.63152" lon="2.9068">
        <ele>1048.09</ele>
        <time>2021-07-20T14:11:56Z</time>
      </trkpt>
      <trkpt lat="45.6316" lon="2.90686">
        <ele>1047.74</ele>
        <time>2021-07-20T14:11:58Z</time>
      </trkpt>
      <trkpt lat="45.63168" lon="2.90697">
        <ele>1045.69</ele>
        <time>2021-07-20T14:12:01Z</time>
      </trkpt>
      <trkpt lat="45.63176" lon="2.90705">
        <ele>1043.98</ele>
        <time>2021-07-20T14:12:04Z</time>
      </trkpt>
      <trkpt lat="45.63185" lon="2.90714">
        <ele>1042.24</ele>
        <time>2021-07-20T14:12:07Z</time>
      </trkpt>
      <trkpt lat="45.63199" lon="2.90724">
        <ele>1041.19</ele>
        <time>2021-07-20T14:12:10Z</time>
      </trkpt>
      <trkpt lat="45.63211" lon="2.90732">
        <ele>1041.2</ele>
        <time>2021-07-20T14:12:11Z</time>
      </trkpt>
      <trkpt lat="45.63219" lon="2.9074">
        <ele>1040.84</ele>
        <time>2021-07-20T14:12:12Z</time>
      </trkpt>
      <trkpt lat="45.63227" lon="2.90751">
        <ele>1041.85</ele>
        <time>2021-07-20T14:12:14Z</time>
      </trkpt>
      <trkpt lat="45.63234" lon="2.90762">
        <ele>1042.39</ele>
        <time>2021-07-20T14:12:16Z</time>
      </trkpt>
      <trkpt lat="45.63243" lon="2.9077">
        <ele>1041.62</ele>
        <time>2021-07-20T14:12:18Z</time>
      </trkpt>
      <trkpt lat="45.63249" lon="2.9078">
        <ele>1040.79</ele>
        <time>2021-07-20T14:12:20Z</time>
      </trkpt>
      <trkpt lat="45.63253" lon="2.90795">
        <ele>1039.37</ele>
        <time>2021-07-20T14:12:23Z</time>
      </trkpt>
      <trkpt lat="45.63258" lon="2.90811">
        <ele>1038.01</ele>
        <time>2021-07-20T14:12:26Z</time>
      </trkpt>
      <trkpt lat="45.6326" lon="2.90824">
        <ele>1037.92</ele>
        <time>2021-07-20T14:12:28Z</time>
      </trkpt>
      <trkpt lat="45.63263" lon="2.90842">
        <ele>1037.49</ele>
        <time>2021-07-20T14:12:31Z</time>
      </trkpt>
      <trkpt lat="45.63264" lon="2.90856">
        <ele>1037.73</ele>
        <time>2021-07-20T14:12:34Z</time>
      </trkpt>
      <trkpt lat="45.63263" lon="2.9087">
        <ele>1036.88</ele>
        <time>2021-07-20T14:12:37Z</time>
      </trkpt>
      <trkpt lat="45.63264" lon="2.90886">
        <ele>1037.19</ele>
        <time>2021-07-20T14:12:40Z</time>
      </trkpt>
      <trkpt lat="45.63268" lon="2.90899">
        <ele>1036.67</ele>
        <time>2021-07-20T14:12:44Z</time>
      </trkpt>
      <trkpt lat="45.63274" lon="2.90909">
        <ele>1039.34</ele>
        <time>2021-07-20T14:13:00Z</time>
      </trkpt>
      <trkpt lat="45.63281" lon="2.90919">
        <ele>1040.07</ele>
        <time>2021-07-20T14:13:15Z</time>
      </trkpt>
      <trkpt lat="45.63285" lon="2.90931">
        <ele>1035.38</ele>
        <time>2021-07-20T14:14:00Z</time>
      </trkpt>
      <trkpt lat="45.63294" lon="2.90942">
        <ele>1034.53</ele>
        <time>2021-07-20T14:14:18Z</time>
      </trkpt>
      <trkpt lat="45.63302" lon="2.90949">
        <ele>1034.92</ele>
        <time>2021-07-20T14:14:21Z</time>
      </trkpt>
      <trkpt lat="45.63311" lon="2.90955">
        <ele>1035.28</ele>
        <time>2021-07-20T14:14:25Z</time>
      </trkpt>
      <trkpt lat="45.63317" lon="2.90965">
        <ele>1034.6</ele>
        <time>2021-07-20T14:21:36Z</time>
      </trkpt>
      <trkpt lat="45.63325" lon="2.90977">
        <ele>1032.95</ele>
        <time>2021-07-20T14:21:40Z</time>
      </trkpt>
      <trkpt lat="45.63323" lon="2.90992">
        <ele>1033.26</ele>
        <time>2021-07-20T14:21:43Z</time>
      </trkpt>
      <trkpt lat="45.63326" lon="2.91005">
        <ele>1034.24</ele>
        <time>2021-07-20T14:21:46Z</time>
      </trkpt>
      <trkpt lat="45.63327" lon="2.91019">
        <ele>1034.86</ele>
        <time>2021-07-20T14:21:49Z</time>
      </trkpt>
      <trkpt lat="45.63331" lon="2.91033">
        <ele>1034.9</ele>
        <time>2021-07-20T14:21:52Z</time>
      </trkpt>
      <trkpt lat="45.63335" lon="2.91045">
        <ele>1033.67</ele>
        <time>2021-07-20T14:21:55Z</time>
      </trkpt>
      <trkpt lat="45.63337" lon="2.9106">
        <ele>1032.87</ele>
        <time>2021-07-20T14:21:58Z</time>
      </trkpt>
      <trkpt lat="45.63338" lon="2.91074">
        <ele>1032.55</ele>
        <time>2021-07-20T14:22:01Z</time>
      </trkpt>
      <trkpt lat="45.63338" lon="2.91087">
        <ele>1032.92</ele>
        <time>2021-07-20T14:22:04Z</time>
      </trkpt>
      <trkpt lat="45.63335" lon="2.91103">
        <ele>1031.94</ele>
        <time>2021-07-20T14:22:08Z</time>
      </trkpt>
      <trkpt lat="45.63337" lon="2.91117">
        <ele>1032.01</ele>
        <time>2021-07-20T14:22:11Z</time>
      </trkpt>
      <trkpt lat="45.63339" lon="2.91132">
        <ele>1033.33</ele>
        <time>2021-07-20T14:22:14Z</time>
      </trkpt>
      <trkpt lat="45.63342" lon="2.91149">
        <ele>1032.89</ele>
        <time>2021-07-20T14:22:17Z</time>
      </trkpt>
      <trkpt lat="45.63345" lon="2.91164">
        <ele>1031.97</ele>
        <time>2021-07-20T14:22:20Z</time>
      </trkpt>
      <trkpt lat="45.63348" lon="2.91179">
        <ele>1032.86</ele>
        <time>2021-07-20T14:22:23Z</time>
      </trkpt>
      <trkpt lat="45.63352" lon="2.91196">
        <ele>1031.92</ele>
        <time>2021-07-20T14:22:26Z</time>
      </trkpt>
      <trkpt lat="45.63357" lon="2.91211">
        <ele>1033.49</ele>
        <time>2021-07-20T14:22:29Z</time>
      </trkpt>
      <trkpt lat="45.63362" lon="2.91228">
        <ele>1032.39</ele>
        <time>2021-07-20T14:22:32Z</time>
      </trkpt>
      <trkpt lat="45.63366" lon="2.91244">
        <ele>1029.46</ele>
        <time>2021-07-20T14:22:35Z</time>
      </trkpt>
      <trkpt lat="45.63367" lon="2.9126">
        <ele>1027.56</ele>
        <time>2021-07-20T14:22:38Z</time>
      </trkpt>
      <trkpt lat="45.63367" lon="2.91278">
        <ele>1027.76</ele>
        <time>2021-07-20T14:22:41Z</time>
      </trkpt>
      <trkpt lat="45.63372" lon="2.91297">
        <ele>1027.35</ele>
        <time>2021-07-20T14:22:44Z</time>
      </trkpt>
      <trkpt lat="45.63376" lon="2.91311">
        <ele>1027.45</ele>
        <time>2021-07-20T14:22:46Z</time>
      </trkpt>
      <trkpt lat="45.63379" lon="2.91326">
        <ele>1029.15</ele>
        <time>2021-07-20T14:22:49Z</time>
      </trkpt>
      <trkpt lat="45.6338" lon="2.91342">
        <ele>1029.27</ele>
        <time>2021-07-20T14:22:51Z</time>
      </trkpt>
      <trkpt lat="45.63384" lon="2.91355">
        <ele>1030.35</ele>
        <time>2021-07-20T14:22:53Z</time>
      </trkpt>
      <trkpt lat="45.63387" lon="2.91368">
        <ele>1029.26</ele>
        <time>2021-07-20T14:22:55Z</time>
      </trkpt>
      <trkpt lat="45.63387" lon="2.91384">
        <ele>1027.6</ele>
        <time>2021-07-20T14:22:57Z</time>
      </trkpt>
      <trkpt lat="45.63395" lon="2.91399">
        <ele>1025.94</ele>
        <time>2021-07-20T14:22:59Z</time>
      </trkpt>
      <trkpt lat="45.63398" lon="2.91411">
        <ele>1025.33</ele>
        <time>2021-07-20T14:23:01Z</time>
      </trkpt>
      <trkpt lat="45.63398" lon="2.91426">
        <ele>1025.08</ele>
        <time>2021-07-20T14:23:03Z</time>
      </trkpt>
      <trkpt lat="45.63402" lon="2.9144">
        <ele>1027.3</ele>
        <time>2021-07-20T14:23:05Z</time>
      </trkpt>
      <trkpt lat="45.63405" lon="2.91455">
        <ele>1025.26</ele>
        <time>2021-07-20T14:23:07Z</time>
      </trkpt>
      <trkpt lat="45.6341" lon="2.9147">
        <ele>1024.35</ele>
        <time>2021-07-20T14:23:09Z</time>
      </trkpt>
      <trkpt lat="45.63416" lon="2.91487">
        <ele>1024.17</ele>
        <time>2021-07-20T14:23:12Z</time>
      </trkpt>
      <trkpt lat="45.6342" lon="2.91499">
        <ele>1024.81</ele>
        <time>2021-07-20T14:23:14Z</time>
      </trkpt>
      <trkpt lat="45.63423" lon="2.91513">
        <ele>1024.8</ele>
        <time>2021-07-20T14:23:16Z</time>
      </trkpt>
      <trkpt lat="45.63425" lon="2.91526">
        <ele>1025.65</ele>
        <time>2021-07-20T14:23:18Z</time>
      </trkpt>
      <trkpt lat="45.63428" lon="2.91541">
        <ele>1028.4</ele>
        <time>2021-07-20T14:23:20Z</time>
      </trkpt>
      <trkpt lat="45.63434" lon="2.91555">
        <ele>1028.71</ele>
        <time>2021-07-20T14:23:22Z</time>
      </trkpt>
      <trkpt lat="45.63437" lon="2.91569">
        <ele>1026.55</ele>
        <time>2021-07-20T14:23:24Z</time>
      </trkpt>
      <trkpt lat="45.63441" lon="2.91584">
        <ele>1025.27</ele>
        <time>2021-07-20T14:23:26Z</time>
      </trkpt>
      <trkpt lat="45.63444" lon="2.91598">
        <ele>1026.76</ele>
        <time>2021-07-20T14:23:28Z</time>
      </trkpt>
      <trkpt lat="45.6345" lon="2.91611">
        <ele>1029.1</ele>
        <time>2021-07-20T14:23:30Z</time>
      </trkpt>
      <trkpt lat="45.63453" lon="2.91625">
        <ele>1027.59</ele>
        <time>2021-07-20T14:23:32Z</time>
      </trkpt>
      <trkpt lat="45.63459" lon="2.91638">
        <ele>1027.31</ele>
        <time>2021-07-20T14:23:34Z</time>
      </trkpt>
      <trkpt lat="45.63468" lon="2.91648">
        <ele>1027.01</ele>
        <time>2021-07-20T14:23:37Z</time>
      </trkpt>
      <trkpt lat="45.63478" lon="2.91653">
        <ele>1026.6</ele>
        <time>2021-07-20T14:23:39Z</time>
      </trkpt>
      <trkpt lat="45.63487" lon="2.91659">
        <ele>1026.67</ele>
        <time>2021-07-20T14:23:41Z</time>
      </trkpt>
      <trkpt lat="45.63495" lon="2.91669">
        <ele>1026.43</ele>
        <time>2021-07-20T14:23:43Z</time>
      </trkpt>
      <trkpt lat="45.63497" lon="2.91682">
        <ele>1026.28</ele>
        <time>2021-07-20T14:23:45Z</time>
      </trkpt>
      <trkpt lat="45.63501" lon="2.91699">
        <ele>1025.36</ele>
        <time>2021-07-20T14:23:48Z</time>
      </trkpt>
      <trkpt lat="45.63502" lon="2.91716">
        <ele>1024.18</ele>
        <time>2021-07-20T14:23:50Z</time>
      </trkpt>
      <trkpt lat="45.63507" lon="2.91733">
        <ele>1025.92</ele>
        <time>2021-07-20T14:23:53Z</time>
      </trkpt>
      <trkpt lat="45.6351" lon="2.91752">
        <ele>1025.52</ele>
        <time>2021-07-20T14:23:56Z</time>
      </trkpt>
      <trkpt lat="45.63511" lon="2.91767">
        <ele>1025.81</ele>
        <time>2021-07-20T14:23:59Z</time>
      </trkpt>
      <trkpt lat="45.63515" lon="2.91783">
        <ele>1026.68</ele>
        <time>2021-07-20T14:24:02Z</time>
      </trkpt>
      <trkpt lat="45.63517" lon="2.91799">
        <ele>1023.82</ele>
        <time>2021-07-20T14:24:05Z</time>
      </trkpt>
      <trkpt lat="45.63519" lon="2.91814">
        <ele>1024.88</ele>
        <time>2021-07-20T14:24:08Z</time>
      </trkpt>
      <trkpt lat="45.63527" lon="2.91829">
        <ele>1025.06</ele>
        <time>2021-07-20T14:24:11Z</time>
      </trkpt>
      <trkpt lat="45.63537" lon="2.91839">
        <ele>1024.24</ele>
        <time>2021-07-20T14:24:14Z</time>
      </trkpt>
      <trkpt lat="45.63547" lon="2.91846">
        <ele>1022.56</ele>
        <time>2021-07-20T14:24:18Z</time>
      </trkpt>
      <trkpt lat="45.63542" lon="2.91861">
        <ele>1021.14</ele>
        <time>2021-07-20T14:24:32Z</time>
      </trkpt>
      <trkpt lat="45.63533" lon="2.91871">
        <ele>1019.99</ele>
        <time>2021-07-20T14:24:35Z</time>
      </trkpt>
      <trkpt lat="45.63527" lon="2.91886">
        <ele>1016.57</ele>
        <time>2021-07-20T14:24:38Z</time>
      </trkpt>
      <trkpt lat="45.63525" lon="2.91899">
        <ele>1019.15</ele>
        <time>2021-07-20T14:24:41Z</time>
      </trkpt>
      <trkpt lat="45.63524" lon="2.91916">
        <ele>1019.53</ele>
        <time>2021-07-20T14:24:45Z</time>
      </trkpt>
      <trkpt lat="45.63522" lon="2.91932">
        <ele>1020.73</ele>
        <time>2021-07-20T14:24:49Z</time>
      </trkpt>
      <trkpt lat="45.63521" lon="2.91946">
        <ele>1021.61</ele>
        <time>2021-07-20T14:24:53Z</time>
      </trkpt>
      <trkpt lat="45.6352" lon="2.9196">
        <ele>1023.02</ele>
        <time>2021-07-20T14:24:57Z</time>
      </trkpt>
      <trkpt lat="45.63518" lon="2.91974">
        <ele>1022.96</ele>
        <time>2021-07-20T14:25:02Z</time>
      </trkpt>
      <trkpt lat="45.63513" lon="2.91986">
        <ele>1021.56</ele>
        <time>2021-07-20T14:25:07Z</time>
      </trkpt>
      <trkpt lat="45.63508" lon="2.91997">
        <ele>1023.87</ele>
        <time>2021-07-20T14:25:12Z</time>
      </trkpt>
      <trkpt lat="45.63505" lon="2.9201">
        <ele>1024.65</ele>
        <time>2021-07-20T14:25:17Z</time>
      </trkpt>
      <trkpt lat="45.63499" lon="2.92021">
        <ele>1026.87</ele>
        <time>2021-07-20T14:25:22Z</time>
      </trkpt>
      <trkpt lat="45.63494" lon="2.92034">
        <ele>1025.9</ele>
        <time>2021-07-20T14:25:27Z</time>
      </trkpt>
      <trkpt lat="45.63489" lon="2.92045">
        <ele>1027.12</ele>
        <time>2021-07-20T14:25:32Z</time>
      </trkpt>
      <trkpt lat="45.63485" lon="2.92059">
        <ele>1027.57</ele>
        <time>2021-07-20T14:25:39Z</time>
      </trkpt>
      <trkpt lat="45.63481" lon="2.9207">
        <ele>1028.69</ele>
        <time>2021-07-20T14:25:45Z</time>
      </trkpt>
      <trkpt lat="45.63478" lon="2.92084">
        <ele>1029.35</ele>
        <time>2021-07-20T14:25:52Z</time>
      </trkpt>
      <trkpt lat="45.63475" lon="2.92096">
        <ele>1028.74</ele>
        <time>2021-07-20T14:25:58Z</time>
      </trkpt>
      <trkpt lat="45.63471" lon="2.92108">
        <ele>1030.16</ele>
        <time>2021-07-20T14:26:05Z</time>
      </trkpt>
      <trkpt lat="45.63466" lon="2.92121">
        <ele>1031.61</ele>
        <time>2021-07-20T14:26:10Z</time>
      </trkpt>
      <trkpt lat="45.6346" lon="2.92133">
        <ele>1032.53</ele>
        <time>2021-07-20T14:26:16Z</time>
      </trkpt>
      <trkpt lat="45.63456" lon="2.92144">
        <ele>1035.57</ele>
        <time>2021-07-20T14:26:23Z</time>
      </trkpt>
      <trkpt lat="45.63449" lon="2.92155">
        <ele>1034.14</ele>
        <time>2021-07-20T14:26:30Z</time>
      </trkpt>
      <trkpt lat="45.63445" lon="2.92168">
        <ele>1035.25</ele>
        <time>2021-07-20T14:26:37Z</time>
      </trkpt>
      <trkpt lat="45.63439" lon="2.92179">
        <ele>1037.43</ele>
        <time>2021-07-20T14:26:43Z</time>
      </trkpt>
      <trkpt lat="45.63432" lon="2.92189">
        <ele>1039.47</ele>
        <time>2021-07-20T14:26:50Z</time>
      </trkpt>
      <trkpt lat="45.63429" lon="2.92202">
        <ele>1043.59</ele>
        <time>2021-07-20T14:26:57Z</time>
      </trkpt>
      <trkpt lat="45.63426" lon="2.92217">
        <ele>1048.1</ele>
        <time>2021-07-20T14:27:03Z</time>
      </trkpt>
      <trkpt lat="45.6342" lon="2.92229">
        <ele>1047.03</ele>
        <time>2021-07-20T14:27:08Z</time>
      </trkpt>
      <trkpt lat="45.63416" lon="2.92241">
        <ele>1047.85</ele>
        <time>2021-07-20T14:27:14Z</time>
      </trkpt>
      <trkpt lat="45.63411" lon="2.92255">
        <ele>1047.87</ele>
        <time>2021-07-20T14:27:20Z</time>
      </trkpt>
      <trkpt lat="45.63407" lon="2.92268">
        <ele>1048.09</ele>
        <time>2021-07-20T14:27:26Z</time>
      </trkpt>
      <trkpt lat="45.63403" lon="2.9228">
        <ele>1048.05</ele>
        <time>2021-07-20T14:27:31Z</time>
      </trkpt>
      <trkpt lat="45.63399" lon="2.92293">
        <ele>1047.8</ele>
        <time>2021-07-20T14:27:36Z</time>
      </trkpt>
      <trkpt lat="45.63393" lon="2.92305">
        <ele>1047.17</ele>
        <time>2021-07-20T14:27:43Z</time>
      </trkpt>
      <trkpt lat="45.63391" lon="2.92318">
        <ele>1049.82</ele>
        <time>2021-07-20T14:27:49Z</time>
      </trkpt>
      <trkpt lat="45.63387" lon="2.92329">
        <ele>1052.66</ele>
        <time>2021-07-20T14:27:55Z</time>
      </trkpt>
      <trkpt lat="45.63382" lon="2.92342">
        <ele>1053.96</ele>
        <time>2021-07-20T14:28:03Z</time>
      </trkpt>
      <trkpt lat="45.63373" lon="2.92347">
        <ele>1055.15</ele>
        <time>2021-07-20T14:28:10Z</time>
      </trkpt>
      <trkpt lat="45.63364" lon="2.92353">
        <ele>1059.64</ele>
        <time>2021-07-20T14:28:18Z</time>
      </trkpt>
      <trkpt lat="45.63355" lon="2.92359">
        <ele>1060.51</ele>
        <time>2021-07-20T14:28:25Z</time>
      </trkpt>
      <trkpt lat="45.63347" lon="2.92367">
        <ele>1061.44</ele>
        <time>2021-07-20T14:28:31Z</time>
      </trkpt>
      <trkpt lat="45.63339" lon="2.92376">
        <ele>1063.43</ele>
        <time>2021-07-20T14:28:37Z</time>
      </trkpt>
      <trkpt lat="45.63331" lon="2.92384">
        <ele>1066.4</ele>
        <time>2021-07-20T14:28:43Z</time>
      </trkpt>
      <trkpt lat="45.63324" lon="2.92392">
        <ele>1067.55</ele>
        <time>2021-07-20T14:28:50Z</time>
      </trkpt>
      <trkpt lat="45.63316" lon="2.924">
        <ele>1067.87</ele>
        <time>2021-07-20T14:28:56Z</time>
      </trkpt>
      <trkpt lat="45.63308" lon="2.92409">
        <ele>1070.08</ele>
        <time>2021-07-20T14:29:02Z</time>
      </trkpt>
      <trkpt lat="45.63299" lon="2.92417">
        <ele>1070.64</ele>
        <time>2021-07-20T14:29:08Z</time>
      </trkpt>
      <trkpt lat="45.63289" lon="2.92423">
        <ele>1071.37</ele>
        <time>2021-07-20T14:29:14Z</time>
      </trkpt>
      <trkpt lat="45.6328" lon="2.9243">
        <ele>1071.73</ele>
        <time>2021-07-20T14:29:20Z</time>
      </trkpt>
      <trkpt lat="45.63272" lon="2.92438">
        <ele>1073</ele>
        <time>2021-07-20T14:29:25Z</time>
      </trkpt>
      <trkpt lat="45.63264" lon="2.92448">
        <ele>1074.39</ele>
        <time>2021-07-20T14:29:32Z</time>
      </trkpt>
      <trkpt lat="45.63257" lon="2.92456">
        <ele>1075.04</ele>
        <time>2021-07-20T14:29:37Z</time>
      </trkpt>
      <trkpt lat="45.63249" lon="2.92465">
        <ele>1075.16</ele>
        <time>2021-07-20T14:29:42Z</time>
      </trkpt>
      <trkpt lat="45.6324" lon="2.9247">
        <ele>1075.77</ele>
        <time>2021-07-20T14:29:47Z</time>
      </trkpt>
      <trkpt lat="45.63229" lon="2.92475">
        <ele>1075.7</ele>
        <time>2021-07-20T14:29:52Z</time>
      </trkpt>
      <trkpt lat="45.6322" lon="2.92477">
        <ele>1075.91</ele>
        <time>2021-07-20T14:29:55Z</time>
      </trkpt>
      <trkpt lat="45.6321" lon="2.92481">
        <ele>1076.01</ele>
        <time>2021-07-20T14:29:58Z</time>
      </trkpt>
      <trkpt lat="45.63199" lon="2.92482">
        <ele>1076.59</ele>
        <time>2021-07-20T14:30:02Z</time>
      </trkpt>
      <trkpt lat="45.63188" lon="2.92486">
        <ele>1073.9</ele>
        <time>2021-07-20T14:30:05Z</time>
      </trkpt>
      <trkpt lat="45.63177" lon="2.92487">
        <ele>1075.72</ele>
        <time>2021-07-20T14:30:09Z</time>
      </trkpt>
      <trkpt lat="45.63168" lon="2.92491">
        <ele>1074.71</ele>
        <time>2021-07-20T14:30:13Z</time>
      </trkpt>
      <trkpt lat="45.63157" lon="2.92493">
        <ele>1076.11</ele>
        <time>2021-07-20T14:30:17Z</time>
      </trkpt>
      <trkpt lat="45.63146" lon="2.92495">
        <ele>1075.32</ele>
        <time>2021-07-20T14:30:21Z</time>
      </trkpt>
      <trkpt lat="45.63135" lon="2.92498">
        <ele>1078.33</ele>
        <time>2021-07-20T14:30:25Z</time>
      </trkpt>
      <trkpt lat="45.63126" lon="2.925">
        <ele>1077.55</ele>
        <time>2021-07-20T14:30:28Z</time>
      </trkpt>
      <trkpt lat="45.63116" lon="2.92502">
        <ele>1077.42</ele>
        <time>2021-07-20T14:30:31Z</time>
      </trkpt>
      <trkpt lat="45.63106" lon="2.92504">
        <ele>1077.92</ele>
        <time>2021-07-20T14:30:34Z</time>
      </trkpt>
      <trkpt lat="45.63097" lon="2.92507">
        <ele>1077.86</ele>
        <time>2021-07-20T14:30:37Z</time>
      </trkpt>
      <trkpt lat="45.63086" lon="2.92508">
        <ele>1077.51</ele>
        <time>2021-07-20T14:30:40Z</time>
      </trkpt>
      <trkpt lat="45.63075" lon="2.92512">
        <ele>1077.91</ele>
        <time>2021-07-20T14:30:43Z</time>
      </trkpt>
      <trkpt lat="45.63066" lon="2.92514">
        <ele>1078.03</ele>
        <time>2021-07-20T14:30:45Z</time>
      </trkpt>
      <trkpt lat="45.63057" lon="2.92518">
        <ele>1077.79</ele>
        <time>2021-07-20T14:30:47Z</time>
      </trkpt>
      <trkpt lat="45.63048" lon="2.92521">
        <ele>1077.79</ele>
        <time>2021-07-20T14:30:49Z</time>
      </trkpt>
      <trkpt lat="45.63039" lon="2.92523">
        <ele>1077.93</ele>
        <time>2021-07-20T14:30:51Z</time>
      </trkpt>
      <trkpt lat="45.63027" lon="2.92527">
        <ele>1079.2</ele>
        <time>2021-07-20T14:30:54Z</time>
      </trkpt>
      <trkpt lat="45.63014" lon="2.9253">
        <ele>1079.92</ele>
        <time>2021-07-20T14:30:57Z</time>
      </trkpt>
      <trkpt lat="45.63" lon="2.92534">
        <ele>1080.27</ele>
        <time>2021-07-20T14:31:00Z</time>
      </trkpt>
      <trkpt lat="45.62989" lon="2.92538">
        <ele>1080.01</ele>
        <time>2021-07-20T14:31:03Z</time>
      </trkpt>
      <trkpt lat="45.62977" lon="2.9254">
        <ele>1079.43</ele>
        <time>2021-07-20T14:31:06Z</time>
      </trkpt>
      <trkpt lat="45.62965" lon="2.92542">
        <ele>1079.45</ele>
        <time>2021-07-20T14:31:09Z</time>
      </trkpt>
      <trkpt lat="45.62952" lon="2.92545">
        <ele>1079.26</ele>
        <time>2021-07-20T14:31:12Z</time>
      </trkpt>
      <trkpt lat="45.62939" lon="2.92548">
        <ele>1080.21</ele>
        <time>2021-07-20T14:31:15Z</time>
      </trkpt>
      <trkpt lat="45.62929" lon="2.92548">
        <ele>1080.38</ele>
        <time>2021-07-20T14:31:17Z</time>
      </trkpt>
      <trkpt lat="45.6292" lon="2.92552">
        <ele>1079.87</ele>
        <time>2021-07-20T14:31:19Z</time>
      </trkpt>
      <trkpt lat="45.6291" lon="2.92554">
        <ele>1080.27</ele>
        <time>2021-07-20T14:31:21Z</time>
      </trkpt>
      <trkpt lat="45.62901" lon="2.92558">
        <ele>1080.32</ele>
        <time>2021-07-20T14:31:23Z</time>
      </trkpt>
      <trkpt lat="45.62892" lon="2.92561">
        <ele>1080.04</ele>
        <time>2021-07-20T14:31:25Z</time>
      </trkpt>
      <trkpt lat="45.62883" lon="2.92563">
        <ele>1079.93</ele>
        <time>2021-07-20T14:31:27Z</time>
      </trkpt>
      <trkpt lat="45.62874" lon="2.92566">
        <ele>1080.42</ele>
        <time>2021-07-20T14:31:29Z</time>
      </trkpt>
      <trkpt lat="45.62864" lon="2.92569">
        <ele>1080.78</ele>
        <time>2021-07-20T14:31:31Z</time>
      </trkpt>
      <trkpt lat="45.62854" lon="2.92572">
        <ele>1079.32</ele>
        <time>2021-07-20T14:31:33Z</time>
      </trkpt>
      <trkpt lat="45.62844" lon="2.92574">
        <ele>1079.35</ele>
        <time>2021-07-20T14:31:35Z</time>
      </trkpt>
      <trkpt lat="45.62834" lon="2.92576">
        <ele>1079.17</ele>
        <time>2021-07-20T14:31:37Z</time>
      </trkpt>
      <trkpt lat="45.62822" lon="2.92579">
        <ele>1078.91</ele>
        <time>2021-07-20T14:31:40Z</time>
      </trkpt>
      <trkpt lat="45.62811" lon="2.92582">
        <ele>1079.08</ele>
        <time>2021-07-20T14:31:43Z</time>
      </trkpt>
      <trkpt lat="45.62798" lon="2.92585">
        <ele>1079.23</ele>
        <time>2021-07-20T14:31:46Z</time>
      </trkpt>
      <trkpt lat="45.62789" lon="2.92588">
        <ele>1079.37</ele>
        <time>2021-07-20T14:31:48Z</time>
      </trkpt>
      <trkpt lat="45.62778" lon="2.92591">
        <ele>1079.52</ele>
        <time>2021-07-20T14:31:50Z</time>
      </trkpt>
      <trkpt lat="45.62768" lon="2.92594">
        <ele>1079.42</ele>
        <time>2021-07-20T14:31:52Z</time>
      </trkpt>
      <trkpt lat="45.62758" lon="2.92598">
        <ele>1079.21</ele>
        <time>2021-07-20T14:31:54Z</time>
      </trkpt>
      <trkpt lat="45.62747" lon="2.92605">
        <ele>1074.74</ele>
        <time>2021-07-20T14:31:56Z</time>
      </trkpt>
      <trkpt lat="45.62735" lon="2.92609">
        <ele>1073.18</ele>
        <time>2021-07-20T14:31:58Z</time>
      </trkpt>
      <trkpt lat="45.62723" lon="2.92613">
        <ele>1072.23</ele>
        <time>2021-07-20T14:32:00Z</time>
      </trkpt>
      <trkpt lat="45.62711" lon="2.92617">
        <ele>1069.33</ele>
        <time>2021-07-20T14:32:02Z</time>
      </trkpt>
      <trkpt lat="45.62698" lon="2.92624">
        <ele>1068.34</ele>
        <time>2021-07-20T14:32:04Z</time>
      </trkpt>
      <trkpt lat="45.62682" lon="2.9263">
        <ele>1066.48</ele>
        <time>2021-07-20T14:32:06Z</time>
      </trkpt>
      <trkpt lat="45.62673" lon="2.92635">
        <ele>1065.08</ele>
        <time>2021-07-20T14:32:07Z</time>
      </trkpt>
      <trkpt lat="45.62664" lon="2.9264">
        <ele>1063.54</ele>
        <time>2021-07-20T14:32:08Z</time>
      </trkpt>
      <trkpt lat="45.62655" lon="2.92645">
        <ele>1062.38</ele>
        <time>2021-07-20T14:32:09Z</time>
      </trkpt>
      <trkpt lat="45.62645" lon="2.92649">
        <ele>1061.58</ele>
        <time>2021-07-20T14:32:10Z</time>
      </trkpt>
      <trkpt lat="45.62634" lon="2.92655">
        <ele>1060.57</ele>
        <time>2021-07-20T14:32:11Z</time>
      </trkpt>
      <trkpt lat="45.62624" lon="2.92658">
        <ele>1059.63</ele>
        <time>2021-07-20T14:32:12Z</time>
      </trkpt>
      <trkpt lat="45.62614" lon="2.92663">
        <ele>1059.45</ele>
        <time>2021-07-20T14:32:13Z</time>
      </trkpt>
      <trkpt lat="45.62606" lon="2.9267">
        <ele>1059</ele>
        <time>2021-07-20T14:32:14Z</time>
      </trkpt>
      <trkpt lat="45.62598" lon="2.92678">
        <ele>1058.76</ele>
        <time>2021-07-20T14:32:15Z</time>
      </trkpt>
      <trkpt lat="45.62591" lon="2.92687">
        <ele>1058.62</ele>
        <time>2021-07-20T14:32:16Z</time>
      </trkpt>
      <trkpt lat="45.62584" lon="2.92697">
        <ele>1058.72</ele>
        <time>2021-07-20T14:32:17Z</time>
      </trkpt>
      <trkpt lat="45.62577" lon="2.92706">
        <ele>1058.47</ele>
        <time>2021-07-20T14:32:18Z</time>
      </trkpt>
      <trkpt lat="45.62564" lon="2.92718">
        <ele>1058.01</ele>
        <time>2021-07-20T14:32:20Z</time>
      </trkpt>
      <trkpt lat="45.62549" lon="2.92729">
        <ele>1057.07</ele>
        <time>2021-07-20T14:32:22Z</time>
      </trkpt>
      <trkpt lat="45.62536" lon="2.92734">
        <ele>1056.34</ele>
        <time>2021-07-20T14:32:24Z</time>
      </trkpt>
      <trkpt lat="45.62522" lon="2.92741">
        <ele>1056.17</ele>
        <time>2021-07-20T14:32:26Z</time>
      </trkpt>
      <trkpt lat="45.62508" lon="2.92747">
        <ele>1055.03</ele>
        <time>2021-07-20T14:32:28Z</time>
      </trkpt>
      <trkpt lat="45.62497" lon="2.92754">
        <ele>1055.22</ele>
        <time>2021-07-20T14:32:30Z</time>
      </trkpt>
      <trkpt lat="45.62487" lon="2.92762">
        <ele>1054.59</ele>
        <time>2021-07-20T14:32:32Z</time>
      </trkpt>
      <trkpt lat="45.62478" lon="2.92773">
        <ele>1053.98</ele>
        <time>2021-07-20T14:32:34Z</time>
      </trkpt>
      <trkpt lat="45.6247" lon="2.92784">
        <ele>1054.01</ele>
        <time>2021-07-20T14:32:36Z</time>
      </trkpt>
      <trkpt lat="45.62461" lon="2.92791">
        <ele>1054.1</ele>
        <time>2021-07-20T14:32:38Z</time>
      </trkpt>
      <trkpt lat="45.62452" lon="2.92801">
        <ele>1053.85</ele>
        <time>2021-07-20T14:32:40Z</time>
      </trkpt>
      <trkpt lat="45.62444" lon="2.92808">
        <ele>1054.11</ele>
        <time>2021-07-20T14:32:42Z</time>
      </trkpt>
      <trkpt lat="45.62434" lon="2.92816">
        <ele>1053.62</ele>
        <time>2021-07-20T14:32:44Z</time>
      </trkpt>
      <trkpt lat="45.62424" lon="2.92822">
        <ele>1050.94</ele>
        <time>2021-07-20T14:32:46Z</time>
      </trkpt>
      <trkpt lat="45.62414" lon="2.92831">
        <ele>1050.02</ele>
        <time>2021-07-20T14:32:49Z</time>
      </trkpt>
      <trkpt lat="45.62405" lon="2.92837">
        <ele>1047.82</ele>
        <time>2021-07-20T14:32:51Z</time>
      </trkpt>
      <trkpt lat="45.62397" lon="2.92847">
        <ele>1046.33</ele>
        <time>2021-07-20T14:32:53Z</time>
      </trkpt>
      <trkpt lat="45.62389" lon="2.92856">
        <ele>1045.53</ele>
        <time>2021-07-20T14:32:55Z</time>
      </trkpt>
      <trkpt lat="45.62381" lon="2.92867">
        <ele>1045.27</ele>
        <time>2021-07-20T14:32:57Z</time>
      </trkpt>
      <trkpt lat="45.62374" lon="2.92875">
        <ele>1045.56</ele>
        <time>2021-07-20T14:33:01Z</time>
      </trkpt>
      <trkpt lat="45.62363" lon="2.92895">
        <ele>1046.23</ele>
        <time>2021-07-20T14:33:05Z</time>
      </trkpt>
      <trkpt lat="45.62364" lon="2.92912">
        <ele>1045.27</ele>
        <time>2021-07-20T14:33:08Z</time>
      </trkpt>
      <trkpt lat="45.62363" lon="2.92925">
        <ele>1044.69</ele>
        <time>2021-07-20T14:33:11Z</time>
      </trkpt>
      <trkpt lat="45.62362" lon="2.92939">
        <ele>1047.22</ele>
        <time>2021-07-20T14:33:15Z</time>
      </trkpt>
      <trkpt lat="45.62363" lon="2.92953">
        <ele>1049.66</ele>
        <time>2021-07-20T14:33:18Z</time>
      </trkpt>
      <trkpt lat="45.62357" lon="2.92963">
        <ele>1048.74</ele>
        <time>2021-07-20T14:33:21Z</time>
      </trkpt>
      <trkpt lat="45.6235" lon="2.92972">
        <ele>1048.9</ele>
        <time>2021-07-20T14:33:25Z</time>
      </trkpt>
      <trkpt lat="45.62344" lon="2.92982">
        <ele>1045.84</ele>
        <time>2021-07-20T14:34:54Z</time>
      </trkpt>
      <trkpt lat="45.6234" lon="2.92995">
        <ele>1045.23</ele>
        <time>2021-07-20T14:34:59Z</time>
      </trkpt>
      <trkpt lat="45.62331" lon="2.93">
        <ele>1045.92</ele>
        <time>2021-07-20T14:35:05Z</time>
      </trkpt>
      <trkpt lat="45.6234" lon="2.92997">
        <ele>1062.37</ele>
        <time>2021-07-20T14:40:49Z</time>
      </trkpt>
      <trkpt lat="45.62336" lon="2.93009">
        <ele>1055.2</ele>
        <time>2021-07-20T14:41:11Z</time>
      </trkpt>
      <trkpt lat="45.62335" lon="2.93022">
        <ele>1054.19</ele>
        <time>2021-07-20T14:41:15Z</time>
      </trkpt>
      <trkpt lat="45.62333" lon="2.93037">
        <ele>1053.48</ele>
        <time>2021-07-20T14:41:23Z</time>
      </trkpt>
      <trkpt lat="45.62324" lon="2.93036">
        <ele>1051.84</ele>
        <time>2021-07-20T14:41:28Z</time>
      </trkpt>
      <trkpt lat="45.62313" lon="2.93032">
        <ele>1048.34</ele>
        <time>2021-07-20T14:41:33Z</time>
      </trkpt>
      <trkpt lat="45.62302" lon="2.93027">
        <ele>1040.99</ele>
        <time>2021-07-20T14:41:36Z</time>
      </trkpt>
      <trkpt lat="45.6229" lon="2.93021">
        <ele>1037.11</ele>
        <time>2021-07-20T14:41:39Z</time>
      </trkpt>
      <trkpt lat="45.62278" lon="2.93015">
        <ele>1036.29</ele>
        <time>2021-07-20T14:41:42Z</time>
      </trkpt>
      <trkpt lat="45.6227" lon="2.93009">
        <ele>1035.38</ele>
        <time>2021-07-20T14:41:45Z</time>
      </trkpt>
      <trkpt lat="45.6226" lon="2.93003">
        <ele>1034.59</ele>
        <time>2021-07-20T14:41:48Z</time>
      </trkpt>
      <trkpt lat="45.6224" lon="2.9299">
        <ele>1034.81</ele>
        <time>2021-07-20T14:41:51Z</time>
      </trkpt>
      <trkpt lat="45.62234" lon="2.9298">
        <ele>1030.33</ele>
        <time>2021-07-20T14:41:55Z</time>
      </trkpt>
      <trkpt lat="45.62225" lon="2.92969">
        <ele>1029.54</ele>
        <time>2021-07-20T14:42:09Z</time>
      </trkpt>
      <trkpt lat="45.62216" lon="2.9296">
        <ele>1027.36</ele>
        <time>2021-07-20T14:42:11Z</time>
      </trkpt>
      <trkpt lat="45.62206" lon="2.92948">
        <ele>1025.06</ele>
        <time>2021-07-20T14:42:13Z</time>
      </trkpt>
      <trkpt lat="45.62194" lon="2.92933">
        <ele>1022.98</ele>
        <time>2021-07-20T14:42:15Z</time>
      </trkpt>
      <trkpt lat="45.62187" lon="2.92911">
        <ele>1022.22</ele>
        <time>2021-07-20T14:42:17Z</time>
      </trkpt>
      <trkpt lat="45.62183" lon="2.92889">
        <ele>1020.38</ele>
        <time>2021-07-20T14:42:19Z</time>
      </trkpt>
      <trkpt lat="45.6218" lon="2.92876">
        <ele>1021.37</ele>
        <time>2021-07-20T14:42:21Z</time>
      </trkpt>
      <trkpt lat="45.62173" lon="2.92862">
        <ele>1021.98</ele>
        <time>2021-07-20T14:42:24Z</time>
      </trkpt>
      <trkpt lat="45.6216" lon="2.92861">
        <ele>1023.4</ele>
        <time>2021-07-20T14:42:27Z</time>
      </trkpt>
      <trkpt lat="45.62147" lon="2.92863">
        <ele>1022.86</ele>
        <time>2021-07-20T14:42:30Z</time>
      </trkpt>
      <trkpt lat="45.62133" lon="2.92866">
        <ele>1021.8</ele>
        <time>2021-07-20T14:42:33Z</time>
      </trkpt>
      <trkpt lat="45.62122" lon="2.92866">
        <ele>1020.24</ele>
        <time>2021-07-20T14:42:35Z</time>
      </trkpt>
      <trkpt lat="45.6211" lon="2.92867">
        <ele>1017.82</ele>
        <time>2021-07-20T14:42:38Z</time>
      </trkpt>
      <trkpt lat="45.62098" lon="2.92869">
        <ele>1018.07</ele>
        <time>2021-07-20T14:42:41Z</time>
      </trkpt>
      <trkpt lat="45.62089" lon="2.92873">
        <ele>1019.04</ele>
        <time>2021-07-20T14:42:44Z</time>
      </trkpt>
      <trkpt lat="45.62079" lon="2.92875">
        <ele>1022.25</ele>
        <time>2021-07-20T14:42:48Z</time>
      </trkpt>
      <trkpt lat="45.62069" lon="2.92875">
        <ele>1022.64</ele>
        <time>2021-07-20T14:42:53Z</time>
      </trkpt>
      <trkpt lat="45.62061" lon="2.92881">
        <ele>1026.24</ele>
        <time>2021-07-20T14:44:12Z</time>
      </trkpt>
      <trkpt lat="45.62062" lon="2.92896">
        <ele>1026.53</ele>
        <time>2021-07-20T14:44:17Z</time>
      </trkpt>
      <trkpt lat="45.62062" lon="2.92911">
        <ele>1025</ele>
        <time>2021-07-20T14:44:22Z</time>
      </trkpt>
      <trkpt lat="45.62063" lon="2.92926">
        <ele>1022.37</ele>
        <time>2021-07-20T14:44:25Z</time>
      </trkpt>
      <trkpt lat="45.62064" lon="2.92944">
        <ele>1021.56</ele>
        <time>2021-07-20T14:44:28Z</time>
      </trkpt>
      <trkpt lat="45.62064" lon="2.92958">
        <ele>1020.84</ele>
        <time>2021-07-20T14:44:30Z</time>
      </trkpt>
      <trkpt lat="45.62066" lon="2.92974">
        <ele>1020.3</ele>
        <time>2021-07-20T14:44:32Z</time>
      </trkpt>
      <trkpt lat="45.62064" lon="2.9299">
        <ele>1019.17</ele>
        <time>2021-07-20T14:44:34Z</time>
      </trkpt>
      <trkpt lat="45.62064" lon="2.9301">
        <ele>1018.74</ele>
        <time>2021-07-20T14:44:36Z</time>
      </trkpt>
      <trkpt lat="45.62065" lon="2.93031">
        <ele>1018.33</ele>
        <time>2021-07-20T14:44:38Z</time>
      </trkpt>
      <trkpt lat="45.62065" lon="2.93051">
        <ele>1018.91</ele>
        <time>2021-07-20T14:44:40Z</time>
      </trkpt>
      <trkpt lat="45.62064" lon="2.93071">
        <ele>1019.26</ele>
        <time>2021-07-20T14:44:42Z</time>
      </trkpt>
      <trkpt lat="45.62061" lon="2.93089">
        <ele>1019.04</ele>
        <time>2021-07-20T14:44:44Z</time>
      </trkpt>
      <trkpt lat="45.62059" lon="2.93106">
        <ele>1017.07</ele>
        <time>2021-07-20T14:44:46Z</time>
      </trkpt>
      <trkpt lat="45.62055" lon="2.93121">
        <ele>1016.38</ele>
        <time>2021-07-20T14:44:48Z</time>
      </trkpt>
      <trkpt lat="45.62053" lon="2.93137">
        <ele>1015.38</ele>
        <time>2021-07-20T14:44:50Z</time>
      </trkpt>
      <trkpt lat="45.62049" lon="2.93153">
        <ele>1015.42</ele>
        <time>2021-07-20T14:44:52Z</time>
      </trkpt>
      <trkpt lat="45.62046" lon="2.93168">
        <ele>1015.88</ele>
        <time>2021-07-20T14:44:54Z</time>
      </trkpt>
      <trkpt lat="45.62045" lon="2.93181">
        <ele>1016.28</ele>
        <time>2021-07-20T14:44:56Z</time>
      </trkpt>
      <trkpt lat="45.62042" lon="2.93195">
        <ele>1015.9</ele>
        <time>2021-07-20T14:44:58Z</time>
      </trkpt>
      <trkpt lat="45.62039" lon="2.93213">
        <ele>1016.02</ele>
        <time>2021-07-20T14:45:01Z</time>
      </trkpt>
      <trkpt lat="45.62036" lon="2.93233">
        <ele>1014.35</ele>
        <time>2021-07-20T14:45:04Z</time>
      </trkpt>
      <trkpt lat="45.62033" lon="2.93247">
        <ele>1013.03</ele>
        <time>2021-07-20T14:45:06Z</time>
      </trkpt>
      <trkpt lat="45.62031" lon="2.93264">
        <ele>1011.51</ele>
        <time>2021-07-20T14:45:09Z</time>
      </trkpt>
      <trkpt lat="45.62032" lon="2.93277">
        <ele>1010.72</ele>
        <time>2021-07-20T14:45:11Z</time>
      </trkpt>
      <trkpt lat="45.62031" lon="2.9329">
        <ele>1010.79</ele>
        <time>2021-07-20T14:45:13Z</time>
      </trkpt>
      <trkpt lat="45.62034" lon="2.93305">
        <ele>1011.58</ele>
        <time>2021-07-20T14:45:15Z</time>
      </trkpt>
      <trkpt lat="45.62034" lon="2.93322">
        <ele>1012.07</ele>
        <time>2021-07-20T14:45:18Z</time>
      </trkpt>
      <trkpt lat="45.62032" lon="2.93335">
        <ele>1013.57</ele>
        <time>2021-07-20T14:45:20Z</time>
      </trkpt>
      <trkpt lat="45.62027" lon="2.93346">
        <ele>1013.51</ele>
        <time>2021-07-20T14:45:22Z</time>
      </trkpt>
      <trkpt lat="45.62023" lon="2.93358">
        <ele>1013.65</ele>
        <time>2021-07-20T14:45:25Z</time>
      </trkpt>
      <trkpt lat="45.62018" lon="2.93372">
        <ele>1014.21</ele>
        <time>2021-07-20T14:45:30Z</time>
      </trkpt>
      <trkpt lat="45.62013" lon="2.93385">
        <ele>1015.14</ele>
        <time>2021-07-20T14:45:36Z</time>
      </trkpt>
      <trkpt lat="45.62009" lon="2.93396">
        <ele>1016.48</ele>
        <time>2021-07-20T14:45:42Z</time>
      </trkpt>
      <trkpt lat="45.62003" lon="2.93406">
        <ele>1018.42</ele>
        <time>2021-07-20T14:45:48Z</time>
      </trkpt>
      <trkpt lat="45.61996" lon="2.93416">
        <ele>1018.81</ele>
        <time>2021-07-20T14:45:54Z</time>
      </trkpt>
      <trkpt lat="45.61989" lon="2.93425">
        <ele>1021.57</ele>
        <time>2021-07-20T14:46:01Z</time>
      </trkpt>
      <trkpt lat="45.61983" lon="2.93436">
        <ele>1021.96</ele>
        <time>2021-07-20T14:46:07Z</time>
      </trkpt>
      <trkpt lat="45.61977" lon="2.93447">
        <ele>1024.29</ele>
        <time>2021-07-20T14:46:14Z</time>
      </trkpt>
      <trkpt lat="45.61972" lon="2.93459">
        <ele>1026.69</ele>
        <time>2021-07-20T14:46:20Z</time>
      </trkpt>
      <trkpt lat="45.61966" lon="2.93471">
        <ele>1028.43</ele>
        <time>2021-07-20T14:46:27Z</time>
      </trkpt>
      <trkpt lat="45.6196" lon="2.93482">
        <ele>1028.35</ele>
        <time>2021-07-20T14:46:34Z</time>
      </trkpt>
      <trkpt lat="45.61953" lon="2.93492">
        <ele>1024.52</ele>
        <time>2021-07-20T14:46:40Z</time>
      </trkpt>
      <trkpt lat="45.61944" lon="2.93501">
        <ele>1026.11</ele>
        <time>2021-07-20T14:46:46Z</time>
      </trkpt>
      <trkpt lat="45.61938" lon="2.93511">
        <ele>1028.32</ele>
        <time>2021-07-20T14:46:53Z</time>
      </trkpt>
      <trkpt lat="45.61932" lon="2.93522">
        <ele>1027.49</ele>
        <time>2021-07-20T14:47:00Z</time>
      </trkpt>
      <trkpt lat="45.61925" lon="2.93531">
        <ele>1029.68</ele>
        <time>2021-07-20T14:47:07Z</time>
      </trkpt>
      <trkpt lat="45.6192" lon="2.93543">
        <ele>1033.42</ele>
        <time>2021-07-20T14:47:14Z</time>
      </trkpt>
      <trkpt lat="45.61916" lon="2.93556">
        <ele>1034.95</ele>
        <time>2021-07-20T14:47:21Z</time>
      </trkpt>
      <trkpt lat="45.61913" lon="2.93571">
        <ele>1035.76</ele>
        <time>2021-07-20T14:47:28Z</time>
      </trkpt>
      <trkpt lat="45.61909" lon="2.93584">
        <ele>1035.47</ele>
        <time>2021-07-20T14:47:34Z</time>
      </trkpt>
      <trkpt lat="45.61905" lon="2.93596">
        <ele>1034.55</ele>
        <time>2021-07-20T14:47:40Z</time>
      </trkpt>
      <trkpt lat="45.619" lon="2.93607">
        <ele>1035.04</ele>
        <time>2021-07-20T14:47:46Z</time>
      </trkpt>
      <trkpt lat="45.61898" lon="2.93619">
        <ele>1035.58</ele>
        <time>2021-07-20T14:47:52Z</time>
      </trkpt>
      <trkpt lat="45.61893" lon="2.93633">
        <ele>1033.8</ele>
        <time>2021-07-20T14:47:59Z</time>
      </trkpt>
      <trkpt lat="45.61891" lon="2.93647">
        <ele>1038.09</ele>
        <time>2021-07-20T14:48:06Z</time>
      </trkpt>
      <trkpt lat="45.61888" lon="2.9366">
        <ele>1040.25</ele>
        <time>2021-07-20T14:48:12Z</time>
      </trkpt>
      <trkpt lat="45.61887" lon="2.93672">
        <ele>1041.64</ele>
        <time>2021-07-20T14:48:18Z</time>
      </trkpt>
      <trkpt lat="45.61885" lon="2.93686">
        <ele>1041.96</ele>
        <time>2021-07-20T14:48:24Z</time>
      </trkpt>
      <trkpt lat="45.61882" lon="2.93699">
        <ele>1040.62</ele>
        <time>2021-07-20T14:48:30Z</time>
      </trkpt>
      <trkpt lat="45.61879" lon="2.93713">
        <ele>1042.51</ele>
        <time>2021-07-20T14:48:36Z</time>
      </trkpt>
      <trkpt lat="45.61876" lon="2.93726">
        <ele>1045.02</ele>
        <time>2021-07-20T14:48:43Z</time>
      </trkpt>
      <trkpt lat="45.61873" lon="2.93739">
        <ele>1045.36</ele>
        <time>2021-07-20T14:48:49Z</time>
      </trkpt>
      <trkpt lat="45.61872" lon="2.93752">
        <ele>1045.96</ele>
        <time>2021-07-20T14:48:56Z</time>
      </trkpt>
      <trkpt lat="45.61871" lon="2.93765">
        <ele>1048</ele>
        <time>2021-07-20T14:49:03Z</time>
      </trkpt>
      <trkpt lat="45.61871" lon="2.93778">
        <ele>1046.96</ele>
        <time>2021-07-20T14:49:08Z</time>
      </trkpt>
      <trkpt lat="45.61869" lon="2.93792">
        <ele>1046.65</ele>
        <time>2021-07-20T14:49:15Z</time>
      </trkpt>
      <trkpt lat="45.61867" lon="2.93804">
        <ele>1045.96</ele>
        <time>2021-07-20T14:49:22Z</time>
      </trkpt>
      <trkpt lat="45.61863" lon="2.93817">
        <ele>1047.52</ele>
        <time>2021-07-20T14:49:28Z</time>
      </trkpt>
      <trkpt lat="45.61861" lon="2.9383">
        <ele>1047.22</ele>
        <time>2021-07-20T14:49:34Z</time>
      </trkpt>
      <trkpt lat="45.61859" lon="2.93844">
        <ele>1048.5</ele>
        <time>2021-07-20T14:49:39Z</time>
      </trkpt>
      <trkpt lat="45.61857" lon="2.93857">
        <ele>1049.3</ele>
        <time>2021-07-20T14:49:44Z</time>
      </trkpt>
      <trkpt lat="45.61856" lon="2.93873">
        <ele>1050.87</ele>
        <time>2021-07-20T14:49:49Z</time>
      </trkpt>
      <trkpt lat="45.61854" lon="2.93888">
        <ele>1050.51</ele>
        <time>2021-07-20T14:49:54Z</time>
      </trkpt>
      <trkpt lat="45.61855" lon="2.93901">
        <ele>1050.77</ele>
        <time>2021-07-20T14:49:58Z</time>
      </trkpt>
      <trkpt lat="45.61856" lon="2.93915">
        <ele>1051.43</ele>
        <time>2021-07-20T14:50:02Z</time>
      </trkpt>
      <trkpt lat="45.61856" lon="2.93928">
        <ele>1052.76</ele>
        <time>2021-07-20T14:50:06Z</time>
      </trkpt>
      <trkpt lat="45.61856" lon="2.93944">
        <ele>1053.1</ele>
        <time>2021-07-20T14:50:11Z</time>
      </trkpt>
      <trkpt lat="45.61855" lon="2.93957">
        <ele>1053.97</ele>
        <time>2021-07-20T14:50:15Z</time>
      </trkpt>
      <trkpt lat="45.61855" lon="2.9397">
        <ele>1055.14</ele>
        <time>2021-07-20T14:50:19Z</time>
      </trkpt>
      <trkpt lat="45.61844" lon="2.93972">
        <ele>1056.96</ele>
        <time>2021-07-20T14:53:19Z</time>
      </trkpt>
      <trkpt lat="45.61834" lon="2.93974">
        <ele>1057.85</ele>
        <time>2021-07-20T14:53:24Z</time>
      </trkpt>
      <trkpt lat="45.61824" lon="2.93977">
        <ele>1060.84</ele>
        <time>2021-07-20T14:53:29Z</time>
      </trkpt>
      <trkpt lat="45.61814" lon="2.93977">
        <ele>1060.15</ele>
        <time>2021-07-20T14:53:33Z</time>
      </trkpt>
      <trkpt lat="45.61803" lon="2.93978">
        <ele>1062.11</ele>
        <time>2021-07-20T14:53:38Z</time>
      </trkpt>
      <trkpt lat="45.61794" lon="2.9398">
        <ele>1061.58</ele>
        <time>2021-07-20T14:53:42Z</time>
      </trkpt>
      <trkpt lat="45.61784" lon="2.93981">
        <ele>1061.39</ele>
        <time>2021-07-20T14:53:46Z</time>
      </trkpt>
      <trkpt lat="45.61775" lon="2.93981">
        <ele>1061.33</ele>
        <time>2021-07-20T14:53:50Z</time>
      </trkpt>
      <trkpt lat="45.61766" lon="2.93983">
        <ele>1062.24</ele>
        <time>2021-07-20T14:53:54Z</time>
      </trkpt>
      <trkpt lat="45.61756" lon="2.93984">
        <ele>1063.25</ele>
        <time>2021-07-20T14:53:58Z</time>
      </trkpt>
      <trkpt lat="45.61746" lon="2.93984">
        <ele>1064.89</ele>
        <time>2021-07-20T14:54:03Z</time>
      </trkpt>
      <trkpt lat="45.61735" lon="2.93985">
        <ele>1066.98</ele>
        <time>2021-07-20T14:54:08Z</time>
      </trkpt>
      <trkpt lat="45.61726" lon="2.93986">
        <ele>1066.88</ele>
        <time>2021-07-20T14:54:12Z</time>
      </trkpt>
      <trkpt lat="45.61717" lon="2.93988">
        <ele>1066.83</ele>
        <time>2021-07-20T14:54:16Z</time>
      </trkpt>
      <trkpt lat="45.61706" lon="2.93989">
        <ele>1066.1</ele>
        <time>2021-07-20T14:54:20Z</time>
      </trkpt>
      <trkpt lat="45.61697" lon="2.93992">
        <ele>1065.72</ele>
        <time>2021-07-20T14:54:24Z</time>
      </trkpt>
      <trkpt lat="45.61686" lon="2.93995">
        <ele>1066.24</ele>
        <time>2021-07-20T14:54:32Z</time>
      </trkpt>
      <trkpt lat="45.61677" lon="2.93997">
        <ele>1064.82</ele>
        <time>2021-07-20T14:54:36Z</time>
      </trkpt>
      <trkpt lat="45.61667" lon="2.93999">
        <ele>1065.3</ele>
        <time>2021-07-20T14:54:40Z</time>
      </trkpt>
      <trkpt lat="45.61657" lon="2.94001">
        <ele>1065.8</ele>
        <time>2021-07-20T14:54:44Z</time>
      </trkpt>
      <trkpt lat="45.61646" lon="2.94003">
        <ele>1067.54</ele>
        <time>2021-07-20T14:54:48Z</time>
      </trkpt>
      <trkpt lat="45.61635" lon="2.94005">
        <ele>1068.75</ele>
        <time>2021-07-20T14:54:52Z</time>
      </trkpt>
      <trkpt lat="45.61626" lon="2.94007">
        <ele>1070.07</ele>
        <time>2021-07-20T14:54:56Z</time>
      </trkpt>
      <trkpt lat="45.61614" lon="2.94007">
        <ele>1067.33</ele>
        <time>2021-07-20T14:55:00Z</time>
      </trkpt>
      <trkpt lat="45.61607" lon="2.93996">
        <ele>1067.26</ele>
        <time>2021-07-20T14:55:05Z</time>
      </trkpt>
      <trkpt lat="45.61606" lon="2.93983">
        <ele>1068.98</ele>
        <time>2021-07-20T14:55:10Z</time>
      </trkpt>
      <trkpt lat="45.61606" lon="2.93969">
        <ele>1068.57</ele>
        <time>2021-07-20T14:55:15Z</time>
      </trkpt>
      <trkpt lat="45.61607" lon="2.93955">
        <ele>1069.76</ele>
        <time>2021-07-20T14:55:20Z</time>
      </trkpt>
      <trkpt lat="45.61606" lon="2.9394">
        <ele>1071.56</ele>
        <time>2021-07-20T14:55:25Z</time>
      </trkpt>
      <trkpt lat="45.61605" lon="2.93926">
        <ele>1071.4</ele>
        <time>2021-07-20T14:55:30Z</time>
      </trkpt>
      <trkpt lat="45.61605" lon="2.93911">
        <ele>1072.72</ele>
        <time>2021-07-20T14:55:36Z</time>
      </trkpt>
      <trkpt lat="45.61601" lon="2.93898">
        <ele>1074.24</ele>
        <time>2021-07-20T14:55:42Z</time>
      </trkpt>
      <trkpt lat="45.61599" lon="2.93885">
        <ele>1075.95</ele>
        <time>2021-07-20T14:55:48Z</time>
      </trkpt>
      <trkpt lat="45.61599" lon="2.93871">
        <ele>1078.9</ele>
        <time>2021-07-20T14:55:54Z</time>
      </trkpt>
      <trkpt lat="45.616" lon="2.93858">
        <ele>1079.79</ele>
        <time>2021-07-20T14:56:00Z</time>
      </trkpt>
      <trkpt lat="45.616" lon="2.93844">
        <ele>1081.62</ele>
        <time>2021-07-20T14:56:06Z</time>
      </trkpt>
      <trkpt lat="45.61599" lon="2.9383">
        <ele>1084.24</ele>
        <time>2021-07-20T14:56:12Z</time>
      </trkpt>
      <trkpt lat="45.61597" lon="2.93817">
        <ele>1082.35</ele>
        <time>2021-07-20T14:56:18Z</time>
      </trkpt>
      <trkpt lat="45.61597" lon="2.93804">
        <ele>1083.22</ele>
        <time>2021-07-20T14:56:24Z</time>
      </trkpt>
      <trkpt lat="45.61596" lon="2.93791">
        <ele>1083.51</ele>
        <time>2021-07-20T14:56:30Z</time>
      </trkpt>
      <trkpt lat="45.61595" lon="2.93777">
        <ele>1087.11</ele>
        <time>2021-07-20T14:56:36Z</time>
      </trkpt>
      <trkpt lat="45.61595" lon="2.93764">
        <ele>1088.23</ele>
        <time>2021-07-20T14:56:41Z</time>
      </trkpt>
      <trkpt lat="45.61594" lon="2.93749">
        <ele>1088.23</ele>
        <time>2021-07-20T14:56:47Z</time>
      </trkpt>
      <trkpt lat="45.61592" lon="2.93736">
        <ele>1086.63</ele>
        <time>2021-07-20T14:56:51Z</time>
      </trkpt>
      <trkpt lat="45.61591" lon="2.93722">
        <ele>1088.72</ele>
        <time>2021-07-20T14:56:56Z</time>
      </trkpt>
      <trkpt lat="45.61592" lon="2.93708">
        <ele>1088.65</ele>
        <time>2021-07-20T14:57:01Z</time>
      </trkpt>
      <trkpt lat="45.61592" lon="2.93695">
        <ele>1088.53</ele>
        <time>2021-07-20T14:57:06Z</time>
      </trkpt>
      <trkpt lat="45.61592" lon="2.9368">
        <ele>1091.23</ele>
        <time>2021-07-20T14:57:12Z</time>
      </trkpt>
      <trkpt lat="45.61591" lon="2.93665">
        <ele>1090.53</ele>
        <time>2021-07-20T14:57:18Z</time>
      </trkpt>
      <trkpt lat="45.61589" lon="2.93652">
        <ele>1090.77</ele>
        <time>2021-07-20T14:57:23Z</time>
      </trkpt>
      <trkpt lat="45.61588" lon="2.93639">
        <ele>1090.59</ele>
        <time>2021-07-20T14:57:28Z</time>
      </trkpt>
      <trkpt lat="45.61587" lon="2.93624">
        <ele>1091.64</ele>
        <time>2021-07-20T14:57:34Z</time>
      </trkpt>
      <trkpt lat="45.61587" lon="2.9361">
        <ele>1094.05</ele>
        <time>2021-07-20T14:57:39Z</time>
      </trkpt>
      <trkpt lat="45.61586" lon="2.93597">
        <ele>1096.16</ele>
        <time>2021-07-20T14:57:43Z</time>
      </trkpt>
      <trkpt lat="45.61587" lon="2.93582">
        <ele>1095.68</ele>
        <time>2021-07-20T14:57:47Z</time>
      </trkpt>
      <trkpt lat="45.61586" lon="2.93568">
        <ele>1097.9</ele>
        <time>2021-07-20T14:57:51Z</time>
      </trkpt>
      <trkpt lat="45.61587" lon="2.93554">
        <ele>1101.11</ele>
        <time>2021-07-20T14:57:55Z</time>
      </trkpt>
      <trkpt lat="45.61586" lon="2.9354">
        <ele>1100.09</ele>
        <time>2021-07-20T14:58:00Z</time>
      </trkpt>
      <trkpt lat="45.61585" lon="2.93527">
        <ele>1101.63</ele>
        <time>2021-07-20T14:58:05Z</time>
      </trkpt>
      <trkpt lat="45.61585" lon="2.93511">
        <ele>1102.44</ele>
        <time>2021-07-20T14:58:10Z</time>
      </trkpt>
      <trkpt lat="45.61584" lon="2.93496">
        <ele>1104.23</ele>
        <time>2021-07-20T14:58:15Z</time>
      </trkpt>
      <trkpt lat="45.61584" lon="2.93482">
        <ele>1102.5</ele>
        <time>2021-07-20T14:58:19Z</time>
      </trkpt>
      <trkpt lat="45.61582" lon="2.93469">
        <ele>1101.34</ele>
        <time>2021-07-20T14:58:23Z</time>
      </trkpt>
      <trkpt lat="45.61581" lon="2.93455">
        <ele>1102.25</ele>
        <time>2021-07-20T14:58:27Z</time>
      </trkpt>
      <trkpt lat="45.6158" lon="2.9344">
        <ele>1101.81</ele>
        <time>2021-07-20T14:58:31Z</time>
      </trkpt>
      <trkpt lat="45.61579" lon="2.93425">
        <ele>1106.67</ele>
        <time>2021-07-20T14:58:36Z</time>
      </trkpt>
      <trkpt lat="45.61579" lon="2.93412">
        <ele>1110.19</ele>
        <time>2021-07-20T14:58:40Z</time>
      </trkpt>
      <trkpt lat="45.61581" lon="2.93399">
        <ele>1110.67</ele>
        <time>2021-07-20T14:58:44Z</time>
      </trkpt>
      <trkpt lat="45.61579" lon="2.93384">
        <ele>1107.63</ele>
        <time>2021-07-20T14:58:50Z</time>
      </trkpt>
      <trkpt lat="45.61578" lon="2.9337">
        <ele>1107.85</ele>
        <time>2021-07-20T14:58:55Z</time>
      </trkpt>
      <trkpt lat="45.61578" lon="2.93355">
        <ele>1109.59</ele>
        <time>2021-07-20T14:58:59Z</time>
      </trkpt>
      <trkpt lat="45.61577" lon="2.93341">
        <ele>1110.49</ele>
        <time>2021-07-20T14:59:03Z</time>
      </trkpt>
      <trkpt lat="45.61577" lon="2.93326">
        <ele>1110.77</ele>
        <time>2021-07-20T14:59:07Z</time>
      </trkpt>
      <trkpt lat="45.61576" lon="2.9331">
        <ele>1110.03</ele>
        <time>2021-07-20T14:59:11Z</time>
      </trkpt>
      <trkpt lat="45.61576" lon="2.93297">
        <ele>1109.86</ele>
        <time>2021-07-20T14:59:14Z</time>
      </trkpt>
      <trkpt lat="45.61575" lon="2.93279">
        <ele>1109.9</ele>
        <time>2021-07-20T14:59:18Z</time>
      </trkpt>
      <trkpt lat="45.61575" lon="2.93263">
        <ele>1108.65</ele>
        <time>2021-07-20T14:59:22Z</time>
      </trkpt>
      <trkpt lat="45.61574" lon="2.93247">
        <ele>1108.87</ele>
        <time>2021-07-20T14:59:28Z</time>
      </trkpt>
      <trkpt lat="45.61573" lon="2.93234">
        <ele>1109.22</ele>
        <time>2021-07-20T14:59:31Z</time>
      </trkpt>
      <trkpt lat="45.61573" lon="2.93221">
        <ele>1109.5</ele>
        <time>2021-07-20T14:59:34Z</time>
      </trkpt>
      <trkpt lat="45.61574" lon="2.93207">
        <ele>1109.42</ele>
        <time>2021-07-20T14:59:37Z</time>
      </trkpt>
      <trkpt lat="45.61575" lon="2.93192">
        <ele>1110.1</ele>
        <time>2021-07-20T14:59:41Z</time>
      </trkpt>
      <trkpt lat="45.61576" lon="2.93179">
        <ele>1110.15</ele>
        <time>2021-07-20T14:59:45Z</time>
      </trkpt>
      <trkpt lat="45.61577" lon="2.93164">
        <ele>1110.12</ele>
        <time>2021-07-20T14:59:49Z</time>
      </trkpt>
      <trkpt lat="45.61578" lon="2.93148">
        <ele>1110.18</ele>
        <time>2021-07-20T14:59:53Z</time>
      </trkpt>
      <trkpt lat="45.61581" lon="2.93134">
        <ele>1109.35</ele>
        <time>2021-07-20T14:59:57Z</time>
      </trkpt>
      <trkpt lat="45.61582" lon="2.9312">
        <ele>1109.32</ele>
        <time>2021-07-20T15:00:02Z</time>
      </trkpt>
      <trkpt lat="45.61582" lon="2.93104">
        <ele>1112.01</ele>
        <time>2021-07-20T15:00:07Z</time>
      </trkpt>
      <trkpt lat="45.61583" lon="2.93091">
        <ele>1113.06</ele>
        <time>2021-07-20T15:00:11Z</time>
      </trkpt>
      <trkpt lat="45.61584" lon="2.93076">
        <ele>1109.93</ele>
        <time>2021-07-20T15:00:16Z</time>
      </trkpt>
      <trkpt lat="45.61585" lon="2.93063">
        <ele>1109.46</ele>
        <time>2021-07-20T15:00:20Z</time>
      </trkpt>
      <trkpt lat="45.61584" lon="2.93048">
        <ele>1111.97</ele>
        <time>2021-07-20T15:00:24Z</time>
      </trkpt>
      <trkpt lat="45.61584" lon="2.93034">
        <ele>1114.78</ele>
        <time>2021-07-20T15:00:30Z</time>
      </trkpt>
      <trkpt lat="45.61582" lon="2.9302">
        <ele>1115.29</ele>
        <time>2021-07-20T15:00:35Z</time>
      </trkpt>
      <trkpt lat="45.61583" lon="2.93005">
        <ele>1115.74</ele>
        <time>2021-07-20T15:00:40Z</time>
      </trkpt>
      <trkpt lat="45.61581" lon="2.92993">
        <ele>1117.19</ele>
        <time>2021-07-20T15:00:46Z</time>
      </trkpt>
      <trkpt lat="45.61578" lon="2.9298">
        <ele>1116.49</ele>
        <time>2021-07-20T15:00:50Z</time>
      </trkpt>
      <trkpt lat="45.61577" lon="2.92967">
        <ele>1115.63</ele>
        <time>2021-07-20T15:00:54Z</time>
      </trkpt>
      <trkpt lat="45.61573" lon="2.92952">
        <ele>1115.86</ele>
        <time>2021-07-20T15:00:59Z</time>
      </trkpt>
      <trkpt lat="45.61571" lon="2.92939">
        <ele>1117.88</ele>
        <time>2021-07-20T15:01:03Z</time>
      </trkpt>
      <trkpt lat="45.61571" lon="2.92925">
        <ele>1117.67</ele>
        <time>2021-07-20T15:01:07Z</time>
      </trkpt>
      <trkpt lat="45.61571" lon="2.92911">
        <ele>1118.3</ele>
        <time>2021-07-20T15:01:11Z</time>
      </trkpt>
      <trkpt lat="45.61569" lon="2.92896">
        <ele>1116.82</ele>
        <time>2021-07-20T15:01:16Z</time>
      </trkpt>
      <trkpt lat="45.61568" lon="2.92882">
        <ele>1117.43</ele>
        <time>2021-07-20T15:01:20Z</time>
      </trkpt>
      <trkpt lat="45.61567" lon="2.92867">
        <ele>1118.32</ele>
        <time>2021-07-20T15:01:26Z</time>
      </trkpt>
      <trkpt lat="45.61566" lon="2.92851">
        <ele>1119.55</ele>
        <time>2021-07-20T15:01:31Z</time>
      </trkpt>
      <trkpt lat="45.61566" lon="2.92838">
        <ele>1119.62</ele>
        <time>2021-07-20T15:01:35Z</time>
      </trkpt>
      <trkpt lat="45.61565" lon="2.92823">
        <ele>1119.63</ele>
        <time>2021-07-20T15:01:39Z</time>
      </trkpt>
      <trkpt lat="45.61566" lon="2.92809">
        <ele>1120.49</ele>
        <time>2021-07-20T15:01:43Z</time>
      </trkpt>
      <trkpt lat="45.61565" lon="2.92794">
        <ele>1122.35</ele>
        <time>2021-07-20T15:01:47Z</time>
      </trkpt>
      <trkpt lat="45.61565" lon="2.92779">
        <ele>1123.48</ele>
        <time>2021-07-20T15:01:50Z</time>
      </trkpt>
      <trkpt lat="45.61565" lon="2.92765">
        <ele>1123.99</ele>
        <time>2021-07-20T15:01:53Z</time>
      </trkpt>
      <trkpt lat="45.61564" lon="2.92749">
        <ele>1123.57</ele>
        <time>2021-07-20T15:01:56Z</time>
      </trkpt>
      <trkpt lat="45.61563" lon="2.92732">
        <ele>1121.4</ele>
        <time>2021-07-20T15:01:59Z</time>
      </trkpt>
      <trkpt lat="45.61563" lon="2.92715">
        <ele>1119.16</ele>
        <time>2021-07-20T15:02:02Z</time>
      </trkpt>
      <trkpt lat="45.61562" lon="2.92701">
        <ele>1118.12</ele>
        <time>2021-07-20T15:02:05Z</time>
      </trkpt>
      <trkpt lat="45.61561" lon="2.92688">
        <ele>1118.36</ele>
        <time>2021-07-20T15:02:08Z</time>
      </trkpt>
      <trkpt lat="45.61561" lon="2.92674">
        <ele>1118.87</ele>
        <time>2021-07-20T15:02:11Z</time>
      </trkpt>
      <trkpt lat="45.6156" lon="2.9266">
        <ele>1118.69</ele>
        <time>2021-07-20T15:02:15Z</time>
      </trkpt>
      <trkpt lat="45.61558" lon="2.92647">
        <ele>1121.84</ele>
        <time>2021-07-20T15:02:27Z</time>
      </trkpt>
      <trkpt lat="45.61556" lon="2.92635">
        <ele>1120.58</ele>
        <time>2021-07-20T15:05:25Z</time>
      </trkpt>
      <trkpt lat="45.61561" lon="2.92646">
        <ele>1125.08</ele>
        <time>2021-07-20T15:06:20Z</time>
      </trkpt>
      <trkpt lat="45.61561" lon="2.92632">
        <ele>1123.06</ele>
        <time>2021-07-20T15:09:08Z</time>
      </trkpt>
      <trkpt lat="45.6156" lon="2.92618">
        <ele>1124.01</ele>
        <time>2021-07-20T15:09:13Z</time>
      </trkpt>
      <trkpt lat="45.61558" lon="2.92605">
        <ele>1125.54</ele>
        <time>2021-07-20T15:09:17Z</time>
      </trkpt>
      <trkpt lat="45.61558" lon="2.9259">
        <ele>1127.37</ele>
        <time>2021-07-20T15:09:22Z</time>
      </trkpt>
      <trkpt lat="45.61557" lon="2.92577">
        <ele>1129.92</ele>
        <time>2021-07-20T15:09:27Z</time>
      </trkpt>
      <trkpt lat="45.61557" lon="2.92563">
        <ele>1129.32</ele>
        <time>2021-07-20T15:09:33Z</time>
      </trkpt>
      <trkpt lat="45.61557" lon="2.92548">
        <ele>1129.62</ele>
        <time>2021-07-20T15:09:39Z</time>
      </trkpt>
      <trkpt lat="45.61555" lon="2.92533">
        <ele>1129.48</ele>
        <time>2021-07-20T15:09:45Z</time>
      </trkpt>
      <trkpt lat="45.61554" lon="2.92519">
        <ele>1130.55</ele>
        <time>2021-07-20T15:09:51Z</time>
      </trkpt>
      <trkpt lat="45.61553" lon="2.92505">
        <ele>1132.07</ele>
        <time>2021-07-20T15:09:57Z</time>
      </trkpt>
      <trkpt lat="45.61554" lon="2.92491">
        <ele>1135.84</ele>
        <time>2021-07-20T15:10:03Z</time>
      </trkpt>
      <trkpt lat="45.61552" lon="2.92478">
        <ele>1136.42</ele>
        <time>2021-07-20T15:10:09Z</time>
      </trkpt>
      <trkpt lat="45.61549" lon="2.92463">
        <ele>1134.41</ele>
        <time>2021-07-20T15:10:16Z</time>
      </trkpt>
      <trkpt lat="45.61548" lon="2.9245">
        <ele>1137.34</ele>
        <time>2021-07-20T15:10:21Z</time>
      </trkpt>
      <trkpt lat="45.61545" lon="2.92437">
        <ele>1136.87</ele>
        <time>2021-07-20T15:10:29Z</time>
      </trkpt>
      <trkpt lat="45.61542" lon="2.92423">
        <ele>1138.27</ele>
        <time>2021-07-20T15:10:37Z</time>
      </trkpt>
      <trkpt lat="45.61538" lon="2.92408">
        <ele>1139.47</ele>
        <time>2021-07-20T15:10:43Z</time>
      </trkpt>
      <trkpt lat="45.61536" lon="2.92396">
        <ele>1142.11</ele>
        <time>2021-07-20T15:10:48Z</time>
      </trkpt>
      <trkpt lat="45.61532" lon="2.92384">
        <ele>1142.48</ele>
        <time>2021-07-20T15:10:54Z</time>
      </trkpt>
      <trkpt lat="45.61529" lon="2.9237">
        <ele>1141.45</ele>
        <time>2021-07-20T15:11:00Z</time>
      </trkpt>
      <trkpt lat="45.61525" lon="2.92359">
        <ele>1140.67</ele>
        <time>2021-07-20T15:11:05Z</time>
      </trkpt>
      <trkpt lat="45.61523" lon="2.92344">
        <ele>1140.21</ele>
        <time>2021-07-20T15:11:10Z</time>
      </trkpt>
      <trkpt lat="45.61521" lon="2.9233">
        <ele>1140.31</ele>
        <time>2021-07-20T15:11:14Z</time>
      </trkpt>
      <trkpt lat="45.61519" lon="2.92315">
        <ele>1136.03</ele>
        <time>2021-07-20T15:11:18Z</time>
      </trkpt>
      <trkpt lat="45.61516" lon="2.92299">
        <ele>1133.9</ele>
        <time>2021-07-20T15:11:23Z</time>
      </trkpt>
      <trkpt lat="45.61512" lon="2.92285">
        <ele>1136.65</ele>
        <time>2021-07-20T15:11:28Z</time>
      </trkpt>
      <trkpt lat="45.61508" lon="2.92272">
        <ele>1134.98</ele>
        <time>2021-07-20T15:11:33Z</time>
      </trkpt>
      <trkpt lat="45.61502" lon="2.92259">
        <ele>1134.34</ele>
        <time>2021-07-20T15:11:38Z</time>
      </trkpt>
      <trkpt lat="45.61493" lon="2.92254">
        <ele>1134.34</ele>
        <time>2021-07-20T15:11:43Z</time>
      </trkpt>
      <trkpt lat="45.61485" lon="2.92261">
        <ele>1134.31</ele>
        <time>2021-07-20T15:11:47Z</time>
      </trkpt>
      <trkpt lat="45.61485" lon="2.92274">
        <ele>1135</ele>
        <time>2021-07-20T15:11:52Z</time>
      </trkpt>
      <trkpt lat="45.61482" lon="2.92289">
        <ele>1135.22</ele>
        <time>2021-07-20T15:11:57Z</time>
      </trkpt>
      <trkpt lat="45.61477" lon="2.92302">
        <ele>1134.43</ele>
        <time>2021-07-20T15:12:01Z</time>
      </trkpt>
      <trkpt lat="45.61471" lon="2.92315">
        <ele>1133.38</ele>
        <time>2021-07-20T15:12:05Z</time>
      </trkpt>
      <trkpt lat="45.61466" lon="2.92327">
        <ele>1133.27</ele>
        <time>2021-07-20T15:12:09Z</time>
      </trkpt>
      <trkpt lat="45.61461" lon="2.9234">
        <ele>1131.62</ele>
        <time>2021-07-20T15:12:14Z</time>
      </trkpt>
      <trkpt lat="45.61454" lon="2.92353">
        <ele>1131.42</ele>
        <time>2021-07-20T15:12:19Z</time>
      </trkpt>
      <trkpt lat="45.61448" lon="2.92367">
        <ele>1130.1</ele>
        <time>2021-07-20T15:12:23Z</time>
      </trkpt>
      <trkpt lat="45.61444" lon="2.92382">
        <ele>1129.39</ele>
        <time>2021-07-20T15:12:27Z</time>
      </trkpt>
      <trkpt lat="45.61441" lon="2.92395">
        <ele>1129.72</ele>
        <time>2021-07-20T15:12:30Z</time>
      </trkpt>
      <trkpt lat="45.61435" lon="2.92411">
        <ele>1128.06</ele>
        <time>2021-07-20T15:12:33Z</time>
      </trkpt>
      <trkpt lat="45.61428" lon="2.92425">
        <ele>1126.32</ele>
        <time>2021-07-20T15:12:35Z</time>
      </trkpt>
      <trkpt lat="45.61418" lon="2.92442">
        <ele>1122.87</ele>
        <time>2021-07-20T15:12:37Z</time>
      </trkpt>
      <trkpt lat="45.61411" lon="2.92455">
        <ele>1120.88</ele>
        <time>2021-07-20T15:12:39Z</time>
      </trkpt>
      <trkpt lat="45.61403" lon="2.92468">
        <ele>1122.56</ele>
        <time>2021-07-20T15:12:41Z</time>
      </trkpt>
      <trkpt lat="45.61394" lon="2.9248">
        <ele>1123.18</ele>
        <time>2021-07-20T15:12:43Z</time>
      </trkpt>
      <trkpt lat="45.61381" lon="2.92492">
        <ele>1121.99</ele>
        <time>2021-07-20T15:12:45Z</time>
      </trkpt>
      <trkpt lat="45.61365" lon="2.92497">
        <ele>1120.49</ele>
        <time>2021-07-20T15:12:47Z</time>
      </trkpt>
      <trkpt lat="45.61349" lon="2.92505">
        <ele>1118.78</ele>
        <time>2021-07-20T15:12:49Z</time>
      </trkpt>
      <trkpt lat="45.61343" lon="2.92515">
        <ele>1117.87</ele>
        <time>2021-07-20T15:12:50Z</time>
      </trkpt>
      <trkpt lat="45.61338" lon="2.92526">
        <ele>1116.95</ele>
        <time>2021-07-20T15:12:51Z</time>
      </trkpt>
      <trkpt lat="45.61332" lon="2.9254">
        <ele>1115.36</ele>
        <time>2021-07-20T15:12:52Z</time>
      </trkpt>
      <trkpt lat="45.61328" lon="2.92553">
        <ele>1113.9</ele>
        <time>2021-07-20T15:12:53Z</time>
      </trkpt>
      <trkpt lat="45.61324" lon="2.92566">
        <ele>1112.68</ele>
        <time>2021-07-20T15:12:54Z</time>
      </trkpt>
      <trkpt lat="45.61318" lon="2.92577">
        <ele>1111.37</ele>
        <time>2021-07-20T15:12:55Z</time>
      </trkpt>
      <trkpt lat="45.61312" lon="2.92589">
        <ele>1110.85</ele>
        <time>2021-07-20T15:12:56Z</time>
      </trkpt>
      <trkpt lat="45.61305" lon="2.92599">
        <ele>1110.79</ele>
        <time>2021-07-20T15:12:57Z</time>
      </trkpt>
      <trkpt lat="45.61296" lon="2.92608">
        <ele>1109.82</ele>
        <time>2021-07-20T15:12:58Z</time>
      </trkpt>
      <trkpt lat="45.61287" lon="2.92619">
        <ele>1109.19</ele>
        <time>2021-07-20T15:12:59Z</time>
      </trkpt>
      <trkpt lat="45.61277" lon="2.92626">
        <ele>1108.51</ele>
        <time>2021-07-20T15:13:00Z</time>
      </trkpt>
      <trkpt lat="45.61267" lon="2.92634">
        <ele>1106.51</ele>
        <time>2021-07-20T15:13:01Z</time>
      </trkpt>
      <trkpt lat="45.61258" lon="2.92639">
        <ele>1104.86</ele>
        <time>2021-07-20T15:13:02Z</time>
      </trkpt>
      <trkpt lat="45.61242" lon="2.92651">
        <ele>1101.73</ele>
        <time>2021-07-20T15:13:04Z</time>
      </trkpt>
      <trkpt lat="45.61226" lon="2.9266">
        <ele>1098.48</ele>
        <time>2021-07-20T15:13:06Z</time>
      </trkpt>
      <trkpt lat="45.61218" lon="2.92665">
        <ele>1097.33</ele>
        <time>2021-07-20T15:13:07Z</time>
      </trkpt>
      <trkpt lat="45.61209" lon="2.9267">
        <ele>1095.95</ele>
        <time>2021-07-20T15:13:08Z</time>
      </trkpt>
      <trkpt lat="45.612" lon="2.92675">
        <ele>1094.89</ele>
        <time>2021-07-20T15:13:09Z</time>
      </trkpt>
      <trkpt lat="45.61191" lon="2.9268">
        <ele>1093.79</ele>
        <time>2021-07-20T15:13:10Z</time>
      </trkpt>
      <trkpt lat="45.61174" lon="2.92693">
        <ele>1092.38</ele>
        <time>2021-07-20T15:13:12Z</time>
      </trkpt>
      <trkpt lat="45.6116" lon="2.92709">
        <ele>1090.19</ele>
        <time>2021-07-20T15:13:14Z</time>
      </trkpt>
      <trkpt lat="45.61153" lon="2.92718">
        <ele>1088.86</ele>
        <time>2021-07-20T15:13:15Z</time>
      </trkpt>
      <trkpt lat="45.61141" lon="2.92738">
        <ele>1087.18</ele>
        <time>2021-07-20T15:13:17Z</time>
      </trkpt>
      <trkpt lat="45.61135" lon="2.92747">
        <ele>1086.77</ele>
        <time>2021-07-20T15:13:18Z</time>
      </trkpt>
      <trkpt lat="45.61122" lon="2.92762">
        <ele>1084.49</ele>
        <time>2021-07-20T15:13:20Z</time>
      </trkpt>
      <trkpt lat="45.61108" lon="2.92777">
        <ele>1082.4</ele>
        <time>2021-07-20T15:13:22Z</time>
      </trkpt>
      <trkpt lat="45.61094" lon="2.92791">
        <ele>1081.75</ele>
        <time>2021-07-20T15:13:24Z</time>
      </trkpt>
      <trkpt lat="45.6108" lon="2.92807">
        <ele>1080.85</ele>
        <time>2021-07-20T15:13:26Z</time>
      </trkpt>
      <trkpt lat="45.61071" lon="2.92823">
        <ele>1077.32</ele>
        <time>2021-07-20T15:13:28Z</time>
      </trkpt>
      <trkpt lat="45.6106" lon="2.92837">
        <ele>1075.26</ele>
        <time>2021-07-20T15:13:30Z</time>
      </trkpt>
      <trkpt lat="45.61048" lon="2.92847">
        <ele>1073.4</ele>
        <time>2021-07-20T15:13:32Z</time>
      </trkpt>
      <trkpt lat="45.61038" lon="2.92859">
        <ele>1070.77</ele>
        <time>2021-07-20T15:13:34Z</time>
      </trkpt>
      <trkpt lat="45.61027" lon="2.9287">
        <ele>1068.7</ele>
        <time>2021-07-20T15:13:36Z</time>
      </trkpt>
      <trkpt lat="45.61019" lon="2.92885">
        <ele>1066.73</ele>
        <time>2021-07-20T15:13:38Z</time>
      </trkpt>
      <trkpt lat="45.61015" lon="2.92901">
        <ele>1066.65</ele>
        <time>2021-07-20T15:13:40Z</time>
      </trkpt>
      <trkpt lat="45.6101" lon="2.92914">
        <ele>1064.84</ele>
        <time>2021-07-20T15:13:43Z</time>
      </trkpt>
      <trkpt lat="45.61001" lon="2.92926">
        <ele>1066.12</ele>
        <time>2021-07-20T15:13:46Z</time>
      </trkpt>
      <trkpt lat="45.60993" lon="2.92932">
        <ele>1065.84</ele>
        <time>2021-07-20T15:13:49Z</time>
      </trkpt>
      <trkpt lat="45.60984" lon="2.92938">
        <ele>1063.7</ele>
        <time>2021-07-20T15:13:53Z</time>
      </trkpt>
      <trkpt lat="45.60974" lon="2.92942">
        <ele>1061.58</ele>
        <time>2021-07-20T15:13:57Z</time>
      </trkpt>
      <trkpt lat="45.60963" lon="2.92952">
        <ele>1058.82</ele>
        <time>2021-07-20T15:14:01Z</time>
      </trkpt>
      <trkpt lat="45.60956" lon="2.92967">
        <ele>1057.42</ele>
        <time>2021-07-20T15:14:04Z</time>
      </trkpt>
      <trkpt lat="45.60952" lon="2.92979">
        <ele>1057.57</ele>
        <time>2021-07-20T15:14:06Z</time>
      </trkpt>
      <trkpt lat="45.60945" lon="2.9299">
        <ele>1057.94</ele>
        <time>2021-07-20T15:14:08Z</time>
      </trkpt>
      <trkpt lat="45.60938" lon="2.93">
        <ele>1057.88</ele>
        <time>2021-07-20T15:14:10Z</time>
      </trkpt>
      <trkpt lat="45.6093" lon="2.93008">
        <ele>1057.8</ele>
        <time>2021-07-20T15:14:12Z</time>
      </trkpt>
      <trkpt lat="45.6092" lon="2.93013">
        <ele>1058.42</ele>
        <time>2021-07-20T15:14:15Z</time>
      </trkpt>
      <trkpt lat="45.60912" lon="2.93021">
        <ele>1059.38</ele>
        <time>2021-07-20T15:14:18Z</time>
      </trkpt>
      <trkpt lat="45.60903" lon="2.93025">
        <ele>1059.24</ele>
        <time>2021-07-20T15:14:21Z</time>
      </trkpt>
      <trkpt lat="45.60891" lon="2.93032">
        <ele>1059.52</ele>
        <time>2021-07-20T15:14:24Z</time>
      </trkpt>
      <trkpt lat="45.60882" lon="2.93035">
        <ele>1059.78</ele>
        <time>2021-07-20T15:14:26Z</time>
      </trkpt>
      <trkpt lat="45.60871" lon="2.93039">
        <ele>1059.89</ele>
        <time>2021-07-20T15:14:28Z</time>
      </trkpt>
      <trkpt lat="45.60859" lon="2.93045">
        <ele>1059.38</ele>
        <time>2021-07-20T15:14:31Z</time>
      </trkpt>
      <trkpt lat="45.6085" lon="2.93049">
        <ele>1060.08</ele>
        <time>2021-07-20T15:14:33Z</time>
      </trkpt>
      <trkpt lat="45.60839" lon="2.93053">
        <ele>1057.22</ele>
        <time>2021-07-20T15:14:35Z</time>
      </trkpt>
      <trkpt lat="45.60828" lon="2.93056">
        <ele>1056.95</ele>
        <time>2021-07-20T15:14:37Z</time>
      </trkpt>
      <trkpt lat="45.60817" lon="2.9306">
        <ele>1057.57</ele>
        <time>2021-07-20T15:14:39Z</time>
      </trkpt>
      <trkpt lat="45.60806" lon="2.9307">
        <ele>1055.64</ele>
        <time>2021-07-20T15:14:42Z</time>
      </trkpt>
      <trkpt lat="45.60792" lon="2.93074">
        <ele>1054.15</ele>
        <time>2021-07-20T15:14:45Z</time>
      </trkpt>
      <trkpt lat="45.60782" lon="2.93077">
        <ele>1054.68</ele>
        <time>2021-07-20T15:14:47Z</time>
      </trkpt>
      <trkpt lat="45.60773" lon="2.9308">
        <ele>1055.37</ele>
        <time>2021-07-20T15:14:49Z</time>
      </trkpt>
      <trkpt lat="45.60763" lon="2.93086">
        <ele>1054.82</ele>
        <time>2021-07-20T15:14:52Z</time>
      </trkpt>
      <trkpt lat="45.60752" lon="2.93086">
        <ele>1052.66</ele>
        <time>2021-07-20T15:14:56Z</time>
      </trkpt>
      <trkpt lat="45.60742" lon="2.93083">
        <ele>1050.75</ele>
        <time>2021-07-20T15:15:00Z</time>
      </trkpt>
      <trkpt lat="45.60733" lon="2.93086">
        <ele>1052.28</ele>
        <time>2021-07-20T15:15:04Z</time>
      </trkpt>
      <trkpt lat="45.60723" lon="2.93093">
        <ele>1049.86</ele>
        <time>2021-07-20T15:15:08Z</time>
      </trkpt>
      <trkpt lat="45.60714" lon="2.93101">
        <ele>1048.49</ele>
        <time>2021-07-20T15:15:11Z</time>
      </trkpt>
      <trkpt lat="45.60706" lon="2.9311">
        <ele>1047.39</ele>
        <time>2021-07-20T15:15:14Z</time>
      </trkpt>
      <trkpt lat="45.607" lon="2.93123">
        <ele>1044.74</ele>
        <time>2021-07-20T15:15:18Z</time>
      </trkpt>
      <trkpt lat="45.60695" lon="2.93137">
        <ele>1047.6</ele>
        <time>2021-07-20T15:15:23Z</time>
      </trkpt>
      <trkpt lat="45.60692" lon="2.9315">
        <ele>1047.3</ele>
        <time>2021-07-20T15:15:27Z</time>
      </trkpt>
      <trkpt lat="45.60687" lon="2.93163">
        <ele>1043.24</ele>
        <time>2021-07-20T15:15:33Z</time>
      </trkpt>
      <trkpt lat="45.6068" lon="2.93176">
        <ele>1044.14</ele>
        <time>2021-07-20T15:15:38Z</time>
      </trkpt>
      <trkpt lat="45.60673" lon="2.93187">
        <ele>1044.88</ele>
        <time>2021-07-20T15:15:42Z</time>
      </trkpt>
      <trkpt lat="45.60665" lon="2.93198">
        <ele>1044.69</ele>
        <time>2021-07-20T15:15:45Z</time>
      </trkpt>
      <trkpt lat="45.60657" lon="2.93209">
        <ele>1044.72</ele>
        <time>2021-07-20T15:15:48Z</time>
      </trkpt>
      <trkpt lat="45.60649" lon="2.93219">
        <ele>1044.96</ele>
        <time>2021-07-20T15:15:52Z</time>
      </trkpt>
      <trkpt lat="45.60639" lon="2.93228">
        <ele>1043.68</ele>
        <time>2021-07-20T15:15:56Z</time>
      </trkpt>
      <trkpt lat="45.60631" lon="2.93237">
        <ele>1042.41</ele>
        <time>2021-07-20T15:16:00Z</time>
      </trkpt>
      <trkpt lat="45.60621" lon="2.93247">
        <ele>1042.97</ele>
        <time>2021-07-20T15:16:04Z</time>
      </trkpt>
      <trkpt lat="45.60613" lon="2.93253">
        <ele>1043.38</ele>
        <time>2021-07-20T15:16:07Z</time>
      </trkpt>
      <trkpt lat="45.60603" lon="2.9326">
        <ele>1044.76</ele>
        <time>2021-07-20T15:16:11Z</time>
      </trkpt>
      <trkpt lat="45.60592" lon="2.93269">
        <ele>1045.88</ele>
        <time>2021-07-20T15:16:15Z</time>
      </trkpt>
      <trkpt lat="45.60583" lon="2.93273">
        <ele>1045.71</ele>
        <time>2021-07-20T15:16:18Z</time>
      </trkpt>
      <trkpt lat="45.60573" lon="2.93277">
        <ele>1046.32</ele>
        <time>2021-07-20T15:16:22Z</time>
      </trkpt>
      <trkpt lat="45.60564" lon="2.93281">
        <ele>1047.91</ele>
        <time>2021-07-20T15:16:26Z</time>
      </trkpt>
      <trkpt lat="45.60555" lon="2.93287">
        <ele>1049.15</ele>
        <time>2021-07-20T15:16:31Z</time>
      </trkpt>
      <trkpt lat="45.60547" lon="2.93294">
        <ele>1050.5</ele>
        <time>2021-07-20T15:16:37Z</time>
      </trkpt>
      <trkpt lat="45.60538" lon="2.93292">
        <ele>1051.27</ele>
        <time>2021-07-20T15:16:44Z</time>
      </trkpt>
      <trkpt lat="45.60527" lon="2.93293">
        <ele>1051.45</ele>
        <time>2021-07-20T15:16:50Z</time>
      </trkpt>
      <trkpt lat="45.60516" lon="2.93293">
        <ele>1052.53</ele>
        <time>2021-07-20T15:16:55Z</time>
      </trkpt>
      <trkpt lat="45.60505" lon="2.93292">
        <ele>1050.9</ele>
        <time>2021-07-20T15:16:59Z</time>
      </trkpt>
      <trkpt lat="45.60496" lon="2.93289">
        <ele>1050.42</ele>
        <time>2021-07-20T15:17:03Z</time>
      </trkpt>
      <trkpt lat="45.60486" lon="2.93285">
        <ele>1049.98</ele>
        <time>2021-07-20T15:17:07Z</time>
      </trkpt>
      <trkpt lat="45.60476" lon="2.93278">
        <ele>1049.26</ele>
        <time>2021-07-20T15:17:11Z</time>
      </trkpt>
      <trkpt lat="45.60466" lon="2.93273">
        <ele>1048.79</ele>
        <time>2021-07-20T15:17:14Z</time>
      </trkpt>
      <trkpt lat="45.60453" lon="2.93269">
        <ele>1047.85</ele>
        <time>2021-07-20T15:17:17Z</time>
      </trkpt>
      <trkpt lat="45.60444" lon="2.93263">
        <ele>1047.3</ele>
        <time>2021-07-20T15:17:19Z</time>
      </trkpt>
      <trkpt lat="45.60435" lon="2.93255">
        <ele>1046.09</ele>
        <time>2021-07-20T15:17:21Z</time>
      </trkpt>
      <trkpt lat="45.60422" lon="2.93249">
        <ele>1044.87</ele>
        <time>2021-07-20T15:17:23Z</time>
      </trkpt>
      <trkpt lat="45.6041" lon="2.9324">
        <ele>1042.66</ele>
        <time>2021-07-20T15:17:25Z</time>
      </trkpt>
      <trkpt lat="45.60397" lon="2.93228">
        <ele>1041.64</ele>
        <time>2021-07-20T15:17:27Z</time>
      </trkpt>
      <trkpt lat="45.60383" lon="2.93218">
        <ele>1040.59</ele>
        <time>2021-07-20T15:17:29Z</time>
      </trkpt>
      <trkpt lat="45.60366" lon="2.93208">
        <ele>1039.52</ele>
        <time>2021-07-20T15:17:31Z</time>
      </trkpt>
      <trkpt lat="45.60351" lon="2.93198">
        <ele>1037.78</ele>
        <time>2021-07-20T15:17:33Z</time>
      </trkpt>
      <trkpt lat="45.60337" lon="2.9319">
        <ele>1035.87</ele>
        <time>2021-07-20T15:17:35Z</time>
      </trkpt>
      <trkpt lat="45.60324" lon="2.93184">
        <ele>1034.94</ele>
        <time>2021-07-20T15:17:37Z</time>
      </trkpt>
      <trkpt lat="45.6031" lon="2.93175">
        <ele>1034.26</ele>
        <time>2021-07-20T15:17:39Z</time>
      </trkpt>
      <trkpt lat="45.60296" lon="2.93163">
        <ele>1032.95</ele>
        <time>2021-07-20T15:17:41Z</time>
      </trkpt>
      <trkpt lat="45.60281" lon="2.93153">
        <ele>1031.39</ele>
        <time>2021-07-20T15:17:43Z</time>
      </trkpt>
      <trkpt lat="45.60273" lon="2.93146">
        <ele>1030.79</ele>
        <time>2021-07-20T15:17:44Z</time>
      </trkpt>
      <trkpt lat="45.60258" lon="2.93133">
        <ele>1029.68</ele>
        <time>2021-07-20T15:17:46Z</time>
      </trkpt>
      <trkpt lat="45.60249" lon="2.93126">
        <ele>1029.34</ele>
        <time>2021-07-20T15:17:47Z</time>
      </trkpt>
      <trkpt lat="45.60242" lon="2.93118">
        <ele>1028.93</ele>
        <time>2021-07-20T15:17:48Z</time>
      </trkpt>
      <trkpt lat="45.60235" lon="2.9311">
        <ele>1028.62</ele>
        <time>2021-07-20T15:17:49Z</time>
      </trkpt>
      <trkpt lat="45.6022" lon="2.93097">
        <ele>1028.48</ele>
        <time>2021-07-20T15:17:51Z</time>
      </trkpt>
      <trkpt lat="45.60205" lon="2.93083">
        <ele>1028.19</ele>
        <time>2021-07-20T15:17:53Z</time>
      </trkpt>
      <trkpt lat="45.60192" lon="2.93069">
        <ele>1027.74</ele>
        <time>2021-07-20T15:17:55Z</time>
      </trkpt>
      <trkpt lat="45.6018" lon="2.93054">
        <ele>1026.55</ele>
        <time>2021-07-20T15:17:57Z</time>
      </trkpt>
      <trkpt lat="45.60167" lon="2.93037">
        <ele>1024.16</ele>
        <time>2021-07-20T15:17:59Z</time>
      </trkpt>
      <trkpt lat="45.60153" lon="2.93024">
        <ele>1023.21</ele>
        <time>2021-07-20T15:18:01Z</time>
      </trkpt>
      <trkpt lat="45.6014" lon="2.93011">
        <ele>1022.86</ele>
        <time>2021-07-20T15:18:03Z</time>
      </trkpt>
      <trkpt lat="45.60128" lon="2.92997">
        <ele>1022.39</ele>
        <time>2021-07-20T15:18:05Z</time>
      </trkpt>
      <trkpt lat="45.60115" lon="2.92983">
        <ele>1022.32</ele>
        <time>2021-07-20T15:18:07Z</time>
      </trkpt>
      <trkpt lat="45.60103" lon="2.92971">
        <ele>1022.21</ele>
        <time>2021-07-20T15:18:09Z</time>
      </trkpt>
      <trkpt lat="45.60089" lon="2.92959">
        <ele>1021.84</ele>
        <time>2021-07-20T15:18:11Z</time>
      </trkpt>
      <trkpt lat="45.60076" lon="2.9295">
        <ele>1021.56</ele>
        <time>2021-07-20T15:18:13Z</time>
      </trkpt>
      <trkpt lat="45.60064" lon="2.92942">
        <ele>1022.15</ele>
        <time>2021-07-20T15:18:15Z</time>
      </trkpt>
      <trkpt lat="45.60052" lon="2.92935">
        <ele>1022.14</ele>
        <time>2021-07-20T15:18:17Z</time>
      </trkpt>
      <trkpt lat="45.60041" lon="2.92928">
        <ele>1022.95</ele>
        <time>2021-07-20T15:18:19Z</time>
      </trkpt>
      <trkpt lat="45.60031" lon="2.9292">
        <ele>1022.45</ele>
        <time>2021-07-20T15:18:21Z</time>
      </trkpt>
      <trkpt lat="45.60019" lon="2.92913">
        <ele>1021.7</ele>
        <time>2021-07-20T15:18:24Z</time>
      </trkpt>
      <trkpt lat="45.60009" lon="2.92914">
        <ele>1022.02</ele>
        <time>2021-07-20T15:18:26Z</time>
      </trkpt>
      <trkpt lat="45.59998" lon="2.92916">
        <ele>1022.56</ele>
        <time>2021-07-20T15:18:30Z</time>
      </trkpt>
      <trkpt lat="45.59981" lon="2.92923">
        <ele>1021.47</ele>
        <time>2021-07-20T15:18:33Z</time>
      </trkpt>
      <trkpt lat="45.5997" lon="2.92927">
        <ele>1020.05</ele>
        <time>2021-07-20T15:18:36Z</time>
      </trkpt>
      <trkpt lat="45.5996" lon="2.92927">
        <ele>1019.68</ele>
        <time>2021-07-20T15:18:39Z</time>
      </trkpt>
      <trkpt lat="45.59945" lon="2.92921">
        <ele>1019.27</ele>
        <time>2021-07-20T15:18:44Z</time>
      </trkpt>
      <trkpt lat="45.59936" lon="2.92922">
        <ele>1019.76</ele>
        <time>2021-07-20T15:18:45Z</time>
      </trkpt>
      <trkpt lat="45.59925" lon="2.92921">
        <ele>1021.87</ele>
        <time>2021-07-20T15:18:49Z</time>
      </trkpt>
      <trkpt lat="45.59916" lon="2.92917">
        <ele>1023.24</ele>
        <time>2021-07-20T15:18:54Z</time>
      </trkpt>
      <trkpt lat="45.59903" lon="2.92913">
        <ele>1022.94</ele>
        <time>2021-07-20T15:18:57Z</time>
      </trkpt>
      <trkpt lat="45.59894" lon="2.9291">
        <ele>1023.71</ele>
        <time>2021-07-20T15:19:00Z</time>
      </trkpt>
      <trkpt lat="45.59884" lon="2.92907">
        <ele>1022.82</ele>
        <time>2021-07-20T15:19:04Z</time>
      </trkpt>
      <trkpt lat="45.59874" lon="2.92903">
        <ele>1023.18</ele>
        <time>2021-07-20T15:19:08Z</time>
      </trkpt>
      <trkpt lat="45.59864" lon="2.92901">
        <ele>1023.98</ele>
        <time>2021-07-20T15:19:11Z</time>
      </trkpt>
      <trkpt lat="45.59853" lon="2.92899">
        <ele>1024.47</ele>
        <time>2021-07-20T15:19:14Z</time>
      </trkpt>
      <trkpt lat="45.59845" lon="2.92896">
        <ele>1023.36</ele>
        <time>2021-07-20T15:19:17Z</time>
      </trkpt>
      <trkpt lat="45.59835" lon="2.92896">
        <ele>1023.53</ele>
        <time>2021-07-20T15:19:21Z</time>
      </trkpt>
      <trkpt lat="45.59819" lon="2.92892">
        <ele>1023.68</ele>
        <time>2021-07-20T15:19:26Z</time>
      </trkpt>
      <trkpt lat="45.59809" lon="2.92892">
        <ele>1023.45</ele>
        <time>2021-07-20T15:19:30Z</time>
      </trkpt>
      <trkpt lat="45.59798" lon="2.9289">
        <ele>1021.95</ele>
        <time>2021-07-20T15:19:33Z</time>
      </trkpt>
      <trkpt lat="45.59785" lon="2.92889">
        <ele>1020.44</ele>
        <time>2021-07-20T15:19:36Z</time>
      </trkpt>
      <trkpt lat="45.59774" lon="2.92891">
        <ele>1020.1</ele>
        <time>2021-07-20T15:19:39Z</time>
      </trkpt>
      <trkpt lat="45.59763" lon="2.9289">
        <ele>1022.51</ele>
        <time>2021-07-20T15:19:42Z</time>
      </trkpt>
      <trkpt lat="45.59755" lon="2.92883">
        <ele>1023.39</ele>
        <time>2021-07-20T15:19:44Z</time>
      </trkpt>
      <trkpt lat="45.59746" lon="2.92878">
        <ele>1024.28</ele>
        <time>2021-07-20T15:19:46Z</time>
      </trkpt>
      <trkpt lat="45.59738" lon="2.92871">
        <ele>1024.49</ele>
        <time>2021-07-20T15:19:48Z</time>
      </trkpt>
      <trkpt lat="45.59729" lon="2.92865">
        <ele>1024.58</ele>
        <time>2021-07-20T15:19:50Z</time>
      </trkpt>
      <trkpt lat="45.59721" lon="2.92859">
        <ele>1025.13</ele>
        <time>2021-07-20T15:19:52Z</time>
      </trkpt>
      <trkpt lat="45.5971" lon="2.92851">
        <ele>1026.62</ele>
        <time>2021-07-20T15:19:55Z</time>
      </trkpt>
      <trkpt lat="45.597" lon="2.92846">
        <ele>1026.78</ele>
        <time>2021-07-20T15:19:59Z</time>
      </trkpt>
      <trkpt lat="45.59691" lon="2.9284">
        <ele>1025.07</ele>
        <time>2021-07-20T15:20:02Z</time>
      </trkpt>
      <trkpt lat="45.59682" lon="2.92833">
        <ele>1026.22</ele>
        <time>2021-07-20T15:20:05Z</time>
      </trkpt>
      <trkpt lat="45.59673" lon="2.92824">
        <ele>1028.13</ele>
        <time>2021-07-20T15:20:09Z</time>
      </trkpt>
      <trkpt lat="45.59663" lon="2.92825">
        <ele>1029.19</ele>
        <time>2021-07-20T15:20:12Z</time>
      </trkpt>
      <trkpt lat="45.59655" lon="2.92838">
        <ele>1029.91</ele>
        <time>2021-07-20T15:20:15Z</time>
      </trkpt>
      <trkpt lat="45.59648" lon="2.92847">
        <ele>1029.63</ele>
        <time>2021-07-20T15:20:18Z</time>
      </trkpt>
      <trkpt lat="45.5964" lon="2.92855">
        <ele>1029.46</ele>
        <time>2021-07-20T15:20:21Z</time>
      </trkpt>
      <trkpt lat="45.5963" lon="2.92858">
        <ele>1029.5</ele>
        <time>2021-07-20T15:20:24Z</time>
      </trkpt>
      <trkpt lat="45.59621" lon="2.92864">
        <ele>1030.23</ele>
        <time>2021-07-20T15:20:28Z</time>
      </trkpt>
      <trkpt lat="45.59619" lon="2.92849">
        <ele>1031.1</ele>
        <time>2021-07-20T15:24:05Z</time>
      </trkpt>
      <trkpt lat="45.59612" lon="2.92838">
        <ele>1026.65</ele>
        <time>2021-07-20T15:24:09Z</time>
      </trkpt>
      <trkpt lat="45.59607" lon="2.92827">
        <ele>1025.64</ele>
        <time>2021-07-20T15:24:13Z</time>
      </trkpt>
      <trkpt lat="45.59602" lon="2.92816">
        <ele>1023.18</ele>
        <time>2021-07-20T15:24:18Z</time>
      </trkpt>
      <trkpt lat="45.59598" lon="2.92804">
        <ele>1022.59</ele>
        <time>2021-07-20T15:24:23Z</time>
      </trkpt>
      <trkpt lat="45.59592" lon="2.92792">
        <ele>1023.22</ele>
        <time>2021-07-20T15:24:29Z</time>
      </trkpt>
      <trkpt lat="45.59585" lon="2.92782">
        <ele>1023.77</ele>
        <time>2021-07-20T15:24:35Z</time>
      </trkpt>
      <trkpt lat="45.59579" lon="2.9277">
        <ele>1024.24</ele>
        <time>2021-07-20T15:24:42Z</time>
      </trkpt>
      <trkpt lat="45.59573" lon="2.92758">
        <ele>1024.58</ele>
        <time>2021-07-20T15:24:48Z</time>
      </trkpt>
      <trkpt lat="45.59566" lon="2.92748">
        <ele>1025.88</ele>
        <time>2021-07-20T15:24:53Z</time>
      </trkpt>
      <trkpt lat="45.5956" lon="2.92736">
        <ele>1025.66</ele>
        <time>2021-07-20T15:24:58Z</time>
      </trkpt>
      <trkpt lat="45.59553" lon="2.92726">
        <ele>1025.82</ele>
        <time>2021-07-20T15:25:03Z</time>
      </trkpt>
      <trkpt lat="45.59545" lon="2.92716">
        <ele>1026.34</ele>
        <time>2021-07-20T15:25:08Z</time>
      </trkpt>
      <trkpt lat="45.59537" lon="2.92705">
        <ele>1027.63</ele>
        <time>2021-07-20T15:25:13Z</time>
      </trkpt>
      <trkpt lat="45.5953" lon="2.92695">
        <ele>1027.32</ele>
        <time>2021-07-20T15:25:17Z</time>
      </trkpt>
      <trkpt lat="45.59524" lon="2.92682">
        <ele>1027.64</ele>
        <time>2021-07-20T15:25:22Z</time>
      </trkpt>
      <trkpt lat="45.59521" lon="2.92669">
        <ele>1025.76</ele>
        <time>2021-07-20T15:25:27Z</time>
      </trkpt>
      <trkpt lat="45.59516" lon="2.92658">
        <ele>1025.1</ele>
        <time>2021-07-20T15:25:32Z</time>
      </trkpt>
      <trkpt lat="45.59511" lon="2.92645">
        <ele>1025.14</ele>
        <time>2021-07-20T15:25:38Z</time>
      </trkpt>
      <trkpt lat="45.59506" lon="2.92633">
        <ele>1025.54</ele>
        <time>2021-07-20T15:25:43Z</time>
      </trkpt>
      <trkpt lat="45.595" lon="2.92622">
        <ele>1027.22</ele>
        <time>2021-07-20T15:25:48Z</time>
      </trkpt>
      <trkpt lat="45.59495" lon="2.92612">
        <ele>1027.22</ele>
        <time>2021-07-20T15:25:53Z</time>
      </trkpt>
      <trkpt lat="45.59488" lon="2.92602">
        <ele>1029.58</ele>
        <time>2021-07-20T15:25:58Z</time>
      </trkpt>
      <trkpt lat="45.59481" lon="2.92593">
        <ele>1030.28</ele>
        <time>2021-07-20T15:26:03Z</time>
      </trkpt>
      <trkpt lat="45.59473" lon="2.92585">
        <ele>1032.53</ele>
        <time>2021-07-20T15:26:08Z</time>
      </trkpt>
      <trkpt lat="45.59464" lon="2.92576">
        <ele>1035.26</ele>
        <time>2021-07-20T15:26:14Z</time>
      </trkpt>
      <trkpt lat="45.59459" lon="2.92566">
        <ele>1035.78</ele>
        <time>2021-07-20T15:26:19Z</time>
      </trkpt>
      <trkpt lat="45.59452" lon="2.92553">
        <ele>1035</ele>
        <time>2021-07-20T15:26:24Z</time>
      </trkpt>
      <trkpt lat="45.59448" lon="2.92539">
        <ele>1030.85</ele>
        <time>2021-07-20T15:26:29Z</time>
      </trkpt>
      <trkpt lat="45.59444" lon="2.92525">
        <ele>1031.34</ele>
        <time>2021-07-20T15:26:34Z</time>
      </trkpt>
      <trkpt lat="45.59441" lon="2.92509">
        <ele>1031.58</ele>
        <time>2021-07-20T15:26:39Z</time>
      </trkpt>
      <trkpt lat="45.59438" lon="2.92496">
        <ele>1029.93</ele>
        <time>2021-07-20T15:26:43Z</time>
      </trkpt>
      <trkpt lat="45.59434" lon="2.92484">
        <ele>1029.53</ele>
        <time>2021-07-20T15:26:47Z</time>
      </trkpt>
      <trkpt lat="45.59429" lon="2.92472">
        <ele>1030.16</ele>
        <time>2021-07-20T15:26:51Z</time>
      </trkpt>
      <trkpt lat="45.59422" lon="2.9246">
        <ele>1029.53</ele>
        <time>2021-07-20T15:26:56Z</time>
      </trkpt>
      <trkpt lat="45.59416" lon="2.92449">
        <ele>1030.08</ele>
        <time>2021-07-20T15:27:00Z</time>
      </trkpt>
      <trkpt lat="45.59409" lon="2.92439">
        <ele>1032.29</ele>
        <time>2021-07-20T15:27:04Z</time>
      </trkpt>
      <trkpt lat="45.59401" lon="2.92429">
        <ele>1032.83</ele>
        <time>2021-07-20T15:27:08Z</time>
      </trkpt>
      <trkpt lat="45.59395" lon="2.92418">
        <ele>1031.74</ele>
        <time>2021-07-20T15:27:12Z</time>
      </trkpt>
      <trkpt lat="45.59388" lon="2.92409">
        <ele>1034.2</ele>
        <time>2021-07-20T15:27:17Z</time>
      </trkpt>
      <trkpt lat="45.5938" lon="2.92396">
        <ele>1035.8</ele>
        <time>2021-07-20T15:27:22Z</time>
      </trkpt>
      <trkpt lat="45.59374" lon="2.92386">
        <ele>1037.35</ele>
        <time>2021-07-20T15:27:25Z</time>
      </trkpt>
      <trkpt lat="45.59369" lon="2.92373">
        <ele>1038.9</ele>
        <time>2021-07-20T15:27:29Z</time>
      </trkpt>
      <trkpt lat="45.59365" lon="2.92358">
        <ele>1039.11</ele>
        <time>2021-07-20T15:27:33Z</time>
      </trkpt>
      <trkpt lat="45.5936" lon="2.92345">
        <ele>1038.06</ele>
        <time>2021-07-20T15:27:38Z</time>
      </trkpt>
      <trkpt lat="45.59355" lon="2.92332">
        <ele>1039.47</ele>
        <time>2021-07-20T15:27:43Z</time>
      </trkpt>
      <trkpt lat="45.59351" lon="2.9232">
        <ele>1039.73</ele>
        <time>2021-07-20T15:27:48Z</time>
      </trkpt>
      <trkpt lat="45.59346" lon="2.92306">
        <ele>1039.78</ele>
        <time>2021-07-20T15:27:52Z</time>
      </trkpt>
      <trkpt lat="45.59341" lon="2.92292">
        <ele>1039.81</ele>
        <time>2021-07-20T15:27:55Z</time>
      </trkpt>
      <trkpt lat="45.59336" lon="2.9228">
        <ele>1039.88</ele>
        <time>2021-07-20T15:27:58Z</time>
      </trkpt>
      <trkpt lat="45.5933" lon="2.92267">
        <ele>1039.6</ele>
        <time>2021-07-20T15:28:02Z</time>
      </trkpt>
      <trkpt lat="45.59325" lon="2.92254">
        <ele>1038.17</ele>
        <time>2021-07-20T15:28:06Z</time>
      </trkpt>
      <trkpt lat="45.59321" lon="2.9224">
        <ele>1037.71</ele>
        <time>2021-07-20T15:28:12Z</time>
      </trkpt>
      <trkpt lat="45.59315" lon="2.92226">
        <ele>1040.1</ele>
        <time>2021-07-20T15:28:16Z</time>
      </trkpt>
      <trkpt lat="45.59309" lon="2.92212">
        <ele>1039.25</ele>
        <time>2021-07-20T15:28:20Z</time>
      </trkpt>
      <trkpt lat="45.59301" lon="2.92199">
        <ele>1040.67</ele>
        <time>2021-07-20T15:28:24Z</time>
      </trkpt>
      <trkpt lat="45.59292" lon="2.92191">
        <ele>1040.51</ele>
        <time>2021-07-20T15:28:27Z</time>
      </trkpt>
      <trkpt lat="45.59281" lon="2.92183">
        <ele>1041.57</ele>
        <time>2021-07-20T15:28:30Z</time>
      </trkpt>
      <trkpt lat="45.5927" lon="2.9218">
        <ele>1042.14</ele>
        <time>2021-07-20T15:28:33Z</time>
      </trkpt>
      <trkpt lat="45.5926" lon="2.92179">
        <ele>1044.38</ele>
        <time>2021-07-20T15:28:37Z</time>
      </trkpt>
      <trkpt lat="45.59248" lon="2.92176">
        <ele>1045.26</ele>
        <time>2021-07-20T15:28:40Z</time>
      </trkpt>
      <trkpt lat="45.59236" lon="2.92175">
        <ele>1045.63</ele>
        <time>2021-07-20T15:28:42Z</time>
      </trkpt>
      <trkpt lat="45.59227" lon="2.92173">
        <ele>1046.92</ele>
        <time>2021-07-20T15:28:44Z</time>
      </trkpt>
      <trkpt lat="45.59216" lon="2.92169">
        <ele>1046.92</ele>
        <time>2021-07-20T15:28:46Z</time>
      </trkpt>
      <trkpt lat="45.59206" lon="2.92163">
        <ele>1046.78</ele>
        <time>2021-07-20T15:28:48Z</time>
      </trkpt>
      <trkpt lat="45.59195" lon="2.92154">
        <ele>1046.95</ele>
        <time>2021-07-20T15:28:50Z</time>
      </trkpt>
      <trkpt lat="45.59184" lon="2.92139">
        <ele>1045.87</ele>
        <time>2021-07-20T15:28:52Z</time>
      </trkpt>
      <trkpt lat="45.59175" lon="2.92119">
        <ele>1044.35</ele>
        <time>2021-07-20T15:28:54Z</time>
      </trkpt>
      <trkpt lat="45.59168" lon="2.92099">
        <ele>1043.32</ele>
        <time>2021-07-20T15:28:56Z</time>
      </trkpt>
      <trkpt lat="45.59161" lon="2.92076">
        <ele>1042.82</ele>
        <time>2021-07-20T15:28:58Z</time>
      </trkpt>
      <trkpt lat="45.59155" lon="2.92057">
        <ele>1042.27</ele>
        <time>2021-07-20T15:29:00Z</time>
      </trkpt>
      <trkpt lat="45.59148" lon="2.92033">
        <ele>1041.63</ele>
        <time>2021-07-20T15:29:02Z</time>
      </trkpt>
      <trkpt lat="45.59141" lon="2.92011">
        <ele>1041.46</ele>
        <time>2021-07-20T15:29:04Z</time>
      </trkpt>
      <trkpt lat="45.59133" lon="2.91995">
        <ele>1039.38</ele>
        <time>2021-07-20T15:29:06Z</time>
      </trkpt>
      <trkpt lat="45.59128" lon="2.91981">
        <ele>1038.95</ele>
        <time>2021-07-20T15:29:08Z</time>
      </trkpt>
      <trkpt lat="45.59122" lon="2.91964">
        <ele>1037.88</ele>
        <time>2021-07-20T15:29:10Z</time>
      </trkpt>
      <trkpt lat="45.59117" lon="2.9195">
        <ele>1036.88</ele>
        <time>2021-07-20T15:29:12Z</time>
      </trkpt>
      <trkpt lat="45.59111" lon="2.91935">
        <ele>1035.22</ele>
        <time>2021-07-20T15:29:14Z</time>
      </trkpt>
      <trkpt lat="45.59103" lon="2.9192">
        <ele>1035.11</ele>
        <time>2021-07-20T15:29:16Z</time>
      </trkpt>
      <trkpt lat="45.59095" lon="2.91912">
        <ele>1032.04</ele>
        <time>2021-07-20T15:29:18Z</time>
      </trkpt>
      <trkpt lat="45.59083" lon="2.919">
        <ele>1032.07</ele>
        <time>2021-07-20T15:29:20Z</time>
      </trkpt>
      <trkpt lat="45.59071" lon="2.91886">
        <ele>1031.23</ele>
        <time>2021-07-20T15:29:22Z</time>
      </trkpt>
      <trkpt lat="45.59063" lon="2.91877">
        <ele>1029.53</ele>
        <time>2021-07-20T15:29:23Z</time>
      </trkpt>
      <trkpt lat="45.59055" lon="2.9186">
        <ele>1028.69</ele>
        <time>2021-07-20T15:29:25Z</time>
      </trkpt>
      <trkpt lat="45.59048" lon="2.91839">
        <ele>1027.89</ele>
        <time>2021-07-20T15:29:27Z</time>
      </trkpt>
      <trkpt lat="45.59047" lon="2.9182">
        <ele>1029.48</ele>
        <time>2021-07-20T15:29:29Z</time>
      </trkpt>
      <trkpt lat="45.59047" lon="2.918">
        <ele>1030.14</ele>
        <time>2021-07-20T15:29:31Z</time>
      </trkpt>
      <trkpt lat="45.59045" lon="2.91786">
        <ele>1031.19</ele>
        <time>2021-07-20T15:29:33Z</time>
      </trkpt>
      <trkpt lat="45.59034" lon="2.91776">
        <ele>1030.78</ele>
        <time>2021-07-20T15:29:36Z</time>
      </trkpt>
      <trkpt lat="45.59024" lon="2.91776">
        <ele>1029.12</ele>
        <time>2021-07-20T15:29:40Z</time>
      </trkpt>
      <trkpt lat="45.59017" lon="2.91785">
        <ele>1038.34</ele>
        <time>2021-07-20T15:31:52Z</time>
      </trkpt>
      <trkpt lat="45.59008" lon="2.91785">
        <ele>1038.04</ele>
        <time>2021-07-20T15:31:55Z</time>
      </trkpt>
      <trkpt lat="45.58998" lon="2.91786">
        <ele>1034.5</ele>
        <time>2021-07-20T15:31:58Z</time>
      </trkpt>
      <trkpt lat="45.58987" lon="2.91786">
        <ele>1032.55</ele>
        <time>2021-07-20T15:32:01Z</time>
      </trkpt>
      <trkpt lat="45.58975" lon="2.91785">
        <ele>1030.5</ele>
        <time>2021-07-20T15:32:04Z</time>
      </trkpt>
      <trkpt lat="45.58965" lon="2.91783">
        <ele>1025.86</ele>
        <time>2021-07-20T15:32:07Z</time>
      </trkpt>
      <trkpt lat="45.58956" lon="2.91779">
        <ele>1023.47</ele>
        <time>2021-07-20T15:32:10Z</time>
      </trkpt>
      <trkpt lat="45.58945" lon="2.91775">
        <ele>1024.17</ele>
        <time>2021-07-20T15:32:14Z</time>
      </trkpt>
      <trkpt lat="45.58936" lon="2.91767">
        <ele>1025.69</ele>
        <time>2021-07-20T15:32:18Z</time>
      </trkpt>
      <trkpt lat="45.58929" lon="2.91757">
        <ele>1027.18</ele>
        <time>2021-07-20T15:32:22Z</time>
      </trkpt>
      <trkpt lat="45.5892" lon="2.91765">
        <ele>1025.9</ele>
        <time>2021-07-20T15:32:27Z</time>
      </trkpt>
      <trkpt lat="45.58916" lon="2.91778">
        <ele>1027.67</ele>
        <time>2021-07-20T15:32:31Z</time>
      </trkpt>
      <trkpt lat="45.5891" lon="2.91791">
        <ele>1029.85</ele>
        <time>2021-07-20T15:32:37Z</time>
      </trkpt>
      <trkpt lat="45.589" lon="2.91798">
        <ele>1030.34</ele>
        <time>2021-07-20T15:32:42Z</time>
      </trkpt>
      <trkpt lat="45.5889" lon="2.91798">
        <ele>1031.54</ele>
        <time>2021-07-20T15:33:10Z</time>
      </trkpt>
      <trkpt lat="45.58882" lon="2.91792">
        <ele>1033.97</ele>
        <time>2021-07-20T15:33:16Z</time>
      </trkpt>
      <trkpt lat="45.58872" lon="2.91788">
        <ele>1037.08</ele>
        <time>2021-07-20T15:33:23Z</time>
      </trkpt>
      <trkpt lat="45.58863" lon="2.9178">
        <ele>1037</ele>
        <time>2021-07-20T15:33:29Z</time>
      </trkpt>
      <trkpt lat="45.58854" lon="2.91777">
        <ele>1037.44</ele>
        <time>2021-07-20T15:33:35Z</time>
      </trkpt>
      <trkpt lat="45.58845" lon="2.91775">
        <ele>1037.05</ele>
        <time>2021-07-20T15:33:41Z</time>
      </trkpt>
      <trkpt lat="45.58836" lon="2.91772">
        <ele>1037.17</ele>
        <time>2021-07-20T15:33:46Z</time>
      </trkpt>
      <trkpt lat="45.58826" lon="2.91769">
        <ele>1037.15</ele>
        <time>2021-07-20T15:33:51Z</time>
      </trkpt>
      <trkpt lat="45.58816" lon="2.91767">
        <ele>1038.36</ele>
        <time>2021-07-20T15:33:57Z</time>
      </trkpt>
      <trkpt lat="45.58806" lon="2.91767">
        <ele>1038.96</ele>
        <time>2021-07-20T15:34:03Z</time>
      </trkpt>
      <trkpt lat="45.58797" lon="2.91762">
        <ele>1038.44</ele>
        <time>2021-07-20T15:34:08Z</time>
      </trkpt>
      <trkpt lat="45.58788" lon="2.91762">
        <ele>1037.31</ele>
        <time>2021-07-20T15:34:13Z</time>
      </trkpt>
      <trkpt lat="45.58778" lon="2.9176">
        <ele>1036.49</ele>
        <time>2021-07-20T15:34:17Z</time>
      </trkpt>
      <trkpt lat="45.58768" lon="2.91761">
        <ele>1039.13</ele>
        <time>2021-07-20T15:34:22Z</time>
      </trkpt>
      <trkpt lat="45.58757" lon="2.9177">
        <ele>1041.09</ele>
        <time>2021-07-20T15:34:26Z</time>
      </trkpt>
      <trkpt lat="45.58749" lon="2.91778">
        <ele>1042.91</ele>
        <time>2021-07-20T15:34:29Z</time>
      </trkpt>
      <trkpt lat="45.58741" lon="2.91787">
        <ele>1042.62</ele>
        <time>2021-07-20T15:34:32Z</time>
      </trkpt>
      <trkpt lat="45.58732" lon="2.91794">
        <ele>1044.07</ele>
        <time>2021-07-20T15:34:35Z</time>
      </trkpt>
      <trkpt lat="45.58724" lon="2.918">
        <ele>1045.25</ele>
        <time>2021-07-20T15:34:38Z</time>
      </trkpt>
      <trkpt lat="45.58713" lon="2.91805">
        <ele>1045.58</ele>
        <time>2021-07-20T15:34:41Z</time>
      </trkpt>
      <trkpt lat="45.58704" lon="2.9181">
        <ele>1046.1</ele>
        <time>2021-07-20T15:34:44Z</time>
      </trkpt>
      <trkpt lat="45.58694" lon="2.91817">
        <ele>1044.48</ele>
        <time>2021-07-20T15:34:48Z</time>
      </trkpt>
      <trkpt lat="45.58683" lon="2.91822">
        <ele>1044.96</ele>
        <time>2021-07-20T15:34:52Z</time>
      </trkpt>
      <trkpt lat="45.58672" lon="2.91828">
        <ele>1046.07</ele>
        <time>2021-07-20T15:34:56Z</time>
      </trkpt>
      <trkpt lat="45.58663" lon="2.91833">
        <ele>1044.78</ele>
        <time>2021-07-20T15:34:59Z</time>
      </trkpt>
      <trkpt lat="45.58653" lon="2.91839">
        <ele>1045.37</ele>
        <time>2021-07-20T15:35:02Z</time>
      </trkpt>
      <trkpt lat="45.58642" lon="2.91844">
        <ele>1045.92</ele>
        <time>2021-07-20T15:35:05Z</time>
      </trkpt>
      <trkpt lat="45.5863" lon="2.91849">
        <ele>1046.5</ele>
        <time>2021-07-20T15:35:08Z</time>
      </trkpt>
      <trkpt lat="45.58618" lon="2.91854">
        <ele>1046.68</ele>
        <time>2021-07-20T15:35:11Z</time>
      </trkpt>
      <trkpt lat="45.58607" lon="2.91859">
        <ele>1046.88</ele>
        <time>2021-07-20T15:35:14Z</time>
      </trkpt>
      <trkpt lat="45.58596" lon="2.91865">
        <ele>1046.89</ele>
        <time>2021-07-20T15:35:17Z</time>
      </trkpt>
      <trkpt lat="45.58586" lon="2.9187">
        <ele>1048.31</ele>
        <time>2021-07-20T15:35:20Z</time>
      </trkpt>
      <trkpt lat="45.58575" lon="2.91875">
        <ele>1048.38</ele>
        <time>2021-07-20T15:35:23Z</time>
      </trkpt>
      <trkpt lat="45.58564" lon="2.9188">
        <ele>1048.88</ele>
        <time>2021-07-20T15:35:26Z</time>
      </trkpt>
      <trkpt lat="45.58554" lon="2.91884">
        <ele>1048.5</ele>
        <time>2021-07-20T15:35:29Z</time>
      </trkpt>
      <trkpt lat="45.58543" lon="2.91886">
        <ele>1047.57</ele>
        <time>2021-07-20T15:35:32Z</time>
      </trkpt>
      <trkpt lat="45.58533" lon="2.91885">
        <ele>1046.5</ele>
        <time>2021-07-20T15:35:35Z</time>
      </trkpt>
      <trkpt lat="45.58524" lon="2.91882">
        <ele>1047.12</ele>
        <time>2021-07-20T15:35:38Z</time>
      </trkpt>
      <trkpt lat="45.58514" lon="2.91876">
        <ele>1047.64</ele>
        <time>2021-07-20T15:35:41Z</time>
      </trkpt>
      <trkpt lat="45.58505" lon="2.91872">
        <ele>1049.46</ele>
        <time>2021-07-20T15:35:45Z</time>
      </trkpt>
      <trkpt lat="45.58496" lon="2.91868">
        <ele>1050.18</ele>
        <time>2021-07-20T15:35:48Z</time>
      </trkpt>
      <trkpt lat="45.58484" lon="2.91864">
        <ele>1050.22</ele>
        <time>2021-07-20T15:35:51Z</time>
      </trkpt>
      <trkpt lat="45.58475" lon="2.9186">
        <ele>1049.81</ele>
        <time>2021-07-20T15:35:53Z</time>
      </trkpt>
      <trkpt lat="45.58466" lon="2.91855">
        <ele>1049.36</ele>
        <time>2021-07-20T15:35:55Z</time>
      </trkpt>
      <trkpt lat="45.58457" lon="2.91851">
        <ele>1049.96</ele>
        <time>2021-07-20T15:35:57Z</time>
      </trkpt>
      <trkpt lat="45.58447" lon="2.91847">
        <ele>1051.12</ele>
        <time>2021-07-20T15:36:00Z</time>
      </trkpt>
      <trkpt lat="45.58438" lon="2.91843">
        <ele>1051.37</ele>
        <time>2021-07-20T15:36:03Z</time>
      </trkpt>
      <trkpt lat="45.58429" lon="2.9184">
        <ele>1051.39</ele>
        <time>2021-07-20T15:36:06Z</time>
      </trkpt>
      <trkpt lat="45.5842" lon="2.91836">
        <ele>1050.98</ele>
        <time>2021-07-20T15:36:09Z</time>
      </trkpt>
      <trkpt lat="45.58411" lon="2.91832">
        <ele>1050.71</ele>
        <time>2021-07-20T15:36:12Z</time>
      </trkpt>
      <trkpt lat="45.584" lon="2.91827">
        <ele>1050.89</ele>
        <time>2021-07-20T15:36:17Z</time>
      </trkpt>
      <trkpt lat="45.58387" lon="2.9182">
        <ele>1051.21</ele>
        <time>2021-07-20T15:36:20Z</time>
      </trkpt>
      <trkpt lat="45.58375" lon="2.91814">
        <ele>1052.33</ele>
        <time>2021-07-20T15:36:23Z</time>
      </trkpt>
      <trkpt lat="45.58364" lon="2.91806">
        <ele>1051.11</ele>
        <time>2021-07-20T15:36:25Z</time>
      </trkpt>
      <trkpt lat="45.58353" lon="2.91799">
        <ele>1049.91</ele>
        <time>2021-07-20T15:36:28Z</time>
      </trkpt>
      <trkpt lat="45.58343" lon="2.91792">
        <ele>1048.25</ele>
        <time>2021-07-20T15:36:31Z</time>
      </trkpt>
      <trkpt lat="45.58325" lon="2.91776">
        <ele>1045.68</ele>
        <time>2021-07-20T15:36:37Z</time>
      </trkpt>
      <trkpt lat="45.58315" lon="2.91769">
        <ele>1045.86</ele>
        <time>2021-07-20T15:36:40Z</time>
      </trkpt>
      <trkpt lat="45.58307" lon="2.91762">
        <ele>1044.38</ele>
        <time>2021-07-20T15:36:44Z</time>
      </trkpt>
      <trkpt lat="45.58296" lon="2.91758">
        <ele>1043.36</ele>
        <time>2021-07-20T15:36:48Z</time>
      </trkpt>
      <trkpt lat="45.58285" lon="2.91762">
        <ele>1043.96</ele>
        <time>2021-07-20T15:36:51Z</time>
      </trkpt>
      <trkpt lat="45.58265" lon="2.91771">
        <ele>1043.57</ele>
        <time>2021-07-20T15:36:53Z</time>
      </trkpt>
      <trkpt lat="45.58254" lon="2.91773">
        <ele>1042.03</ele>
        <time>2021-07-20T15:36:54Z</time>
      </trkpt>
      <trkpt lat="45.58243" lon="2.91781">
        <ele>1039.2</ele>
        <time>2021-07-20T15:36:56Z</time>
      </trkpt>
      <trkpt lat="45.58231" lon="2.9179">
        <ele>1037.75</ele>
        <time>2021-07-20T15:36:58Z</time>
      </trkpt>
      <trkpt lat="45.58218" lon="2.91798">
        <ele>1036.19</ele>
        <time>2021-07-20T15:37:00Z</time>
      </trkpt>
      <trkpt lat="45.58209" lon="2.91804">
        <ele>1035.04</ele>
        <time>2021-07-20T15:37:02Z</time>
      </trkpt>
      <trkpt lat="45.58199" lon="2.91808">
        <ele>1034.02</ele>
        <time>2021-07-20T15:37:04Z</time>
      </trkpt>
      <trkpt lat="45.58189" lon="2.91812">
        <ele>1031.31</ele>
        <time>2021-07-20T15:37:06Z</time>
      </trkpt>
      <trkpt lat="45.58179" lon="2.91816">
        <ele>1031.16</ele>
        <time>2021-07-20T15:37:08Z</time>
      </trkpt>
      <trkpt lat="45.58169" lon="2.91823">
        <ele>1029.62</ele>
        <time>2021-07-20T15:37:11Z</time>
      </trkpt>
      <trkpt lat="45.5816" lon="2.91829">
        <ele>1025.25</ele>
        <time>2021-07-20T15:37:17Z</time>
      </trkpt>
      <trkpt lat="45.58151" lon="2.91835">
        <ele>1025.37</ele>
        <time>2021-07-20T15:37:21Z</time>
      </trkpt>
      <trkpt lat="45.5814" lon="2.91835">
        <ele>1025.75</ele>
        <time>2021-07-20T15:37:26Z</time>
      </trkpt>
      <trkpt lat="45.58129" lon="2.91835">
        <ele>1025.92</ele>
        <time>2021-07-20T15:37:29Z</time>
      </trkpt>
      <trkpt lat="45.58118" lon="2.91833">
        <ele>1026.52</ele>
        <time>2021-07-20T15:37:32Z</time>
      </trkpt>
      <trkpt lat="45.58106" lon="2.91835">
        <ele>1023.21</ele>
        <time>2021-07-20T15:37:35Z</time>
      </trkpt>
      <trkpt lat="45.58096" lon="2.91842">
        <ele>1021.38</ele>
        <time>2021-07-20T15:37:37Z</time>
      </trkpt>
      <trkpt lat="45.58085" lon="2.91846">
        <ele>1020.67</ele>
        <time>2021-07-20T15:37:40Z</time>
      </trkpt>
      <trkpt lat="45.58073" lon="2.91847">
        <ele>1020.07</ele>
        <time>2021-07-20T15:37:44Z</time>
      </trkpt>
      <trkpt lat="45.58064" lon="2.91847">
        <ele>1012.94</ele>
        <time>2021-07-20T15:37:49Z</time>
      </trkpt>
      <trkpt lat="45.58055" lon="2.91836">
        <ele>1007.26</ele>
        <time>2021-07-20T15:37:53Z</time>
      </trkpt>
      <trkpt lat="45.58052" lon="2.91822">
        <ele>1007.14</ele>
        <time>2021-07-20T15:37:58Z</time>
      </trkpt>
      <trkpt lat="45.58044" lon="2.9181">
        <ele>1005</ele>
        <time>2021-07-20T15:38:02Z</time>
      </trkpt>
      <trkpt lat="45.58034" lon="2.91804">
        <ele>1004.36</ele>
        <time>2021-07-20T15:38:05Z</time>
      </trkpt>
      <trkpt lat="45.58026" lon="2.91797">
        <ele>1004.01</ele>
        <time>2021-07-20T15:38:08Z</time>
      </trkpt>
      <trkpt lat="45.58021" lon="2.91786">
        <ele>1001.89</ele>
        <time>2021-07-20T15:38:11Z</time>
      </trkpt>
      <trkpt lat="45.58016" lon="2.91774">
        <ele>997.77</ele>
        <time>2021-07-20T15:38:15Z</time>
      </trkpt>
      <trkpt lat="45.58005" lon="2.91771">
        <ele>991.21</ele>
        <time>2021-07-20T15:38:19Z</time>
      </trkpt>
      <trkpt lat="45.57994" lon="2.91775">
        <ele>986.83</ele>
        <time>2021-07-20T15:38:22Z</time>
      </trkpt>
      <trkpt lat="45.57983" lon="2.91777">
        <ele>981.29</ele>
        <time>2021-07-20T15:38:26Z</time>
      </trkpt>
      <trkpt lat="45.57973" lon="2.91775">
        <ele>979.29</ele>
        <time>2021-07-20T15:38:30Z</time>
      </trkpt>
      <trkpt lat="45.57963" lon="2.91768">
        <ele>977.41</ele>
        <time>2021-07-20T15:38:34Z</time>
      </trkpt>
      <trkpt lat="45.57957" lon="2.91758">
        <ele>974.28</ele>
        <time>2021-07-20T15:38:37Z</time>
      </trkpt>
      <trkpt lat="45.5795" lon="2.91749">
        <ele>971.48</ele>
        <time>2021-07-20T15:38:40Z</time>
      </trkpt>
      <trkpt lat="45.57942" lon="2.91742">
        <ele>970.94</ele>
        <time>2021-07-20T15:38:43Z</time>
      </trkpt>
      <trkpt lat="45.57932" lon="2.91735">
        <ele>968.97</ele>
        <time>2021-07-20T15:38:47Z</time>
      </trkpt>
      <trkpt lat="45.57925" lon="2.91727">
        <ele>965.05</ele>
        <time>2021-07-20T15:38:52Z</time>
      </trkpt>
      <trkpt lat="45.57918" lon="2.91716">
        <ele>964.31</ele>
        <time>2021-07-20T15:38:55Z</time>
      </trkpt>
      <trkpt lat="45.57915" lon="2.91704">
        <ele>962.98</ele>
        <time>2021-07-20T15:38:58Z</time>
      </trkpt>
      <trkpt lat="45.57917" lon="2.91688">
        <ele>961.23</ele>
        <time>2021-07-20T15:39:03Z</time>
      </trkpt>
      <trkpt lat="45.57915" lon="2.91673">
        <ele>958.72</ele>
        <time>2021-07-20T15:39:07Z</time>
      </trkpt>
      <trkpt lat="45.57913" lon="2.91661">
        <ele>957.36</ele>
        <time>2021-07-20T15:39:09Z</time>
      </trkpt>
      <trkpt lat="45.57906" lon="2.9165">
        <ele>955.85</ele>
        <time>2021-07-20T15:39:12Z</time>
      </trkpt>
      <trkpt lat="45.57896" lon="2.91647">
        <ele>955.62</ele>
        <time>2021-07-20T15:39:15Z</time>
      </trkpt>
      <trkpt lat="45.57884" lon="2.91649">
        <ele>954.31</ele>
        <time>2021-07-20T15:39:18Z</time>
      </trkpt>
      <trkpt lat="45.57874" lon="2.9165">
        <ele>954.82</ele>
        <time>2021-07-20T15:39:19Z</time>
      </trkpt>
      <trkpt lat="45.57864" lon="2.91651">
        <ele>955.24</ele>
        <time>2021-07-20T15:39:21Z</time>
      </trkpt>
      <trkpt lat="45.57859" lon="2.91662">
        <ele>957.43</ele>
        <time>2021-07-20T15:39:26Z</time>
      </trkpt>
      <trkpt lat="45.57856" lon="2.91674">
        <ele>960.81</ele>
        <time>2021-07-20T15:42:02Z</time>
      </trkpt>
      <trkpt lat="45.57863" lon="2.91687">
        <ele>960.38</ele>
        <time>2021-07-20T15:43:02Z</time>
      </trkpt>
      <trkpt lat="45.57862" lon="2.91701">
        <ele>957.96</ele>
        <time>2021-07-20T15:43:05Z</time>
      </trkpt>
      <trkpt lat="45.57857" lon="2.91717">
        <ele>958.19</ele>
        <time>2021-07-20T15:43:08Z</time>
      </trkpt>
      <trkpt lat="45.57847" lon="2.91726">
        <ele>957.28</ele>
        <time>2021-07-20T15:43:10Z</time>
      </trkpt>
      <trkpt lat="45.57839" lon="2.91736">
        <ele>954.44</ele>
        <time>2021-07-20T15:43:12Z</time>
      </trkpt>
      <trkpt lat="45.57832" lon="2.91746">
        <ele>952.53</ele>
        <time>2021-07-20T15:43:14Z</time>
      </trkpt>
      <trkpt lat="45.57823" lon="2.91757">
        <ele>949.87</ele>
        <time>2021-07-20T15:43:16Z</time>
      </trkpt>
      <trkpt lat="45.57814" lon="2.91767">
        <ele>947.93</ele>
        <time>2021-07-20T15:43:18Z</time>
      </trkpt>
      <trkpt lat="45.57807" lon="2.91779">
        <ele>947.29</ele>
        <time>2021-07-20T15:43:20Z</time>
      </trkpt>
      <trkpt lat="45.578" lon="2.91793">
        <ele>946.14</ele>
        <time>2021-07-20T15:43:22Z</time>
      </trkpt>
      <trkpt lat="45.57796" lon="2.91805">
        <ele>946.59</ele>
        <time>2021-07-20T15:43:24Z</time>
      </trkpt>
      <trkpt lat="45.5779" lon="2.91823">
        <ele>947.65</ele>
        <time>2021-07-20T15:43:27Z</time>
      </trkpt>
      <trkpt lat="45.57788" lon="2.9184">
        <ele>946.82</ele>
        <time>2021-07-20T15:43:30Z</time>
      </trkpt>
      <trkpt lat="45.57785" lon="2.91854">
        <ele>945.2</ele>
        <time>2021-07-20T15:43:32Z</time>
      </trkpt>
      <trkpt lat="45.57782" lon="2.91867">
        <ele>942.71</ele>
        <time>2021-07-20T15:43:36Z</time>
      </trkpt>
      <trkpt lat="45.57777" lon="2.91884">
        <ele>938.66</ele>
        <time>2021-07-20T15:43:40Z</time>
      </trkpt>
      <trkpt lat="45.57769" lon="2.91909">
        <ele>935.63</ele>
        <time>2021-07-20T15:43:43Z</time>
      </trkpt>
      <trkpt lat="45.57759" lon="2.91936">
        <ele>936.16</ele>
        <time>2021-07-20T15:43:44Z</time>
      </trkpt>
      <trkpt lat="45.57753" lon="2.91952">
        <ele>935.36</ele>
        <time>2021-07-20T15:43:46Z</time>
      </trkpt>
      <trkpt lat="45.57748" lon="2.91965">
        <ele>934.26</ele>
        <time>2021-07-20T15:43:48Z</time>
      </trkpt>
      <trkpt lat="45.57744" lon="2.91979">
        <ele>932.96</ele>
        <time>2021-07-20T15:43:50Z</time>
      </trkpt>
      <trkpt lat="45.57738" lon="2.91996">
        <ele>932.18</ele>
        <time>2021-07-20T15:43:52Z</time>
      </trkpt>
      <trkpt lat="45.57731" lon="2.92007">
        <ele>931.22</ele>
        <time>2021-07-20T15:43:54Z</time>
      </trkpt>
      <trkpt lat="45.57725" lon="2.92022">
        <ele>930.29</ele>
        <time>2021-07-20T15:43:56Z</time>
      </trkpt>
      <trkpt lat="45.57717" lon="2.92037">
        <ele>926.14</ele>
        <time>2021-07-20T15:43:58Z</time>
      </trkpt>
      <trkpt lat="45.57707" lon="2.92054">
        <ele>924.83</ele>
        <time>2021-07-20T15:44:00Z</time>
      </trkpt>
      <trkpt lat="45.57699" lon="2.92064">
        <ele>922.83</ele>
        <time>2021-07-20T15:44:01Z</time>
      </trkpt>
      <trkpt lat="45.57693" lon="2.92073">
        <ele>923.1</ele>
        <time>2021-07-20T15:44:02Z</time>
      </trkpt>
      <trkpt lat="45.57682" lon="2.92094">
        <ele>921.91</ele>
        <time>2021-07-20T15:44:04Z</time>
      </trkpt>
      <trkpt lat="45.57672" lon="2.92116">
        <ele>920.91</ele>
        <time>2021-07-20T15:44:06Z</time>
      </trkpt>
      <trkpt lat="45.57668" lon="2.92129">
        <ele>919.76</ele>
        <time>2021-07-20T15:44:07Z</time>
      </trkpt>
      <trkpt lat="45.57661" lon="2.92139">
        <ele>918.15</ele>
        <time>2021-07-20T15:44:08Z</time>
      </trkpt>
      <trkpt lat="45.57654" lon="2.92148">
        <ele>916.81</ele>
        <time>2021-07-20T15:44:09Z</time>
      </trkpt>
      <trkpt lat="45.57647" lon="2.92159">
        <ele>915.93</ele>
        <time>2021-07-20T15:44:10Z</time>
      </trkpt>
      <trkpt lat="45.5764" lon="2.92173">
        <ele>914.16</ele>
        <time>2021-07-20T15:44:11Z</time>
      </trkpt>
      <trkpt lat="45.57632" lon="2.92185">
        <ele>912.39</ele>
        <time>2021-07-20T15:44:12Z</time>
      </trkpt>
      <trkpt lat="45.57624" lon="2.92197">
        <ele>911.5</ele>
        <time>2021-07-20T15:44:13Z</time>
      </trkpt>
      <trkpt lat="45.57616" lon="2.9221">
        <ele>909.85</ele>
        <time>2021-07-20T15:44:14Z</time>
      </trkpt>
      <trkpt lat="45.57608" lon="2.92222">
        <ele>908.87</ele>
        <time>2021-07-20T15:44:15Z</time>
      </trkpt>
      <trkpt lat="45.57602" lon="2.92232">
        <ele>907.83</ele>
        <time>2021-07-20T15:44:16Z</time>
      </trkpt>
      <trkpt lat="45.57595" lon="2.92243">
        <ele>907.43</ele>
        <time>2021-07-20T15:44:17Z</time>
      </trkpt>
      <trkpt lat="45.57589" lon="2.92253">
        <ele>907.36</ele>
        <time>2021-07-20T15:44:18Z</time>
      </trkpt>
      <trkpt lat="45.57583" lon="2.92263">
        <ele>907.15</ele>
        <time>2021-07-20T15:44:19Z</time>
      </trkpt>
      <trkpt lat="45.57575" lon="2.92282">
        <ele>907.36</ele>
        <time>2021-07-20T15:44:21Z</time>
      </trkpt>
      <trkpt lat="45.57566" lon="2.92297">
        <ele>906.84</ele>
        <time>2021-07-20T15:44:23Z</time>
      </trkpt>
      <trkpt lat="45.57552" lon="2.92309">
        <ele>907.96</ele>
        <time>2021-07-20T15:44:25Z</time>
      </trkpt>
      <trkpt lat="45.57538" lon="2.92322">
        <ele>907.94</ele>
        <time>2021-07-20T15:44:27Z</time>
      </trkpt>
      <trkpt lat="45.57526" lon="2.92335">
        <ele>905.62</ele>
        <time>2021-07-20T15:44:29Z</time>
      </trkpt>
      <trkpt lat="45.57517" lon="2.92345">
        <ele>903.47</ele>
        <time>2021-07-20T15:44:31Z</time>
      </trkpt>
      <trkpt lat="45.57507" lon="2.92353">
        <ele>902.63</ele>
        <time>2021-07-20T15:44:34Z</time>
      </trkpt>
      <trkpt lat="45.57513" lon="2.92363">
        <ele>903.61</ele>
        <time>2021-07-20T15:44:58Z</time>
      </trkpt>
      <trkpt lat="45.57523" lon="2.92373">
        <ele>902.87</ele>
        <time>2021-07-20T15:45:34Z</time>
      </trkpt>
      <trkpt lat="45.57529" lon="2.92381">
        <ele>903.83</ele>
        <time>2021-07-20T15:45:37Z</time>
      </trkpt>
      <trkpt lat="45.57536" lon="2.92393">
        <ele>905.72</ele>
        <time>2021-07-20T15:45:40Z</time>
      </trkpt>
      <trkpt lat="45.57541" lon="2.92409">
        <ele>905.24</ele>
        <time>2021-07-20T15:45:43Z</time>
      </trkpt>
      <trkpt lat="45.57543" lon="2.92425">
        <ele>906.27</ele>
        <time>2021-07-20T15:45:46Z</time>
      </trkpt>
      <trkpt lat="45.57542" lon="2.92411">
        <ele>906.49</ele>
        <time>2021-07-20T15:46:15Z</time>
      </trkpt>
      <trkpt lat="45.57541" lon="2.92397">
        <ele>904.61</ele>
        <time>2021-07-20T15:46:23Z</time>
      </trkpt>
      <trkpt lat="45.57538" lon="2.92385">
        <ele>907.45</ele>
        <time>2021-07-20T15:46:27Z</time>
      </trkpt>
      <trkpt lat="45.5753" lon="2.92375">
        <ele>907</ele>
        <time>2021-07-20T15:46:31Z</time>
      </trkpt>
      <trkpt lat="45.5752" lon="2.92367">
        <ele>907.17</ele>
        <time>2021-07-20T15:46:35Z</time>
      </trkpt>
      <trkpt lat="45.57511" lon="2.92359">
        <ele>906.89</ele>
        <time>2021-07-20T15:46:39Z</time>
      </trkpt>
      <trkpt lat="45.57505" lon="2.92368">
        <ele>909.5</ele>
        <time>2021-07-20T15:46:55Z</time>
      </trkpt>
      <trkpt lat="45.57501" lon="2.92381">
        <ele>906.03</ele>
        <time>2021-07-20T15:46:59Z</time>
      </trkpt>
      <trkpt lat="45.57494" lon="2.92391">
        <ele>902.41</ele>
        <time>2021-07-20T15:47:03Z</time>
      </trkpt>
      <trkpt lat="45.57483" lon="2.92386">
        <ele>899.87</ele>
        <time>2021-07-20T15:47:07Z</time>
      </trkpt>
      <trkpt lat="45.57475" lon="2.9238">
        <ele>896.48</ele>
        <time>2021-07-20T15:47:11Z</time>
      </trkpt>
      <trkpt lat="45.57464" lon="2.92377">
        <ele>897.11</ele>
        <time>2021-07-20T15:47:15Z</time>
      </trkpt>
      <trkpt lat="45.57453" lon="2.92377">
        <ele>897.02</ele>
        <time>2021-07-20T15:47:19Z</time>
      </trkpt>
      <trkpt lat="45.57442" lon="2.92377">
        <ele>896.05</ele>
        <time>2021-07-20T15:47:22Z</time>
      </trkpt>
      <trkpt lat="45.5743" lon="2.92376">
        <ele>896.96</ele>
        <time>2021-07-20T15:47:25Z</time>
      </trkpt>
      <trkpt lat="45.57421" lon="2.92376">
        <ele>897.37</ele>
        <time>2021-07-20T15:47:29Z</time>
      </trkpt>
      <trkpt lat="45.57411" lon="2.92373">
        <ele>893.92</ele>
        <time>2021-07-20T15:47:47Z</time>
      </trkpt>
      <trkpt lat="45.57403" lon="2.92378">
        <ele>893.04</ele>
        <time>2021-07-20T15:47:59Z</time>
      </trkpt>
      <trkpt lat="45.57394" lon="2.92374">
        <ele>891.51</ele>
        <time>2021-07-20T15:48:13Z</time>
      </trkpt>
      <trkpt lat="45.57384" lon="2.92372">
        <ele>889.73</ele>
        <time>2021-07-20T15:48:39Z</time>
      </trkpt>
      <trkpt lat="45.57376" lon="2.92366">
        <ele>874.39</ele>
        <time>2021-07-20T15:49:50Z</time>
      </trkpt>
      <trkpt lat="45.57366" lon="2.92368">
        <ele>875.75</ele>
        <time>2021-07-20T15:49:59Z</time>
      </trkpt>
      <trkpt lat="45.57364" lon="2.92381">
        <ele>876.72</ele>
        <time>2021-07-20T15:50:30Z</time>
      </trkpt>
      <trkpt lat="45.57364" lon="2.92394">
        <ele>876.71</ele>
        <time>2021-07-20T15:50:35Z</time>
      </trkpt>
      <trkpt lat="45.57366" lon="2.92409">
        <ele>875.33</ele>
        <time>2021-07-20T15:50:40Z</time>
      </trkpt>
      <trkpt lat="45.57365" lon="2.92423">
        <ele>875.13</ele>
        <time>2021-07-20T15:50:46Z</time>
      </trkpt>
      <trkpt lat="45.57364" lon="2.92436">
        <ele>876.19</ele>
        <time>2021-07-20T15:50:53Z</time>
      </trkpt>
      <trkpt lat="45.57363" lon="2.92451">
        <ele>880.34</ele>
        <time>2021-07-20T15:51:04Z</time>
      </trkpt>
      <trkpt lat="45.57363" lon="2.92465">
        <ele>880.12</ele>
        <time>2021-07-20T15:51:10Z</time>
      </trkpt>
      <trkpt lat="45.57362" lon="2.92478">
        <ele>880.78</ele>
        <time>2021-07-20T15:51:14Z</time>
      </trkpt>
      <trkpt lat="45.57362" lon="2.92491">
        <ele>881.61</ele>
        <time>2021-07-20T15:51:23Z</time>
      </trkpt>
      <trkpt lat="45.57369" lon="2.925">
        <ele>883.49</ele>
        <time>2021-07-20T15:51:48Z</time>
      </trkpt>
    </trkseg>
  </trk>
</gpx>